<?xml version="1.0" encoding="UTF-8" standalone="no" ?>
<gpx xmlns="http://www.topografix.com/GPX/1/1" xmlns:xsi="http://www.w3.org/2001/XMLSchema-instance" xsi:schemaLocation="http://www.topografix.com/GPX/1/1 http://www.topografix.com/GPX/1/1/gpx.xsd" version="1.1" creator="VisuGPX - https://www.visugpx.com">
  <metadata>
    <name>58 CCC Flemalle Walkenburg Flemalle</name>
    <desc><![CDATA[Randonnée au départ de l'Auto5 de Flémalle.
Flémalle - Seraing - Ans - Lantin - Whogne - Glons - Roclenge-sur-Geer - Val-Meer - Lahaye - Moëlingen - Mesch - Rijckholt - Gronsveld - Houthem - Vakenburg - Sibbe - Reijmerstk - Banholt - Mheer - Mesch - Moëlingen - Visé - Haccourt - Heure-le-Romain - Liers - Villers-St-Siméon - Lantin - Ans - Seraing - Flémalle.]]></desc>
  </metadata>
  <trk>
    <name><![CDATA[58 CCC]]></name>
    <extensions>
      <line xmlns="http://www.topografix.com/GPX/gpx_style/0/2">
        <color>0000FF</color>
        <width>4</width>
      </line>
    </extensions>
    <trkseg>
      <trkpt lat="50.6043" lon="5.48402">
        <ele>65.8</ele>
      </trkpt>
      <trkpt lat="50.6043" lon="5.48402">
        <ele>65.8</ele>
      </trkpt>
      <trkpt lat="50.6043" lon="5.48402">
        <ele>65.8</ele>
      </trkpt>
      <trkpt lat="50.6043" lon="5.48402">
        <ele>65.8</ele>
      </trkpt>
      <trkpt lat="50.60402" lon="5.48436">
        <ele>64.7</ele>
      </trkpt>
      <trkpt lat="50.60349" lon="5.48519">
        <ele>64</ele>
      </trkpt>
      <trkpt lat="50.60366" lon="5.48546">
        <ele>63</ele>
      </trkpt>
      <trkpt lat="50.60377" lon="5.4853">
        <ele>63.6</ele>
      </trkpt>
      <trkpt lat="50.60398" lon="5.48502">
        <ele>63.8</ele>
      </trkpt>
      <trkpt lat="50.60439" lon="5.48454">
        <ele>65.3</ele>
      </trkpt>
      <trkpt lat="50.6046" lon="5.48429">
        <ele>65.7</ele>
      </trkpt>
      <trkpt lat="50.60474" lon="5.48411">
        <ele>66.6</ele>
      </trkpt>
      <trkpt lat="50.60487" lon="5.48397">
        <ele>44.400001525879</ele>
        <time>2019-03-30T06:47:13.000Z</time>
      </trkpt>
      <trkpt lat="50.60499" lon="5.48399">
        <ele>44.400001525879</ele>
        <time>2019-03-30T06:47:16.000Z</time>
      </trkpt>
      <trkpt lat="50.60509" lon="5.48416">
        <ele>44.400001525879</ele>
        <time>2019-03-30T06:47:20.000Z</time>
      </trkpt>
      <trkpt lat="50.60532" lon="5.4846">
        <ele>66.5</ele>
      </trkpt>
      <trkpt lat="50.6057" lon="5.48549">
        <ele>64.7</ele>
      </trkpt>
      <trkpt lat="50.60595" lon="5.48606">
        <ele>44.599998474121</ele>
        <time>2019-03-30T06:47:46.000Z</time>
      </trkpt>
      <trkpt lat="50.60624" lon="5.48669">
        <ele>43.599998474121</ele>
        <time>2019-03-30T06:47:52.000Z</time>
      </trkpt>
      <trkpt lat="50.60624" lon="5.48669">
        <ele>43.400001525879</ele>
        <time>2019-03-30T06:47:53.000Z</time>
      </trkpt>
      <trkpt lat="50.60662" lon="5.48753">
        <ele>64</ele>
      </trkpt>
      <trkpt lat="50.60687" lon="5.48802">
        <ele>42</ele>
        <time>2019-03-30T06:48:09.000Z</time>
      </trkpt>
      <trkpt lat="50.60752" lon="5.48934">
        <ele>64.3</ele>
      </trkpt>
      <trkpt lat="50.60789" lon="5.49005">
        <ele>65.6</ele>
      </trkpt>
      <trkpt lat="50.60818" lon="5.49058">
        <ele>65.7</ele>
      </trkpt>
      <trkpt lat="50.60846" lon="5.49108">
        <ele>65</ele>
      </trkpt>
      <trkpt lat="50.60879" lon="5.49159">
        <ele>64.7</ele>
      </trkpt>
      <trkpt lat="50.60916" lon="5.49213">
        <ele>65.5</ele>
      </trkpt>
      <trkpt lat="50.60988" lon="5.49325">
        <ele>65.3</ele>
      </trkpt>
      <trkpt lat="50.6104" lon="5.49401">
        <ele>63.2</ele>
      </trkpt>
      <trkpt lat="50.61076" lon="5.49457">
        <ele>63</ele>
      </trkpt>
      <trkpt lat="50.6111" lon="5.49507">
        <ele>64.6</ele>
      </trkpt>
      <trkpt lat="50.61142" lon="5.49555">
        <ele>65.6</ele>
      </trkpt>
      <trkpt lat="50.61186" lon="5.49624">
        <ele>67.8</ele>
      </trkpt>
      <trkpt lat="50.61236" lon="5.497">
        <ele>65.7</ele>
      </trkpt>
      <trkpt lat="50.61299" lon="5.49809">
        <ele>60.8</ele>
      </trkpt>
      <trkpt lat="50.6134" lon="5.49878">
        <ele>61.5</ele>
      </trkpt>
      <trkpt lat="50.6139" lon="5.49962">
        <ele>62.4</ele>
      </trkpt>
      <trkpt lat="50.61437" lon="5.50042">
        <ele>63.5</ele>
      </trkpt>
      <trkpt lat="50.61453" lon="5.50073">
        <ele>64</ele>
      </trkpt>
      <trkpt lat="50.61467" lon="5.50092">
        <ele>63.3</ele>
      </trkpt>
      <trkpt lat="50.61484" lon="5.5007">
        <ele>63.3</ele>
      </trkpt>
      <trkpt lat="50.61504" lon="5.50052">
        <ele>40.799999237061</ele>
        <time>2019-03-30T06:51:43.000Z</time>
      </trkpt>
      <trkpt lat="50.61528" lon="5.50031">
        <ele>40.799999237061</ele>
        <time>2019-03-30T06:51:50.000Z</time>
      </trkpt>
      <trkpt lat="50.61589" lon="5.4998">
        <ele>64.9</ele>
      </trkpt>
      <trkpt lat="50.6161" lon="5.49953">
        <ele>65.3</ele>
      </trkpt>
      <trkpt lat="50.61627" lon="5.49934">
        <ele>65.5</ele>
      </trkpt>
      <trkpt lat="50.6166" lon="5.49896">
        <ele>65.4</ele>
      </trkpt>
      <trkpt lat="50.6169" lon="5.49855">
        <ele>42.799999237061</ele>
        <time>2019-03-30T06:52:31.000Z</time>
      </trkpt>
      <trkpt lat="50.61722" lon="5.49838">
        <ele>43</ele>
        <time>2019-03-30T06:52:37.000Z</time>
      </trkpt>
      <trkpt lat="50.61758" lon="5.49819">
        <ele>43.799999237061</ele>
        <time>2019-03-30T06:52:44.000Z</time>
      </trkpt>
      <trkpt lat="50.61768" lon="5.49814">
        <ele>43.799999237061</ele>
        <time>2019-03-30T06:52:46.000Z</time>
      </trkpt>
      <trkpt lat="50.61806" lon="5.4979">
        <ele>44.400001525879</ele>
        <time>2019-03-30T06:52:54.000Z</time>
      </trkpt>
      <trkpt lat="50.61824" lon="5.49775">
        <ele>44.799999237061</ele>
        <time>2019-03-30T06:52:58.000Z</time>
      </trkpt>
      <trkpt lat="50.6185" lon="5.49749">
        <ele>70.8</ele>
      </trkpt>
      <trkpt lat="50.61862" lon="5.49735">
        <ele>71.2</ele>
      </trkpt>
      <trkpt lat="50.61926" lon="5.49675">
        <ele>73.1</ele>
      </trkpt>
      <trkpt lat="50.61943" lon="5.49656">
        <ele>74.8</ele>
      </trkpt>
      <trkpt lat="50.61984" lon="5.49611">
        <ele>76.6</ele>
      </trkpt>
      <trkpt lat="50.62025" lon="5.496">
        <ele>78.6</ele>
      </trkpt>
      <trkpt lat="50.62073" lon="5.49596">
        <ele>79.1</ele>
      </trkpt>
      <trkpt lat="50.62089" lon="5.49596">
        <ele>79.7</ele>
      </trkpt>
      <trkpt lat="50.62148" lon="5.496">
        <ele>79.9</ele>
      </trkpt>
      <trkpt lat="50.62162" lon="5.49608">
        <ele>79.9</ele>
      </trkpt>
      <trkpt lat="50.62169" lon="5.49604">
        <ele>80</ele>
      </trkpt>
      <trkpt lat="50.62176" lon="5.49595">
        <ele>79.7</ele>
      </trkpt>
      <trkpt lat="50.62182" lon="5.49581">
        <ele>79.5</ele>
      </trkpt>
      <trkpt lat="50.62194" lon="5.49569">
        <ele>80</ele>
      </trkpt>
      <trkpt lat="50.62205" lon="5.49561">
        <ele>80</ele>
      </trkpt>
      <trkpt lat="50.62233" lon="5.49542">
        <ele>80.3</ele>
      </trkpt>
      <trkpt lat="50.62267" lon="5.49516">
        <ele>83.2</ele>
      </trkpt>
      <trkpt lat="50.6231" lon="5.49485">
        <ele>83.5</ele>
      </trkpt>
      <trkpt lat="50.62346" lon="5.49457">
        <ele>86.7</ele>
      </trkpt>
      <trkpt lat="50.62365" lon="5.49434">
        <ele>86.8</ele>
      </trkpt>
      <trkpt lat="50.62377" lon="5.49411">
        <ele>84.4</ele>
      </trkpt>
      <trkpt lat="50.62383" lon="5.49388">
        <ele>84.4</ele>
      </trkpt>
      <trkpt lat="50.62386" lon="5.49357">
        <ele>83.9</ele>
      </trkpt>
      <trkpt lat="50.62388" lon="5.49326">
        <ele>83.2</ele>
      </trkpt>
      <trkpt lat="50.62389" lon="5.49273">
        <ele>83.2</ele>
      </trkpt>
      <trkpt lat="50.6239" lon="5.49233">
        <ele>84.4</ele>
      </trkpt>
      <trkpt lat="50.62398" lon="5.49171">
        <ele>84.4</ele>
      </trkpt>
      <trkpt lat="50.62407" lon="5.49135">
        <ele>87</ele>
      </trkpt>
      <trkpt lat="50.62417" lon="5.49107">
        <ele>85.7</ele>
      </trkpt>
      <trkpt lat="50.62424" lon="5.49088">
        <ele>85.9</ele>
      </trkpt>
      <trkpt lat="50.6244" lon="5.49048">
        <ele>87.3</ele>
      </trkpt>
      <trkpt lat="50.62453" lon="5.49017">
        <ele>87.6</ele>
      </trkpt>
      <trkpt lat="50.62465" lon="5.4899">
        <ele>89.2</ele>
      </trkpt>
      <trkpt lat="50.62476" lon="5.48968">
        <ele>89</ele>
      </trkpt>
      <trkpt lat="50.62489" lon="5.48947">
        <ele>89.4</ele>
      </trkpt>
      <trkpt lat="50.62496" lon="5.48926">
        <ele>88.8</ele>
      </trkpt>
      <trkpt lat="50.62504" lon="5.48904">
        <ele>88.6</ele>
      </trkpt>
      <trkpt lat="50.62513" lon="5.48873">
        <ele>89</ele>
      </trkpt>
      <trkpt lat="50.62524" lon="5.48838">
        <ele>89</ele>
      </trkpt>
      <trkpt lat="50.62535" lon="5.48802">
        <ele>88.4</ele>
      </trkpt>
      <trkpt lat="50.62545" lon="5.48779">
        <ele>88.2</ele>
      </trkpt>
      <trkpt lat="50.62555" lon="5.48757">
        <ele>88</ele>
      </trkpt>
      <trkpt lat="50.62566" lon="5.48747">
        <ele>88</ele>
      </trkpt>
      <trkpt lat="50.62576" lon="5.48734">
        <ele>88</ele>
      </trkpt>
      <trkpt lat="50.62606" lon="5.48707">
        <ele>88.3</ele>
      </trkpt>
      <trkpt lat="50.6265" lon="5.4868">
        <ele>63.400001525879</ele>
        <time>2019-03-30T06:56:45.000Z</time>
      </trkpt>
      <trkpt lat="50.62703" lon="5.48654">
        <ele>90</ele>
      </trkpt>
      <trkpt lat="50.62748" lon="5.48627">
        <ele>64.400001525879</ele>
        <time>2019-03-30T06:57:03.000Z</time>
      </trkpt>
      <trkpt lat="50.62758" lon="5.48622">
        <ele>64.599998474121</ele>
        <time>2019-03-30T06:57:05.000Z</time>
      </trkpt>
      <trkpt lat="50.62789" lon="5.48604">
        <ele>65</ele>
        <time>2019-03-30T06:57:10.000Z</time>
      </trkpt>
      <trkpt lat="50.62799" lon="5.48596">
        <ele>65.400001525879</ele>
        <time>2019-03-30T06:57:13.000Z</time>
      </trkpt>
      <trkpt lat="50.62811" lon="5.48578">
        <ele>92.2</ele>
      </trkpt>
      <trkpt lat="50.62824" lon="5.48563">
        <ele>66.199996948242</ele>
        <time>2019-03-30T06:57:18.000Z</time>
      </trkpt>
      <trkpt lat="50.6284" lon="5.48539">
        <ele>66.800003051758</ele>
        <time>2019-03-30T06:57:22.000Z</time>
      </trkpt>
      <trkpt lat="50.62847" lon="5.48527">
        <ele>67.199996948242</ele>
        <time>2019-03-30T06:57:25.000Z</time>
      </trkpt>
      <trkpt lat="50.62858" lon="5.48505">
        <ele>96.1</ele>
      </trkpt>
      <trkpt lat="50.62876" lon="5.48471">
        <ele>95.5</ele>
      </trkpt>
      <trkpt lat="50.62885" lon="5.48457">
        <ele>68.800003051758</ele>
        <time>2019-03-30T06:57:36.000Z</time>
      </trkpt>
      <trkpt lat="50.629" lon="5.48436">
        <ele>95.4</ele>
      </trkpt>
      <trkpt lat="50.62915" lon="5.48423">
        <ele>95.1</ele>
      </trkpt>
      <trkpt lat="50.62936" lon="5.48418">
        <ele>70.199996948242</ele>
        <time>2019-03-30T06:57:47.000Z</time>
      </trkpt>
      <trkpt lat="50.62968" lon="5.48406">
        <ele>96.9</ele>
      </trkpt>
      <trkpt lat="50.63007" lon="5.48395">
        <ele>98.2</ele>
      </trkpt>
      <trkpt lat="50.63037" lon="5.48384">
        <ele>72</ele>
        <time>2019-03-30T06:58:08.000Z</time>
      </trkpt>
      <trkpt lat="50.63041" lon="5.48381">
        <ele>72</ele>
        <time>2019-03-30T06:58:09.000Z</time>
      </trkpt>
      <trkpt lat="50.63057" lon="5.48364">
        <ele>72.199996948242</ele>
        <time>2019-03-30T06:58:12.000Z</time>
      </trkpt>
      <trkpt lat="50.63065" lon="5.48355">
        <ele>72.400001525879</ele>
        <time>2019-03-30T06:58:15.000Z</time>
      </trkpt>
      <trkpt lat="50.63069" lon="5.48351">
        <ele>72.599998474121</ele>
        <time>2019-03-30T06:58:16.000Z</time>
      </trkpt>
      <trkpt lat="50.63089" lon="5.48328">
        <ele>73.199996948242</ele>
        <time>2019-03-30T06:58:21.000Z</time>
      </trkpt>
      <trkpt lat="50.63093" lon="5.48322">
        <ele>73.199996948242</ele>
        <time>2019-03-30T06:58:22.000Z</time>
      </trkpt>
      <trkpt lat="50.63121" lon="5.48282">
        <ele>73.800003051758</ele>
        <time>2019-03-30T06:58:29.000Z</time>
      </trkpt>
      <trkpt lat="50.63143" lon="5.48247">
        <ele>74.199996948242</ele>
        <time>2019-03-30T06:58:35.000Z</time>
      </trkpt>
      <trkpt lat="50.63146" lon="5.4824">
        <ele>74.400001525879</ele>
        <time>2019-03-30T06:58:36.000Z</time>
      </trkpt>
      <trkpt lat="50.63169" lon="5.48178">
        <ele>75.199996948242</ele>
        <time>2019-03-30T06:58:45.000Z</time>
      </trkpt>
      <trkpt lat="50.63171" lon="5.48171">
        <ele>75.199996948242</ele>
        <time>2019-03-30T06:58:46.000Z</time>
      </trkpt>
      <trkpt lat="50.63191" lon="5.48104">
        <ele>75.800003051758</ele>
        <time>2019-03-30T06:58:55.000Z</time>
      </trkpt>
      <trkpt lat="50.63194" lon="5.48084">
        <ele>103.5</ele>
      </trkpt>
      <trkpt lat="50.63199" lon="5.48057">
        <ele>76.400001525879</ele>
        <time>2019-03-30T06:59:01.000Z</time>
      </trkpt>
      <trkpt lat="50.63201" lon="5.48042">
        <ele>76.800003051758</ele>
        <time>2019-03-30T06:59:03.000Z</time>
      </trkpt>
      <trkpt lat="50.63205" lon="5.4801">
        <ele>77.199996948242</ele>
        <time>2019-03-30T06:59:06.000Z</time>
      </trkpt>
      <trkpt lat="50.63212" lon="5.47962">
        <ele>78.199996948242</ele>
        <time>2019-03-30T06:59:12.000Z</time>
      </trkpt>
      <trkpt lat="50.63223" lon="5.47886">
        <ele>79.199996948242</ele>
        <time>2019-03-30T06:59:23.000Z</time>
      </trkpt>
      <trkpt lat="50.63225" lon="5.47872">
        <ele>79.599998474121</ele>
        <time>2019-03-30T06:59:25.000Z</time>
      </trkpt>
      <trkpt lat="50.6323" lon="5.47837">
        <ele>80.400001525879</ele>
        <time>2019-03-30T06:59:30.000Z</time>
      </trkpt>
      <trkpt lat="50.63234" lon="5.47816">
        <ele>80.800003051758</ele>
        <time>2019-03-30T06:59:33.000Z</time>
      </trkpt>
      <trkpt lat="50.63238" lon="5.47789">
        <ele>81.599998474121</ele>
        <time>2019-03-30T06:59:37.000Z</time>
      </trkpt>
      <trkpt lat="50.63241" lon="5.47762">
        <ele>82.199996948242</ele>
        <time>2019-03-30T06:59:41.000Z</time>
      </trkpt>
      <trkpt lat="50.63244" lon="5.47742">
        <ele>82.800003051758</ele>
        <time>2019-03-30T06:59:44.000Z</time>
      </trkpt>
      <trkpt lat="50.63248" lon="5.47716">
        <ele>83.400001525879</ele>
        <time>2019-03-30T06:59:48.000Z</time>
      </trkpt>
      <trkpt lat="50.6325" lon="5.47703">
        <ele>83.800003051758</ele>
        <time>2019-03-30T06:59:50.000Z</time>
      </trkpt>
      <trkpt lat="50.63255" lon="5.47685">
        <ele>84.199996948242</ele>
        <time>2019-03-30T06:59:53.000Z</time>
      </trkpt>
      <trkpt lat="50.63261" lon="5.47675">
        <ele>84.400001525879</ele>
        <time>2019-03-30T06:59:54.000Z</time>
      </trkpt>
      <trkpt lat="50.63264" lon="5.4767">
        <ele>84.800003051758</ele>
        <time>2019-03-30T06:59:56.000Z</time>
      </trkpt>
      <trkpt lat="50.6327" lon="5.47663">
        <ele>85.199996948242</ele>
        <time>2019-03-30T06:59:58.000Z</time>
      </trkpt>
      <trkpt lat="50.63283" lon="5.47649">
        <ele>85.800003051758</ele>
        <time>2019-03-30T07:00:02.000Z</time>
      </trkpt>
      <trkpt lat="50.633" lon="5.47631">
        <ele>86.800003051758</ele>
        <time>2019-03-30T07:00:07.000Z</time>
      </trkpt>
      <trkpt lat="50.63303" lon="5.47628">
        <ele>87</ele>
        <time>2019-03-30T07:00:08.000Z</time>
      </trkpt>
      <trkpt lat="50.63327" lon="5.47616">
        <ele>111.7</ele>
      </trkpt>
      <trkpt lat="50.63344" lon="5.47606">
        <ele>115.6</ele>
      </trkpt>
      <trkpt lat="50.63362" lon="5.47597">
        <ele>116.2</ele>
      </trkpt>
      <trkpt lat="50.63373" lon="5.47591">
        <ele>116.9</ele>
      </trkpt>
      <trkpt lat="50.63391" lon="5.47583">
        <ele>114.6</ele>
      </trkpt>
      <trkpt lat="50.63413" lon="5.47573">
        <ele>115.8</ele>
      </trkpt>
      <trkpt lat="50.63426" lon="5.47567">
        <ele>117.8</ele>
      </trkpt>
      <trkpt lat="50.63446" lon="5.47564">
        <ele>118.5</ele>
      </trkpt>
      <trkpt lat="50.63466" lon="5.47559">
        <ele>94.400001525879</ele>
        <time>2019-03-30T07:00:49.000Z</time>
      </trkpt>
      <trkpt lat="50.63475" lon="5.47556">
        <ele>94.800003051758</ele>
        <time>2019-03-30T07:00:51.000Z</time>
      </trkpt>
      <trkpt lat="50.63491" lon="5.47552">
        <ele>95.599998474121</ele>
        <time>2019-03-30T07:00:55.000Z</time>
      </trkpt>
      <trkpt lat="50.63507" lon="5.47548">
        <ele>96.800003051758</ele>
        <time>2019-03-30T07:00:59.000Z</time>
      </trkpt>
      <trkpt lat="50.63515" lon="5.47546">
        <ele>97.199996948242</ele>
        <time>2019-03-30T07:01:01.000Z</time>
      </trkpt>
      <trkpt lat="50.63526" lon="5.47545">
        <ele>97.800003051758</ele>
        <time>2019-03-30T07:01:04.000Z</time>
      </trkpt>
      <trkpt lat="50.63544" lon="5.47541">
        <ele>98.599998474121</ele>
        <time>2019-03-30T07:01:09.000Z</time>
      </trkpt>
      <trkpt lat="50.63548" lon="5.4754">
        <ele>98.800003051758</ele>
        <time>2019-03-30T07:01:10.000Z</time>
      </trkpt>
      <trkpt lat="50.63566" lon="5.47536">
        <ele>99.800003051758</ele>
        <time>2019-03-30T07:01:15.000Z</time>
      </trkpt>
      <trkpt lat="50.63578" lon="5.47531">
        <ele>100.40000152588</ele>
        <time>2019-03-30T07:01:19.000Z</time>
      </trkpt>
      <trkpt lat="50.63583" lon="5.47529">
        <ele>100.80000305176</ele>
        <time>2019-03-30T07:01:21.000Z</time>
      </trkpt>
      <trkpt lat="50.63587" lon="5.47527">
        <ele>101.40000152588</ele>
        <time>2019-03-30T07:01:23.000Z</time>
      </trkpt>
      <trkpt lat="50.63602" lon="5.47524">
        <ele>128.6</ele>
      </trkpt>
      <trkpt lat="50.63624" lon="5.47517">
        <ele>129.6</ele>
      </trkpt>
      <trkpt lat="50.63642" lon="5.47514">
        <ele>105.40000152588</ele>
        <time>2019-03-30T07:01:42.000Z</time>
      </trkpt>
      <trkpt lat="50.63663" lon="5.47509">
        <ele>106.59999847412</ele>
        <time>2019-03-30T07:01:48.000Z</time>
      </trkpt>
      <trkpt lat="50.63681" lon="5.47505">
        <ele>107.59999847412</ele>
        <time>2019-03-30T07:01:53.000Z</time>
      </trkpt>
      <trkpt lat="50.63684" lon="5.47502">
        <ele>108</ele>
        <time>2019-03-30T07:01:54.000Z</time>
      </trkpt>
      <trkpt lat="50.63694" lon="5.475">
        <ele>108.80000305176</ele>
        <time>2019-03-30T07:01:57.000Z</time>
      </trkpt>
      <trkpt lat="50.63708" lon="5.47495">
        <ele>110</ele>
        <time>2019-03-30T07:02:02.000Z</time>
      </trkpt>
      <trkpt lat="50.63729" lon="5.47487">
        <ele>135</ele>
      </trkpt>
      <trkpt lat="50.63767" lon="5.47474">
        <ele>113.59999847412</ele>
        <time>2019-03-30T07:02:19.000Z</time>
      </trkpt>
      <trkpt lat="50.63774" lon="5.4747">
        <ele>114.19999694824</ele>
        <time>2019-03-30T07:02:21.000Z</time>
      </trkpt>
      <trkpt lat="50.63797" lon="5.47459">
        <ele>115.40000152588</ele>
        <time>2019-03-30T07:02:28.000Z</time>
      </trkpt>
      <trkpt lat="50.63817" lon="5.47452">
        <ele>116.40000152588</ele>
        <time>2019-03-30T07:02:33.000Z</time>
      </trkpt>
      <trkpt lat="50.6382" lon="5.4745">
        <ele>116.59999847412</ele>
        <time>2019-03-30T07:02:34.000Z</time>
      </trkpt>
      <trkpt lat="50.63839" lon="5.47439">
        <ele>117.80000305176</ele>
        <time>2019-03-30T07:02:39.000Z</time>
      </trkpt>
      <trkpt lat="50.63849" lon="5.47433">
        <ele>118.40000152588</ele>
        <time>2019-03-30T07:02:42.000Z</time>
      </trkpt>
      <trkpt lat="50.63856" lon="5.47429">
        <ele>118.80000305176</ele>
        <time>2019-03-30T07:02:44.000Z</time>
      </trkpt>
      <trkpt lat="50.63874" lon="5.47418">
        <ele>120</ele>
        <time>2019-03-30T07:02:49.000Z</time>
      </trkpt>
      <trkpt lat="50.63881" lon="5.47414">
        <ele>120.40000152588</ele>
        <time>2019-03-30T07:02:51.000Z</time>
      </trkpt>
      <trkpt lat="50.63888" lon="5.47409">
        <ele>121</ele>
        <time>2019-03-30T07:02:53.000Z</time>
      </trkpt>
      <trkpt lat="50.63907" lon="5.47394">
        <ele>122</ele>
        <time>2019-03-30T07:02:59.000Z</time>
      </trkpt>
      <trkpt lat="50.63914" lon="5.4739">
        <ele>122.40000152588</ele>
        <time>2019-03-30T07:03:01.000Z</time>
      </trkpt>
      <trkpt lat="50.6392" lon="5.47386">
        <ele>123</ele>
        <time>2019-03-30T07:03:03.000Z</time>
      </trkpt>
      <trkpt lat="50.63937" lon="5.47371">
        <ele>145.5</ele>
      </trkpt>
      <trkpt lat="50.63955" lon="5.47354">
        <ele>145</ele>
      </trkpt>
      <trkpt lat="50.63968" lon="5.47336">
        <ele>126.40000152588</ele>
        <time>2019-03-30T07:03:18.000Z</time>
      </trkpt>
      <trkpt lat="50.63984" lon="5.47301">
        <ele>127.59999847412</ele>
        <time>2019-03-30T07:03:25.000Z</time>
      </trkpt>
      <trkpt lat="50.63986" lon="5.47295">
        <ele>127.80000305176</ele>
        <time>2019-03-30T07:03:26.000Z</time>
      </trkpt>
      <trkpt lat="50.63993" lon="5.47274">
        <ele>128.60000610352</ele>
        <time>2019-03-30T07:03:30.000Z</time>
      </trkpt>
      <trkpt lat="50.64009" lon="5.47238">
        <ele>150.2</ele>
      </trkpt>
      <trkpt lat="50.64024" lon="5.47215">
        <ele>152.2</ele>
      </trkpt>
      <trkpt lat="50.6404" lon="5.47202">
        <ele>153</ele>
      </trkpt>
      <trkpt lat="50.64062" lon="5.47192">
        <ele>133</ele>
        <time>2019-03-30T07:03:53.000Z</time>
      </trkpt>
      <trkpt lat="50.64071" lon="5.47186">
        <ele>154.4</ele>
      </trkpt>
      <trkpt lat="50.64089" lon="5.47185">
        <ele>155.9</ele>
      </trkpt>
      <trkpt lat="50.64103" lon="5.47187">
        <ele>155.7</ele>
      </trkpt>
      <trkpt lat="50.64127" lon="5.4719">
        <ele>155.8</ele>
      </trkpt>
      <trkpt lat="50.64141" lon="5.47199">
        <ele>155.7</ele>
      </trkpt>
      <trkpt lat="50.6417" lon="5.4722">
        <ele>158.4</ele>
      </trkpt>
      <trkpt lat="50.642" lon="5.47239">
        <ele>158.9</ele>
      </trkpt>
      <trkpt lat="50.64229" lon="5.47254">
        <ele>157.1</ele>
      </trkpt>
      <trkpt lat="50.64256" lon="5.47261">
        <ele>160.2</ele>
      </trkpt>
      <trkpt lat="50.64281" lon="5.47263">
        <ele>161</ele>
      </trkpt>
      <trkpt lat="50.64304" lon="5.47263">
        <ele>162.4</ele>
      </trkpt>
      <trkpt lat="50.64331" lon="5.47259">
        <ele>165.7</ele>
      </trkpt>
      <trkpt lat="50.64361" lon="5.47249">
        <ele>171.1</ele>
      </trkpt>
      <trkpt lat="50.64376" lon="5.47247">
        <ele>171.7</ele>
      </trkpt>
      <trkpt lat="50.64403" lon="5.47245">
        <ele>171.8</ele>
      </trkpt>
      <trkpt lat="50.64424" lon="5.47251">
        <ele>170.5</ele>
      </trkpt>
      <trkpt lat="50.64442" lon="5.47264">
        <ele>169.6</ele>
      </trkpt>
      <trkpt lat="50.64458" lon="5.47283">
        <ele>169.2</ele>
      </trkpt>
      <trkpt lat="50.64474" lon="5.47308">
        <ele>168.9</ele>
      </trkpt>
      <trkpt lat="50.64482" lon="5.47331">
        <ele>168.8</ele>
      </trkpt>
      <trkpt lat="50.64494" lon="5.47361">
        <ele>168.5</ele>
      </trkpt>
      <trkpt lat="50.64504" lon="5.47397">
        <ele>171.3</ele>
      </trkpt>
      <trkpt lat="50.64509" lon="5.47422">
        <ele>172</ele>
      </trkpt>
      <trkpt lat="50.64513" lon="5.47449">
        <ele>173.1</ele>
      </trkpt>
      <trkpt lat="50.64513" lon="5.47484">
        <ele>173.8</ele>
      </trkpt>
      <trkpt lat="50.64509" lon="5.47524">
        <ele>149.80000305176</ele>
        <time>2019-03-30T07:05:53.000Z</time>
      </trkpt>
      <trkpt lat="50.64509" lon="5.47557">
        <ele>151</ele>
        <time>2019-03-30T07:05:58.000Z</time>
      </trkpt>
      <trkpt lat="50.64511" lon="5.47571">
        <ele>151.39999389648</ele>
        <time>2019-03-30T07:06:00.000Z</time>
      </trkpt>
      <trkpt lat="50.64514" lon="5.47598">
        <ele>175.9</ele>
      </trkpt>
      <trkpt lat="50.64521" lon="5.47634">
        <ele>153.19999694824</ele>
        <time>2019-03-30T07:06:09.000Z</time>
      </trkpt>
      <trkpt lat="50.64522" lon="5.47641">
        <ele>153.39999389648</ele>
        <time>2019-03-30T07:06:10.000Z</time>
      </trkpt>
      <trkpt lat="50.64526" lon="5.47669">
        <ele>154.19999694824</ele>
        <time>2019-03-30T07:06:14.000Z</time>
      </trkpt>
      <trkpt lat="50.64534" lon="5.4771">
        <ele>155.19999694824</ele>
        <time>2019-03-30T07:06:20.000Z</time>
      </trkpt>
      <trkpt lat="50.64535" lon="5.47716">
        <ele>155.60000610352</ele>
        <time>2019-03-30T07:06:21.000Z</time>
      </trkpt>
      <trkpt lat="50.6454" lon="5.47742">
        <ele>156.39999389648</ele>
        <time>2019-03-30T07:06:25.000Z</time>
      </trkpt>
      <trkpt lat="50.64545" lon="5.47767">
        <ele>157.39999389648</ele>
        <time>2019-03-30T07:06:29.000Z</time>
      </trkpt>
      <trkpt lat="50.64546" lon="5.47774">
        <ele>157.60000610352</ele>
        <time>2019-03-30T07:06:30.000Z</time>
      </trkpt>
      <trkpt lat="50.64554" lon="5.47818">
        <ele>158.80000305176</ele>
        <time>2019-03-30T07:06:37.000Z</time>
      </trkpt>
      <trkpt lat="50.64558" lon="5.47848">
        <ele>183.3</ele>
      </trkpt>
      <trkpt lat="50.64577" lon="5.47887">
        <ele>183.6</ele>
      </trkpt>
      <trkpt lat="50.64587" lon="5.47903">
        <ele>184.1</ele>
      </trkpt>
      <trkpt lat="50.64606" lon="5.47923">
        <ele>163.19999694824</ele>
        <time>2019-03-30T07:06:56.000Z</time>
      </trkpt>
      <trkpt lat="50.64614" lon="5.47931">
        <ele>163.80000305176</ele>
        <time>2019-03-30T07:06:58.000Z</time>
      </trkpt>
      <trkpt lat="50.64626" lon="5.47945">
        <ele>185.1</ele>
      </trkpt>
      <trkpt lat="50.64639" lon="5.4796">
        <ele>185.4</ele>
      </trkpt>
      <trkpt lat="50.64649" lon="5.4797">
        <ele>185.6</ele>
      </trkpt>
      <trkpt lat="50.64678" lon="5.48002">
        <ele>187.6</ele>
      </trkpt>
      <trkpt lat="50.64697" lon="5.48023">
        <ele>188.4</ele>
      </trkpt>
      <trkpt lat="50.64714" lon="5.48042">
        <ele>188.8</ele>
      </trkpt>
      <trkpt lat="50.64742" lon="5.48073">
        <ele>189.5</ele>
      </trkpt>
      <trkpt lat="50.64771" lon="5.48105">
        <ele>189.5</ele>
      </trkpt>
      <trkpt lat="50.64785" lon="5.48123">
        <ele>189.3</ele>
      </trkpt>
      <trkpt lat="50.64806" lon="5.48148">
        <ele>189</ele>
      </trkpt>
      <trkpt lat="50.64818" lon="5.48163">
        <ele>188.6</ele>
      </trkpt>
      <trkpt lat="50.64845" lon="5.48196">
        <ele>187.8</ele>
      </trkpt>
      <trkpt lat="50.64877" lon="5.48232">
        <ele>187.7</ele>
      </trkpt>
      <trkpt lat="50.64919" lon="5.4827">
        <ele>187.3</ele>
      </trkpt>
      <trkpt lat="50.64945" lon="5.48294">
        <ele>186.9</ele>
      </trkpt>
      <trkpt lat="50.64966" lon="5.48314">
        <ele>186.6</ele>
      </trkpt>
      <trkpt lat="50.6498" lon="5.48326">
        <ele>186.4</ele>
      </trkpt>
      <trkpt lat="50.65" lon="5.48342">
        <ele>185.6</ele>
      </trkpt>
      <trkpt lat="50.65013" lon="5.48354">
        <ele>185.2</ele>
      </trkpt>
      <trkpt lat="50.65025" lon="5.48366">
        <ele>184.9</ele>
      </trkpt>
      <trkpt lat="50.65041" lon="5.48388">
        <ele>184.6</ele>
      </trkpt>
      <trkpt lat="50.65051" lon="5.48405">
        <ele>184.3</ele>
      </trkpt>
      <trkpt lat="50.6507" lon="5.4843">
        <ele>183.8</ele>
      </trkpt>
      <trkpt lat="50.6509" lon="5.4846">
        <ele>183.5</ele>
      </trkpt>
      <trkpt lat="50.65128" lon="5.48516">
        <ele>182.9</ele>
      </trkpt>
      <trkpt lat="50.65149" lon="5.48547">
        <ele>182.5</ele>
      </trkpt>
      <trkpt lat="50.65163" lon="5.4857">
        <ele>161.80000305176</ele>
        <time>2019-03-30T07:09:02.000Z</time>
      </trkpt>
      <trkpt lat="50.65205" lon="5.48633">
        <ele>161.19999694824</ele>
        <time>2019-03-30T07:09:10.000Z</time>
      </trkpt>
      <trkpt lat="50.6521" lon="5.48644">
        <ele>181.2</ele>
      </trkpt>
      <trkpt lat="50.65249" lon="5.48703">
        <ele>181.1</ele>
      </trkpt>
      <trkpt lat="50.65264" lon="5.48729">
        <ele>180.7</ele>
      </trkpt>
      <trkpt lat="50.65286" lon="5.48761">
        <ele>181</ele>
      </trkpt>
      <trkpt lat="50.65309" lon="5.48798">
        <ele>181</ele>
      </trkpt>
      <trkpt lat="50.65354" lon="5.48868">
        <ele>180.9</ele>
      </trkpt>
      <trkpt lat="50.65399" lon="5.48936">
        <ele>158</ele>
        <time>2019-03-30T07:09:48.000Z</time>
      </trkpt>
      <trkpt lat="50.65408" lon="5.48951">
        <ele>157.80000305176</ele>
        <time>2019-03-30T07:09:50.000Z</time>
      </trkpt>
      <trkpt lat="50.65434" lon="5.48992">
        <ele>178.4</ele>
      </trkpt>
      <trkpt lat="50.65462" lon="5.49033">
        <ele>177.9</ele>
      </trkpt>
      <trkpt lat="50.65471" lon="5.49043">
        <ele>177.8</ele>
      </trkpt>
      <trkpt lat="50.65506" lon="5.4909">
        <ele>157</ele>
        <time>2019-03-30T07:10:09.000Z</time>
      </trkpt>
      <trkpt lat="50.6551" lon="5.49098">
        <ele>156.80000305176</ele>
        <time>2019-03-30T07:10:10.000Z</time>
      </trkpt>
      <trkpt lat="50.65517" lon="5.49112">
        <ele>176.1</ele>
      </trkpt>
      <trkpt lat="50.65518" lon="5.49126">
        <ele>176</ele>
      </trkpt>
      <trkpt lat="50.65525" lon="5.49133">
        <ele>156.80000305176</ele>
        <time>2019-03-30T07:10:14.000Z</time>
      </trkpt>
      <trkpt lat="50.65543" lon="5.49134">
        <ele>175.7</ele>
      </trkpt>
      <trkpt lat="50.65552" lon="5.4914">
        <ele>175.5</ele>
      </trkpt>
      <trkpt lat="50.65568" lon="5.49156">
        <ele>156.39999389648</ele>
        <time>2019-03-30T07:10:21.000Z</time>
      </trkpt>
      <trkpt lat="50.65604" lon="5.49194">
        <ele>174.2</ele>
      </trkpt>
      <trkpt lat="50.65644" lon="5.49237">
        <ele>174.5</ele>
      </trkpt>
      <trkpt lat="50.65681" lon="5.49267">
        <ele>175.2</ele>
      </trkpt>
      <trkpt lat="50.65707" lon="5.49282">
        <ele>175.2</ele>
      </trkpt>
      <trkpt lat="50.65727" lon="5.4929">
        <ele>175.1</ele>
      </trkpt>
      <trkpt lat="50.65766" lon="5.49302">
        <ele>174.3</ele>
      </trkpt>
      <trkpt lat="50.65806" lon="5.49315">
        <ele>174.3</ele>
      </trkpt>
      <trkpt lat="50.65833" lon="5.49324">
        <ele>174.7</ele>
      </trkpt>
      <trkpt lat="50.65858" lon="5.49332">
        <ele>175.1</ele>
      </trkpt>
      <trkpt lat="50.65898" lon="5.49345">
        <ele>176.5</ele>
      </trkpt>
      <trkpt lat="50.65916" lon="5.49351">
        <ele>176.6</ele>
      </trkpt>
      <trkpt lat="50.65928" lon="5.49359">
        <ele>176.1</ele>
      </trkpt>
      <trkpt lat="50.6594" lon="5.49374">
        <ele>175.8</ele>
      </trkpt>
      <trkpt lat="50.65948" lon="5.49396">
        <ele>175.7</ele>
      </trkpt>
      <trkpt lat="50.65953" lon="5.49435">
        <ele>176.2</ele>
      </trkpt>
      <trkpt lat="50.65954" lon="5.49467">
        <ele>152.39999389648</ele>
        <time>2019-03-30T07:11:26.000Z</time>
      </trkpt>
      <trkpt lat="50.65954" lon="5.49505">
        <ele>177.3</ele>
      </trkpt>
      <trkpt lat="50.65955" lon="5.49532">
        <ele>177.4</ele>
      </trkpt>
      <trkpt lat="50.65956" lon="5.49588">
        <ele>178.5</ele>
      </trkpt>
      <trkpt lat="50.65958" lon="5.49623">
        <ele>178.7</ele>
      </trkpt>
      <trkpt lat="50.65959" lon="5.49654">
        <ele>179</ele>
      </trkpt>
      <trkpt lat="50.65964" lon="5.49685">
        <ele>158.60000610352</ele>
        <time>2019-03-30T07:11:53.000Z</time>
      </trkpt>
      <trkpt lat="50.65971" lon="5.49707">
        <ele>159</ele>
        <time>2019-03-30T07:11:56.000Z</time>
      </trkpt>
      <trkpt lat="50.6598" lon="5.49727">
        <ele>159.60000610352</ele>
        <time>2019-03-30T07:11:59.000Z</time>
      </trkpt>
      <trkpt lat="50.65987" lon="5.49739">
        <ele>160.19999694824</ele>
        <time>2019-03-30T07:12:01.000Z</time>
      </trkpt>
      <trkpt lat="50.66002" lon="5.49753">
        <ele>182.9</ele>
      </trkpt>
      <trkpt lat="50.66017" lon="5.4976">
        <ele>182</ele>
      </trkpt>
      <trkpt lat="50.66029" lon="5.49763">
        <ele>182.2</ele>
      </trkpt>
      <trkpt lat="50.66045" lon="5.49755">
        <ele>181.7</ele>
      </trkpt>
      <trkpt lat="50.66055" lon="5.49748">
        <ele>179.8</ele>
      </trkpt>
      <trkpt lat="50.66071" lon="5.49745">
        <ele>179.4</ele>
      </trkpt>
      <trkpt lat="50.6608" lon="5.49743">
        <ele>179.2</ele>
      </trkpt>
      <trkpt lat="50.66102" lon="5.49742">
        <ele>162.80000305176</ele>
        <time>2019-03-30T07:12:23.000Z</time>
      </trkpt>
      <trkpt lat="50.66111" lon="5.49743">
        <ele>179.1</ele>
      </trkpt>
      <trkpt lat="50.66115" lon="5.49759">
        <ele>180</ele>
      </trkpt>
      <trkpt lat="50.66126" lon="5.49767">
        <ele>162.80000305176</ele>
        <time>2019-03-30T07:12:28.000Z</time>
      </trkpt>
      <trkpt lat="50.66135" lon="5.49765">
        <ele>181</ele>
      </trkpt>
      <trkpt lat="50.66148" lon="5.49785">
        <ele>162.80000305176</ele>
        <time>2019-03-30T07:12:32.000Z</time>
      </trkpt>
      <trkpt lat="50.66168" lon="5.49826">
        <ele>181.5</ele>
      </trkpt>
      <trkpt lat="50.66177" lon="5.49848">
        <ele>181.2</ele>
      </trkpt>
      <trkpt lat="50.66191" lon="5.49879">
        <ele>180.6</ele>
      </trkpt>
      <trkpt lat="50.66204" lon="5.49907">
        <ele>180.3</ele>
      </trkpt>
      <trkpt lat="50.6621" lon="5.49924">
        <ele>179.3</ele>
      </trkpt>
      <trkpt lat="50.66228" lon="5.49956">
        <ele>179</ele>
      </trkpt>
      <trkpt lat="50.66243" lon="5.49979">
        <ele>178.2</ele>
      </trkpt>
      <trkpt lat="50.66269" lon="5.5002">
        <ele>158.60000610352</ele>
        <time>2019-03-30T07:12:58.000Z</time>
      </trkpt>
      <trkpt lat="50.66293" lon="5.50052">
        <ele>158.19999694824</ele>
        <time>2019-03-30T07:13:03.000Z</time>
      </trkpt>
      <trkpt lat="50.66304" lon="5.50065">
        <ele>158</ele>
        <time>2019-03-30T07:13:05.000Z</time>
      </trkpt>
      <trkpt lat="50.66331" lon="5.50093">
        <ele>177</ele>
      </trkpt>
      <trkpt lat="50.66356" lon="5.50113">
        <ele>177</ele>
      </trkpt>
      <trkpt lat="50.66381" lon="5.50132">
        <ele>177</ele>
      </trkpt>
      <trkpt lat="50.66408" lon="5.50154">
        <ele>177</ele>
      </trkpt>
      <trkpt lat="50.66428" lon="5.50167">
        <ele>176.4</ele>
      </trkpt>
      <trkpt lat="50.66436" lon="5.50177">
        <ele>176.1</ele>
      </trkpt>
      <trkpt lat="50.6644" lon="5.50188">
        <ele>176</ele>
      </trkpt>
      <trkpt lat="50.66446" lon="5.50192">
        <ele>175.7</ele>
      </trkpt>
      <trkpt lat="50.66456" lon="5.50201">
        <ele>175.5</ele>
      </trkpt>
      <trkpt lat="50.6647" lon="5.50227">
        <ele>175.4</ele>
      </trkpt>
      <trkpt lat="50.66485" lon="5.50264">
        <ele>175.3</ele>
      </trkpt>
      <trkpt lat="50.66502" lon="5.50302">
        <ele>155.39999389648</ele>
        <time>2019-03-30T07:13:56.000Z</time>
      </trkpt>
      <trkpt lat="50.66507" lon="5.50313">
        <ele>155.19999694824</ele>
        <time>2019-03-30T07:13:58.000Z</time>
      </trkpt>
      <trkpt lat="50.66516" lon="5.50337">
        <ele>155.19999694824</ele>
        <time>2019-03-30T07:14:02.000Z</time>
      </trkpt>
      <trkpt lat="50.66526" lon="5.50355">
        <ele>155.19999694824</ele>
        <time>2019-03-30T07:14:05.000Z</time>
      </trkpt>
      <trkpt lat="50.66536" lon="5.50375">
        <ele>155</ele>
        <time>2019-03-30T07:14:08.000Z</time>
      </trkpt>
      <trkpt lat="50.6654" lon="5.50381">
        <ele>155</ele>
        <time>2019-03-30T07:14:09.000Z</time>
      </trkpt>
      <trkpt lat="50.66551" lon="5.50398">
        <ele>154.80000305176</ele>
        <time>2019-03-30T07:14:12.000Z</time>
      </trkpt>
      <trkpt lat="50.66555" lon="5.50404">
        <ele>154.60000610352</ele>
        <time>2019-03-30T07:14:13.000Z</time>
      </trkpt>
      <trkpt lat="50.66563" lon="5.50415">
        <ele>154.60000610352</ele>
        <time>2019-03-30T07:14:15.000Z</time>
      </trkpt>
      <trkpt lat="50.66577" lon="5.50439">
        <ele>173.5</ele>
      </trkpt>
      <trkpt lat="50.666" lon="5.50475">
        <ele>172.4</ele>
      </trkpt>
      <trkpt lat="50.66605" lon="5.50483">
        <ele>172.3</ele>
      </trkpt>
      <trkpt lat="50.66622" lon="5.50509">
        <ele>171.3</ele>
      </trkpt>
      <trkpt lat="50.6663" lon="5.50533">
        <ele>171</ele>
      </trkpt>
      <trkpt lat="50.66638" lon="5.5055">
        <ele>170.7</ele>
      </trkpt>
      <trkpt lat="50.66649" lon="5.50562">
        <ele>170.3</ele>
      </trkpt>
      <trkpt lat="50.6667" lon="5.50588">
        <ele>168.7</ele>
      </trkpt>
      <trkpt lat="50.66696" lon="5.50618">
        <ele>167.7</ele>
      </trkpt>
      <trkpt lat="50.66713" lon="5.50637">
        <ele>149</ele>
        <time>2019-03-30T07:14:48.000Z</time>
      </trkpt>
      <trkpt lat="50.66729" lon="5.50657">
        <ele>167</ele>
      </trkpt>
      <trkpt lat="50.66746" lon="5.50674">
        <ele>148</ele>
        <time>2019-03-30T07:14:54.000Z</time>
      </trkpt>
      <trkpt lat="50.66756" lon="5.50686">
        <ele>148</ele>
        <time>2019-03-30T07:14:56.000Z</time>
      </trkpt>
      <trkpt lat="50.66798" lon="5.50738">
        <ele>166.9</ele>
      </trkpt>
      <trkpt lat="50.66811" lon="5.50716">
        <ele>166.8</ele>
      </trkpt>
      <trkpt lat="50.66822" lon="5.50698">
        <ele>166.6</ele>
      </trkpt>
      <trkpt lat="50.66835" lon="5.50674">
        <ele>166.4</ele>
      </trkpt>
      <trkpt lat="50.66859" lon="5.50636">
        <ele>167</ele>
      </trkpt>
      <trkpt lat="50.66889" lon="5.50583">
        <ele>168.2</ele>
      </trkpt>
      <trkpt lat="50.66901" lon="5.50563">
        <ele>168.3</ele>
      </trkpt>
      <trkpt lat="50.66926" lon="5.5053">
        <ele>168.2</ele>
      </trkpt>
      <trkpt lat="50.66941" lon="5.5051">
        <ele>168.1</ele>
      </trkpt>
      <trkpt lat="50.66956" lon="5.50493">
        <ele>168.1</ele>
      </trkpt>
      <trkpt lat="50.66971" lon="5.50472">
        <ele>168</ele>
      </trkpt>
      <trkpt lat="50.66997" lon="5.5044">
        <ele>168</ele>
      </trkpt>
      <trkpt lat="50.67033" lon="5.50397">
        <ele>166.4</ele>
      </trkpt>
      <trkpt lat="50.67075" lon="5.5033">
        <ele>165.8</ele>
      </trkpt>
      <trkpt lat="50.67094" lon="5.50299">
        <ele>165.8</ele>
      </trkpt>
      <trkpt lat="50.67109" lon="5.50293">
        <ele>165.9</ele>
      </trkpt>
      <trkpt lat="50.67114" lon="5.50296">
        <ele>147.80000305176</ele>
        <time>2019-03-30T07:25:10.000Z</time>
      </trkpt>
      <trkpt lat="50.6713" lon="5.50306">
        <ele>165.5</ele>
      </trkpt>
      <trkpt lat="50.67153" lon="5.50326">
        <ele>164.8</ele>
      </trkpt>
      <trkpt lat="50.67194" lon="5.50359">
        <ele>163</ele>
      </trkpt>
      <trkpt lat="50.67212" lon="5.50372">
        <ele>162.7</ele>
      </trkpt>
      <trkpt lat="50.67234" lon="5.50392">
        <ele>162.2</ele>
      </trkpt>
      <trkpt lat="50.67253" lon="5.50359">
        <ele>161.6</ele>
      </trkpt>
      <trkpt lat="50.67278" lon="5.50313">
        <ele>162.3</ele>
      </trkpt>
      <trkpt lat="50.67296" lon="5.50279">
        <ele>162.3</ele>
      </trkpt>
      <trkpt lat="50.67331" lon="5.50214">
        <ele>162</ele>
      </trkpt>
      <trkpt lat="50.67348" lon="5.50181">
        <ele>162</ele>
      </trkpt>
      <trkpt lat="50.67373" lon="5.50138">
        <ele>162.7</ele>
      </trkpt>
      <trkpt lat="50.67393" lon="5.50112">
        <ele>163</ele>
      </trkpt>
      <trkpt lat="50.67426" lon="5.50079">
        <ele>164</ele>
      </trkpt>
      <trkpt lat="50.67462" lon="5.5005">
        <ele>163.9</ele>
      </trkpt>
      <trkpt lat="50.67497" lon="5.5003">
        <ele>146.80000305176</ele>
        <time>2019-03-30T07:26:27.000Z</time>
      </trkpt>
      <trkpt lat="50.67529" lon="5.50008">
        <ele>146.80000305176</ele>
        <time>2019-03-30T07:26:32.000Z</time>
      </trkpt>
      <trkpt lat="50.67581" lon="5.49972">
        <ele>164.7</ele>
      </trkpt>
      <trkpt lat="50.67593" lon="5.49966">
        <ele>165</ele>
      </trkpt>
      <trkpt lat="50.67603" lon="5.5001">
        <ele>146.19999694824</ele>
        <time>2019-03-30T07:26:47.000Z</time>
      </trkpt>
      <trkpt lat="50.67624" lon="5.50107">
        <ele>146</ele>
        <time>2019-03-30T07:26:56.000Z</time>
      </trkpt>
      <trkpt lat="50.6763" lon="5.50139">
        <ele>145.80000305176</ele>
        <time>2019-03-30T07:26:58.000Z</time>
      </trkpt>
      <trkpt lat="50.67638" lon="5.50179">
        <ele>145.39999389648</ele>
        <time>2019-03-30T07:27:03.000Z</time>
      </trkpt>
      <trkpt lat="50.67648" lon="5.50227">
        <ele>145.39999389648</ele>
        <time>2019-03-30T07:27:08.000Z</time>
      </trkpt>
      <trkpt lat="50.67657" lon="5.50275">
        <ele>145.19999694824</ele>
        <time>2019-03-30T07:27:12.000Z</time>
      </trkpt>
      <trkpt lat="50.67666" lon="5.50315">
        <ele>145.19999694824</ele>
        <time>2019-03-30T07:27:16.000Z</time>
      </trkpt>
      <trkpt lat="50.67689" lon="5.5042">
        <ele>144.80000305176</ele>
        <time>2019-03-30T07:27:27.000Z</time>
      </trkpt>
      <trkpt lat="50.67696" lon="5.50445">
        <ele>164</ele>
      </trkpt>
      <trkpt lat="50.67705" lon="5.50459">
        <ele>163.7</ele>
      </trkpt>
      <trkpt lat="50.67715" lon="5.50475">
        <ele>144.60000610352</ele>
        <time>2019-03-30T07:27:33.000Z</time>
      </trkpt>
      <trkpt lat="50.6774" lon="5.50502">
        <ele>144.60000610352</ele>
        <time>2019-03-30T07:27:36.000Z</time>
      </trkpt>
      <trkpt lat="50.6774" lon="5.50502">
        <ele>144.60000610352</ele>
        <time>2019-03-30T07:27:37.000Z</time>
      </trkpt>
      <trkpt lat="50.6778" lon="5.50526">
        <ele>162.2</ele>
      </trkpt>
      <trkpt lat="50.67797" lon="5.50534">
        <ele>162.1</ele>
      </trkpt>
      <trkpt lat="50.67816" lon="5.50547">
        <ele>161.9</ele>
      </trkpt>
      <trkpt lat="50.67833" lon="5.50567">
        <ele>161.5</ele>
      </trkpt>
      <trkpt lat="50.67876" lon="5.50643">
        <ele>142.80000305176</ele>
        <time>2019-03-30T07:27:58.000Z</time>
      </trkpt>
      <trkpt lat="50.679" lon="5.50685">
        <ele>160.7</ele>
      </trkpt>
      <trkpt lat="50.67917" lon="5.50715">
        <ele>160.9</ele>
      </trkpt>
      <trkpt lat="50.67927" lon="5.50742">
        <ele>160.5</ele>
      </trkpt>
      <trkpt lat="50.67928" lon="5.50761">
        <ele>159.9</ele>
      </trkpt>
      <trkpt lat="50.67938" lon="5.50768">
        <ele>141.19999694824</ele>
        <time>2019-03-30T07:28:16.000Z</time>
      </trkpt>
      <trkpt lat="50.67944" lon="5.50775">
        <ele>160</ele>
      </trkpt>
      <trkpt lat="50.67953" lon="5.50795">
        <ele>159.7</ele>
      </trkpt>
      <trkpt lat="50.67969" lon="5.50847">
        <ele>158.8</ele>
      </trkpt>
      <trkpt lat="50.6799" lon="5.50931">
        <ele>140.19999694824</ele>
        <time>2019-03-30T07:28:32.000Z</time>
      </trkpt>
      <trkpt lat="50.67996" lon="5.50954">
        <ele>140</ele>
        <time>2019-03-30T07:28:34.000Z</time>
      </trkpt>
      <trkpt lat="50.68018" lon="5.51037">
        <ele>139.39999389648</ele>
        <time>2019-03-30T07:28:40.000Z</time>
      </trkpt>
      <trkpt lat="50.6803" lon="5.51083">
        <ele>139.19999694824</ele>
        <time>2019-03-30T07:28:45.000Z</time>
      </trkpt>
      <trkpt lat="50.68052" lon="5.5116">
        <ele>138.80000305176</ele>
        <time>2019-03-30T07:28:52.000Z</time>
      </trkpt>
      <trkpt lat="50.68056" lon="5.5117">
        <ele>138.80000305176</ele>
        <time>2019-03-30T07:28:53.000Z</time>
      </trkpt>
      <trkpt lat="50.68064" lon="5.51188">
        <ele>138.60000610352</ele>
        <time>2019-03-30T07:28:55.000Z</time>
      </trkpt>
      <trkpt lat="50.68073" lon="5.51203">
        <ele>138.60000610352</ele>
        <time>2019-03-30T07:28:57.000Z</time>
      </trkpt>
      <trkpt lat="50.68085" lon="5.51218">
        <ele>138.39999389648</ele>
        <time>2019-03-30T07:28:58.000Z</time>
      </trkpt>
      <trkpt lat="50.6811" lon="5.51247">
        <ele>138.19999694824</ele>
        <time>2019-03-30T07:29:03.000Z</time>
      </trkpt>
      <trkpt lat="50.68163" lon="5.51305">
        <ele>138</ele>
        <time>2019-03-30T07:29:10.000Z</time>
      </trkpt>
      <trkpt lat="50.68176" lon="5.51319">
        <ele>138</ele>
        <time>2019-03-30T07:29:12.000Z</time>
      </trkpt>
      <trkpt lat="50.68225" lon="5.51375">
        <ele>138.19999694824</ele>
        <time>2019-03-30T07:29:21.000Z</time>
      </trkpt>
      <trkpt lat="50.68273" lon="5.51427">
        <ele>138.39999389648</ele>
        <time>2019-03-30T07:29:28.000Z</time>
      </trkpt>
      <trkpt lat="50.68344" lon="5.51507">
        <ele>138.60000610352</ele>
        <time>2019-03-30T07:29:41.000Z</time>
      </trkpt>
      <trkpt lat="50.6839" lon="5.5155">
        <ele>158.2</ele>
      </trkpt>
      <trkpt lat="50.68453" lon="5.51603">
        <ele>157.7</ele>
      </trkpt>
      <trkpt lat="50.68467" lon="5.51616">
        <ele>157.7</ele>
      </trkpt>
      <trkpt lat="50.68527" lon="5.5167">
        <ele>140.80000305176</ele>
        <time>2019-03-30T07:30:11.000Z</time>
      </trkpt>
      <trkpt lat="50.68553" lon="5.51681">
        <ele>159.9</ele>
      </trkpt>
      <trkpt lat="50.68566" lon="5.51686">
        <ele>140.80000305176</ele>
        <time>2019-03-30T07:30:16.000Z</time>
      </trkpt>
      <trkpt lat="50.68586" lon="5.51691">
        <ele>141</ele>
        <time>2019-03-30T07:30:20.000Z</time>
      </trkpt>
      <trkpt lat="50.68619" lon="5.51701">
        <ele>141.19999694824</ele>
        <time>2019-03-30T07:30:24.000Z</time>
      </trkpt>
      <trkpt lat="50.68647" lon="5.51714">
        <ele>161</ele>
      </trkpt>
      <trkpt lat="50.68658" lon="5.51725">
        <ele>141.60000610352</ele>
        <time>2019-03-30T07:30:30.000Z</time>
      </trkpt>
      <trkpt lat="50.68706" lon="5.51772">
        <ele>141.80000305176</ele>
        <time>2019-03-30T07:30:39.000Z</time>
      </trkpt>
      <trkpt lat="50.68719" lon="5.51783">
        <ele>142</ele>
        <time>2019-03-30T07:30:41.000Z</time>
      </trkpt>
      <trkpt lat="50.68729" lon="5.51795">
        <ele>163.5</ele>
      </trkpt>
      <trkpt lat="50.68745" lon="5.51797">
        <ele>142</ele>
        <time>2019-03-30T07:30:45.000Z</time>
      </trkpt>
      <trkpt lat="50.68771" lon="5.51801">
        <ele>142.19999694824</ele>
        <time>2019-03-30T07:30:48.000Z</time>
      </trkpt>
      <trkpt lat="50.68819" lon="5.51804">
        <ele>142.60000610352</ele>
        <time>2019-03-30T07:30:56.000Z</time>
      </trkpt>
      <trkpt lat="50.68841" lon="5.51804">
        <ele>163.8</ele>
      </trkpt>
      <trkpt lat="50.68893" lon="5.51809">
        <ele>163.4</ele>
      </trkpt>
      <trkpt lat="50.6891" lon="5.51811">
        <ele>163.1</ele>
      </trkpt>
      <trkpt lat="50.68944" lon="5.51814">
        <ele>163</ele>
      </trkpt>
      <trkpt lat="50.68968" lon="5.51821">
        <ele>144</ele>
        <time>2019-03-30T07:31:18.000Z</time>
      </trkpt>
      <trkpt lat="50.68989" lon="5.5183">
        <ele>163</ele>
      </trkpt>
      <trkpt lat="50.69012" lon="5.51848">
        <ele>144</ele>
        <time>2019-03-30T07:31:24.000Z</time>
      </trkpt>
      <trkpt lat="50.69058" lon="5.5189">
        <ele>162.3</ele>
      </trkpt>
      <trkpt lat="50.69105" lon="5.51934">
        <ele>144.19999694824</ele>
        <time>2019-03-30T07:31:41.000Z</time>
      </trkpt>
      <trkpt lat="50.69117" lon="5.51945">
        <ele>144.19999694824</ele>
        <time>2019-03-30T07:31:42.000Z</time>
      </trkpt>
      <trkpt lat="50.69148" lon="5.51973">
        <ele>144.19999694824</ele>
        <time>2019-03-30T07:31:48.000Z</time>
      </trkpt>
      <trkpt lat="50.69178" lon="5.52002">
        <ele>143.80000305176</ele>
        <time>2019-03-30T07:31:52.000Z</time>
      </trkpt>
      <trkpt lat="50.6924" lon="5.5206">
        <ele>142.80000305176</ele>
        <time>2019-03-30T07:32:03.000Z</time>
      </trkpt>
      <trkpt lat="50.69291" lon="5.52108">
        <ele>142</ele>
        <time>2019-03-30T07:32:10.000Z</time>
      </trkpt>
      <trkpt lat="50.69309" lon="5.52124">
        <ele>159.2</ele>
      </trkpt>
      <trkpt lat="50.69322" lon="5.52139">
        <ele>159</ele>
      </trkpt>
      <trkpt lat="50.69333" lon="5.52162">
        <ele>141.80000305176</ele>
        <time>2019-03-30T07:32:18.000Z</time>
      </trkpt>
      <trkpt lat="50.69333" lon="5.52162">
        <ele>141.80000305176</ele>
        <time>2019-03-30T07:32:19.000Z</time>
      </trkpt>
      <trkpt lat="50.69343" lon="5.52182">
        <ele>160</ele>
      </trkpt>
      <trkpt lat="50.69351" lon="5.52206">
        <ele>142.19999694824</ele>
        <time>2019-03-30T07:32:24.000Z</time>
      </trkpt>
      <trkpt lat="50.69355" lon="5.52225">
        <ele>142.60000610352</ele>
        <time>2019-03-30T07:32:26.000Z</time>
      </trkpt>
      <trkpt lat="50.69362" lon="5.52249">
        <ele>161.2</ele>
      </trkpt>
      <trkpt lat="50.69363" lon="5.52284">
        <ele>144</ele>
        <time>2019-03-30T07:32:32.000Z</time>
      </trkpt>
      <trkpt lat="50.69363" lon="5.52333">
        <ele>163.6</ele>
      </trkpt>
      <trkpt lat="50.69362" lon="5.52371">
        <ele>165</ele>
      </trkpt>
      <trkpt lat="50.69358" lon="5.52415">
        <ele>164.7</ele>
      </trkpt>
      <trkpt lat="50.69378" lon="5.52413">
        <ele>164.7</ele>
      </trkpt>
      <trkpt lat="50.69388" lon="5.5241">
        <ele>164.7</ele>
      </trkpt>
      <trkpt lat="50.69411" lon="5.52401">
        <ele>164.7</ele>
      </trkpt>
      <trkpt lat="50.6944" lon="5.52408">
        <ele>163.4</ele>
      </trkpt>
      <trkpt lat="50.695" lon="5.52422">
        <ele>162</ele>
      </trkpt>
      <trkpt lat="50.69549" lon="5.52437">
        <ele>162.9</ele>
      </trkpt>
      <trkpt lat="50.69583" lon="5.52448">
        <ele>162.9</ele>
      </trkpt>
      <trkpt lat="50.69614" lon="5.52456">
        <ele>161</ele>
      </trkpt>
      <trkpt lat="50.69662" lon="5.52469">
        <ele>160.2</ele>
      </trkpt>
      <trkpt lat="50.69675" lon="5.52469">
        <ele>158.8</ele>
      </trkpt>
      <trkpt lat="50.69782" lon="5.52473">
        <ele>157.6</ele>
      </trkpt>
      <trkpt lat="50.69798" lon="5.52471">
        <ele>157</ele>
      </trkpt>
      <trkpt lat="50.69817" lon="5.52461">
        <ele>157.2</ele>
      </trkpt>
      <trkpt lat="50.69841" lon="5.5245">
        <ele>156</ele>
      </trkpt>
      <trkpt lat="50.69867" lon="5.52433">
        <ele>140.39999389648</ele>
        <time>2019-03-30T07:34:41.000Z</time>
      </trkpt>
      <trkpt lat="50.69891" lon="5.5242">
        <ele>140</ele>
        <time>2019-03-30T07:34:44.000Z</time>
      </trkpt>
      <trkpt lat="50.69937" lon="5.52397">
        <ele>154.6</ele>
      </trkpt>
      <trkpt lat="50.69977" lon="5.52376">
        <ele>154</ele>
      </trkpt>
      <trkpt lat="50.70018" lon="5.52351">
        <ele>152.2</ele>
      </trkpt>
      <trkpt lat="50.70045" lon="5.52336">
        <ele>151.9</ele>
      </trkpt>
      <trkpt lat="50.70084" lon="5.52313">
        <ele>136.80000305176</ele>
        <time>2019-03-30T07:35:07.000Z</time>
      </trkpt>
      <trkpt lat="50.70104" lon="5.52301">
        <ele>136</ele>
        <time>2019-03-30T07:35:09.000Z</time>
      </trkpt>
      <trkpt lat="50.70135" lon="5.52284">
        <ele>135.19999694824</ele>
        <time>2019-03-30T07:35:12.000Z</time>
      </trkpt>
      <trkpt lat="50.70157" lon="5.52272">
        <ele>134</ele>
        <time>2019-03-30T07:35:14.000Z</time>
      </trkpt>
      <trkpt lat="50.70199" lon="5.52251">
        <ele>146.7</ele>
      </trkpt>
      <trkpt lat="50.7023" lon="5.52234">
        <ele>146.3</ele>
      </trkpt>
      <trkpt lat="50.7026" lon="5.52218">
        <ele>145.5</ele>
      </trkpt>
      <trkpt lat="50.70311" lon="5.5219">
        <ele>145</ele>
      </trkpt>
      <trkpt lat="50.7034" lon="5.52173">
        <ele>144.2</ele>
      </trkpt>
      <trkpt lat="50.70379" lon="5.52152">
        <ele>144</ele>
      </trkpt>
      <trkpt lat="50.70418" lon="5.52128">
        <ele>144.6</ele>
      </trkpt>
      <trkpt lat="50.70472" lon="5.52099">
        <ele>145</ele>
      </trkpt>
      <trkpt lat="50.70507" lon="5.52079">
        <ele>144.9</ele>
      </trkpt>
      <trkpt lat="50.70583" lon="5.52035">
        <ele>144.8</ele>
      </trkpt>
      <trkpt lat="50.70627" lon="5.52009">
        <ele>126.40000152588</ele>
        <time>2019-03-30T07:36:04.000Z</time>
      </trkpt>
      <trkpt lat="50.70653" lon="5.51995">
        <ele>126.40000152588</ele>
        <time>2019-03-30T07:36:07.000Z</time>
      </trkpt>
      <trkpt lat="50.70718" lon="5.51958">
        <ele>126</ele>
        <time>2019-03-30T07:36:15.000Z</time>
      </trkpt>
      <trkpt lat="50.70733" lon="5.51949">
        <ele>126</ele>
        <time>2019-03-30T07:36:17.000Z</time>
      </trkpt>
      <trkpt lat="50.70756" lon="5.51936">
        <ele>125.80000305176</ele>
        <time>2019-03-30T07:36:20.000Z</time>
      </trkpt>
      <trkpt lat="50.70771" lon="5.51927">
        <ele>125.80000305176</ele>
        <time>2019-03-30T07:36:22.000Z</time>
      </trkpt>
      <trkpt lat="50.70803" lon="5.51912">
        <ele>144.3</ele>
      </trkpt>
      <trkpt lat="50.70825" lon="5.51899">
        <ele>144.6</ele>
      </trkpt>
      <trkpt lat="50.70877" lon="5.51875">
        <ele>145</ele>
      </trkpt>
      <trkpt lat="50.70877" lon="5.51849">
        <ele>125.40000152588</ele>
        <time>2019-03-30T07:36:48.000Z</time>
      </trkpt>
      <trkpt lat="50.70877" lon="5.51849">
        <ele>125.40000152588</ele>
        <time>2019-03-30T07:36:49.000Z</time>
      </trkpt>
      <trkpt lat="50.70873" lon="5.51792">
        <ele>125.19999694824</ele>
        <time>2019-03-30T07:36:56.000Z</time>
      </trkpt>
      <trkpt lat="50.70882" lon="5.51779">
        <ele>125.19999694824</ele>
        <time>2019-03-30T07:36:59.000Z</time>
      </trkpt>
      <trkpt lat="50.70899" lon="5.51766">
        <ele>125.19999694824</ele>
        <time>2019-03-30T07:37:02.000Z</time>
      </trkpt>
      <trkpt lat="50.70917" lon="5.51751">
        <ele>125.19999694824</ele>
        <time>2019-03-30T07:37:05.000Z</time>
      </trkpt>
      <trkpt lat="50.70937" lon="5.51734">
        <ele>125</ele>
        <time>2019-03-30T07:37:08.000Z</time>
      </trkpt>
      <trkpt lat="50.70966" lon="5.5171">
        <ele>124.80000305176</ele>
        <time>2019-03-30T07:37:12.000Z</time>
      </trkpt>
      <trkpt lat="50.71003" lon="5.51679">
        <ele>124.59999847412</ele>
        <time>2019-03-30T07:37:17.000Z</time>
      </trkpt>
      <trkpt lat="50.71033" lon="5.51655">
        <ele>124.40000152588</ele>
        <time>2019-03-30T07:37:21.000Z</time>
      </trkpt>
      <trkpt lat="50.71091" lon="5.51617">
        <ele>142.3</ele>
      </trkpt>
      <trkpt lat="50.71154" lon="5.51573">
        <ele>143.3</ele>
      </trkpt>
      <trkpt lat="50.71177" lon="5.51558">
        <ele>142.5</ele>
      </trkpt>
      <trkpt lat="50.71254" lon="5.51506">
        <ele>125</ele>
        <time>2019-03-30T07:37:50.000Z</time>
      </trkpt>
      <trkpt lat="50.71309" lon="5.51472">
        <ele>124.59999847412</ele>
        <time>2019-03-30T07:37:57.000Z</time>
      </trkpt>
      <trkpt lat="50.71326" lon="5.51467">
        <ele>124.59999847412</ele>
        <time>2019-03-30T07:37:58.000Z</time>
      </trkpt>
      <trkpt lat="50.71383" lon="5.51452">
        <ele>125.19999694824</ele>
        <time>2019-03-30T07:38:06.000Z</time>
      </trkpt>
      <trkpt lat="50.71391" lon="5.51449">
        <ele>125.40000152588</ele>
        <time>2019-03-30T07:38:07.000Z</time>
      </trkpt>
      <trkpt lat="50.71451" lon="5.51435">
        <ele>126.19999694824</ele>
        <time>2019-03-30T07:38:15.000Z</time>
      </trkpt>
      <trkpt lat="50.71511" lon="5.5142">
        <ele>126.59999847412</ele>
        <time>2019-03-30T07:38:22.000Z</time>
      </trkpt>
      <trkpt lat="50.71518" lon="5.51418">
        <ele>126.80000305176</ele>
        <time>2019-03-30T07:38:24.000Z</time>
      </trkpt>
      <trkpt lat="50.71596" lon="5.51398">
        <ele>126.40000152588</ele>
        <time>2019-03-30T07:38:34.000Z</time>
      </trkpt>
      <trkpt lat="50.7162" lon="5.51392">
        <ele>126.40000152588</ele>
        <time>2019-03-30T07:38:37.000Z</time>
      </trkpt>
      <trkpt lat="50.71635" lon="5.51388">
        <ele>126.40000152588</ele>
        <time>2019-03-30T07:38:39.000Z</time>
      </trkpt>
      <trkpt lat="50.7165" lon="5.51384">
        <ele>126.19999694824</ele>
        <time>2019-03-30T07:38:41.000Z</time>
      </trkpt>
      <trkpt lat="50.71695" lon="5.51373">
        <ele>125.59999847412</ele>
        <time>2019-03-30T07:38:47.000Z</time>
      </trkpt>
      <trkpt lat="50.7175" lon="5.51359">
        <ele>125.59999847412</ele>
        <time>2019-03-30T07:38:54.000Z</time>
      </trkpt>
      <trkpt lat="50.71774" lon="5.51352">
        <ele>125.59999847412</ele>
        <time>2019-03-30T07:38:57.000Z</time>
      </trkpt>
      <trkpt lat="50.7179" lon="5.51348">
        <ele>125.59999847412</ele>
        <time>2019-03-30T07:38:59.000Z</time>
      </trkpt>
      <trkpt lat="50.7184" lon="5.51335">
        <ele>125</ele>
        <time>2019-03-30T07:39:04.000Z</time>
      </trkpt>
      <trkpt lat="50.71858" lon="5.51331">
        <ele>124.80000305176</ele>
        <time>2019-03-30T07:39:07.000Z</time>
      </trkpt>
      <trkpt lat="50.71901" lon="5.51319">
        <ele>124.19999694824</ele>
        <time>2019-03-30T07:39:12.000Z</time>
      </trkpt>
      <trkpt lat="50.71948" lon="5.51308">
        <ele>123</ele>
        <time>2019-03-30T07:39:17.000Z</time>
      </trkpt>
      <trkpt lat="50.71967" lon="5.51303">
        <ele>122.80000305176</ele>
        <time>2019-03-30T07:39:18.000Z</time>
      </trkpt>
      <trkpt lat="50.72005" lon="5.51293">
        <ele>121.59999847412</ele>
        <time>2019-03-30T07:39:23.000Z</time>
      </trkpt>
      <trkpt lat="50.7204" lon="5.51284">
        <ele>120.80000305176</ele>
        <time>2019-03-30T07:39:27.000Z</time>
      </trkpt>
      <trkpt lat="50.72077" lon="5.51274">
        <ele>120.19999694824</ele>
        <time>2019-03-30T07:39:32.000Z</time>
      </trkpt>
      <trkpt lat="50.721" lon="5.51268">
        <ele>120</ele>
        <time>2019-03-30T07:39:37.000Z</time>
      </trkpt>
      <trkpt lat="50.72108" lon="5.51266">
        <ele>137.8</ele>
      </trkpt>
      <trkpt lat="50.7211" lon="5.51251">
        <ele>137.8</ele>
      </trkpt>
      <trkpt lat="50.72113" lon="5.51225">
        <ele>137.6</ele>
      </trkpt>
      <trkpt lat="50.72116" lon="5.51197">
        <ele>137.4</ele>
      </trkpt>
      <trkpt lat="50.72124" lon="5.51131">
        <ele>136.5</ele>
      </trkpt>
      <trkpt lat="50.72129" lon="5.51093">
        <ele>118.40000152588</ele>
        <time>2019-03-30T07:39:53.000Z</time>
      </trkpt>
      <trkpt lat="50.72134" lon="5.5105">
        <ele>118</ele>
        <time>2019-03-30T07:39:56.000Z</time>
      </trkpt>
      <trkpt lat="50.72139" lon="5.51007">
        <ele>117.80000305176</ele>
        <time>2019-03-30T07:39:58.000Z</time>
      </trkpt>
      <trkpt lat="50.72148" lon="5.50925">
        <ele>117.59999847412</ele>
        <time>2019-03-30T07:40:05.000Z</time>
      </trkpt>
      <trkpt lat="50.72152" lon="5.50845">
        <ele>117.19999694824</ele>
        <time>2019-03-30T07:40:10.000Z</time>
      </trkpt>
      <trkpt lat="50.72148" lon="5.50768">
        <ele>117</ele>
        <time>2019-03-30T07:40:16.000Z</time>
      </trkpt>
      <trkpt lat="50.72148" lon="5.50768">
        <ele>117</ele>
        <time>2019-03-30T07:40:17.000Z</time>
      </trkpt>
      <trkpt lat="50.72144" lon="5.50734">
        <ele>135</ele>
      </trkpt>
      <trkpt lat="50.72141" lon="5.50694">
        <ele>116.59999847412</ele>
        <time>2019-03-30T07:40:23.000Z</time>
      </trkpt>
      <trkpt lat="50.72137" lon="5.50658">
        <ele>116.59999847412</ele>
        <time>2019-03-30T07:40:26.000Z</time>
      </trkpt>
      <trkpt lat="50.72129" lon="5.50571">
        <ele>116</ele>
        <time>2019-03-30T07:40:33.000Z</time>
      </trkpt>
      <trkpt lat="50.72126" lon="5.50546">
        <ele>116</ele>
        <time>2019-03-30T07:40:35.000Z</time>
      </trkpt>
      <trkpt lat="50.72116" lon="5.5045">
        <ele>115.59999847412</ele>
        <time>2019-03-30T07:40:42.000Z</time>
      </trkpt>
      <trkpt lat="50.72112" lon="5.50402">
        <ele>115.40000152588</ele>
        <time>2019-03-30T07:40:46.000Z</time>
      </trkpt>
      <trkpt lat="50.72109" lon="5.50378">
        <ele>115.40000152588</ele>
        <time>2019-03-30T07:40:48.000Z</time>
      </trkpt>
      <trkpt lat="50.72105" lon="5.50328">
        <ele>134</ele>
      </trkpt>
      <trkpt lat="50.721" lon="5.50285">
        <ele>115</ele>
        <time>2019-03-30T07:40:57.000Z</time>
      </trkpt>
      <trkpt lat="50.72096" lon="5.5024">
        <ele>115</ele>
        <time>2019-03-30T07:41:00.000Z</time>
      </trkpt>
      <trkpt lat="50.72088" lon="5.50159">
        <ele>114.80000305176</ele>
        <time>2019-03-30T07:41:08.000Z</time>
      </trkpt>
      <trkpt lat="50.72083" lon="5.50109">
        <ele>114.80000305176</ele>
        <time>2019-03-30T07:41:12.000Z</time>
      </trkpt>
      <trkpt lat="50.72081" lon="5.50092">
        <ele>114.59999847412</ele>
        <time>2019-03-30T07:41:15.000Z</time>
      </trkpt>
      <trkpt lat="50.7208" lon="5.50077">
        <ele>114.59999847412</ele>
        <time>2019-03-30T07:41:16.000Z</time>
      </trkpt>
      <trkpt lat="50.72079" lon="5.50063">
        <ele>133.6</ele>
      </trkpt>
      <trkpt lat="50.72114" lon="5.50062">
        <ele>133.6</ele>
      </trkpt>
      <trkpt lat="50.72135" lon="5.50062">
        <ele>134</ele>
      </trkpt>
      <trkpt lat="50.72149" lon="5.50061">
        <ele>114.40000152588</ele>
        <time>2019-03-30T07:41:30.000Z</time>
      </trkpt>
      <trkpt lat="50.72156" lon="5.50064">
        <ele>114.59999847412</ele>
        <time>2019-03-30T07:41:32.000Z</time>
      </trkpt>
      <trkpt lat="50.72163" lon="5.50068">
        <ele>114.59999847412</ele>
        <time>2019-03-30T07:41:33.000Z</time>
      </trkpt>
      <trkpt lat="50.72175" lon="5.50077">
        <ele>114.80000305176</ele>
        <time>2019-03-30T07:41:34.000Z</time>
      </trkpt>
      <trkpt lat="50.72188" lon="5.50087">
        <ele>114.80000305176</ele>
        <time>2019-03-30T07:41:37.000Z</time>
      </trkpt>
      <trkpt lat="50.72201" lon="5.50099">
        <ele>115</ele>
        <time>2019-03-30T07:41:39.000Z</time>
      </trkpt>
      <trkpt lat="50.72213" lon="5.5011">
        <ele>115.59999847412</ele>
        <time>2019-03-30T07:41:41.000Z</time>
      </trkpt>
      <trkpt lat="50.72237" lon="5.50134">
        <ele>116.59999847412</ele>
        <time>2019-03-30T07:41:45.000Z</time>
      </trkpt>
      <trkpt lat="50.72248" lon="5.50145">
        <ele>116.80000305176</ele>
        <time>2019-03-30T07:41:46.000Z</time>
      </trkpt>
      <trkpt lat="50.72281" lon="5.50177">
        <ele>138.9</ele>
      </trkpt>
      <trkpt lat="50.72304" lon="5.50207">
        <ele>119</ele>
        <time>2019-03-30T07:41:57.000Z</time>
      </trkpt>
      <trkpt lat="50.72343" lon="5.50253">
        <ele>141.1</ele>
      </trkpt>
      <trkpt lat="50.72365" lon="5.50282">
        <ele>121.19999694824</ele>
        <time>2019-03-30T07:42:09.000Z</time>
      </trkpt>
      <trkpt lat="50.72386" lon="5.50307">
        <ele>122</ele>
        <time>2019-03-30T07:42:13.000Z</time>
      </trkpt>
      <trkpt lat="50.72402" lon="5.50326">
        <ele>122.19999694824</ele>
        <time>2019-03-30T07:42:16.000Z</time>
      </trkpt>
      <trkpt lat="50.7244" lon="5.50366">
        <ele>123.19999694824</ele>
        <time>2019-03-30T07:42:23.000Z</time>
      </trkpt>
      <trkpt lat="50.72485" lon="5.50407">
        <ele>124.59999847412</ele>
        <time>2019-03-30T07:42:30.000Z</time>
      </trkpt>
      <trkpt lat="50.72506" lon="5.50423">
        <ele>144</ele>
      </trkpt>
      <trkpt lat="50.72529" lon="5.50449">
        <ele>125.80000305176</ele>
        <time>2019-03-30T07:42:39.000Z</time>
      </trkpt>
      <trkpt lat="50.72549" lon="5.50471">
        <ele>126.59999847412</ele>
        <time>2019-03-30T07:42:43.000Z</time>
      </trkpt>
      <trkpt lat="50.72578" lon="5.50509">
        <ele>127.59999847412</ele>
        <time>2019-03-30T07:42:48.000Z</time>
      </trkpt>
      <trkpt lat="50.72578" lon="5.50509">
        <ele>127.80000305176</ele>
        <time>2019-03-30T07:42:49.000Z</time>
      </trkpt>
      <trkpt lat="50.72627" lon="5.5057">
        <ele>128.80000305176</ele>
        <time>2019-03-30T07:42:59.000Z</time>
      </trkpt>
      <trkpt lat="50.72654" lon="5.506">
        <ele>129.19999694824</ele>
        <time>2019-03-30T07:43:05.000Z</time>
      </trkpt>
      <trkpt lat="50.72682" lon="5.50628">
        <ele>148</ele>
      </trkpt>
      <trkpt lat="50.72704" lon="5.50655">
        <ele>128.80000305176</ele>
        <time>2019-03-30T07:43:20.000Z</time>
      </trkpt>
      <trkpt lat="50.72715" lon="5.50669">
        <ele>147.8</ele>
      </trkpt>
      <trkpt lat="50.72737" lon="5.50632">
        <ele>147</ele>
      </trkpt>
      <trkpt lat="50.72757" lon="5.50598">
        <ele>145</ele>
      </trkpt>
      <trkpt lat="50.72769" lon="5.50581">
        <ele>144.2</ele>
      </trkpt>
      <trkpt lat="50.72782" lon="5.50573">
        <ele>125.80000305176</ele>
        <time>2019-03-30T07:43:36.000Z</time>
      </trkpt>
      <trkpt lat="50.72796" lon="5.50566">
        <ele>142.8</ele>
      </trkpt>
      <trkpt lat="50.72805" lon="5.50563">
        <ele>142.5</ele>
      </trkpt>
      <trkpt lat="50.72829" lon="5.50545">
        <ele>123.40000152588</ele>
        <time>2019-03-30T07:43:43.000Z</time>
      </trkpt>
      <trkpt lat="50.72837" lon="5.50539">
        <ele>123.19999694824</ele>
        <time>2019-03-30T07:43:44.000Z</time>
      </trkpt>
      <trkpt lat="50.72844" lon="5.50531">
        <ele>123</ele>
        <time>2019-03-30T07:43:45.000Z</time>
      </trkpt>
      <trkpt lat="50.72869" lon="5.505">
        <ele>122.59999847412</ele>
        <time>2019-03-30T07:43:48.000Z</time>
      </trkpt>
      <trkpt lat="50.72881" lon="5.50485">
        <ele>122</ele>
        <time>2019-03-30T07:43:51.000Z</time>
      </trkpt>
      <trkpt lat="50.72898" lon="5.50464">
        <ele>121.40000152588</ele>
        <time>2019-03-30T07:43:54.000Z</time>
      </trkpt>
      <trkpt lat="50.72905" lon="5.50453">
        <ele>141</ele>
      </trkpt>
      <trkpt lat="50.7291" lon="5.50463">
        <ele>121.19999694824</ele>
        <time>2019-03-30T07:43:56.000Z</time>
      </trkpt>
      <trkpt lat="50.72926" lon="5.50484">
        <ele>121.19999694824</ele>
        <time>2019-03-30T07:43:59.000Z</time>
      </trkpt>
      <trkpt lat="50.72936" lon="5.505">
        <ele>121.19999694824</ele>
        <time>2019-03-30T07:44:01.000Z</time>
      </trkpt>
      <trkpt lat="50.72952" lon="5.50523">
        <ele>142</ele>
      </trkpt>
      <trkpt lat="50.72967" lon="5.50541">
        <ele>121.59999847412</ele>
        <time>2019-03-30T07:44:06.000Z</time>
      </trkpt>
      <trkpt lat="50.72992" lon="5.50563">
        <ele>122</ele>
        <time>2019-03-30T07:44:10.000Z</time>
      </trkpt>
      <trkpt lat="50.72998" lon="5.50569">
        <ele>122.19999694824</ele>
        <time>2019-03-30T07:44:12.000Z</time>
      </trkpt>
      <trkpt lat="50.73002" lon="5.50576">
        <ele>122.59999847412</ele>
        <time>2019-03-30T07:44:13.000Z</time>
      </trkpt>
      <trkpt lat="50.73008" lon="5.50594">
        <ele>143</ele>
      </trkpt>
      <trkpt lat="50.73011" lon="5.50613">
        <ele>123.19999694824</ele>
        <time>2019-03-30T07:44:16.000Z</time>
      </trkpt>
      <trkpt lat="50.73011" lon="5.50613">
        <ele>123.59999847412</ele>
        <time>2019-03-30T07:44:17.000Z</time>
      </trkpt>
      <trkpt lat="50.73012" lon="5.50645">
        <ele>143.8</ele>
      </trkpt>
      <trkpt lat="50.73019" lon="5.50662">
        <ele>143.9</ele>
      </trkpt>
      <trkpt lat="50.73027" lon="5.50672">
        <ele>125</ele>
        <time>2019-03-30T07:44:24.000Z</time>
      </trkpt>
      <trkpt lat="50.73034" lon="5.50683">
        <ele>125.40000152588</ele>
        <time>2019-03-30T07:44:26.000Z</time>
      </trkpt>
      <trkpt lat="50.73037" lon="5.50694">
        <ele>145</ele>
      </trkpt>
      <trkpt lat="50.73038" lon="5.50705">
        <ele>126</ele>
        <time>2019-03-30T07:44:29.000Z</time>
      </trkpt>
      <trkpt lat="50.73036" lon="5.50723">
        <ele>126.59999847412</ele>
        <time>2019-03-30T07:44:31.000Z</time>
      </trkpt>
      <trkpt lat="50.73034" lon="5.50732">
        <ele>126.80000305176</ele>
        <time>2019-03-30T07:44:32.000Z</time>
      </trkpt>
      <trkpt lat="50.73018" lon="5.50771">
        <ele>145.9</ele>
      </trkpt>
      <trkpt lat="50.73019" lon="5.50781">
        <ele>145.9</ele>
      </trkpt>
      <trkpt lat="50.73027" lon="5.50791">
        <ele>127.40000152588</ele>
        <time>2019-03-30T07:44:40.000Z</time>
      </trkpt>
      <trkpt lat="50.73039" lon="5.50801">
        <ele>127.59999847412</ele>
        <time>2019-03-30T07:44:43.000Z</time>
      </trkpt>
      <trkpt lat="50.73053" lon="5.50807">
        <ele>145.7</ele>
      </trkpt>
      <trkpt lat="50.73039" lon="5.50832">
        <ele>145.9</ele>
      </trkpt>
      <trkpt lat="50.73021" lon="5.50866">
        <ele>146</ele>
      </trkpt>
      <trkpt lat="50.72975" lon="5.50955">
        <ele>146.4</ele>
      </trkpt>
      <trkpt lat="50.72964" lon="5.50975">
        <ele>146.5</ele>
      </trkpt>
      <trkpt lat="50.7293" lon="5.51037">
        <ele>147.1</ele>
      </trkpt>
      <trkpt lat="50.729" lon="5.511">
        <ele>129.19999694824</ele>
        <time>2019-03-30T07:45:18.000Z</time>
      </trkpt>
      <trkpt lat="50.729" lon="5.511">
        <ele>129.19999694824</ele>
        <time>2019-03-30T07:45:19.000Z</time>
      </trkpt>
      <trkpt lat="50.72869" lon="5.51159">
        <ele>149.2</ele>
      </trkpt>
      <trkpt lat="50.72861" lon="5.51175">
        <ele>149.3</ele>
      </trkpt>
      <trkpt lat="50.72849" lon="5.512">
        <ele>149.3</ele>
      </trkpt>
      <trkpt lat="50.72839" lon="5.51219">
        <ele>149</ele>
      </trkpt>
      <trkpt lat="50.72828" lon="5.51227">
        <ele>132</ele>
        <time>2019-03-30T07:45:38.000Z</time>
      </trkpt>
      <trkpt lat="50.72823" lon="5.51242">
        <ele>150.7</ele>
      </trkpt>
      <trkpt lat="50.72817" lon="5.51264">
        <ele>151.3</ele>
      </trkpt>
      <trkpt lat="50.72806" lon="5.51302">
        <ele>133</ele>
        <time>2019-03-30T07:45:46.000Z</time>
      </trkpt>
      <trkpt lat="50.72797" lon="5.51333">
        <ele>152.2</ele>
      </trkpt>
      <trkpt lat="50.72788" lon="5.51372">
        <ele>133.80000305176</ele>
        <time>2019-03-30T07:45:55.000Z</time>
      </trkpt>
      <trkpt lat="50.72775" lon="5.51433">
        <ele>133.80000305176</ele>
        <time>2019-03-30T07:46:00.000Z</time>
      </trkpt>
      <trkpt lat="50.72774" lon="5.51444">
        <ele>133.80000305176</ele>
        <time>2019-03-30T07:46:02.000Z</time>
      </trkpt>
      <trkpt lat="50.72768" lon="5.51495">
        <ele>149.7</ele>
      </trkpt>
      <trkpt lat="50.72761" lon="5.51541">
        <ele>132.39999389648</ele>
        <time>2019-03-30T07:46:10.000Z</time>
      </trkpt>
      <trkpt lat="50.72761" lon="5.51541">
        <ele>132.39999389648</ele>
        <time>2019-03-30T07:46:11.000Z</time>
      </trkpt>
      <trkpt lat="50.72757" lon="5.51602">
        <ele>148</ele>
      </trkpt>
      <trkpt lat="50.72743" lon="5.5162">
        <ele>131.39999389648</ele>
        <time>2019-03-30T07:46:18.000Z</time>
      </trkpt>
      <trkpt lat="50.72738" lon="5.51628">
        <ele>131.19999694824</ele>
        <time>2019-03-30T07:46:20.000Z</time>
      </trkpt>
      <trkpt lat="50.7269" lon="5.51687">
        <ele>147.7</ele>
      </trkpt>
      <trkpt lat="50.72683" lon="5.51699">
        <ele>130.39999389648</ele>
        <time>2019-03-30T07:46:28.000Z</time>
      </trkpt>
      <trkpt lat="50.72651" lon="5.51737">
        <ele>130.39999389648</ele>
        <time>2019-03-30T07:46:35.000Z</time>
      </trkpt>
      <trkpt lat="50.72636" lon="5.51756">
        <ele>148.9</ele>
      </trkpt>
      <trkpt lat="50.72648" lon="5.51777">
        <ele>148.9</ele>
      </trkpt>
      <trkpt lat="50.7267" lon="5.51812">
        <ele>147.5</ele>
      </trkpt>
      <trkpt lat="50.72714" lon="5.51879">
        <ele>147.2</ele>
      </trkpt>
      <trkpt lat="50.72726" lon="5.51901">
        <ele>130.60000610352</ele>
        <time>2019-03-30T07:46:54.000Z</time>
      </trkpt>
      <trkpt lat="50.72743" lon="5.51926">
        <ele>147</ele>
      </trkpt>
      <trkpt lat="50.72761" lon="5.5196">
        <ele>145.3</ele>
      </trkpt>
      <trkpt lat="50.72769" lon="5.51981">
        <ele>145.5</ele>
      </trkpt>
      <trkpt lat="50.72784" lon="5.52031">
        <ele>145.6</ele>
      </trkpt>
      <trkpt lat="50.72795" lon="5.52069">
        <ele>129.19999694824</ele>
        <time>2019-03-30T07:47:10.000Z</time>
      </trkpt>
      <trkpt lat="50.72832" lon="5.52158">
        <ele>128.80000305176</ele>
        <time>2019-03-30T07:47:18.000Z</time>
      </trkpt>
      <trkpt lat="50.72852" lon="5.52204">
        <ele>128.19999694824</ele>
        <time>2019-03-30T07:47:23.000Z</time>
      </trkpt>
      <trkpt lat="50.72866" lon="5.52237">
        <ele>128</ele>
        <time>2019-03-30T07:47:26.000Z</time>
      </trkpt>
      <trkpt lat="50.72887" lon="5.52285">
        <ele>145.8</ele>
      </trkpt>
      <trkpt lat="50.72931" lon="5.52385">
        <ele>143.6</ele>
      </trkpt>
      <trkpt lat="50.72956" lon="5.52439">
        <ele>142.5</ele>
      </trkpt>
      <trkpt lat="50.72969" lon="5.52477">
        <ele>142</ele>
      </trkpt>
      <trkpt lat="50.72982" lon="5.52477">
        <ele>124.19999694824</ele>
        <time>2019-03-30T07:47:52.000Z</time>
      </trkpt>
      <trkpt lat="50.72982" lon="5.52477">
        <ele>124</ele>
        <time>2019-03-30T07:47:53.000Z</time>
      </trkpt>
      <trkpt lat="50.73005" lon="5.52474">
        <ele>123.19999694824</ele>
        <time>2019-03-30T07:47:56.000Z</time>
      </trkpt>
      <trkpt lat="50.73012" lon="5.52472">
        <ele>123.19999694824</ele>
        <time>2019-03-30T07:47:57.000Z</time>
      </trkpt>
      <trkpt lat="50.73029" lon="5.5247">
        <ele>123</ele>
        <time>2019-03-30T07:47:58.000Z</time>
      </trkpt>
      <trkpt lat="50.73078" lon="5.52462">
        <ele>122.40000152588</ele>
        <time>2019-03-30T07:48:05.000Z</time>
      </trkpt>
      <trkpt lat="50.73125" lon="5.52455">
        <ele>122.19999694824</ele>
        <time>2019-03-30T07:48:10.000Z</time>
      </trkpt>
      <trkpt lat="50.7314" lon="5.52454">
        <ele>122.19999694824</ele>
        <time>2019-03-30T07:48:13.000Z</time>
      </trkpt>
      <trkpt lat="50.73195" lon="5.52451">
        <ele>122</ele>
        <time>2019-03-30T07:48:20.000Z</time>
      </trkpt>
      <trkpt lat="50.7322" lon="5.5245">
        <ele>122</ele>
        <time>2019-03-30T07:48:22.000Z</time>
      </trkpt>
      <trkpt lat="50.73278" lon="5.52451">
        <ele>121.59999847412</ele>
        <time>2019-03-30T07:48:30.000Z</time>
      </trkpt>
      <trkpt lat="50.73305" lon="5.52451">
        <ele>121.59999847412</ele>
        <time>2019-03-30T07:48:33.000Z</time>
      </trkpt>
      <trkpt lat="50.7334" lon="5.5245">
        <ele>121.40000152588</ele>
        <time>2019-03-30T07:48:37.000Z</time>
      </trkpt>
      <trkpt lat="50.73376" lon="5.52443">
        <ele>121.40000152588</ele>
        <time>2019-03-30T07:48:41.000Z</time>
      </trkpt>
      <trkpt lat="50.73425" lon="5.52422">
        <ele>121.59999847412</ele>
        <time>2019-03-30T07:48:47.000Z</time>
      </trkpt>
      <trkpt lat="50.73494" lon="5.52389">
        <ele>121.80000305176</ele>
        <time>2019-03-30T07:48:54.000Z</time>
      </trkpt>
      <trkpt lat="50.73512" lon="5.52381">
        <ele>121.40000152588</ele>
        <time>2019-03-30T07:48:57.000Z</time>
      </trkpt>
      <trkpt lat="50.7355" lon="5.5237">
        <ele>120.80000305176</ele>
        <time>2019-03-30T07:49:01.000Z</time>
      </trkpt>
      <trkpt lat="50.7356" lon="5.52369">
        <ele>120.59999847412</ele>
        <time>2019-03-30T07:49:02.000Z</time>
      </trkpt>
      <trkpt lat="50.7361" lon="5.52373">
        <ele>119.59999847412</ele>
        <time>2019-03-30T07:49:07.000Z</time>
      </trkpt>
      <trkpt lat="50.7362" lon="5.52376">
        <ele>119.40000152588</ele>
        <time>2019-03-30T07:49:08.000Z</time>
      </trkpt>
      <trkpt lat="50.73667" lon="5.52398">
        <ele>119.19999694824</ele>
        <time>2019-03-30T07:49:12.000Z</time>
      </trkpt>
      <trkpt lat="50.73667" lon="5.52398">
        <ele>119.19999694824</ele>
        <time>2019-03-30T07:49:13.000Z</time>
      </trkpt>
      <trkpt lat="50.73726" lon="5.52427">
        <ele>119.19999694824</ele>
        <time>2019-03-30T07:49:18.000Z</time>
      </trkpt>
      <trkpt lat="50.73779" lon="5.52455">
        <ele>136.9</ele>
      </trkpt>
      <trkpt lat="50.73839" lon="5.52483">
        <ele>120.59999847412</ele>
        <time>2019-03-30T07:49:32.000Z</time>
      </trkpt>
      <trkpt lat="50.73864" lon="5.52495">
        <ele>120.80000305176</ele>
        <time>2019-03-30T07:49:35.000Z</time>
      </trkpt>
      <trkpt lat="50.73933" lon="5.52529">
        <ele>120.40000152588</ele>
        <time>2019-03-30T07:49:43.000Z</time>
      </trkpt>
      <trkpt lat="50.73968" lon="5.52546">
        <ele>120.19999694824</ele>
        <time>2019-03-30T07:49:46.000Z</time>
      </trkpt>
      <trkpt lat="50.74005" lon="5.52564">
        <ele>119.59999847412</ele>
        <time>2019-03-30T07:49:51.000Z</time>
      </trkpt>
      <trkpt lat="50.74081" lon="5.52601">
        <ele>118.59999847412</ele>
        <time>2019-03-30T07:49:59.000Z</time>
      </trkpt>
      <trkpt lat="50.74138" lon="5.52631">
        <ele>117.40000152588</ele>
        <time>2019-03-30T07:50:05.000Z</time>
      </trkpt>
      <trkpt lat="50.74176" lon="5.52649">
        <ele>116.59999847412</ele>
        <time>2019-03-30T07:50:09.000Z</time>
      </trkpt>
      <trkpt lat="50.74195" lon="5.52659">
        <ele>116.40000152588</ele>
        <time>2019-03-30T07:50:11.000Z</time>
      </trkpt>
      <trkpt lat="50.74253" lon="5.52684">
        <ele>115.40000152588</ele>
        <time>2019-03-30T07:50:16.000Z</time>
      </trkpt>
      <trkpt lat="50.74253" lon="5.52684">
        <ele>115.40000152588</ele>
        <time>2019-03-30T07:50:17.000Z</time>
      </trkpt>
      <trkpt lat="50.74351" lon="5.52719">
        <ele>114.80000305176</ele>
        <time>2019-03-30T07:50:27.000Z</time>
      </trkpt>
      <trkpt lat="50.74371" lon="5.52726">
        <ele>114.80000305176</ele>
        <time>2019-03-30T07:50:28.000Z</time>
      </trkpt>
      <trkpt lat="50.744" lon="5.52737">
        <ele>114.40000152588</ele>
        <time>2019-03-30T07:50:32.000Z</time>
      </trkpt>
      <trkpt lat="50.74429" lon="5.52746">
        <ele>114.19999694824</ele>
        <time>2019-03-30T07:50:35.000Z</time>
      </trkpt>
      <trkpt lat="50.74487" lon="5.52768">
        <ele>113.40000152588</ele>
        <time>2019-03-30T07:50:40.000Z</time>
      </trkpt>
      <trkpt lat="50.74487" lon="5.52768">
        <ele>113.19999694824</ele>
        <time>2019-03-30T07:50:41.000Z</time>
      </trkpt>
      <trkpt lat="50.74546" lon="5.52789">
        <ele>112.80000305176</ele>
        <time>2019-03-30T07:50:46.000Z</time>
      </trkpt>
      <trkpt lat="50.74576" lon="5.528">
        <ele>112.40000152588</ele>
        <time>2019-03-30T07:50:50.000Z</time>
      </trkpt>
      <trkpt lat="50.74607" lon="5.52812">
        <ele>112.19999694824</ele>
        <time>2019-03-30T07:50:52.000Z</time>
      </trkpt>
      <trkpt lat="50.74629" lon="5.5282">
        <ele>111.80000305176</ele>
        <time>2019-03-30T07:50:55.000Z</time>
      </trkpt>
      <trkpt lat="50.74677" lon="5.52834">
        <ele>111</ele>
        <time>2019-03-30T07:50:58.000Z</time>
      </trkpt>
      <trkpt lat="50.74689" lon="5.52836">
        <ele>110.19999694824</ele>
        <time>2019-03-30T07:51:00.000Z</time>
      </trkpt>
      <trkpt lat="50.74702" lon="5.52838">
        <ele>109.80000305176</ele>
        <time>2019-03-30T07:51:01.000Z</time>
      </trkpt>
      <trkpt lat="50.74755" lon="5.5284">
        <ele>108.19999694824</ele>
        <time>2019-03-30T07:51:04.000Z</time>
      </trkpt>
      <trkpt lat="50.74778" lon="5.52835">
        <ele>117.9</ele>
      </trkpt>
      <trkpt lat="50.74793" lon="5.52833">
        <ele>117.8</ele>
      </trkpt>
      <trkpt lat="50.7483" lon="5.52827">
        <ele>104.80000305176</ele>
        <time>2019-03-30T07:51:10.000Z</time>
      </trkpt>
      <trkpt lat="50.74855" lon="5.52822">
        <ele>103.59999847412</ele>
        <time>2019-03-30T07:51:13.000Z</time>
      </trkpt>
      <trkpt lat="50.74903" lon="5.52812">
        <ele>115.1</ele>
      </trkpt>
      <trkpt lat="50.74949" lon="5.52804">
        <ele>99.599998474121</ele>
        <time>2019-03-30T07:51:21.000Z</time>
      </trkpt>
      <trkpt lat="50.75004" lon="5.52793">
        <ele>98.400001525879</ele>
        <time>2019-03-30T07:51:26.000Z</time>
      </trkpt>
      <trkpt lat="50.75033" lon="5.5279">
        <ele>98.199996948242</ele>
        <time>2019-03-30T07:51:28.000Z</time>
      </trkpt>
      <trkpt lat="50.75051" lon="5.52793">
        <ele>98</ele>
        <time>2019-03-30T07:51:30.000Z</time>
      </trkpt>
      <trkpt lat="50.7506" lon="5.52797">
        <ele>97.599998474121</ele>
        <time>2019-03-30T07:51:32.000Z</time>
      </trkpt>
      <trkpt lat="50.75068" lon="5.52802">
        <ele>97.400001525879</ele>
        <time>2019-03-30T07:51:33.000Z</time>
      </trkpt>
      <trkpt lat="50.75084" lon="5.52817">
        <ele>97.199996948242</ele>
        <time>2019-03-30T07:51:34.000Z</time>
      </trkpt>
      <trkpt lat="50.75099" lon="5.52838">
        <ele>96.800003051758</ele>
        <time>2019-03-30T07:51:36.000Z</time>
      </trkpt>
      <trkpt lat="50.75099" lon="5.52838">
        <ele>96.400001525879</ele>
        <time>2019-03-30T07:51:37.000Z</time>
      </trkpt>
      <trkpt lat="50.75105" lon="5.5285">
        <ele>96</ele>
        <time>2019-03-30T07:51:38.000Z</time>
      </trkpt>
      <trkpt lat="50.75115" lon="5.52879">
        <ele>95</ele>
        <time>2019-03-30T07:51:40.000Z</time>
      </trkpt>
      <trkpt lat="50.75121" lon="5.52906">
        <ele>103.8</ele>
      </trkpt>
      <trkpt lat="50.75123" lon="5.5293">
        <ele>102</ele>
      </trkpt>
      <trkpt lat="50.75123" lon="5.52967">
        <ele>101.7</ele>
      </trkpt>
      <trkpt lat="50.75122" lon="5.53004">
        <ele>101</ele>
      </trkpt>
      <trkpt lat="50.75122" lon="5.5304">
        <ele>100.8</ele>
      </trkpt>
      <trkpt lat="50.7512" lon="5.53106">
        <ele>86.599998474121</ele>
        <time>2019-03-30T07:51:53.000Z</time>
      </trkpt>
      <trkpt lat="50.7512" lon="5.53144">
        <ele>85.400001525879</ele>
        <time>2019-03-30T07:51:55.000Z</time>
      </trkpt>
      <trkpt lat="50.75119" lon="5.53182">
        <ele>84</ele>
        <time>2019-03-30T07:51:57.000Z</time>
      </trkpt>
      <trkpt lat="50.75118" lon="5.53221">
        <ele>82.400001525879</ele>
        <time>2019-03-30T07:51:59.000Z</time>
      </trkpt>
      <trkpt lat="50.75118" lon="5.53259">
        <ele>80.800003051758</ele>
        <time>2019-03-30T07:52:01.000Z</time>
      </trkpt>
      <trkpt lat="50.75118" lon="5.53335">
        <ele>78.599998474121</ele>
        <time>2019-03-30T07:52:05.000Z</time>
      </trkpt>
      <trkpt lat="50.75118" lon="5.53373">
        <ele>77.199996948242</ele>
        <time>2019-03-30T07:52:07.000Z</time>
      </trkpt>
      <trkpt lat="50.75118" lon="5.53407">
        <ele>76</ele>
        <time>2019-03-30T07:52:09.000Z</time>
      </trkpt>
      <trkpt lat="50.75117" lon="5.53434">
        <ele>74.199996948242</ele>
        <time>2019-03-30T07:52:11.000Z</time>
      </trkpt>
      <trkpt lat="50.75116" lon="5.53474">
        <ele>72.599998474121</ele>
        <time>2019-03-30T07:52:14.000Z</time>
      </trkpt>
      <trkpt lat="50.75116" lon="5.53486">
        <ele>72</ele>
        <time>2019-03-30T07:52:15.000Z</time>
      </trkpt>
      <trkpt lat="50.75115" lon="5.5351">
        <ele>71</ele>
        <time>2019-03-30T07:52:17.000Z</time>
      </trkpt>
      <trkpt lat="50.75113" lon="5.53536">
        <ele>70.400001525879</ele>
        <time>2019-03-30T07:52:18.000Z</time>
      </trkpt>
      <trkpt lat="50.75113" lon="5.53536">
        <ele>70</ele>
        <time>2019-03-30T07:52:19.000Z</time>
      </trkpt>
      <trkpt lat="50.75112" lon="5.5355">
        <ele>69.800003051758</ele>
        <time>2019-03-30T07:52:20.000Z</time>
      </trkpt>
      <trkpt lat="50.75107" lon="5.53591">
        <ele>69</ele>
        <time>2019-03-30T07:52:22.000Z</time>
      </trkpt>
      <trkpt lat="50.75107" lon="5.53591">
        <ele>68.599998474121</ele>
        <time>2019-03-30T07:52:23.000Z</time>
      </trkpt>
      <trkpt lat="50.75104" lon="5.53621">
        <ele>86.1</ele>
      </trkpt>
      <trkpt lat="50.75099" lon="5.53671">
        <ele>87.5</ele>
      </trkpt>
      <trkpt lat="50.75093" lon="5.53684">
        <ele>87.7</ele>
      </trkpt>
      <trkpt lat="50.75097" lon="5.53693">
        <ele>88</ele>
      </trkpt>
      <trkpt lat="50.75103" lon="5.53696">
        <ele>88</ele>
      </trkpt>
      <trkpt lat="50.75114" lon="5.53705">
        <ele>88.1</ele>
      </trkpt>
      <trkpt lat="50.75129" lon="5.53712">
        <ele>88</ele>
      </trkpt>
      <trkpt lat="50.75169" lon="5.53732">
        <ele>86.1</ele>
      </trkpt>
      <trkpt lat="50.75221" lon="5.53759">
        <ele>65.800003051758</ele>
        <time>2019-03-30T07:52:50.000Z</time>
      </trkpt>
      <trkpt lat="50.75238" lon="5.53768">
        <ele>65.599998474121</ele>
        <time>2019-03-30T07:52:52.000Z</time>
      </trkpt>
      <trkpt lat="50.75247" lon="5.53772">
        <ele>65.400001525879</ele>
        <time>2019-03-30T07:52:53.000Z</time>
      </trkpt>
      <trkpt lat="50.75278" lon="5.53793">
        <ele>84.9</ele>
      </trkpt>
      <trkpt lat="50.75293" lon="5.53808">
        <ele>85</ele>
      </trkpt>
      <trkpt lat="50.75306" lon="5.53824">
        <ele>85</ele>
      </trkpt>
      <trkpt lat="50.75313" lon="5.5385">
        <ele>87</ele>
      </trkpt>
      <trkpt lat="50.75315" lon="5.53874">
        <ele>64.800003051758</ele>
        <time>2019-03-30T07:53:04.000Z</time>
      </trkpt>
      <trkpt lat="50.75315" lon="5.53874">
        <ele>64.800003051758</ele>
        <time>2019-03-30T07:53:05.000Z</time>
      </trkpt>
      <trkpt lat="50.75317" lon="5.53946">
        <ele>65.599998474121</ele>
        <time>2019-03-30T07:53:11.000Z</time>
      </trkpt>
      <trkpt lat="50.75322" lon="5.53963">
        <ele>89.6</ele>
      </trkpt>
      <trkpt lat="50.75329" lon="5.53972">
        <ele>89.7</ele>
      </trkpt>
      <trkpt lat="50.75337" lon="5.53988">
        <ele>88.7</ele>
      </trkpt>
      <trkpt lat="50.75342" lon="5.54022">
        <ele>88.1</ele>
      </trkpt>
      <trkpt lat="50.75337" lon="5.54066">
        <ele>88</ele>
      </trkpt>
      <trkpt lat="50.75328" lon="5.54123">
        <ele>86.9</ele>
      </trkpt>
      <trkpt lat="50.75322" lon="5.54158">
        <ele>86</ele>
      </trkpt>
      <trkpt lat="50.75315" lon="5.54176">
        <ele>66.599998474121</ele>
        <time>2019-03-30T07:53:32.000Z</time>
      </trkpt>
      <trkpt lat="50.75311" lon="5.54187">
        <ele>66.199996948242</ele>
        <time>2019-03-30T07:53:33.000Z</time>
      </trkpt>
      <trkpt lat="50.753" lon="5.54233">
        <ele>83.3</ele>
      </trkpt>
      <trkpt lat="50.75294" lon="5.54262">
        <ele>82.5</ele>
      </trkpt>
      <trkpt lat="50.75287" lon="5.54318">
        <ele>82.5</ele>
      </trkpt>
      <trkpt lat="50.75274" lon="5.54407">
        <ele>82.4</ele>
      </trkpt>
      <trkpt lat="50.7526" lon="5.54465">
        <ele>82</ele>
      </trkpt>
      <trkpt lat="50.7525" lon="5.54475">
        <ele>81.9</ele>
      </trkpt>
      <trkpt lat="50.75241" lon="5.54475">
        <ele>82.5</ele>
      </trkpt>
      <trkpt lat="50.75214" lon="5.54471">
        <ele>61</ele>
        <time>2019-03-30T07:54:04.000Z</time>
      </trkpt>
      <trkpt lat="50.75199" lon="5.54465">
        <ele>61</ele>
        <time>2019-03-30T07:54:06.000Z</time>
      </trkpt>
      <trkpt lat="50.7516" lon="5.54452">
        <ele>82.8</ele>
      </trkpt>
      <trkpt lat="50.75133" lon="5.54444">
        <ele>82.7</ele>
      </trkpt>
      <trkpt lat="50.75099" lon="5.54439">
        <ele>82.6</ele>
      </trkpt>
      <trkpt lat="50.75064" lon="5.5443">
        <ele>83</ele>
      </trkpt>
      <trkpt lat="50.75028" lon="5.54413">
        <ele>61.200000762939</ele>
        <time>2019-03-30T07:54:28.000Z</time>
      </trkpt>
      <trkpt lat="50.75014" lon="5.5441">
        <ele>61.400001525879</ele>
        <time>2019-03-30T07:54:30.000Z</time>
      </trkpt>
      <trkpt lat="50.74985" lon="5.54406">
        <ele>62.200000762939</ele>
        <time>2019-03-30T07:54:35.000Z</time>
      </trkpt>
      <trkpt lat="50.74968" lon="5.54406">
        <ele>62.400001525879</ele>
        <time>2019-03-30T07:54:38.000Z</time>
      </trkpt>
      <trkpt lat="50.7496" lon="5.54411">
        <ele>87.7</ele>
      </trkpt>
      <trkpt lat="50.74953" lon="5.5443">
        <ele>63</ele>
        <time>2019-03-30T07:54:42.000Z</time>
      </trkpt>
      <trkpt lat="50.74951" lon="5.54438">
        <ele>63.400001525879</ele>
        <time>2019-03-30T07:54:43.000Z</time>
      </trkpt>
      <trkpt lat="50.74943" lon="5.54465">
        <ele>64</ele>
        <time>2019-03-30T07:54:46.000Z</time>
      </trkpt>
      <trkpt lat="50.7493" lon="5.54521">
        <ele>81.7</ele>
      </trkpt>
      <trkpt lat="50.74928" lon="5.54567">
        <ele>64.199996948242</ele>
        <time>2019-03-30T07:54:56.000Z</time>
      </trkpt>
      <trkpt lat="50.74924" lon="5.54609">
        <ele>79.5</ele>
      </trkpt>
      <trkpt lat="50.74918" lon="5.54651">
        <ele>79.1</ele>
      </trkpt>
      <trkpt lat="50.74908" lon="5.54699">
        <ele>80.2</ele>
      </trkpt>
      <trkpt lat="50.74896" lon="5.54734">
        <ele>61</ele>
        <time>2019-03-30T07:55:11.000Z</time>
      </trkpt>
      <trkpt lat="50.74892" lon="5.54745">
        <ele>61</ele>
        <time>2019-03-30T07:55:12.000Z</time>
      </trkpt>
      <trkpt lat="50.7488" lon="5.54775">
        <ele>60.799999237061</ele>
        <time>2019-03-30T07:55:15.000Z</time>
      </trkpt>
      <trkpt lat="50.74859" lon="5.54841">
        <ele>60.599998474121</ele>
        <time>2019-03-30T07:55:21.000Z</time>
      </trkpt>
      <trkpt lat="50.74836" lon="5.54912">
        <ele>60.599998474121</ele>
        <time>2019-03-30T07:55:28.000Z</time>
      </trkpt>
      <trkpt lat="50.74819" lon="5.54973">
        <ele>60.599998474121</ele>
        <time>2019-03-30T07:55:34.000Z</time>
      </trkpt>
      <trkpt lat="50.74795" lon="5.55064">
        <ele>60.400001525879</ele>
        <time>2019-03-30T07:55:42.000Z</time>
      </trkpt>
      <trkpt lat="50.74773" lon="5.55147">
        <ele>60.400001525879</ele>
        <time>2019-03-30T07:55:50.000Z</time>
      </trkpt>
      <trkpt lat="50.74764" lon="5.55173">
        <ele>60.400001525879</ele>
        <time>2019-03-30T07:55:53.000Z</time>
      </trkpt>
      <trkpt lat="50.74761" lon="5.55194">
        <ele>60.400001525879</ele>
        <time>2019-03-30T07:55:55.000Z</time>
      </trkpt>
      <trkpt lat="50.7476" lon="5.55235">
        <ele>81.4</ele>
      </trkpt>
      <trkpt lat="50.7476" lon="5.55276">
        <ele>82.1</ele>
      </trkpt>
      <trkpt lat="50.74756" lon="5.55346">
        <ele>61.400001525879</ele>
        <time>2019-03-30T07:56:09.000Z</time>
      </trkpt>
      <trkpt lat="50.74752" lon="5.55369">
        <ele>62</ele>
        <time>2019-03-30T07:56:12.000Z</time>
      </trkpt>
      <trkpt lat="50.74748" lon="5.55379">
        <ele>62.400001525879</ele>
        <time>2019-03-30T07:56:14.000Z</time>
      </trkpt>
      <trkpt lat="50.74738" lon="5.55403">
        <ele>63.200000762939</ele>
        <time>2019-03-30T07:56:19.000Z</time>
      </trkpt>
      <trkpt lat="50.74731" lon="5.55417">
        <ele>64.199996948242</ele>
        <time>2019-03-30T07:56:22.000Z</time>
      </trkpt>
      <trkpt lat="50.74718" lon="5.55446">
        <ele>90.2</ele>
      </trkpt>
      <trkpt lat="50.74707" lon="5.55472">
        <ele>91.4</ele>
      </trkpt>
      <trkpt lat="50.74699" lon="5.5549">
        <ele>92.7</ele>
      </trkpt>
      <trkpt lat="50.74693" lon="5.5551">
        <ele>69</ele>
        <time>2019-03-30T07:56:39.000Z</time>
      </trkpt>
      <trkpt lat="50.74692" lon="5.55529">
        <ele>69.800003051758</ele>
        <time>2019-03-30T07:56:42.000Z</time>
      </trkpt>
      <trkpt lat="50.74695" lon="5.55562">
        <ele>96.1</ele>
      </trkpt>
      <trkpt lat="50.74703" lon="5.55605">
        <ele>95.6</ele>
      </trkpt>
      <trkpt lat="50.74712" lon="5.55651">
        <ele>94.1</ele>
      </trkpt>
      <trkpt lat="50.74716" lon="5.55669">
        <ele>93</ele>
      </trkpt>
      <trkpt lat="50.74719" lon="5.55698">
        <ele>93.7</ele>
      </trkpt>
      <trkpt lat="50.74724" lon="5.55789">
        <ele>95.9</ele>
      </trkpt>
      <trkpt lat="50.74731" lon="5.55848">
        <ele>74.199996948242</ele>
        <time>2019-03-30T07:57:17.000Z</time>
      </trkpt>
      <trkpt lat="50.74734" lon="5.55858">
        <ele>74.199996948242</ele>
        <time>2019-03-30T07:57:18.000Z</time>
      </trkpt>
      <trkpt lat="50.74741" lon="5.55903">
        <ele>96.9</ele>
      </trkpt>
      <trkpt lat="50.74743" lon="5.55923">
        <ele>96.3</ele>
      </trkpt>
      <trkpt lat="50.74745" lon="5.55953">
        <ele>101</ele>
      </trkpt>
      <trkpt lat="50.74748" lon="5.55984">
        <ele>99</ele>
      </trkpt>
      <trkpt lat="50.74754" lon="5.5601">
        <ele>73.800003051758</ele>
        <time>2019-03-30T07:57:32.000Z</time>
      </trkpt>
      <trkpt lat="50.74774" lon="5.56092">
        <ele>73.800003051758</ele>
        <time>2019-03-30T07:57:39.000Z</time>
      </trkpt>
      <trkpt lat="50.74791" lon="5.56158">
        <ele>73.599998474121</ele>
        <time>2019-03-30T07:57:44.000Z</time>
      </trkpt>
      <trkpt lat="50.74801" lon="5.562">
        <ele>72.400001525879</ele>
        <time>2019-03-30T07:57:47.000Z</time>
      </trkpt>
      <trkpt lat="50.74807" lon="5.56225">
        <ele>71.599998474121</ele>
        <time>2019-03-30T07:57:49.000Z</time>
      </trkpt>
      <trkpt lat="50.74812" lon="5.56246">
        <ele>71</ele>
        <time>2019-03-30T07:57:51.000Z</time>
      </trkpt>
      <trkpt lat="50.74821" lon="5.56264">
        <ele>70</ele>
        <time>2019-03-30T07:57:53.000Z</time>
      </trkpt>
      <trkpt lat="50.74827" lon="5.5627">
        <ele>69.800003051758</ele>
        <time>2019-03-30T07:57:54.000Z</time>
      </trkpt>
      <trkpt lat="50.74843" lon="5.56277">
        <ele>84.5</ele>
      </trkpt>
      <trkpt lat="50.74851" lon="5.56286">
        <ele>84.1</ele>
      </trkpt>
      <trkpt lat="50.74869" lon="5.56309">
        <ele>83.3</ele>
      </trkpt>
      <trkpt lat="50.74876" lon="5.56323">
        <ele>82.9</ele>
      </trkpt>
      <trkpt lat="50.74882" lon="5.56337">
        <ele>82.9</ele>
      </trkpt>
      <trkpt lat="50.74888" lon="5.56361">
        <ele>82.8</ele>
      </trkpt>
      <trkpt lat="50.74894" lon="5.56391">
        <ele>82.5</ele>
      </trkpt>
      <trkpt lat="50.74903" lon="5.5645">
        <ele>84.3</ele>
      </trkpt>
      <trkpt lat="50.74909" lon="5.56481">
        <ele>83.7</ele>
      </trkpt>
      <trkpt lat="50.74912" lon="5.56518">
        <ele>86.6</ele>
      </trkpt>
      <trkpt lat="50.74918" lon="5.56585">
        <ele>59.200000762939</ele>
        <time>2019-03-30T07:58:19.000Z</time>
      </trkpt>
      <trkpt lat="50.74921" lon="5.56616">
        <ele>59.200000762939</ele>
        <time>2019-03-30T07:58:21.000Z</time>
      </trkpt>
      <trkpt lat="50.74924" lon="5.56663">
        <ele>59.200000762939</ele>
        <time>2019-03-30T07:58:24.000Z</time>
      </trkpt>
      <trkpt lat="50.7493" lon="5.5671">
        <ele>59.200000762939</ele>
        <time>2019-03-30T07:58:27.000Z</time>
      </trkpt>
      <trkpt lat="50.74948" lon="5.56793">
        <ele>85.4</ele>
      </trkpt>
      <trkpt lat="50.74966" lon="5.56868">
        <ele>86.5</ele>
      </trkpt>
      <trkpt lat="50.74984" lon="5.56928">
        <ele>85.6</ele>
      </trkpt>
      <trkpt lat="50.74991" lon="5.56943">
        <ele>86.4</ele>
      </trkpt>
      <trkpt lat="50.75023" lon="5.5699">
        <ele>81.6</ele>
      </trkpt>
      <trkpt lat="50.75039" lon="5.57023">
        <ele>83</ele>
      </trkpt>
      <trkpt lat="50.75051" lon="5.5706">
        <ele>82.5</ele>
      </trkpt>
      <trkpt lat="50.75062" lon="5.57113">
        <ele>59</ele>
        <time>2019-03-30T07:59:03.000Z</time>
      </trkpt>
      <trkpt lat="50.75073" lon="5.57136">
        <ele>81.9</ele>
      </trkpt>
      <trkpt lat="50.75086" lon="5.57133">
        <ele>59</ele>
        <time>2019-03-30T07:59:09.000Z</time>
      </trkpt>
      <trkpt lat="50.75107" lon="5.57129">
        <ele>59</ele>
        <time>2019-03-30T07:59:13.000Z</time>
      </trkpt>
      <trkpt lat="50.75116" lon="5.57127">
        <ele>78</ele>
      </trkpt>
      <trkpt lat="50.7512" lon="5.57167">
        <ele>77.8</ele>
      </trkpt>
      <trkpt lat="50.75124" lon="5.57195">
        <ele>78.4</ele>
      </trkpt>
      <trkpt lat="50.75126" lon="5.57224">
        <ele>78.6</ele>
      </trkpt>
      <trkpt lat="50.75133" lon="5.57272">
        <ele>79.2</ele>
      </trkpt>
      <trkpt lat="50.7514" lon="5.57321">
        <ele>78.6</ele>
      </trkpt>
      <trkpt lat="50.75159" lon="5.57398">
        <ele>78.1</ele>
      </trkpt>
      <trkpt lat="50.7518" lon="5.57453">
        <ele>76.8</ele>
      </trkpt>
      <trkpt lat="50.7519" lon="5.57486">
        <ele>76.8</ele>
      </trkpt>
      <trkpt lat="50.75181" lon="5.57495">
        <ele>76.9</ele>
      </trkpt>
      <trkpt lat="50.75163" lon="5.57502">
        <ele>77.1</ele>
      </trkpt>
      <trkpt lat="50.75147" lon="5.57504">
        <ele>77.3</ele>
      </trkpt>
      <trkpt lat="50.75132" lon="5.57505">
        <ele>77.4</ele>
      </trkpt>
      <trkpt lat="50.75106" lon="5.57504">
        <ele>77.7</ele>
      </trkpt>
      <trkpt lat="50.75073" lon="5.57504">
        <ele>79.2</ele>
      </trkpt>
      <trkpt lat="50.75059" lon="5.5751">
        <ele>80.3</ele>
      </trkpt>
      <trkpt lat="50.75064" lon="5.57547">
        <ele>80.8</ele>
      </trkpt>
      <trkpt lat="50.7508" lon="5.57628">
        <ele>83</ele>
      </trkpt>
      <trkpt lat="50.75087" lon="5.57664">
        <ele>81</ele>
      </trkpt>
      <trkpt lat="50.75093" lon="5.57699">
        <ele>60.200000762939</ele>
        <time>2019-03-30T08:00:29.000Z</time>
      </trkpt>
      <trkpt lat="50.75095" lon="5.57717">
        <ele>79.9</ele>
      </trkpt>
      <trkpt lat="50.75098" lon="5.57742">
        <ele>80.1</ele>
      </trkpt>
      <trkpt lat="50.75103" lon="5.57785">
        <ele>80.1</ele>
      </trkpt>
      <trkpt lat="50.75102" lon="5.57813">
        <ele>80.6</ele>
      </trkpt>
      <trkpt lat="50.751" lon="5.57859">
        <ele>81.3</ele>
      </trkpt>
      <trkpt lat="50.75093" lon="5.57943">
        <ele>81.4</ele>
      </trkpt>
      <trkpt lat="50.75092" lon="5.58018">
        <ele>80.1</ele>
      </trkpt>
      <trkpt lat="50.75101" lon="5.58014">
        <ele>79.9</ele>
      </trkpt>
      <trkpt lat="50.75122" lon="5.58006">
        <ele>79.2</ele>
      </trkpt>
      <trkpt lat="50.75146" lon="5.57995">
        <ele>79.5</ele>
      </trkpt>
      <trkpt lat="50.75172" lon="5.57986">
        <ele>78</ele>
      </trkpt>
      <trkpt lat="50.75185" lon="5.57988">
        <ele>57.200000762939</ele>
        <time>2019-03-30T08:01:28.000Z</time>
      </trkpt>
      <trkpt lat="50.75201" lon="5.57986">
        <ele>56.799999237061</ele>
        <time>2019-03-30T08:01:30.000Z</time>
      </trkpt>
      <trkpt lat="50.75227" lon="5.57981">
        <ele>56.599998474121</ele>
        <time>2019-03-30T08:01:33.000Z</time>
      </trkpt>
      <trkpt lat="50.75242" lon="5.57973">
        <ele>56.400001525879</ele>
        <time>2019-03-30T08:01:35.000Z</time>
      </trkpt>
      <trkpt lat="50.75249" lon="5.57971">
        <ele>76</ele>
      </trkpt>
      <trkpt lat="50.75256" lon="5.57961">
        <ele>56.400001525879</ele>
        <time>2019-03-30T08:01:37.000Z</time>
      </trkpt>
      <trkpt lat="50.75278" lon="5.57942">
        <ele>56.400001525879</ele>
        <time>2019-03-30T08:01:40.000Z</time>
      </trkpt>
      <trkpt lat="50.75307" lon="5.57915">
        <ele>75</ele>
      </trkpt>
      <trkpt lat="50.7534" lon="5.57885">
        <ele>56</ele>
        <time>2019-03-30T08:01:49.000Z</time>
      </trkpt>
      <trkpt lat="50.75371" lon="5.57857">
        <ele>56</ele>
        <time>2019-03-30T08:01:54.000Z</time>
      </trkpt>
      <trkpt lat="50.75378" lon="5.57853">
        <ele>56</ele>
        <time>2019-03-30T08:01:55.000Z</time>
      </trkpt>
      <trkpt lat="50.75417" lon="5.57824">
        <ele>74.5</ele>
      </trkpt>
      <trkpt lat="50.75467" lon="5.57802">
        <ele>56.200000762939</ele>
        <time>2019-03-30T08:02:08.000Z</time>
      </trkpt>
      <trkpt lat="50.75486" lon="5.57792">
        <ele>56.200000762939</ele>
        <time>2019-03-30T08:02:12.000Z</time>
      </trkpt>
      <trkpt lat="50.75503" lon="5.57784">
        <ele>77.8</ele>
      </trkpt>
      <trkpt lat="50.75512" lon="5.5783">
        <ele>56</ele>
        <time>2019-03-30T08:02:21.000Z</time>
      </trkpt>
      <trkpt lat="50.75516" lon="5.57874">
        <ele>56</ele>
        <time>2019-03-30T08:02:25.000Z</time>
      </trkpt>
      <trkpt lat="50.75519" lon="5.57908">
        <ele>56</ele>
        <time>2019-03-30T08:02:28.000Z</time>
      </trkpt>
      <trkpt lat="50.75527" lon="5.57984">
        <ele>56</ele>
        <time>2019-03-30T08:02:34.000Z</time>
      </trkpt>
      <trkpt lat="50.75536" lon="5.58079">
        <ele>55.799999237061</ele>
        <time>2019-03-30T08:02:40.000Z</time>
      </trkpt>
      <trkpt lat="50.75544" lon="5.5816">
        <ele>55.599998474121</ele>
        <time>2019-03-30T08:02:46.000Z</time>
      </trkpt>
      <trkpt lat="50.75552" lon="5.58256">
        <ele>55.200000762939</ele>
        <time>2019-03-30T08:02:53.000Z</time>
      </trkpt>
      <trkpt lat="50.75553" lon="5.58283">
        <ele>55.200000762939</ele>
        <time>2019-03-30T08:02:56.000Z</time>
      </trkpt>
      <trkpt lat="50.75551" lon="5.58322">
        <ele>55.200000762939</ele>
        <time>2019-03-30T08:02:58.000Z</time>
      </trkpt>
      <trkpt lat="50.75548" lon="5.58348">
        <ele>55.200000762939</ele>
        <time>2019-03-30T08:03:00.000Z</time>
      </trkpt>
      <trkpt lat="50.75532" lon="5.58436">
        <ele>55.799999237061</ele>
        <time>2019-03-30T08:03:08.000Z</time>
      </trkpt>
      <trkpt lat="50.75518" lon="5.58518">
        <ele>56.200000762939</ele>
        <time>2019-03-30T08:03:15.000Z</time>
      </trkpt>
      <trkpt lat="50.75504" lon="5.58606">
        <ele>57.200000762939</ele>
        <time>2019-03-30T08:03:22.000Z</time>
      </trkpt>
      <trkpt lat="50.75499" lon="5.58657">
        <ele>78</ele>
      </trkpt>
      <trkpt lat="50.75496" lon="5.58705">
        <ele>57.200000762939</ele>
        <time>2019-03-30T08:03:29.000Z</time>
      </trkpt>
      <trkpt lat="50.75503" lon="5.58746">
        <ele>57.200000762939</ele>
        <time>2019-03-30T08:03:32.000Z</time>
      </trkpt>
      <trkpt lat="50.75532" lon="5.58814">
        <ele>77.5</ele>
      </trkpt>
      <trkpt lat="50.75549" lon="5.58857">
        <ele>77.1</ele>
      </trkpt>
      <trkpt lat="50.75569" lon="5.58936">
        <ele>76.6</ele>
      </trkpt>
      <trkpt lat="50.75604" lon="5.5908">
        <ele>76.5</ele>
      </trkpt>
      <trkpt lat="50.75634" lon="5.59204">
        <ele>76.4</ele>
      </trkpt>
      <trkpt lat="50.75652" lon="5.59265">
        <ele>77</ele>
      </trkpt>
      <trkpt lat="50.75668" lon="5.59258">
        <ele>79.2</ele>
      </trkpt>
      <trkpt lat="50.75709" lon="5.59241">
        <ele>82.5</ele>
      </trkpt>
      <trkpt lat="50.75733" lon="5.59232">
        <ele>84.2</ele>
      </trkpt>
      <trkpt lat="50.75747" lon="5.59217">
        <ele>84.2</ele>
      </trkpt>
      <trkpt lat="50.75755" lon="5.59194">
        <ele>89.3</ele>
      </trkpt>
      <trkpt lat="50.75756" lon="5.59165">
        <ele>87.9</ele>
      </trkpt>
      <trkpt lat="50.75769" lon="5.59137">
        <ele>90.1</ele>
      </trkpt>
      <trkpt lat="50.75796" lon="5.59135">
        <ele>91.7</ele>
      </trkpt>
      <trkpt lat="50.75808" lon="5.59153">
        <ele>92.5</ele>
      </trkpt>
      <trkpt lat="50.75814" lon="5.59176">
        <ele>92.6</ele>
      </trkpt>
      <trkpt lat="50.75823" lon="5.59209">
        <ele>92.3</ele>
      </trkpt>
      <trkpt lat="50.7583" lon="5.59242">
        <ele>93.8</ele>
      </trkpt>
      <trkpt lat="50.75839" lon="5.5928">
        <ele>100.6</ele>
      </trkpt>
      <trkpt lat="50.75855" lon="5.59356">
        <ele>100.8</ele>
      </trkpt>
      <trkpt lat="50.75856" lon="5.5937">
        <ele>101.2</ele>
      </trkpt>
      <trkpt lat="50.75861" lon="5.59401">
        <ele>100.9</ele>
      </trkpt>
      <trkpt lat="50.75864" lon="5.59442">
        <ele>100.8</ele>
      </trkpt>
      <trkpt lat="50.75866" lon="5.5946">
        <ele>101.2</ele>
      </trkpt>
      <trkpt lat="50.75867" lon="5.59488">
        <ele>101.1</ele>
      </trkpt>
      <trkpt lat="50.75869" lon="5.59506">
        <ele>102</ele>
      </trkpt>
      <trkpt lat="50.75876" lon="5.59508">
        <ele>81.800003051758</ele>
        <time>2019-03-30T08:05:57.000Z</time>
      </trkpt>
      <trkpt lat="50.75885" lon="5.59505">
        <ele>82.400001525879</ele>
        <time>2019-03-30T08:05:59.000Z</time>
      </trkpt>
      <trkpt lat="50.75896" lon="5.5949">
        <ele>104.6</ele>
      </trkpt>
      <trkpt lat="50.75897" lon="5.59451">
        <ele>103.9</ele>
      </trkpt>
      <trkpt lat="50.75896" lon="5.59407">
        <ele>105.5</ele>
      </trkpt>
      <trkpt lat="50.75896" lon="5.59371">
        <ele>105.1</ele>
      </trkpt>
      <trkpt lat="50.75896" lon="5.59308">
        <ele>106.7</ele>
      </trkpt>
      <trkpt lat="50.75897" lon="5.5925">
        <ele>108.5</ele>
      </trkpt>
      <trkpt lat="50.75897" lon="5.59194">
        <ele>108.4</ele>
      </trkpt>
      <trkpt lat="50.75897" lon="5.59115">
        <ele>110.8</ele>
      </trkpt>
      <trkpt lat="50.75896" lon="5.59068">
        <ele>113.7</ele>
      </trkpt>
      <trkpt lat="50.75897" lon="5.59032">
        <ele>113.4</ele>
      </trkpt>
      <trkpt lat="50.75905" lon="5.59002">
        <ele>117</ele>
      </trkpt>
      <trkpt lat="50.7591" lon="5.58982">
        <ele>100</ele>
        <time>2019-03-30T08:07:15.000Z</time>
      </trkpt>
      <trkpt lat="50.7592" lon="5.58947">
        <ele>123.1</ele>
      </trkpt>
      <trkpt lat="50.75926" lon="5.58923">
        <ele>102.40000152588</ele>
        <time>2019-03-30T08:07:24.000Z</time>
      </trkpt>
      <trkpt lat="50.75934" lon="5.58896">
        <ele>123.9</ele>
      </trkpt>
      <trkpt lat="50.75942" lon="5.5887">
        <ele>125.1</ele>
      </trkpt>
      <trkpt lat="50.75956" lon="5.58845">
        <ele>126</ele>
      </trkpt>
      <trkpt lat="50.75974" lon="5.58811">
        <ele>128.7</ele>
      </trkpt>
      <trkpt lat="50.7599" lon="5.58782">
        <ele>129.5</ele>
      </trkpt>
      <trkpt lat="50.76012" lon="5.58757">
        <ele>132.5</ele>
      </trkpt>
      <trkpt lat="50.76026" lon="5.58738">
        <ele>133.8</ele>
      </trkpt>
      <trkpt lat="50.7604" lon="5.58725">
        <ele>134.4</ele>
      </trkpt>
      <trkpt lat="50.76064" lon="5.58709">
        <ele>135</ele>
      </trkpt>
      <trkpt lat="50.7611" lon="5.58675">
        <ele>137.8</ele>
      </trkpt>
      <trkpt lat="50.7615" lon="5.58646">
        <ele>139.2</ele>
      </trkpt>
      <trkpt lat="50.76156" lon="5.58641">
        <ele>139.2</ele>
      </trkpt>
      <trkpt lat="50.76177" lon="5.58602">
        <ele>118.40000152588</ele>
        <time>2019-03-30T08:08:26.000Z</time>
      </trkpt>
      <trkpt lat="50.76188" lon="5.58578">
        <ele>141.2</ele>
      </trkpt>
      <trkpt lat="50.76216" lon="5.58521">
        <ele>120.59999847412</ele>
        <time>2019-03-30T08:08:36.000Z</time>
      </trkpt>
      <trkpt lat="50.76236" lon="5.58479">
        <ele>122</ele>
        <time>2019-03-30T08:08:41.000Z</time>
      </trkpt>
      <trkpt lat="50.76276" lon="5.58394">
        <ele>123.59999847412</ele>
        <time>2019-03-30T08:08:51.000Z</time>
      </trkpt>
      <trkpt lat="50.7631" lon="5.58323">
        <ele>125.40000152588</ele>
        <time>2019-03-30T08:08:59.000Z</time>
      </trkpt>
      <trkpt lat="50.76323" lon="5.58298">
        <ele>126</ele>
        <time>2019-03-30T08:09:02.000Z</time>
      </trkpt>
      <trkpt lat="50.76341" lon="5.58268">
        <ele>126.59999847412</ele>
        <time>2019-03-30T08:09:06.000Z</time>
      </trkpt>
      <trkpt lat="50.76351" lon="5.58255">
        <ele>126.59999847412</ele>
        <time>2019-03-30T08:09:08.000Z</time>
      </trkpt>
      <trkpt lat="50.76381" lon="5.58226">
        <ele>145.4</ele>
      </trkpt>
      <trkpt lat="50.76395" lon="5.58214">
        <ele>145.5</ele>
      </trkpt>
      <trkpt lat="50.76421" lon="5.58193">
        <ele>128.60000610352</ele>
        <time>2019-03-30T08:09:20.000Z</time>
      </trkpt>
      <trkpt lat="50.76433" lon="5.58185">
        <ele>128.80000305176</ele>
        <time>2019-03-30T08:09:22.000Z</time>
      </trkpt>
      <trkpt lat="50.76475" lon="5.58159">
        <ele>129.80000305176</ele>
        <time>2019-03-30T08:09:29.000Z</time>
      </trkpt>
      <trkpt lat="50.76508" lon="5.58137">
        <ele>147.5</ele>
      </trkpt>
      <trkpt lat="50.76552" lon="5.58107">
        <ele>130</ele>
        <time>2019-03-30T08:09:42.000Z</time>
      </trkpt>
      <trkpt lat="50.76586" lon="5.58086">
        <ele>129.19999694824</ele>
        <time>2019-03-30T08:09:47.000Z</time>
      </trkpt>
      <trkpt lat="50.76594" lon="5.58081">
        <ele>128.80000305176</ele>
        <time>2019-03-30T08:09:48.000Z</time>
      </trkpt>
      <trkpt lat="50.76608" lon="5.58072">
        <ele>128.60000610352</ele>
        <time>2019-03-30T08:09:50.000Z</time>
      </trkpt>
      <trkpt lat="50.76637" lon="5.58053">
        <ele>128</ele>
        <time>2019-03-30T08:09:54.000Z</time>
      </trkpt>
      <trkpt lat="50.76652" lon="5.58042">
        <ele>127.80000305176</ele>
        <time>2019-03-30T08:09:56.000Z</time>
      </trkpt>
      <trkpt lat="50.76674" lon="5.58027">
        <ele>127</ele>
        <time>2019-03-30T08:09:59.000Z</time>
      </trkpt>
      <trkpt lat="50.76688" lon="5.58014">
        <ele>127</ele>
        <time>2019-03-30T08:10:01.000Z</time>
      </trkpt>
      <trkpt lat="50.76708" lon="5.57994">
        <ele>126.19999694824</ele>
        <time>2019-03-30T08:10:04.000Z</time>
      </trkpt>
      <trkpt lat="50.76727" lon="5.57971">
        <ele>125.80000305176</ele>
        <time>2019-03-30T08:10:07.000Z</time>
      </trkpt>
      <trkpt lat="50.76741" lon="5.57943">
        <ele>141.9</ele>
      </trkpt>
      <trkpt lat="50.7675" lon="5.57925">
        <ele>140.2</ele>
      </trkpt>
      <trkpt lat="50.7677" lon="5.57888">
        <ele>139.2</ele>
      </trkpt>
      <trkpt lat="50.76781" lon="5.57862">
        <ele>138.8</ele>
      </trkpt>
      <trkpt lat="50.76793" lon="5.57829">
        <ele>123.40000152588</ele>
        <time>2019-03-30T08:10:20.000Z</time>
      </trkpt>
      <trkpt lat="50.76802" lon="5.57805">
        <ele>122.40000152588</ele>
        <time>2019-03-30T08:10:22.000Z</time>
      </trkpt>
      <trkpt lat="50.76811" lon="5.5778">
        <ele>121.80000305176</ele>
        <time>2019-03-30T08:10:24.000Z</time>
      </trkpt>
      <trkpt lat="50.7682" lon="5.57755">
        <ele>120.80000305176</ele>
        <time>2019-03-30T08:10:26.000Z</time>
      </trkpt>
      <trkpt lat="50.76829" lon="5.57729">
        <ele>119.80000305176</ele>
        <time>2019-03-30T08:10:28.000Z</time>
      </trkpt>
      <trkpt lat="50.76839" lon="5.57703">
        <ele>119.19999694824</ele>
        <time>2019-03-30T08:10:30.000Z</time>
      </trkpt>
      <trkpt lat="50.76849" lon="5.57678">
        <ele>118.80000305176</ele>
        <time>2019-03-30T08:10:32.000Z</time>
      </trkpt>
      <trkpt lat="50.76866" lon="5.57641">
        <ele>117.59999847412</ele>
        <time>2019-03-30T08:10:35.000Z</time>
      </trkpt>
      <trkpt lat="50.76884" lon="5.57609">
        <ele>131.8</ele>
      </trkpt>
      <trkpt lat="50.76895" lon="5.57587">
        <ele>131.6</ele>
      </trkpt>
      <trkpt lat="50.76915" lon="5.57555">
        <ele>131.3</ele>
      </trkpt>
      <trkpt lat="50.76934" lon="5.57524">
        <ele>130.7</ele>
      </trkpt>
      <trkpt lat="50.76976" lon="5.57457">
        <ele>112</ele>
        <time>2019-03-30T08:10:52.000Z</time>
      </trkpt>
      <trkpt lat="50.76989" lon="5.57435">
        <ele>111.80000305176</ele>
        <time>2019-03-30T08:10:54.000Z</time>
      </trkpt>
      <trkpt lat="50.77035" lon="5.5736">
        <ele>110.80000305176</ele>
        <time>2019-03-30T08:11:01.000Z</time>
      </trkpt>
      <trkpt lat="50.77048" lon="5.57339">
        <ele>110.19999694824</ele>
        <time>2019-03-30T08:11:03.000Z</time>
      </trkpt>
      <trkpt lat="50.77068" lon="5.57308">
        <ele>109.40000152588</ele>
        <time>2019-03-30T08:11:06.000Z</time>
      </trkpt>
      <trkpt lat="50.77105" lon="5.57249">
        <ele>125.9</ele>
      </trkpt>
      <trkpt lat="50.77119" lon="5.57228">
        <ele>125.9</ele>
      </trkpt>
      <trkpt lat="50.77134" lon="5.57234">
        <ele>125.8</ele>
      </trkpt>
      <trkpt lat="50.77166" lon="5.5725">
        <ele>125</ele>
      </trkpt>
      <trkpt lat="50.77184" lon="5.57258">
        <ele>124.8</ele>
      </trkpt>
      <trkpt lat="50.7722" lon="5.57276">
        <ele>124.4</ele>
      </trkpt>
      <trkpt lat="50.77243" lon="5.57289">
        <ele>124.2</ele>
      </trkpt>
      <trkpt lat="50.77284" lon="5.5731">
        <ele>122.7</ele>
      </trkpt>
      <trkpt lat="50.77352" lon="5.57344">
        <ele>120.6</ele>
      </trkpt>
      <trkpt lat="50.7739" lon="5.57361">
        <ele>120</ele>
      </trkpt>
      <trkpt lat="50.77433" lon="5.57382">
        <ele>101</ele>
        <time>2019-03-30T08:11:53.000Z</time>
      </trkpt>
      <trkpt lat="50.77451" lon="5.5739">
        <ele>100.59999847412</ele>
        <time>2019-03-30T08:11:55.000Z</time>
      </trkpt>
      <trkpt lat="50.77477" lon="5.57403">
        <ele>100</ele>
        <time>2019-03-30T08:11:58.000Z</time>
      </trkpt>
      <trkpt lat="50.77512" lon="5.57421">
        <ele>99.400001525879</ele>
        <time>2019-03-30T08:12:02.000Z</time>
      </trkpt>
      <trkpt lat="50.77565" lon="5.57447">
        <ele>98.800003051758</ele>
        <time>2019-03-30T08:12:08.000Z</time>
      </trkpt>
      <trkpt lat="50.77614" lon="5.57471">
        <ele>98.400001525879</ele>
        <time>2019-03-30T08:12:14.000Z</time>
      </trkpt>
      <trkpt lat="50.77631" lon="5.57479">
        <ele>97.800003051758</ele>
        <time>2019-03-30T08:12:16.000Z</time>
      </trkpt>
      <trkpt lat="50.77673" lon="5.57501">
        <ele>97.199996948242</ele>
        <time>2019-03-30T08:12:21.000Z</time>
      </trkpt>
      <trkpt lat="50.77732" lon="5.57534">
        <ele>96.199996948242</ele>
        <time>2019-03-30T08:12:28.000Z</time>
      </trkpt>
      <trkpt lat="50.7774" lon="5.5754">
        <ele>96.199996948242</ele>
        <time>2019-03-30T08:12:29.000Z</time>
      </trkpt>
      <trkpt lat="50.77777" lon="5.57574">
        <ele>95.400001525879</ele>
        <time>2019-03-30T08:12:34.000Z</time>
      </trkpt>
      <trkpt lat="50.77792" lon="5.57588">
        <ele>95</ele>
        <time>2019-03-30T08:12:36.000Z</time>
      </trkpt>
      <trkpt lat="50.77844" lon="5.57637">
        <ele>93.800003051758</ele>
        <time>2019-03-30T08:12:43.000Z</time>
      </trkpt>
      <trkpt lat="50.77852" lon="5.57644">
        <ele>93.599998474121</ele>
        <time>2019-03-30T08:12:44.000Z</time>
      </trkpt>
      <trkpt lat="50.77895" lon="5.57693">
        <ele>93.199996948242</ele>
        <time>2019-03-30T08:12:50.000Z</time>
      </trkpt>
      <trkpt lat="50.77908" lon="5.57711">
        <ele>92.599998474121</ele>
        <time>2019-03-30T08:12:52.000Z</time>
      </trkpt>
      <trkpt lat="50.77941" lon="5.57751">
        <ele>91.599998474121</ele>
        <time>2019-03-30T08:12:57.000Z</time>
      </trkpt>
      <trkpt lat="50.77946" lon="5.57759">
        <ele>91.599998474121</ele>
        <time>2019-03-30T08:12:58.000Z</time>
      </trkpt>
      <trkpt lat="50.77971" lon="5.57807">
        <ele>91.199996948242</ele>
        <time>2019-03-30T08:13:03.000Z</time>
      </trkpt>
      <trkpt lat="50.78002" lon="5.57881">
        <ele>90.599998474121</ele>
        <time>2019-03-30T08:13:10.000Z</time>
      </trkpt>
      <trkpt lat="50.78033" lon="5.57955">
        <ele>109</ele>
      </trkpt>
      <trkpt lat="50.78065" lon="5.58023">
        <ele>108.3</ele>
      </trkpt>
      <trkpt lat="50.78108" lon="5.58102">
        <ele>107.2</ele>
      </trkpt>
      <trkpt lat="50.78178" lon="5.58231">
        <ele>106</ele>
      </trkpt>
      <trkpt lat="50.78213" lon="5.58295">
        <ele>104.4</ele>
      </trkpt>
      <trkpt lat="50.78236" lon="5.58338">
        <ele>103.6</ele>
      </trkpt>
      <trkpt lat="50.78265" lon="5.58391">
        <ele>103.8</ele>
      </trkpt>
      <trkpt lat="50.78299" lon="5.58455">
        <ele>103.7</ele>
      </trkpt>
      <trkpt lat="50.78342" lon="5.58534">
        <ele>102.6</ele>
      </trkpt>
      <trkpt lat="50.7838" lon="5.58599">
        <ele>101.6</ele>
      </trkpt>
      <trkpt lat="50.78401" lon="5.58644">
        <ele>101.8</ele>
      </trkpt>
      <trkpt lat="50.78435" lon="5.58725">
        <ele>101.2</ele>
      </trkpt>
      <trkpt lat="50.78459" lon="5.58785">
        <ele>101.4</ele>
      </trkpt>
      <trkpt lat="50.78484" lon="5.5885">
        <ele>83.199996948242</ele>
        <time>2019-03-30T08:14:46.000Z</time>
      </trkpt>
      <trkpt lat="50.78507" lon="5.58887">
        <ele>101.6</ele>
      </trkpt>
      <trkpt lat="50.78519" lon="5.58903">
        <ele>101.5</ele>
      </trkpt>
      <trkpt lat="50.78539" lon="5.5892">
        <ele>101</ele>
      </trkpt>
      <trkpt lat="50.78569" lon="5.58951">
        <ele>100.9</ele>
      </trkpt>
      <trkpt lat="50.78588" lon="5.58972">
        <ele>102</ele>
      </trkpt>
      <trkpt lat="50.78606" lon="5.58998">
        <ele>101.5</ele>
      </trkpt>
      <trkpt lat="50.78623" lon="5.59026">
        <ele>100.6</ele>
      </trkpt>
      <trkpt lat="50.78629" lon="5.59035">
        <ele>101</ele>
      </trkpt>
      <trkpt lat="50.78637" lon="5.59039">
        <ele>100.7</ele>
      </trkpt>
      <trkpt lat="50.78642" lon="5.59054">
        <ele>100.5</ele>
      </trkpt>
      <trkpt lat="50.78659" lon="5.59088">
        <ele>99.7</ele>
      </trkpt>
      <trkpt lat="50.78674" lon="5.59116">
        <ele>99.6</ele>
      </trkpt>
      <trkpt lat="50.78685" lon="5.59146">
        <ele>99.3</ele>
      </trkpt>
      <trkpt lat="50.78699" lon="5.5918">
        <ele>99.2</ele>
      </trkpt>
      <trkpt lat="50.7871" lon="5.59199">
        <ele>99.2</ele>
      </trkpt>
      <trkpt lat="50.78736" lon="5.5925">
        <ele>99.2</ele>
      </trkpt>
      <trkpt lat="50.78754" lon="5.5929">
        <ele>99</ele>
      </trkpt>
      <trkpt lat="50.78772" lon="5.59331">
        <ele>99.3</ele>
      </trkpt>
      <trkpt lat="50.78788" lon="5.59365">
        <ele>99</ele>
      </trkpt>
      <trkpt lat="50.78803" lon="5.59402">
        <ele>99</ele>
      </trkpt>
      <trkpt lat="50.7882" lon="5.59447">
        <ele>99</ele>
      </trkpt>
      <trkpt lat="50.7883" lon="5.59476">
        <ele>99</ele>
      </trkpt>
      <trkpt lat="50.78857" lon="5.59552">
        <ele>98.1</ele>
      </trkpt>
      <trkpt lat="50.7888" lon="5.59612">
        <ele>97.4</ele>
      </trkpt>
      <trkpt lat="50.789" lon="5.59659">
        <ele>97.6</ele>
      </trkpt>
      <trkpt lat="50.78936" lon="5.5974">
        <ele>97</ele>
      </trkpt>
      <trkpt lat="50.78968" lon="5.59812">
        <ele>96.8</ele>
      </trkpt>
      <trkpt lat="50.79004" lon="5.59891">
        <ele>96.8</ele>
      </trkpt>
      <trkpt lat="50.79032" lon="5.59956">
        <ele>96.7</ele>
      </trkpt>
      <trkpt lat="50.79065" lon="5.60029">
        <ele>96.2</ele>
      </trkpt>
      <trkpt lat="50.79098" lon="5.60107">
        <ele>95.9</ele>
      </trkpt>
      <trkpt lat="50.79116" lon="5.60147">
        <ele>95.7</ele>
      </trkpt>
      <trkpt lat="50.79146" lon="5.60215">
        <ele>96.1</ele>
      </trkpt>
      <trkpt lat="50.79165" lon="5.60258">
        <ele>96.3</ele>
      </trkpt>
      <trkpt lat="50.79198" lon="5.60331">
        <ele>95.7</ele>
      </trkpt>
      <trkpt lat="50.79223" lon="5.60382">
        <ele>95.7</ele>
      </trkpt>
      <trkpt lat="50.79238" lon="5.60414">
        <ele>95.9</ele>
      </trkpt>
      <trkpt lat="50.79268" lon="5.60477">
        <ele>77</ele>
        <time>2019-03-30T08:17:54.000Z</time>
      </trkpt>
      <trkpt lat="50.79298" lon="5.60532">
        <ele>94.9</ele>
      </trkpt>
      <trkpt lat="50.79351" lon="5.60628">
        <ele>93.8</ele>
      </trkpt>
      <trkpt lat="50.79375" lon="5.60671">
        <ele>94.3</ele>
      </trkpt>
      <trkpt lat="50.79419" lon="5.60745">
        <ele>94</ele>
      </trkpt>
      <trkpt lat="50.79467" lon="5.60824">
        <ele>94.4</ele>
      </trkpt>
      <trkpt lat="50.79502" lon="5.60876">
        <ele>94.6</ele>
      </trkpt>
      <trkpt lat="50.79541" lon="5.60934">
        <ele>95</ele>
      </trkpt>
      <trkpt lat="50.79583" lon="5.60991">
        <ele>94.5</ele>
      </trkpt>
      <trkpt lat="50.79604" lon="5.61019">
        <ele>93.3</ele>
      </trkpt>
      <trkpt lat="50.79648" lon="5.61071">
        <ele>93</ele>
      </trkpt>
      <trkpt lat="50.79701" lon="5.61133">
        <ele>92.1</ele>
      </trkpt>
      <trkpt lat="50.79719" lon="5.61156">
        <ele>91.8</ele>
      </trkpt>
      <trkpt lat="50.79732" lon="5.61173">
        <ele>92</ele>
      </trkpt>
      <trkpt lat="50.79754" lon="5.61235">
        <ele>93.3</ele>
      </trkpt>
      <trkpt lat="50.79768" lon="5.61279">
        <ele>94.1</ele>
      </trkpt>
      <trkpt lat="50.79785" lon="5.61337">
        <ele>95.5</ele>
      </trkpt>
      <trkpt lat="50.79794" lon="5.61361">
        <ele>95.5</ele>
      </trkpt>
      <trkpt lat="50.79808" lon="5.61383">
        <ele>95.7</ele>
      </trkpt>
      <trkpt lat="50.79826" lon="5.61435">
        <ele>96.7</ele>
      </trkpt>
      <trkpt lat="50.7984" lon="5.61474">
        <ele>96.2</ele>
      </trkpt>
      <trkpt lat="50.79852" lon="5.61504">
        <ele>96.9</ele>
      </trkpt>
      <trkpt lat="50.79862" lon="5.6152">
        <ele>97</ele>
      </trkpt>
      <trkpt lat="50.79891" lon="5.61562">
        <ele>96.6</ele>
      </trkpt>
      <trkpt lat="50.79906" lon="5.61585">
        <ele>96.4</ele>
      </trkpt>
      <trkpt lat="50.79948" lon="5.61643">
        <ele>95.2</ele>
      </trkpt>
      <trkpt lat="50.8" lon="5.61713">
        <ele>92.4</ele>
      </trkpt>
      <trkpt lat="50.80044" lon="5.61774">
        <ele>88.8</ele>
      </trkpt>
      <trkpt lat="50.80058" lon="5.61794">
        <ele>88.6</ele>
      </trkpt>
      <trkpt lat="50.80098" lon="5.61865">
        <ele>91.1</ele>
      </trkpt>
      <trkpt lat="50.80131" lon="5.61922">
        <ele>95.2</ele>
      </trkpt>
      <trkpt lat="50.80159" lon="5.61968">
        <ele>96.2</ele>
      </trkpt>
      <trkpt lat="50.80179" lon="5.62006">
        <ele>98.5</ele>
      </trkpt>
      <trkpt lat="50.80198" lon="5.62039">
        <ele>99.1</ele>
      </trkpt>
      <trkpt lat="50.80216" lon="5.62069">
        <ele>99.4</ele>
      </trkpt>
      <trkpt lat="50.80261" lon="5.62149">
        <ele>101.1</ele>
      </trkpt>
      <trkpt lat="50.80301" lon="5.62219">
        <ele>101.3</ele>
      </trkpt>
      <trkpt lat="50.80352" lon="5.62307">
        <ele>102.7</ele>
      </trkpt>
      <trkpt lat="50.80394" lon="5.62384">
        <ele>84</ele>
        <time>2019-03-30T08:21:58.000Z</time>
      </trkpt>
      <trkpt lat="50.80411" lon="5.6241">
        <ele>104.5</ele>
      </trkpt>
      <trkpt lat="50.80423" lon="5.62435">
        <ele>105.5</ele>
      </trkpt>
      <trkpt lat="50.80451" lon="5.62504">
        <ele>106.3</ele>
      </trkpt>
      <trkpt lat="50.80477" lon="5.62567">
        <ele>106.2</ele>
      </trkpt>
      <trkpt lat="50.80516" lon="5.62663">
        <ele>106.9</ele>
      </trkpt>
      <trkpt lat="50.8054" lon="5.6272">
        <ele>107.3</ele>
      </trkpt>
      <trkpt lat="50.80566" lon="5.62785">
        <ele>107.2</ele>
      </trkpt>
      <trkpt lat="50.80603" lon="5.62877">
        <ele>106.3</ele>
      </trkpt>
      <trkpt lat="50.80617" lon="5.62909">
        <ele>106.2</ele>
      </trkpt>
      <trkpt lat="50.80647" lon="5.62984">
        <ele>107.2</ele>
      </trkpt>
      <trkpt lat="50.80661" lon="5.63018">
        <ele>108.1</ele>
      </trkpt>
      <trkpt lat="50.80673" lon="5.63049">
        <ele>107.9</ele>
      </trkpt>
      <trkpt lat="50.80684" lon="5.63075">
        <ele>108.2</ele>
      </trkpt>
      <trkpt lat="50.80694" lon="5.6311">
        <ele>108.1</ele>
      </trkpt>
      <trkpt lat="50.80701" lon="5.63157">
        <ele>108</ele>
      </trkpt>
      <trkpt lat="50.80704" lon="5.63191">
        <ele>108</ele>
      </trkpt>
      <trkpt lat="50.80704" lon="5.6326">
        <ele>108.2</ele>
      </trkpt>
      <trkpt lat="50.807" lon="5.6335">
        <ele>108.6</ele>
      </trkpt>
      <trkpt lat="50.80698" lon="5.63433">
        <ele>108.2</ele>
      </trkpt>
      <trkpt lat="50.80695" lon="5.63531">
        <ele>107.8</ele>
      </trkpt>
      <trkpt lat="50.80693" lon="5.6358">
        <ele>107.9</ele>
      </trkpt>
      <trkpt lat="50.80691" lon="5.63662">
        <ele>107.3</ele>
      </trkpt>
      <trkpt lat="50.80689" lon="5.63707">
        <ele>106.5</ele>
      </trkpt>
      <trkpt lat="50.80685" lon="5.63784">
        <ele>89</ele>
        <time>2019-03-30T08:24:19.000Z</time>
      </trkpt>
      <trkpt lat="50.80684" lon="5.63815">
        <ele>105.3</ele>
      </trkpt>
      <trkpt lat="50.80656" lon="5.63813">
        <ele>105.2</ele>
      </trkpt>
      <trkpt lat="50.80635" lon="5.6381">
        <ele>105</ele>
      </trkpt>
      <trkpt lat="50.80612" lon="5.63802">
        <ele>105.2</ele>
      </trkpt>
      <trkpt lat="50.80592" lon="5.63793">
        <ele>105.2</ele>
      </trkpt>
      <trkpt lat="50.80543" lon="5.63769">
        <ele>106.3</ele>
      </trkpt>
      <trkpt lat="50.80506" lon="5.63749">
        <ele>107.8</ele>
      </trkpt>
      <trkpt lat="50.80461" lon="5.63726">
        <ele>88.599998474121</ele>
        <time>2019-03-30T08:25:00.000Z</time>
      </trkpt>
      <trkpt lat="50.80438" lon="5.63713">
        <ele>89</ele>
        <time>2019-03-30T08:25:04.000Z</time>
      </trkpt>
      <trkpt lat="50.80394" lon="5.63686">
        <ele>90.199996948242</ele>
        <time>2019-03-30T08:25:12.000Z</time>
      </trkpt>
      <trkpt lat="50.80356" lon="5.63663">
        <ele>91.599998474121</ele>
        <time>2019-03-30T08:25:20.000Z</time>
      </trkpt>
      <trkpt lat="50.80328" lon="5.63649">
        <ele>92.400001525879</ele>
        <time>2019-03-30T08:25:25.000Z</time>
      </trkpt>
      <trkpt lat="50.80288" lon="5.63628">
        <ele>93.599998474121</ele>
        <time>2019-03-30T08:25:32.000Z</time>
      </trkpt>
      <trkpt lat="50.80232" lon="5.63596">
        <ele>94.599998474121</ele>
        <time>2019-03-30T08:25:42.000Z</time>
      </trkpt>
      <trkpt lat="50.80227" lon="5.63594">
        <ele>94.599998474121</ele>
        <time>2019-03-30T08:25:43.000Z</time>
      </trkpt>
      <trkpt lat="50.8022" lon="5.63593">
        <ele>113</ele>
      </trkpt>
      <trkpt lat="50.80221" lon="5.63615">
        <ele>94</ele>
        <time>2019-03-30T08:25:57.000Z</time>
      </trkpt>
      <trkpt lat="50.80223" lon="5.63624">
        <ele>113</ele>
      </trkpt>
      <trkpt lat="50.80231" lon="5.63651">
        <ele>94.199996948242</ele>
        <time>2019-03-30T08:26:02.000Z</time>
      </trkpt>
      <trkpt lat="50.80235" lon="5.63659">
        <ele>94.199996948242</ele>
        <time>2019-03-30T08:26:03.000Z</time>
      </trkpt>
      <trkpt lat="50.80259" lon="5.63694">
        <ele>94.599998474121</ele>
        <time>2019-03-30T08:26:08.000Z</time>
      </trkpt>
      <trkpt lat="50.80278" lon="5.63714">
        <ele>112</ele>
      </trkpt>
      <trkpt lat="50.80299" lon="5.63742">
        <ele>95</ele>
        <time>2019-03-30T08:26:15.000Z</time>
      </trkpt>
      <trkpt lat="50.80327" lon="5.63785">
        <ele>95.400001525879</ele>
        <time>2019-03-30T08:26:20.000Z</time>
      </trkpt>
      <trkpt lat="50.80337" lon="5.63804">
        <ele>95.599998474121</ele>
        <time>2019-03-30T08:26:22.000Z</time>
      </trkpt>
      <trkpt lat="50.80351" lon="5.6383">
        <ele>112</ele>
      </trkpt>
      <trkpt lat="50.80369" lon="5.63863">
        <ele>112</ele>
      </trkpt>
      <trkpt lat="50.80401" lon="5.63941">
        <ele>95.599998474121</ele>
        <time>2019-03-30T08:26:36.000Z</time>
      </trkpt>
      <trkpt lat="50.8045" lon="5.64059">
        <ele>95.199996948242</ele>
        <time>2019-03-30T08:26:47.000Z</time>
      </trkpt>
      <trkpt lat="50.80487" lon="5.64135">
        <ele>95.199996948242</ele>
        <time>2019-03-30T08:26:54.000Z</time>
      </trkpt>
      <trkpt lat="50.80493" lon="5.64145">
        <ele>95</ele>
        <time>2019-03-30T08:26:55.000Z</time>
      </trkpt>
      <trkpt lat="50.80518" lon="5.64181">
        <ele>111</ele>
      </trkpt>
      <trkpt lat="50.80543" lon="5.64225">
        <ele>94.800003051758</ele>
        <time>2019-03-30T08:27:03.000Z</time>
      </trkpt>
      <trkpt lat="50.80578" lon="5.64294">
        <ele>95</ele>
        <time>2019-03-30T08:27:10.000Z</time>
      </trkpt>
      <trkpt lat="50.80607" lon="5.64354">
        <ele>112.8</ele>
      </trkpt>
      <trkpt lat="50.8063" lon="5.644">
        <ele>112.7</ele>
      </trkpt>
      <trkpt lat="50.80648" lon="5.64439">
        <ele>113.5</ele>
      </trkpt>
      <trkpt lat="50.80686" lon="5.64519">
        <ele>96.400001525879</ele>
        <time>2019-03-30T08:27:34.000Z</time>
      </trkpt>
      <trkpt lat="50.80714" lon="5.6458">
        <ele>96.599998474121</ele>
        <time>2019-03-30T08:27:40.000Z</time>
      </trkpt>
      <trkpt lat="50.80722" lon="5.646">
        <ele>96.599998474121</ele>
        <time>2019-03-30T08:27:42.000Z</time>
      </trkpt>
      <trkpt lat="50.80729" lon="5.64621">
        <ele>96.800003051758</ele>
        <time>2019-03-30T08:27:44.000Z</time>
      </trkpt>
      <trkpt lat="50.80739" lon="5.64668">
        <ele>97.400001525879</ele>
        <time>2019-03-30T08:27:48.000Z</time>
      </trkpt>
      <trkpt lat="50.80743" lon="5.64715">
        <ele>97.599998474121</ele>
        <time>2019-03-30T08:27:52.000Z</time>
      </trkpt>
      <trkpt lat="50.80745" lon="5.6474">
        <ele>97.800003051758</ele>
        <time>2019-03-30T08:27:54.000Z</time>
      </trkpt>
      <trkpt lat="50.8075" lon="5.64837">
        <ele>98</ele>
        <time>2019-03-30T08:28:02.000Z</time>
      </trkpt>
      <trkpt lat="50.80752" lon="5.64872">
        <ele>98.199996948242</ele>
        <time>2019-03-30T08:28:05.000Z</time>
      </trkpt>
      <trkpt lat="50.8076" lon="5.65016">
        <ele>99.199996948242</ele>
        <time>2019-03-30T08:28:17.000Z</time>
      </trkpt>
      <trkpt lat="50.80764" lon="5.65104">
        <ele>99.199996948242</ele>
        <time>2019-03-30T08:28:24.000Z</time>
      </trkpt>
      <trkpt lat="50.80767" lon="5.65156">
        <ele>99</ele>
        <time>2019-03-30T08:28:28.000Z</time>
      </trkpt>
      <trkpt lat="50.80772" lon="5.65249">
        <ele>98</ele>
        <time>2019-03-30T08:28:35.000Z</time>
      </trkpt>
      <trkpt lat="50.80778" lon="5.65361">
        <ele>114.4</ele>
      </trkpt>
      <trkpt lat="50.80782" lon="5.6544">
        <ele>98.199996948242</ele>
        <time>2019-03-30T08:28:51.000Z</time>
      </trkpt>
      <trkpt lat="50.80787" lon="5.65528">
        <ele>98</ele>
        <time>2019-03-30T08:28:58.000Z</time>
      </trkpt>
      <trkpt lat="50.80792" lon="5.65613">
        <ele>97.199996948242</ele>
        <time>2019-03-30T08:29:05.000Z</time>
      </trkpt>
      <trkpt lat="50.80795" lon="5.65672">
        <ele>96.800003051758</ele>
        <time>2019-03-30T08:29:10.000Z</time>
      </trkpt>
      <trkpt lat="50.80801" lon="5.65764">
        <ele>115.8</ele>
      </trkpt>
      <trkpt lat="50.80807" lon="5.65908">
        <ele>96</ele>
        <time>2019-03-30T08:29:29.000Z</time>
      </trkpt>
      <trkpt lat="50.80811" lon="5.65995">
        <ele>96.199996948242</ele>
        <time>2019-03-30T08:29:36.000Z</time>
      </trkpt>
      <trkpt lat="50.80814" lon="5.66043">
        <ele>96.400001525879</ele>
        <time>2019-03-30T08:29:40.000Z</time>
      </trkpt>
      <trkpt lat="50.80819" lon="5.6615">
        <ele>96.400001525879</ele>
        <time>2019-03-30T08:29:49.000Z</time>
      </trkpt>
      <trkpt lat="50.80821" lon="5.66185">
        <ele>96.400001525879</ele>
        <time>2019-03-30T08:29:52.000Z</time>
      </trkpt>
      <trkpt lat="50.80826" lon="5.66282">
        <ele>96</ele>
        <time>2019-03-30T08:30:00.000Z</time>
      </trkpt>
      <trkpt lat="50.80827" lon="5.66309">
        <ele>95.800003051758</ele>
        <time>2019-03-30T08:30:02.000Z</time>
      </trkpt>
      <trkpt lat="50.80835" lon="5.66379">
        <ele>94.400001525879</ele>
        <time>2019-03-30T08:30:07.000Z</time>
      </trkpt>
      <trkpt lat="50.80842" lon="5.6641">
        <ele>110</ele>
      </trkpt>
      <trkpt lat="50.80844" lon="5.66432">
        <ele>93</ele>
        <time>2019-03-30T08:30:11.000Z</time>
      </trkpt>
      <trkpt lat="50.80844" lon="5.66445">
        <ele>92.199996948242</ele>
        <time>2019-03-30T08:30:12.000Z</time>
      </trkpt>
      <trkpt lat="50.80845" lon="5.6646">
        <ele>107.3</ele>
      </trkpt>
      <trkpt lat="50.80849" lon="5.66481">
        <ele>89.599998474121</ele>
        <time>2019-03-30T08:30:15.000Z</time>
      </trkpt>
      <trkpt lat="50.80859" lon="5.66499">
        <ele>88.400001525879</ele>
        <time>2019-03-30T08:30:17.000Z</time>
      </trkpt>
      <trkpt lat="50.8087" lon="5.665">
        <ele>104.8</ele>
      </trkpt>
      <trkpt lat="50.80877" lon="5.66495">
        <ele>105.9</ele>
      </trkpt>
      <trkpt lat="50.8089" lon="5.6648">
        <ele>84.599998474121</ele>
        <time>2019-03-30T08:30:23.000Z</time>
      </trkpt>
      <trkpt lat="50.809" lon="5.6647">
        <ele>105.4</ele>
      </trkpt>
      <trkpt lat="50.80911" lon="5.66475">
        <ele>104.8</ele>
      </trkpt>
      <trkpt lat="50.80915" lon="5.66492">
        <ele>103.3</ele>
      </trkpt>
      <trkpt lat="50.80908" lon="5.66508">
        <ele>103</ele>
      </trkpt>
      <trkpt lat="50.80899" lon="5.66515">
        <ele>79.199996948242</ele>
        <time>2019-03-30T08:30:32.000Z</time>
      </trkpt>
      <trkpt lat="50.80894" lon="5.66534">
        <ele>103.6</ele>
      </trkpt>
      <trkpt lat="50.80899" lon="5.66549">
        <ele>103.1</ele>
      </trkpt>
      <trkpt lat="50.80907" lon="5.66552">
        <ele>76</ele>
        <time>2019-03-30T08:30:37.000Z</time>
      </trkpt>
      <trkpt lat="50.80919" lon="5.66556">
        <ele>101</ele>
      </trkpt>
      <trkpt lat="50.80929" lon="5.66566">
        <ele>100.5</ele>
      </trkpt>
      <trkpt lat="50.80931" lon="5.66587">
        <ele>98.1</ele>
      </trkpt>
      <trkpt lat="50.80926" lon="5.66603">
        <ele>97.7</ele>
      </trkpt>
      <trkpt lat="50.80929" lon="5.6663">
        <ele>69.800003051758</ele>
        <time>2019-03-30T08:30:47.000Z</time>
      </trkpt>
      <trkpt lat="50.80935" lon="5.66632">
        <ele>69.400001525879</ele>
        <time>2019-03-30T08:30:48.000Z</time>
      </trkpt>
      <trkpt lat="50.80942" lon="5.66635">
        <ele>96.6</ele>
      </trkpt>
      <trkpt lat="50.80949" lon="5.66635">
        <ele>96.4</ele>
      </trkpt>
      <trkpt lat="50.80966" lon="5.66638">
        <ele>96</ele>
      </trkpt>
      <trkpt lat="50.80972" lon="5.66654">
        <ele>94.8</ele>
      </trkpt>
      <trkpt lat="50.80968" lon="5.66676">
        <ele>90.9</ele>
      </trkpt>
      <trkpt lat="50.80963" lon="5.66692">
        <ele>90.8</ele>
      </trkpt>
      <trkpt lat="50.80963" lon="5.66702">
        <ele>90.4</ele>
      </trkpt>
      <trkpt lat="50.80971" lon="5.66717">
        <ele>62.799999237061</ele>
        <time>2019-03-30T08:30:59.000Z</time>
      </trkpt>
      <trkpt lat="50.80981" lon="5.66728">
        <ele>87.2</ele>
      </trkpt>
      <trkpt lat="50.80984" lon="5.66746">
        <ele>84.8</ele>
      </trkpt>
      <trkpt lat="50.80974" lon="5.6678">
        <ele>59.400001525879</ele>
        <time>2019-03-30T08:31:04.000Z</time>
      </trkpt>
      <trkpt lat="50.80974" lon="5.6678">
        <ele>58.599998474121</ele>
        <time>2019-03-30T08:31:05.000Z</time>
      </trkpt>
      <trkpt lat="50.80977" lon="5.66802">
        <ele>79.9</ele>
      </trkpt>
      <trkpt lat="50.80982" lon="5.66811">
        <ele>78</ele>
      </trkpt>
      <trkpt lat="50.80987" lon="5.66816">
        <ele>56.400001525879</ele>
        <time>2019-03-30T08:31:09.000Z</time>
      </trkpt>
      <trkpt lat="50.80999" lon="5.66832">
        <ele>55.400001525879</ele>
        <time>2019-03-30T08:31:10.000Z</time>
      </trkpt>
      <trkpt lat="50.81004" lon="5.66841">
        <ele>54.400001525879</ele>
        <time>2019-03-30T08:31:12.000Z</time>
      </trkpt>
      <trkpt lat="50.81013" lon="5.6686">
        <ele>52.799999237061</ele>
        <time>2019-03-30T08:31:14.000Z</time>
      </trkpt>
      <trkpt lat="50.81021" lon="5.6688">
        <ele>51</ele>
        <time>2019-03-30T08:31:17.000Z</time>
      </trkpt>
      <trkpt lat="50.81032" lon="5.66905">
        <ele>64.8</ele>
      </trkpt>
      <trkpt lat="50.81" lon="5.66891">
        <ele>68.8</ele>
      </trkpt>
      <trkpt lat="50.80977" lon="5.66882">
        <ele>46</ele>
        <time>2019-03-30T08:31:27.000Z</time>
      </trkpt>
      <trkpt lat="50.80963" lon="5.6688">
        <ele>71</ele>
      </trkpt>
      <trkpt lat="50.80951" lon="5.66881">
        <ele>45.400001525879</ele>
        <time>2019-03-30T08:31:31.000Z</time>
      </trkpt>
      <trkpt lat="50.80944" lon="5.66882">
        <ele>45.200000762939</ele>
        <time>2019-03-30T08:31:32.000Z</time>
      </trkpt>
      <trkpt lat="50.80924" lon="5.66894">
        <ele>45</ele>
        <time>2019-03-30T08:31:34.000Z</time>
      </trkpt>
      <trkpt lat="50.80924" lon="5.66894">
        <ele>44.799999237061</ele>
        <time>2019-03-30T08:31:35.000Z</time>
      </trkpt>
      <trkpt lat="50.80885" lon="5.66926">
        <ele>69</ele>
      </trkpt>
      <trkpt lat="50.80874" lon="5.66947">
        <ele>43.799999237061</ele>
        <time>2019-03-30T08:31:42.000Z</time>
      </trkpt>
      <trkpt lat="50.80854" lon="5.66981">
        <ele>43.599998474121</ele>
        <time>2019-03-30T08:31:46.000Z</time>
      </trkpt>
      <trkpt lat="50.80843" lon="5.66994">
        <ele>43.599998474121</ele>
        <time>2019-03-30T08:31:48.000Z</time>
      </trkpt>
      <trkpt lat="50.80822" lon="5.67015">
        <ele>43.799999237061</ele>
        <time>2019-03-30T08:31:53.000Z</time>
      </trkpt>
      <trkpt lat="50.80811" lon="5.67025">
        <ele>44</ele>
        <time>2019-03-30T08:31:54.000Z</time>
      </trkpt>
      <trkpt lat="50.80777" lon="5.67049">
        <ele>45</ele>
        <time>2019-03-30T08:32:00.000Z</time>
      </trkpt>
      <trkpt lat="50.80745" lon="5.67067">
        <ele>45.799999237061</ele>
        <time>2019-03-30T08:32:07.000Z</time>
      </trkpt>
      <trkpt lat="50.8074" lon="5.67071">
        <ele>45.799999237061</ele>
        <time>2019-03-30T08:32:08.000Z</time>
      </trkpt>
      <trkpt lat="50.80726" lon="5.67083">
        <ele>46</ele>
        <time>2019-03-30T08:32:11.000Z</time>
      </trkpt>
      <trkpt lat="50.80712" lon="5.67094">
        <ele>46.400001525879</ele>
        <time>2019-03-30T08:32:14.000Z</time>
      </trkpt>
      <trkpt lat="50.80701" lon="5.67103">
        <ele>46.799999237061</ele>
        <time>2019-03-30T08:32:16.000Z</time>
      </trkpt>
      <trkpt lat="50.80687" lon="5.67121">
        <ele>47</ele>
        <time>2019-03-30T08:32:19.000Z</time>
      </trkpt>
      <trkpt lat="50.80682" lon="5.67128">
        <ele>47</ele>
        <time>2019-03-30T08:32:20.000Z</time>
      </trkpt>
      <trkpt lat="50.80659" lon="5.6718">
        <ele>47</ele>
        <time>2019-03-30T08:32:26.000Z</time>
      </trkpt>
      <trkpt lat="50.80646" lon="5.67205">
        <ele>47</ele>
        <time>2019-03-30T08:32:29.000Z</time>
      </trkpt>
      <trkpt lat="50.80636" lon="5.67219">
        <ele>47</ele>
        <time>2019-03-30T08:32:31.000Z</time>
      </trkpt>
      <trkpt lat="50.80618" lon="5.67236">
        <ele>47</ele>
        <time>2019-03-30T08:32:33.000Z</time>
      </trkpt>
      <trkpt lat="50.806" lon="5.6725">
        <ele>47</ele>
        <time>2019-03-30T08:32:37.000Z</time>
      </trkpt>
      <trkpt lat="50.80588" lon="5.67262">
        <ele>46.799999237061</ele>
        <time>2019-03-30T08:32:39.000Z</time>
      </trkpt>
      <trkpt lat="50.80581" lon="5.67273">
        <ele>46.799999237061</ele>
        <time>2019-03-30T08:32:41.000Z</time>
      </trkpt>
      <trkpt lat="50.80575" lon="5.67289">
        <ele>46.799999237061</ele>
        <time>2019-03-30T08:32:45.000Z</time>
      </trkpt>
      <trkpt lat="50.80576" lon="5.67302">
        <ele>67</ele>
      </trkpt>
      <trkpt lat="50.80589" lon="5.67299">
        <ele>65.7</ele>
      </trkpt>
      <trkpt lat="50.80609" lon="5.67293">
        <ele>46.200000762939</ele>
        <time>2019-03-30T08:32:52.000Z</time>
      </trkpt>
      <trkpt lat="50.80653" lon="5.67283">
        <ele>45.599998474121</ele>
        <time>2019-03-30T08:32:58.000Z</time>
      </trkpt>
      <trkpt lat="50.80677" lon="5.67277">
        <ele>44.799999237061</ele>
        <time>2019-03-30T08:33:01.000Z</time>
      </trkpt>
      <trkpt lat="50.80702" lon="5.67271">
        <ele>44.200000762939</ele>
        <time>2019-03-30T08:33:04.000Z</time>
      </trkpt>
      <trkpt lat="50.80719" lon="5.67267">
        <ele>43.599998474121</ele>
        <time>2019-03-30T08:33:06.000Z</time>
      </trkpt>
      <trkpt lat="50.80735" lon="5.67263">
        <ele>43.200000762939</ele>
        <time>2019-03-30T08:33:08.000Z</time>
      </trkpt>
      <trkpt lat="50.80758" lon="5.67256">
        <ele>42.599998474121</ele>
        <time>2019-03-30T08:33:11.000Z</time>
      </trkpt>
      <trkpt lat="50.80788" lon="5.67241">
        <ele>41.799999237061</ele>
        <time>2019-03-30T08:33:15.000Z</time>
      </trkpt>
      <trkpt lat="50.80836" lon="5.67205">
        <ele>41.200000762939</ele>
        <time>2019-03-30T08:33:22.000Z</time>
      </trkpt>
      <trkpt lat="50.80848" lon="5.67194">
        <ele>40.799999237061</ele>
        <time>2019-03-30T08:33:25.000Z</time>
      </trkpt>
      <trkpt lat="50.80851" lon="5.67191">
        <ele>40.799999237061</ele>
        <time>2019-03-30T08:33:26.000Z</time>
      </trkpt>
      <trkpt lat="50.80861" lon="5.67183">
        <ele>40.799999237061</ele>
        <time>2019-03-30T08:33:31.000Z</time>
      </trkpt>
      <trkpt lat="50.8087" lon="5.67179">
        <ele>40.799999237061</ele>
        <time>2019-03-30T08:33:34.000Z</time>
      </trkpt>
      <trkpt lat="50.80879" lon="5.67174">
        <ele>40.799999237061</ele>
        <time>2019-03-30T08:33:36.000Z</time>
      </trkpt>
      <trkpt lat="50.80894" lon="5.67162">
        <ele>40.799999237061</ele>
        <time>2019-03-30T08:33:41.000Z</time>
      </trkpt>
      <trkpt lat="50.80895" lon="5.6716">
        <ele>40.799999237061</ele>
        <time>2019-03-30T08:33:42.000Z</time>
      </trkpt>
      <trkpt lat="50.80897" lon="5.67148">
        <ele>40.799999237061</ele>
        <time>2019-03-30T08:33:46.000Z</time>
      </trkpt>
      <trkpt lat="50.80893" lon="5.67134">
        <ele>59.9</ele>
      </trkpt>
      <trkpt lat="50.80889" lon="5.67122">
        <ele>60</ele>
      </trkpt>
      <trkpt lat="50.80887" lon="5.67102">
        <ele>60.2</ele>
      </trkpt>
      <trkpt lat="50.80889" lon="5.6709">
        <ele>41.200000762939</ele>
        <time>2019-03-30T08:33:56.000Z</time>
      </trkpt>
      <trkpt lat="50.80897" lon="5.67076">
        <ele>41.599998474121</ele>
        <time>2019-03-30T08:33:59.000Z</time>
      </trkpt>
      <trkpt lat="50.809" lon="5.67072">
        <ele>41.799999237061</ele>
        <time>2019-03-30T08:34:00.000Z</time>
      </trkpt>
      <trkpt lat="50.80912" lon="5.67062">
        <ele>42.599998474121</ele>
        <time>2019-03-30T08:34:03.000Z</time>
      </trkpt>
      <trkpt lat="50.80935" lon="5.67047">
        <ele>44</ele>
        <time>2019-03-30T08:34:08.000Z</time>
      </trkpt>
      <trkpt lat="50.8095" lon="5.67044">
        <ele>44.799999237061</ele>
        <time>2019-03-30T08:34:11.000Z</time>
      </trkpt>
      <trkpt lat="50.80965" lon="5.6704">
        <ele>61</ele>
      </trkpt>
      <trkpt lat="50.80981" lon="5.67046">
        <ele>46</ele>
        <time>2019-03-30T08:34:17.000Z</time>
      </trkpt>
      <trkpt lat="50.80987" lon="5.67049">
        <ele>46</ele>
        <time>2019-03-30T08:34:18.000Z</time>
      </trkpt>
      <trkpt lat="50.80992" lon="5.67052">
        <ele>46.200000762939</ele>
        <time>2019-03-30T08:34:19.000Z</time>
      </trkpt>
      <trkpt lat="50.81013" lon="5.67071">
        <ele>47.200000762939</ele>
        <time>2019-03-30T08:34:23.000Z</time>
      </trkpt>
      <trkpt lat="50.81042" lon="5.67102">
        <ele>48.400001525879</ele>
        <time>2019-03-30T08:34:29.000Z</time>
      </trkpt>
      <trkpt lat="50.81072" lon="5.67132">
        <ele>49.400001525879</ele>
        <time>2019-03-30T08:34:35.000Z</time>
      </trkpt>
      <trkpt lat="50.81091" lon="5.67154">
        <ele>57</ele>
      </trkpt>
      <trkpt lat="50.81082" lon="5.67175">
        <ele>56.6</ele>
      </trkpt>
      <trkpt lat="50.81078" lon="5.67193">
        <ele>56</ele>
      </trkpt>
      <trkpt lat="50.81074" lon="5.67231">
        <ele>56</ele>
      </trkpt>
      <trkpt lat="50.81068" lon="5.67254">
        <ele>40.599998474121</ele>
        <time>2019-03-30T08:36:04.000Z</time>
      </trkpt>
      <trkpt lat="50.81056" lon="5.67278">
        <ele>56</ele>
      </trkpt>
      <trkpt lat="50.81043" lon="5.67302">
        <ele>55.6</ele>
      </trkpt>
      <trkpt lat="50.81003" lon="5.67364">
        <ele>40.599998474121</ele>
        <time>2019-03-30T08:36:17.000Z</time>
      </trkpt>
      <trkpt lat="50.80988" lon="5.67389">
        <ele>40.599998474121</ele>
        <time>2019-03-30T08:36:20.000Z</time>
      </trkpt>
      <trkpt lat="50.80947" lon="5.67456">
        <ele>40.200000762939</ele>
        <time>2019-03-30T08:36:28.000Z</time>
      </trkpt>
      <trkpt lat="50.80932" lon="5.6748">
        <ele>40.200000762939</ele>
        <time>2019-03-30T08:36:31.000Z</time>
      </trkpt>
      <trkpt lat="50.8089" lon="5.67545">
        <ele>40.200000762939</ele>
        <time>2019-03-30T08:36:39.000Z</time>
      </trkpt>
      <trkpt lat="50.80874" lon="5.67569">
        <ele>40.200000762939</ele>
        <time>2019-03-30T08:36:42.000Z</time>
      </trkpt>
      <trkpt lat="50.80828" lon="5.67632">
        <ele>40.200000762939</ele>
        <time>2019-03-30T08:36:50.000Z</time>
      </trkpt>
      <trkpt lat="50.80776" lon="5.67704">
        <ele>40.200000762939</ele>
        <time>2019-03-30T08:36:59.000Z</time>
      </trkpt>
      <trkpt lat="50.80758" lon="5.67728">
        <ele>40.200000762939</ele>
        <time>2019-03-30T08:37:02.000Z</time>
      </trkpt>
      <trkpt lat="50.80729" lon="5.67767">
        <ele>40</ele>
        <time>2019-03-30T08:37:07.000Z</time>
      </trkpt>
      <trkpt lat="50.8071" lon="5.67787">
        <ele>39.799999237061</ele>
        <time>2019-03-30T08:37:10.000Z</time>
      </trkpt>
      <trkpt lat="50.80651" lon="5.67844">
        <ele>39.799999237061</ele>
        <time>2019-03-30T08:37:18.000Z</time>
      </trkpt>
      <trkpt lat="50.80585" lon="5.67903">
        <ele>40</ele>
        <time>2019-03-30T08:37:28.000Z</time>
      </trkpt>
      <trkpt lat="50.80531" lon="5.67951">
        <ele>40</ele>
        <time>2019-03-30T08:37:36.000Z</time>
      </trkpt>
      <trkpt lat="50.80523" lon="5.67954">
        <ele>40</ele>
        <time>2019-03-30T08:37:38.000Z</time>
      </trkpt>
      <trkpt lat="50.80478" lon="5.67974">
        <ele>40.200000762939</ele>
        <time>2019-03-30T08:37:44.000Z</time>
      </trkpt>
      <trkpt lat="50.80422" lon="5.68022">
        <ele>40.200000762939</ele>
        <time>2019-03-30T08:37:51.000Z</time>
      </trkpt>
      <trkpt lat="50.80374" lon="5.68066">
        <ele>40.200000762939</ele>
        <time>2019-03-30T08:37:58.000Z</time>
      </trkpt>
      <trkpt lat="50.80367" lon="5.68073">
        <ele>40.200000762939</ele>
        <time>2019-03-30T08:38:00.000Z</time>
      </trkpt>
      <trkpt lat="50.80318" lon="5.68113">
        <ele>62.7</ele>
      </trkpt>
      <trkpt lat="50.80267" lon="5.6816">
        <ele>60.7</ele>
      </trkpt>
      <trkpt lat="50.80202" lon="5.68215">
        <ele>65.9</ele>
      </trkpt>
      <trkpt lat="50.80144" lon="5.68266">
        <ele>68.9</ele>
      </trkpt>
      <trkpt lat="50.80122" lon="5.68285">
        <ele>71.2</ele>
      </trkpt>
      <trkpt lat="50.80095" lon="5.68309">
        <ele>74.4</ele>
      </trkpt>
      <trkpt lat="50.80061" lon="5.68338">
        <ele>77.3</ele>
      </trkpt>
      <trkpt lat="50.8001" lon="5.68383">
        <ele>71.2</ele>
      </trkpt>
      <trkpt lat="50.79956" lon="5.68429">
        <ele>69.1</ele>
      </trkpt>
      <trkpt lat="50.79938" lon="5.68444">
        <ele>69.7</ele>
      </trkpt>
      <trkpt lat="50.79916" lon="5.68465">
        <ele>67</ele>
      </trkpt>
      <trkpt lat="50.79871" lon="5.68502">
        <ele>75.9</ele>
      </trkpt>
      <trkpt lat="50.79833" lon="5.68536">
        <ele>64.6</ele>
      </trkpt>
      <trkpt lat="50.7978" lon="5.68583">
        <ele>64.9</ele>
      </trkpt>
      <trkpt lat="50.7973" lon="5.68624">
        <ele>65.9</ele>
      </trkpt>
      <trkpt lat="50.79716" lon="5.68636">
        <ele>65.9</ele>
      </trkpt>
      <trkpt lat="50.79665" lon="5.68677">
        <ele>40.400001525879</ele>
        <time>2019-03-30T08:39:42.000Z</time>
      </trkpt>
      <trkpt lat="50.79644" lon="5.68692">
        <ele>40.200000762939</ele>
        <time>2019-03-30T08:39:45.000Z</time>
      </trkpt>
      <trkpt lat="50.79582" lon="5.68737">
        <ele>40.200000762939</ele>
        <time>2019-03-30T08:39:54.000Z</time>
      </trkpt>
      <trkpt lat="50.79562" lon="5.6875">
        <ele>40.200000762939</ele>
        <time>2019-03-30T08:39:57.000Z</time>
      </trkpt>
      <trkpt lat="50.79509" lon="5.68783">
        <ele>57.1</ele>
      </trkpt>
      <trkpt lat="50.79513" lon="5.68802">
        <ele>58</ele>
      </trkpt>
      <trkpt lat="50.7952" lon="5.68834">
        <ele>57.6</ele>
      </trkpt>
      <trkpt lat="50.7953" lon="5.68845">
        <ele>39.599998474121</ele>
        <time>2019-03-30T08:40:15.000Z</time>
      </trkpt>
      <trkpt lat="50.79537" lon="5.68864">
        <ele>39.200000762939</ele>
        <time>2019-03-30T08:40:18.000Z</time>
      </trkpt>
      <trkpt lat="50.79537" lon="5.68864">
        <ele>39</ele>
        <time>2019-03-30T08:40:19.000Z</time>
      </trkpt>
      <trkpt lat="50.79542" lon="5.68872">
        <ele>38.400001525879</ele>
        <time>2019-03-30T08:40:21.000Z</time>
      </trkpt>
      <trkpt lat="50.79547" lon="5.68893">
        <ele>37.799999237061</ele>
        <time>2019-03-30T08:40:24.000Z</time>
      </trkpt>
      <trkpt lat="50.79545" lon="5.68899">
        <ele>37.599998474121</ele>
        <time>2019-03-30T08:40:26.000Z</time>
      </trkpt>
      <trkpt lat="50.79541" lon="5.68921">
        <ele>53.2</ele>
      </trkpt>
      <trkpt lat="50.79542" lon="5.68983">
        <ele>52.4</ele>
      </trkpt>
      <trkpt lat="50.7954" lon="5.69091">
        <ele>51.6</ele>
      </trkpt>
      <trkpt lat="50.79537" lon="5.6913">
        <ele>51</ele>
      </trkpt>
      <trkpt lat="50.79528" lon="5.69149">
        <ele>50.9</ele>
      </trkpt>
      <trkpt lat="50.79516" lon="5.69155">
        <ele>51</ele>
      </trkpt>
      <trkpt lat="50.79505" lon="5.69154">
        <ele>51.1</ele>
      </trkpt>
      <trkpt lat="50.79486" lon="5.69153">
        <ele>52.2</ele>
      </trkpt>
      <trkpt lat="50.79424" lon="5.69151">
        <ele>52.2</ele>
      </trkpt>
      <trkpt lat="50.79358" lon="5.69146">
        <ele>53</ele>
      </trkpt>
      <trkpt lat="50.79299" lon="5.69143">
        <ele>53.4</ele>
      </trkpt>
      <trkpt lat="50.79242" lon="5.69138">
        <ele>54</ele>
      </trkpt>
      <trkpt lat="50.79185" lon="5.69138">
        <ele>55.1</ele>
      </trkpt>
      <trkpt lat="50.79149" lon="5.69142">
        <ele>56.4</ele>
      </trkpt>
      <trkpt lat="50.79113" lon="5.69154">
        <ele>56.7</ele>
      </trkpt>
      <trkpt lat="50.79043" lon="5.69149">
        <ele>57.2</ele>
      </trkpt>
      <trkpt lat="50.78958" lon="5.69137">
        <ele>56.6</ele>
      </trkpt>
      <trkpt lat="50.78899" lon="5.69135">
        <ele>56.6</ele>
      </trkpt>
      <trkpt lat="50.78842" lon="5.6913">
        <ele>56.6</ele>
      </trkpt>
      <trkpt lat="50.78742" lon="5.6912">
        <ele>55</ele>
      </trkpt>
      <trkpt lat="50.78684" lon="5.69108">
        <ele>55.3</ele>
      </trkpt>
      <trkpt lat="50.78616" lon="5.6909">
        <ele>55.8</ele>
      </trkpt>
      <trkpt lat="50.7856" lon="5.69065">
        <ele>56.1</ele>
      </trkpt>
      <trkpt lat="50.78514" lon="5.69047">
        <ele>55.9</ele>
      </trkpt>
      <trkpt lat="50.78478" lon="5.69036">
        <ele>56.5</ele>
      </trkpt>
      <trkpt lat="50.78447" lon="5.69032">
        <ele>40.799999237061</ele>
        <time>2019-03-30T08:43:40.000Z</time>
      </trkpt>
      <trkpt lat="50.78429" lon="5.69031">
        <ele>41</ele>
        <time>2019-03-30T08:43:44.000Z</time>
      </trkpt>
      <trkpt lat="50.78403" lon="5.69029">
        <ele>41.400001525879</ele>
        <time>2019-03-30T08:43:48.000Z</time>
      </trkpt>
      <trkpt lat="50.78403" lon="5.69029">
        <ele>41.599998474121</ele>
        <time>2019-03-30T08:43:49.000Z</time>
      </trkpt>
      <trkpt lat="50.78379" lon="5.69028">
        <ele>43.400001525879</ele>
        <time>2019-03-30T08:43:55.000Z</time>
      </trkpt>
      <trkpt lat="50.78365" lon="5.69025">
        <ele>45.400001525879</ele>
        <time>2019-03-30T08:43:59.000Z</time>
      </trkpt>
      <trkpt lat="50.78355" lon="5.69028">
        <ele>46.200000762939</ele>
        <time>2019-03-30T08:44:02.000Z</time>
      </trkpt>
      <trkpt lat="50.78348" lon="5.69043">
        <ele>57</ele>
      </trkpt>
      <trkpt lat="50.7834" lon="5.69074">
        <ele>46.400001525879</ele>
        <time>2019-03-30T08:44:09.000Z</time>
      </trkpt>
      <trkpt lat="50.78325" lon="5.69138">
        <ele>53.6</ele>
      </trkpt>
      <trkpt lat="50.7831" lon="5.69197">
        <ele>52</ele>
      </trkpt>
      <trkpt lat="50.78296" lon="5.69258">
        <ele>42</ele>
        <time>2019-03-30T08:44:23.000Z</time>
      </trkpt>
      <trkpt lat="50.78286" lon="5.69298">
        <ele>38.599998474121</ele>
        <time>2019-03-30T08:44:27.000Z</time>
      </trkpt>
      <trkpt lat="50.78273" lon="5.69351">
        <ele>38</ele>
        <time>2019-03-30T08:44:30.000Z</time>
      </trkpt>
      <trkpt lat="50.78273" lon="5.69351">
        <ele>37.400001525879</ele>
        <time>2019-03-30T08:44:31.000Z</time>
      </trkpt>
      <trkpt lat="50.78266" lon="5.69376">
        <ele>36.400001525879</ele>
        <time>2019-03-30T08:44:33.000Z</time>
      </trkpt>
      <trkpt lat="50.78255" lon="5.69421">
        <ele>34.200000762939</ele>
        <time>2019-03-30T08:44:37.000Z</time>
      </trkpt>
      <trkpt lat="50.78242" lon="5.69473">
        <ele>52</ele>
      </trkpt>
      <trkpt lat="50.78215" lon="5.69471">
        <ele>51.6</ele>
      </trkpt>
      <trkpt lat="50.78187" lon="5.69447">
        <ele>31.200000762939</ele>
        <time>2019-03-30T08:44:48.000Z</time>
      </trkpt>
      <trkpt lat="50.78171" lon="5.69446">
        <ele>30.799999237061</ele>
        <time>2019-03-30T08:44:51.000Z</time>
      </trkpt>
      <trkpt lat="50.78118" lon="5.69435">
        <ele>30.799999237061</ele>
        <time>2019-03-30T08:44:57.000Z</time>
      </trkpt>
      <trkpt lat="50.78068" lon="5.69425">
        <ele>30.799999237061</ele>
        <time>2019-03-30T08:45:05.000Z</time>
      </trkpt>
      <trkpt lat="50.78024" lon="5.69413">
        <ele>31.200000762939</ele>
        <time>2019-03-30T08:45:12.000Z</time>
      </trkpt>
      <trkpt lat="50.77962" lon="5.69399">
        <ele>31.200000762939</ele>
        <time>2019-03-30T08:45:21.000Z</time>
      </trkpt>
      <trkpt lat="50.77908" lon="5.69387">
        <ele>31.200000762939</ele>
        <time>2019-03-30T08:45:28.000Z</time>
      </trkpt>
      <trkpt lat="50.77893" lon="5.69383">
        <ele>31.200000762939</ele>
        <time>2019-03-30T08:45:31.000Z</time>
      </trkpt>
      <trkpt lat="50.77837" lon="5.69364">
        <ele>31.200000762939</ele>
        <time>2019-03-30T08:45:39.000Z</time>
      </trkpt>
      <trkpt lat="50.77782" lon="5.69329">
        <ele>31.200000762939</ele>
        <time>2019-03-30T08:45:46.000Z</time>
      </trkpt>
      <trkpt lat="50.77782" lon="5.69329">
        <ele>31</ele>
        <time>2019-03-30T08:45:47.000Z</time>
      </trkpt>
      <trkpt lat="50.77727" lon="5.69288">
        <ele>30.799999237061</ele>
        <time>2019-03-30T08:45:54.000Z</time>
      </trkpt>
      <trkpt lat="50.77727" lon="5.69288">
        <ele>30.799999237061</ele>
        <time>2019-03-30T08:45:55.000Z</time>
      </trkpt>
      <trkpt lat="50.77678" lon="5.69251">
        <ele>30.799999237061</ele>
        <time>2019-03-30T08:46:02.000Z</time>
      </trkpt>
      <trkpt lat="50.77643" lon="5.69221">
        <ele>30.60000038147</ele>
        <time>2019-03-30T08:46:07.000Z</time>
      </trkpt>
      <trkpt lat="50.77616" lon="5.69198">
        <ele>30.39999961853</ele>
        <time>2019-03-30T08:46:11.000Z</time>
      </trkpt>
      <trkpt lat="50.77562" lon="5.69152">
        <ele>30.60000038147</ele>
        <time>2019-03-30T08:46:18.000Z</time>
      </trkpt>
      <trkpt lat="50.77528" lon="5.69125">
        <ele>30.60000038147</ele>
        <time>2019-03-30T08:46:24.000Z</time>
      </trkpt>
      <trkpt lat="50.77476" lon="5.69084">
        <ele>31</ele>
        <time>2019-03-30T08:46:32.000Z</time>
      </trkpt>
      <trkpt lat="50.7747" lon="5.69079">
        <ele>31.200000762939</ele>
        <time>2019-03-30T08:46:33.000Z</time>
      </trkpt>
      <trkpt lat="50.7743" lon="5.69056">
        <ele>31.200000762939</ele>
        <time>2019-03-30T08:46:39.000Z</time>
      </trkpt>
      <trkpt lat="50.77389" lon="5.6904">
        <ele>31.60000038147</ele>
        <time>2019-03-30T08:46:45.000Z</time>
      </trkpt>
      <trkpt lat="50.77368" lon="5.69034">
        <ele>31.799999237061</ele>
        <time>2019-03-30T08:46:48.000Z</time>
      </trkpt>
      <trkpt lat="50.7731" lon="5.69018">
        <ele>32</ele>
        <time>2019-03-30T08:46:56.000Z</time>
      </trkpt>
      <trkpt lat="50.77303" lon="5.69015">
        <ele>32</ele>
        <time>2019-03-30T08:46:57.000Z</time>
      </trkpt>
      <trkpt lat="50.77247" lon="5.68988">
        <ele>31.799999237061</ele>
        <time>2019-03-30T08:47:05.000Z</time>
      </trkpt>
      <trkpt lat="50.77234" lon="5.6898">
        <ele>31.799999237061</ele>
        <time>2019-03-30T08:47:07.000Z</time>
      </trkpt>
      <trkpt lat="50.77181" lon="5.68949">
        <ele>31.60000038147</ele>
        <time>2019-03-30T08:47:15.000Z</time>
      </trkpt>
      <trkpt lat="50.77161" lon="5.68937">
        <ele>31.60000038147</ele>
        <time>2019-03-30T08:47:18.000Z</time>
      </trkpt>
      <trkpt lat="50.771" lon="5.68896">
        <ele>31.799999237061</ele>
        <time>2019-03-30T08:47:27.000Z</time>
      </trkpt>
      <trkpt lat="50.77044" lon="5.68854">
        <ele>31.799999237061</ele>
        <time>2019-03-30T08:47:34.000Z</time>
      </trkpt>
      <trkpt lat="50.77037" lon="5.68849">
        <ele>31.60000038147</ele>
        <time>2019-03-30T08:47:36.000Z</time>
      </trkpt>
      <trkpt lat="50.76983" lon="5.68807">
        <ele>30.799999237061</ele>
        <time>2019-03-30T08:47:44.000Z</time>
      </trkpt>
      <trkpt lat="50.76964" lon="5.68788">
        <ele>30.60000038147</ele>
        <time>2019-03-30T08:47:46.000Z</time>
      </trkpt>
      <trkpt lat="50.76964" lon="5.68788">
        <ele>30.60000038147</ele>
        <time>2019-03-30T08:47:47.000Z</time>
      </trkpt>
      <trkpt lat="50.76912" lon="5.68736">
        <ele>30.39999961853</ele>
        <time>2019-03-30T08:47:55.000Z</time>
      </trkpt>
      <trkpt lat="50.76905" lon="5.6873">
        <ele>30.39999961853</ele>
        <time>2019-03-30T08:47:56.000Z</time>
      </trkpt>
      <trkpt lat="50.76847" lon="5.68677">
        <ele>30.39999961853</ele>
        <time>2019-03-30T08:48:04.000Z</time>
      </trkpt>
      <trkpt lat="50.76806" lon="5.68639">
        <ele>30.60000038147</ele>
        <time>2019-03-30T08:48:10.000Z</time>
      </trkpt>
      <trkpt lat="50.76752" lon="5.68589">
        <ele>30.799999237061</ele>
        <time>2019-03-30T08:48:18.000Z</time>
      </trkpt>
      <trkpt lat="50.76752" lon="5.68589">
        <ele>30.799999237061</ele>
        <time>2019-03-30T08:48:19.000Z</time>
      </trkpt>
      <trkpt lat="50.76699" lon="5.68541">
        <ele>30.60000038147</ele>
        <time>2019-03-30T08:48:27.000Z</time>
      </trkpt>
      <trkpt lat="50.76649" lon="5.68491">
        <ele>30.799999237061</ele>
        <time>2019-03-30T08:48:34.000Z</time>
      </trkpt>
      <trkpt lat="50.76637" lon="5.68479">
        <ele>30.799999237061</ele>
        <time>2019-03-30T08:48:36.000Z</time>
      </trkpt>
      <trkpt lat="50.76595" lon="5.68432">
        <ele>31</ele>
        <time>2019-03-30T08:48:44.000Z</time>
      </trkpt>
      <trkpt lat="50.7655" lon="5.68379">
        <ele>31</ele>
        <time>2019-03-30T08:48:51.000Z</time>
      </trkpt>
      <trkpt lat="50.76505" lon="5.68328">
        <ele>30.799999237061</ele>
        <time>2019-03-30T08:48:58.000Z</time>
      </trkpt>
      <trkpt lat="50.76487" lon="5.68306">
        <ele>30.799999237061</ele>
        <time>2019-03-30T08:49:00.000Z</time>
      </trkpt>
      <trkpt lat="50.76453" lon="5.68259">
        <ele>31</ele>
        <time>2019-03-30T08:49:06.000Z</time>
      </trkpt>
      <trkpt lat="50.76433" lon="5.68225">
        <ele>31</ele>
        <time>2019-03-30T08:49:10.000Z</time>
      </trkpt>
      <trkpt lat="50.76425" lon="5.68204">
        <ele>31</ele>
        <time>2019-03-30T08:49:12.000Z</time>
      </trkpt>
      <trkpt lat="50.76422" lon="5.68193">
        <ele>31</ele>
        <time>2019-03-30T08:49:14.000Z</time>
      </trkpt>
      <trkpt lat="50.76413" lon="5.68158">
        <ele>30.799999237061</ele>
        <time>2019-03-30T08:49:17.000Z</time>
      </trkpt>
      <trkpt lat="50.76409" lon="5.68148">
        <ele>30.799999237061</ele>
        <time>2019-03-30T08:49:18.000Z</time>
      </trkpt>
      <trkpt lat="50.76387" lon="5.68116">
        <ele>30.799999237061</ele>
        <time>2019-03-30T08:49:22.000Z</time>
      </trkpt>
      <trkpt lat="50.76366" lon="5.68103">
        <ele>30.799999237061</ele>
        <time>2019-03-30T08:49:24.000Z</time>
      </trkpt>
      <trkpt lat="50.76336" lon="5.68086">
        <ele>30.799999237061</ele>
        <time>2019-03-30T08:49:28.000Z</time>
      </trkpt>
      <trkpt lat="50.76278" lon="5.68057">
        <ele>30.60000038147</ele>
        <time>2019-03-30T08:49:36.000Z</time>
      </trkpt>
      <trkpt lat="50.76278" lon="5.68057">
        <ele>30.60000038147</ele>
        <time>2019-03-30T08:49:37.000Z</time>
      </trkpt>
      <trkpt lat="50.76204" lon="5.68041">
        <ele>30.39999961853</ele>
        <time>2019-03-30T08:49:46.000Z</time>
      </trkpt>
      <trkpt lat="50.76204" lon="5.68041">
        <ele>30.39999961853</ele>
        <time>2019-03-30T08:49:47.000Z</time>
      </trkpt>
      <trkpt lat="50.76145" lon="5.68031">
        <ele>30.60000038147</ele>
        <time>2019-03-30T08:49:54.000Z</time>
      </trkpt>
      <trkpt lat="50.76145" lon="5.68031">
        <ele>30.60000038147</ele>
        <time>2019-03-30T08:49:55.000Z</time>
      </trkpt>
      <trkpt lat="50.7609" lon="5.68021">
        <ele>30.799999237061</ele>
        <time>2019-03-30T08:50:02.000Z</time>
      </trkpt>
      <trkpt lat="50.76042" lon="5.68013">
        <ele>31</ele>
        <time>2019-03-30T08:50:08.000Z</time>
      </trkpt>
      <trkpt lat="50.75988" lon="5.68011">
        <ele>30.799999237061</ele>
        <time>2019-03-30T08:50:15.000Z</time>
      </trkpt>
      <trkpt lat="50.75957" lon="5.6801">
        <ele>30.799999237061</ele>
        <time>2019-03-30T08:50:18.000Z</time>
      </trkpt>
      <trkpt lat="50.75899" lon="5.68005">
        <ele>30.60000038147</ele>
        <time>2019-03-30T08:50:27.000Z</time>
      </trkpt>
      <trkpt lat="50.7584" lon="5.67994">
        <ele>30.60000038147</ele>
        <time>2019-03-30T08:50:34.000Z</time>
      </trkpt>
      <trkpt lat="50.7584" lon="5.67994">
        <ele>30.799999237061</ele>
        <time>2019-03-30T08:50:35.000Z</time>
      </trkpt>
      <trkpt lat="50.75781" lon="5.67971">
        <ele>31.39999961853</ele>
        <time>2019-03-30T08:50:43.000Z</time>
      </trkpt>
      <trkpt lat="50.75707" lon="5.67939">
        <ele>31.60000038147</ele>
        <time>2019-03-30T08:50:52.000Z</time>
      </trkpt>
      <trkpt lat="50.75675" lon="5.67943">
        <ele>31.60000038147</ele>
        <time>2019-03-30T08:50:57.000Z</time>
      </trkpt>
      <trkpt lat="50.7566" lon="5.67948">
        <ele>31.60000038147</ele>
        <time>2019-03-30T08:50:58.000Z</time>
      </trkpt>
      <trkpt lat="50.75629" lon="5.67962">
        <ele>31.60000038147</ele>
        <time>2019-03-30T08:51:03.000Z</time>
      </trkpt>
      <trkpt lat="50.75585" lon="5.67977">
        <ele>31.60000038147</ele>
        <time>2019-03-30T08:51:09.000Z</time>
      </trkpt>
      <trkpt lat="50.75541" lon="5.6798">
        <ele>31.60000038147</ele>
        <time>2019-03-30T08:51:15.000Z</time>
      </trkpt>
      <trkpt lat="50.75491" lon="5.67974">
        <ele>31.799999237061</ele>
        <time>2019-03-30T08:51:22.000Z</time>
      </trkpt>
      <trkpt lat="50.7546" lon="5.6797">
        <ele>32.200000762939</ele>
        <time>2019-03-30T08:51:27.000Z</time>
      </trkpt>
      <trkpt lat="50.75435" lon="5.6796">
        <ele>32.400001525879</ele>
        <time>2019-03-30T08:51:30.000Z</time>
      </trkpt>
      <trkpt lat="50.75428" lon="5.67958">
        <ele>32.400001525879</ele>
        <time>2019-03-30T08:51:32.000Z</time>
      </trkpt>
      <trkpt lat="50.75409" lon="5.67952">
        <ele>32.400001525879</ele>
        <time>2019-03-30T08:51:34.000Z</time>
      </trkpt>
      <trkpt lat="50.75389" lon="5.67944">
        <ele>32.400001525879</ele>
        <time>2019-03-30T08:51:37.000Z</time>
      </trkpt>
      <trkpt lat="50.75331" lon="5.6792">
        <ele>32.200000762939</ele>
        <time>2019-03-30T08:51:46.000Z</time>
      </trkpt>
      <trkpt lat="50.75278" lon="5.67892">
        <ele>31.799999237061</ele>
        <time>2019-03-30T08:51:55.000Z</time>
      </trkpt>
      <trkpt lat="50.75213" lon="5.67851">
        <ele>31.60000038147</ele>
        <time>2019-03-30T08:52:04.000Z</time>
      </trkpt>
      <trkpt lat="50.75173" lon="5.67826">
        <ele>31.60000038147</ele>
        <time>2019-03-30T08:52:10.000Z</time>
      </trkpt>
      <trkpt lat="50.75161" lon="5.67814">
        <ele>31.60000038147</ele>
        <time>2019-03-30T08:52:12.000Z</time>
      </trkpt>
      <trkpt lat="50.75123" lon="5.67781">
        <ele>31.60000038147</ele>
        <time>2019-03-30T08:52:18.000Z</time>
      </trkpt>
      <trkpt lat="50.75123" lon="5.67781">
        <ele>31.60000038147</ele>
        <time>2019-03-30T08:52:19.000Z</time>
      </trkpt>
      <trkpt lat="50.75094" lon="5.67773">
        <ele>31.60000038147</ele>
        <time>2019-03-30T08:52:22.000Z</time>
      </trkpt>
      <trkpt lat="50.75087" lon="5.67773">
        <ele>31.60000038147</ele>
        <time>2019-03-30T08:52:24.000Z</time>
      </trkpt>
      <trkpt lat="50.7504" lon="5.67776">
        <ele>31.799999237061</ele>
        <time>2019-03-30T08:52:31.000Z</time>
      </trkpt>
      <trkpt lat="50.74992" lon="5.67783">
        <ele>31.60000038147</ele>
        <time>2019-03-30T08:52:38.000Z</time>
      </trkpt>
      <trkpt lat="50.74949" lon="5.6779">
        <ele>31.799999237061</ele>
        <time>2019-03-30T08:52:45.000Z</time>
      </trkpt>
      <trkpt lat="50.74945" lon="5.67794">
        <ele>31.799999237061</ele>
        <time>2019-03-30T08:52:46.000Z</time>
      </trkpt>
      <trkpt lat="50.7494" lon="5.6782">
        <ele>31.799999237061</ele>
        <time>2019-03-30T08:52:49.000Z</time>
      </trkpt>
      <trkpt lat="50.74946" lon="5.67847">
        <ele>31.799999237061</ele>
        <time>2019-03-30T08:52:52.000Z</time>
      </trkpt>
      <trkpt lat="50.74954" lon="5.67861">
        <ele>32</ele>
        <time>2019-03-30T08:52:54.000Z</time>
      </trkpt>
      <trkpt lat="50.74972" lon="5.67892">
        <ele>32.599998474121</ele>
        <time>2019-03-30T08:52:59.000Z</time>
      </trkpt>
      <trkpt lat="50.74984" lon="5.67909">
        <ele>33.400001525879</ele>
        <time>2019-03-30T08:53:02.000Z</time>
      </trkpt>
      <trkpt lat="50.74998" lon="5.67931">
        <ele>34.599998474121</ele>
        <time>2019-03-30T08:53:06.000Z</time>
      </trkpt>
      <trkpt lat="50.75009" lon="5.67947">
        <ele>36</ele>
        <time>2019-03-30T08:53:09.000Z</time>
      </trkpt>
      <trkpt lat="50.75016" lon="5.67957">
        <ele>36.799999237061</ele>
        <time>2019-03-30T08:53:11.000Z</time>
      </trkpt>
      <trkpt lat="50.7502" lon="5.67961">
        <ele>37.200000762939</ele>
        <time>2019-03-30T08:53:12.000Z</time>
      </trkpt>
      <trkpt lat="50.75033" lon="5.67972">
        <ele>39</ele>
        <time>2019-03-30T08:53:15.000Z</time>
      </trkpt>
      <trkpt lat="50.75043" lon="5.67978">
        <ele>39.799999237061</ele>
        <time>2019-03-30T08:53:17.000Z</time>
      </trkpt>
      <trkpt lat="50.75048" lon="5.6798">
        <ele>40.200000762939</ele>
        <time>2019-03-30T08:53:18.000Z</time>
      </trkpt>
      <trkpt lat="50.75063" lon="5.67987">
        <ele>41.599998474121</ele>
        <time>2019-03-30T08:53:21.000Z</time>
      </trkpt>
      <trkpt lat="50.75068" lon="5.6799">
        <ele>42</ele>
        <time>2019-03-30T08:53:22.000Z</time>
      </trkpt>
      <trkpt lat="50.75073" lon="5.67993">
        <ele>42.400001525879</ele>
        <time>2019-03-30T08:53:23.000Z</time>
      </trkpt>
      <trkpt lat="50.75078" lon="5.67998">
        <ele>42.799999237061</ele>
        <time>2019-03-30T08:53:24.000Z</time>
      </trkpt>
      <trkpt lat="50.75089" lon="5.68018">
        <ele>44.200000762939</ele>
        <time>2019-03-30T08:53:27.000Z</time>
      </trkpt>
      <trkpt lat="50.75097" lon="5.68056">
        <ele>44.799999237061</ele>
        <time>2019-03-30T08:53:31.000Z</time>
      </trkpt>
      <trkpt lat="50.75109" lon="5.68148">
        <ele>44.799999237061</ele>
        <time>2019-03-30T08:53:39.000Z</time>
      </trkpt>
      <trkpt lat="50.75121" lon="5.6824">
        <ele>43.200000762939</ele>
        <time>2019-03-30T08:53:46.000Z</time>
      </trkpt>
      <trkpt lat="50.75128" lon="5.68297">
        <ele>42.200000762939</ele>
        <time>2019-03-30T08:53:50.000Z</time>
      </trkpt>
      <trkpt lat="50.75133" lon="5.68326">
        <ele>41.599998474121</ele>
        <time>2019-03-30T08:53:52.000Z</time>
      </trkpt>
      <trkpt lat="50.75136" lon="5.68354">
        <ele>41.200000762939</ele>
        <time>2019-03-30T08:53:54.000Z</time>
      </trkpt>
      <trkpt lat="50.75138" lon="5.68368">
        <ele>40.799999237061</ele>
        <time>2019-03-30T08:53:55.000Z</time>
      </trkpt>
      <trkpt lat="50.75142" lon="5.68396">
        <ele>39.799999237061</ele>
        <time>2019-03-30T08:53:57.000Z</time>
      </trkpt>
      <trkpt lat="50.75146" lon="5.68436">
        <ele>38.799999237061</ele>
        <time>2019-03-30T08:54:00.000Z</time>
      </trkpt>
      <trkpt lat="50.75148" lon="5.68449">
        <ele>38.599998474121</ele>
        <time>2019-03-30T08:54:01.000Z</time>
      </trkpt>
      <trkpt lat="50.75158" lon="5.68533">
        <ele>38.200000762939</ele>
        <time>2019-03-30T08:54:07.000Z</time>
      </trkpt>
      <trkpt lat="50.7517" lon="5.68627">
        <ele>38.200000762939</ele>
        <time>2019-03-30T08:54:14.000Z</time>
      </trkpt>
      <trkpt lat="50.75173" lon="5.68654">
        <ele>38.200000762939</ele>
        <time>2019-03-30T08:54:16.000Z</time>
      </trkpt>
      <trkpt lat="50.75186" lon="5.68744">
        <ele>51</ele>
      </trkpt>
      <trkpt lat="50.75199" lon="5.68838">
        <ele>38.200000762939</ele>
        <time>2019-03-30T08:54:30.000Z</time>
      </trkpt>
      <trkpt lat="50.75202" lon="5.68871">
        <ele>52.7</ele>
      </trkpt>
      <trkpt lat="50.7519" lon="5.68906">
        <ele>53.2</ele>
      </trkpt>
      <trkpt lat="50.75195" lon="5.68925">
        <ele>53</ele>
      </trkpt>
      <trkpt lat="50.75204" lon="5.68933">
        <ele>38.799999237061</ele>
        <time>2019-03-30T08:54:39.000Z</time>
      </trkpt>
      <trkpt lat="50.75211" lon="5.68936">
        <ele>53.1</ele>
      </trkpt>
      <trkpt lat="50.75232" lon="5.68978">
        <ele>38.799999237061</ele>
        <time>2019-03-30T08:54:44.000Z</time>
      </trkpt>
      <trkpt lat="50.75245" lon="5.68998">
        <ele>38.799999237061</ele>
        <time>2019-03-30T08:54:46.000Z</time>
      </trkpt>
      <trkpt lat="50.75259" lon="5.69012">
        <ele>51.1</ele>
      </trkpt>
      <trkpt lat="50.75276" lon="5.69028">
        <ele>51.2</ele>
      </trkpt>
      <trkpt lat="50.75312" lon="5.69055">
        <ele>51.4</ele>
      </trkpt>
      <trkpt lat="50.75328" lon="5.69071">
        <ele>51.7</ele>
      </trkpt>
      <trkpt lat="50.75348" lon="5.69103">
        <ele>51.5</ele>
      </trkpt>
      <trkpt lat="50.75355" lon="5.69116">
        <ele>51</ele>
      </trkpt>
      <trkpt lat="50.7536" lon="5.69136">
        <ele>35</ele>
        <time>2019-03-30T08:55:02.000Z</time>
      </trkpt>
      <trkpt lat="50.75365" lon="5.69158">
        <ele>51.4</ele>
      </trkpt>
      <trkpt lat="50.75367" lon="5.69178">
        <ele>35.200000762939</ele>
        <time>2019-03-30T08:55:09.000Z</time>
      </trkpt>
      <trkpt lat="50.7537" lon="5.69194">
        <ele>53</ele>
      </trkpt>
      <trkpt lat="50.75379" lon="5.69199">
        <ele>52.8</ele>
      </trkpt>
      <trkpt lat="50.75395" lon="5.69198">
        <ele>52.8</ele>
      </trkpt>
      <trkpt lat="50.75409" lon="5.69192">
        <ele>52.5</ele>
      </trkpt>
      <trkpt lat="50.7542" lon="5.69194">
        <ele>52.7</ele>
      </trkpt>
      <trkpt lat="50.75432" lon="5.69203">
        <ele>53.1</ele>
      </trkpt>
      <trkpt lat="50.75443" lon="5.69232">
        <ele>54</ele>
      </trkpt>
      <trkpt lat="50.75444" lon="5.69257">
        <ele>55.1</ele>
      </trkpt>
      <trkpt lat="50.75441" lon="5.69277">
        <ele>55.1</ele>
      </trkpt>
      <trkpt lat="50.75435" lon="5.69319">
        <ele>55.2</ele>
      </trkpt>
      <trkpt lat="50.75429" lon="5.69362">
        <ele>54.8</ele>
      </trkpt>
      <trkpt lat="50.75419" lon="5.69434">
        <ele>54.7</ele>
      </trkpt>
      <trkpt lat="50.75412" lon="5.69481">
        <ele>55.8</ele>
      </trkpt>
      <trkpt lat="50.75406" lon="5.69525">
        <ele>56.4</ele>
      </trkpt>
      <trkpt lat="50.754" lon="5.69569">
        <ele>56.7</ele>
      </trkpt>
      <trkpt lat="50.75395" lon="5.69605">
        <ele>57.2</ele>
      </trkpt>
      <trkpt lat="50.75387" lon="5.69655">
        <ele>57.2</ele>
      </trkpt>
      <trkpt lat="50.75385" lon="5.69703">
        <ele>57.3</ele>
      </trkpt>
      <trkpt lat="50.75392" lon="5.69742">
        <ele>57.4</ele>
      </trkpt>
      <trkpt lat="50.754" lon="5.69766">
        <ele>57.2</ele>
      </trkpt>
      <trkpt lat="50.75413" lon="5.69786">
        <ele>57.1</ele>
      </trkpt>
      <trkpt lat="50.75431" lon="5.69813">
        <ele>56.4</ele>
      </trkpt>
      <trkpt lat="50.75443" lon="5.6983">
        <ele>56.3</ele>
      </trkpt>
      <trkpt lat="50.75455" lon="5.69848">
        <ele>56</ele>
      </trkpt>
      <trkpt lat="50.75472" lon="5.69873">
        <ele>39</ele>
        <time>2019-03-30T08:56:36.000Z</time>
      </trkpt>
      <trkpt lat="50.75478" lon="5.69883">
        <ele>38.599998474121</ele>
        <time>2019-03-30T08:56:37.000Z</time>
      </trkpt>
      <trkpt lat="50.75497" lon="5.69912">
        <ele>38</ele>
        <time>2019-03-30T08:56:40.000Z</time>
      </trkpt>
      <trkpt lat="50.75516" lon="5.69939">
        <ele>37</ele>
        <time>2019-03-30T08:56:43.000Z</time>
      </trkpt>
      <trkpt lat="50.75529" lon="5.69957">
        <ele>55.6</ele>
      </trkpt>
      <trkpt lat="50.75542" lon="5.69978">
        <ele>55</ele>
      </trkpt>
      <trkpt lat="50.75556" lon="5.70008">
        <ele>35.799999237061</ele>
        <time>2019-03-30T08:56:50.000Z</time>
      </trkpt>
      <trkpt lat="50.7556" lon="5.7002">
        <ele>35.799999237061</ele>
        <time>2019-03-30T08:56:51.000Z</time>
      </trkpt>
      <trkpt lat="50.7557" lon="5.7006">
        <ele>35.599998474121</ele>
        <time>2019-03-30T08:56:54.000Z</time>
      </trkpt>
      <trkpt lat="50.75573" lon="5.70094">
        <ele>57</ele>
      </trkpt>
      <trkpt lat="50.75571" lon="5.70117">
        <ele>57</ele>
      </trkpt>
      <trkpt lat="50.75568" lon="5.70151">
        <ele>57</ele>
      </trkpt>
      <trkpt lat="50.75567" lon="5.70187">
        <ele>36</ele>
        <time>2019-03-30T08:57:04.000Z</time>
      </trkpt>
      <trkpt lat="50.7557" lon="5.70227">
        <ele>56</ele>
      </trkpt>
      <trkpt lat="50.75574" lon="5.70264">
        <ele>36</ele>
        <time>2019-03-30T08:57:10.000Z</time>
      </trkpt>
      <trkpt lat="50.75577" lon="5.70288">
        <ele>35.799999237061</ele>
        <time>2019-03-30T08:57:12.000Z</time>
      </trkpt>
      <trkpt lat="50.75583" lon="5.70311">
        <ele>35.799999237061</ele>
        <time>2019-03-30T08:57:14.000Z</time>
      </trkpt>
      <trkpt lat="50.75601" lon="5.70382">
        <ele>35.400001525879</ele>
        <time>2019-03-30T08:57:20.000Z</time>
      </trkpt>
      <trkpt lat="50.75601" lon="5.70432">
        <ele>35.400001525879</ele>
        <time>2019-03-30T08:57:24.000Z</time>
      </trkpt>
      <trkpt lat="50.75597" lon="5.70468">
        <ele>35.200000762939</ele>
        <time>2019-03-30T08:57:27.000Z</time>
      </trkpt>
      <trkpt lat="50.75591" lon="5.70489">
        <ele>35.200000762939</ele>
        <time>2019-03-30T08:57:29.000Z</time>
      </trkpt>
      <trkpt lat="50.75571" lon="5.70513">
        <ele>55.9</ele>
      </trkpt>
      <trkpt lat="50.75552" lon="5.70542">
        <ele>55.8</ele>
      </trkpt>
      <trkpt lat="50.75542" lon="5.70576">
        <ele>56</ele>
      </trkpt>
      <trkpt lat="50.75538" lon="5.70607">
        <ele>35.400001525879</ele>
        <time>2019-03-30T08:57:42.000Z</time>
      </trkpt>
      <trkpt lat="50.75535" lon="5.70652">
        <ele>55.7</ele>
      </trkpt>
      <trkpt lat="50.75533" lon="5.70703">
        <ele>56</ele>
      </trkpt>
      <trkpt lat="50.75531" lon="5.70741">
        <ele>56.1</ele>
      </trkpt>
      <trkpt lat="50.75533" lon="5.70761">
        <ele>56.7</ele>
      </trkpt>
      <trkpt lat="50.75538" lon="5.70814">
        <ele>57</ele>
      </trkpt>
      <trkpt lat="50.75544" lon="5.70863">
        <ele>36.599998474121</ele>
        <time>2019-03-30T09:05:46.000Z</time>
      </trkpt>
      <trkpt lat="50.75546" lon="5.7087">
        <ele>36.599998474121</ele>
        <time>2019-03-30T09:05:47.000Z</time>
      </trkpt>
      <trkpt lat="50.7556" lon="5.70883">
        <ele>36.599998474121</ele>
        <time>2019-03-30T09:05:50.000Z</time>
      </trkpt>
      <trkpt lat="50.75564" lon="5.70887">
        <ele>36.599998474121</ele>
        <time>2019-03-30T09:05:51.000Z</time>
      </trkpt>
      <trkpt lat="50.75584" lon="5.70901">
        <ele>36.799999237061</ele>
        <time>2019-03-30T09:05:55.000Z</time>
      </trkpt>
      <trkpt lat="50.75589" lon="5.70905">
        <ele>37</ele>
        <time>2019-03-30T09:05:56.000Z</time>
      </trkpt>
      <trkpt lat="50.75594" lon="5.70909">
        <ele>37</ele>
        <time>2019-03-30T09:05:57.000Z</time>
      </trkpt>
      <trkpt lat="50.75621" lon="5.70924">
        <ele>37.400001525879</ele>
        <time>2019-03-30T09:06:02.000Z</time>
      </trkpt>
      <trkpt lat="50.75626" lon="5.70926">
        <ele>37.400001525879</ele>
        <time>2019-03-30T09:06:03.000Z</time>
      </trkpt>
      <trkpt lat="50.75679" lon="5.70951">
        <ele>37.799999237061</ele>
        <time>2019-03-30T09:06:12.000Z</time>
      </trkpt>
      <trkpt lat="50.75685" lon="5.70955">
        <ele>38</ele>
        <time>2019-03-30T09:06:13.000Z</time>
      </trkpt>
      <trkpt lat="50.75706" lon="5.70973">
        <ele>37.799999237061</ele>
        <time>2019-03-30T09:06:17.000Z</time>
      </trkpt>
      <trkpt lat="50.75721" lon="5.70988">
        <ele>38</ele>
        <time>2019-03-30T09:06:20.000Z</time>
      </trkpt>
      <trkpt lat="50.75729" lon="5.71">
        <ele>38.200000762939</ele>
        <time>2019-03-30T09:06:22.000Z</time>
      </trkpt>
      <trkpt lat="50.75734" lon="5.71016">
        <ele>38.200000762939</ele>
        <time>2019-03-30T09:06:24.000Z</time>
      </trkpt>
      <trkpt lat="50.75731" lon="5.71043">
        <ele>38.400001525879</ele>
        <time>2019-03-30T09:06:27.000Z</time>
      </trkpt>
      <trkpt lat="50.7572" lon="5.71128">
        <ele>38.599998474121</ele>
        <time>2019-03-30T09:06:36.000Z</time>
      </trkpt>
      <trkpt lat="50.75712" lon="5.71205">
        <ele>39</ele>
        <time>2019-03-30T09:06:44.000Z</time>
      </trkpt>
      <trkpt lat="50.7571" lon="5.71225">
        <ele>39</ele>
        <time>2019-03-30T09:06:46.000Z</time>
      </trkpt>
      <trkpt lat="50.75705" lon="5.71282">
        <ele>38.799999237061</ele>
        <time>2019-03-30T09:06:52.000Z</time>
      </trkpt>
      <trkpt lat="50.75704" lon="5.71299">
        <ele>38.799999237061</ele>
        <time>2019-03-30T09:06:54.000Z</time>
      </trkpt>
      <trkpt lat="50.75698" lon="5.71332">
        <ele>38.799999237061</ele>
        <time>2019-03-30T09:06:59.000Z</time>
      </trkpt>
      <trkpt lat="50.75696" lon="5.71362">
        <ele>39</ele>
        <time>2019-03-30T09:07:04.000Z</time>
      </trkpt>
      <trkpt lat="50.75695" lon="5.7137">
        <ele>39</ele>
        <time>2019-03-30T09:07:05.000Z</time>
      </trkpt>
      <trkpt lat="50.7569" lon="5.71411">
        <ele>39.200000762939</ele>
        <time>2019-03-30T09:07:10.000Z</time>
      </trkpt>
      <trkpt lat="50.75689" lon="5.71421">
        <ele>39.200000762939</ele>
        <time>2019-03-30T09:07:11.000Z</time>
      </trkpt>
      <trkpt lat="50.75683" lon="5.71484">
        <ele>39.200000762939</ele>
        <time>2019-03-30T09:07:18.000Z</time>
      </trkpt>
      <trkpt lat="50.75677" lon="5.71535">
        <ele>61.7</ele>
      </trkpt>
      <trkpt lat="50.75675" lon="5.71558">
        <ele>39.599998474121</ele>
        <time>2019-03-30T09:07:26.000Z</time>
      </trkpt>
      <trkpt lat="50.75671" lon="5.71586">
        <ele>62</ele>
      </trkpt>
      <trkpt lat="50.75666" lon="5.71603">
        <ele>39.799999237061</ele>
        <time>2019-03-30T09:07:31.000Z</time>
      </trkpt>
      <trkpt lat="50.75656" lon="5.71639">
        <ele>63</ele>
      </trkpt>
      <trkpt lat="50.75644" lon="5.7166">
        <ele>62.8</ele>
      </trkpt>
      <trkpt lat="50.75624" lon="5.717">
        <ele>61.8</ele>
      </trkpt>
      <trkpt lat="50.75596" lon="5.71763">
        <ele>40.200000762939</ele>
        <time>2019-03-30T09:07:50.000Z</time>
      </trkpt>
      <trkpt lat="50.75591" lon="5.7178">
        <ele>61.3</ele>
      </trkpt>
      <trkpt lat="50.75589" lon="5.71815">
        <ele>62</ele>
      </trkpt>
      <trkpt lat="50.75595" lon="5.71883">
        <ele>61.3</ele>
      </trkpt>
      <trkpt lat="50.75602" lon="5.7193">
        <ele>60.9</ele>
      </trkpt>
      <trkpt lat="50.75611" lon="5.72008">
        <ele>41.400001525879</ele>
        <time>2019-03-30T09:08:13.000Z</time>
      </trkpt>
      <trkpt lat="50.75624" lon="5.72121">
        <ele>42</ele>
        <time>2019-03-30T09:08:24.000Z</time>
      </trkpt>
      <trkpt lat="50.75636" lon="5.7217">
        <ele>42.400001525879</ele>
        <time>2019-03-30T09:08:29.000Z</time>
      </trkpt>
      <trkpt lat="50.75658" lon="5.72249">
        <ele>42.799999237061</ele>
        <time>2019-03-30T09:08:37.000Z</time>
      </trkpt>
      <trkpt lat="50.75669" lon="5.72289">
        <ele>42.799999237061</ele>
        <time>2019-03-30T09:08:41.000Z</time>
      </trkpt>
      <trkpt lat="50.7569" lon="5.72368">
        <ele>61.8</ele>
      </trkpt>
      <trkpt lat="50.75717" lon="5.72463">
        <ele>62.3</ele>
      </trkpt>
      <trkpt lat="50.75733" lon="5.72523">
        <ele>62.5</ele>
      </trkpt>
      <trkpt lat="50.75747" lon="5.72516">
        <ele>62.6</ele>
      </trkpt>
      <trkpt lat="50.75771" lon="5.72498">
        <ele>62.7</ele>
      </trkpt>
      <trkpt lat="50.75819" lon="5.72464">
        <ele>62.5</ele>
      </trkpt>
      <trkpt lat="50.75881" lon="5.72419">
        <ele>63.3</ele>
      </trkpt>
      <trkpt lat="50.75926" lon="5.72386">
        <ele>63.3</ele>
      </trkpt>
      <trkpt lat="50.7596" lon="5.72363">
        <ele>63</ele>
      </trkpt>
      <trkpt lat="50.76043" lon="5.72304">
        <ele>63.6</ele>
      </trkpt>
      <trkpt lat="50.76109" lon="5.72257">
        <ele>65</ele>
      </trkpt>
      <trkpt lat="50.76129" lon="5.72246">
        <ele>64.3</ele>
      </trkpt>
      <trkpt lat="50.76175" lon="5.72219">
        <ele>65.2</ele>
      </trkpt>
      <trkpt lat="50.76202" lon="5.72206">
        <ele>65</ele>
      </trkpt>
      <trkpt lat="50.76233" lon="5.72192">
        <ele>65</ele>
      </trkpt>
      <trkpt lat="50.76279" lon="5.72175">
        <ele>64.9</ele>
      </trkpt>
      <trkpt lat="50.76303" lon="5.72166">
        <ele>64.1</ele>
      </trkpt>
      <trkpt lat="50.76345" lon="5.72153">
        <ele>64.3</ele>
      </trkpt>
      <trkpt lat="50.76383" lon="5.72142">
        <ele>64.8</ele>
      </trkpt>
      <trkpt lat="50.76445" lon="5.72123">
        <ele>64.4</ele>
      </trkpt>
      <trkpt lat="50.76491" lon="5.7212">
        <ele>43.799999237061</ele>
        <time>2019-03-30T09:11:15.000Z</time>
      </trkpt>
      <trkpt lat="50.7653" lon="5.72121">
        <ele>44.200000762939</ele>
        <time>2019-03-30T09:11:20.000Z</time>
      </trkpt>
      <trkpt lat="50.76559" lon="5.72122">
        <ele>44.200000762939</ele>
        <time>2019-03-30T09:11:24.000Z</time>
      </trkpt>
      <trkpt lat="50.76574" lon="5.72121">
        <ele>44.400001525879</ele>
        <time>2019-03-30T09:11:26.000Z</time>
      </trkpt>
      <trkpt lat="50.76595" lon="5.72117">
        <ele>44.200000762939</ele>
        <time>2019-03-30T09:11:29.000Z</time>
      </trkpt>
      <trkpt lat="50.76609" lon="5.72117">
        <ele>44.200000762939</ele>
        <time>2019-03-30T09:11:30.000Z</time>
      </trkpt>
      <trkpt lat="50.76632" lon="5.72119">
        <ele>44.200000762939</ele>
        <time>2019-03-30T09:11:34.000Z</time>
      </trkpt>
      <trkpt lat="50.7669" lon="5.72133">
        <ele>44.200000762939</ele>
        <time>2019-03-30T09:11:42.000Z</time>
      </trkpt>
      <trkpt lat="50.76744" lon="5.7215">
        <ele>44.200000762939</ele>
        <time>2019-03-30T09:11:50.000Z</time>
      </trkpt>
      <trkpt lat="50.76775" lon="5.72162">
        <ele>44.200000762939</ele>
        <time>2019-03-30T09:11:55.000Z</time>
      </trkpt>
      <trkpt lat="50.76779" lon="5.72167">
        <ele>44.200000762939</ele>
        <time>2019-03-30T09:11:56.000Z</time>
      </trkpt>
      <trkpt lat="50.76779" lon="5.72184">
        <ele>44.200000762939</ele>
        <time>2019-03-30T09:11:58.000Z</time>
      </trkpt>
      <trkpt lat="50.76774" lon="5.72202">
        <ele>44.200000762939</ele>
        <time>2019-03-30T09:12:00.000Z</time>
      </trkpt>
      <trkpt lat="50.76767" lon="5.72231">
        <ele>44.200000762939</ele>
        <time>2019-03-30T09:12:03.000Z</time>
      </trkpt>
      <trkpt lat="50.76759" lon="5.72273">
        <ele>44</ele>
        <time>2019-03-30T09:12:07.000Z</time>
      </trkpt>
      <trkpt lat="50.76745" lon="5.72348">
        <ele>43.799999237061</ele>
        <time>2019-03-30T09:12:14.000Z</time>
      </trkpt>
      <trkpt lat="50.76729" lon="5.72427">
        <ele>43.799999237061</ele>
        <time>2019-03-30T09:12:22.000Z</time>
      </trkpt>
      <trkpt lat="50.76703" lon="5.72549">
        <ele>44</ele>
        <time>2019-03-30T09:12:34.000Z</time>
      </trkpt>
      <trkpt lat="50.76686" lon="5.72627">
        <ele>44.599998474121</ele>
        <time>2019-03-30T09:12:42.000Z</time>
      </trkpt>
      <trkpt lat="50.76666" lon="5.72711">
        <ele>45.200000762939</ele>
        <time>2019-03-30T09:12:50.000Z</time>
      </trkpt>
      <trkpt lat="50.76661" lon="5.72732">
        <ele>45.200000762939</ele>
        <time>2019-03-30T09:12:52.000Z</time>
      </trkpt>
      <trkpt lat="50.76649" lon="5.72806">
        <ele>45.599998474121</ele>
        <time>2019-03-30T09:12:59.000Z</time>
      </trkpt>
      <trkpt lat="50.76645" lon="5.72849">
        <ele>46.200000762939</ele>
        <time>2019-03-30T09:13:03.000Z</time>
      </trkpt>
      <trkpt lat="50.76636" lon="5.72933">
        <ele>46.599998474121</ele>
        <time>2019-03-30T09:13:11.000Z</time>
      </trkpt>
      <trkpt lat="50.76629" lon="5.72996">
        <ele>47.200000762939</ele>
        <time>2019-03-30T09:13:16.000Z</time>
      </trkpt>
      <trkpt lat="50.76627" lon="5.73017">
        <ele>47.400001525879</ele>
        <time>2019-03-30T09:13:19.000Z</time>
      </trkpt>
      <trkpt lat="50.7662" lon="5.73097">
        <ele>47.799999237061</ele>
        <time>2019-03-30T09:13:27.000Z</time>
      </trkpt>
      <trkpt lat="50.76618" lon="5.73136">
        <ele>48.200000762939</ele>
        <time>2019-03-30T09:13:31.000Z</time>
      </trkpt>
      <trkpt lat="50.76619" lon="5.73155">
        <ele>48.599998474121</ele>
        <time>2019-03-30T09:13:33.000Z</time>
      </trkpt>
      <trkpt lat="50.76621" lon="5.73162">
        <ele>48.799999237061</ele>
        <time>2019-03-30T09:13:34.000Z</time>
      </trkpt>
      <trkpt lat="50.7663" lon="5.73162">
        <ele>70</ele>
      </trkpt>
      <trkpt lat="50.76639" lon="5.73153">
        <ele>70.6</ele>
      </trkpt>
      <trkpt lat="50.76656" lon="5.73129">
        <ele>70.4</ele>
      </trkpt>
      <trkpt lat="50.76678" lon="5.73098">
        <ele>72</ele>
      </trkpt>
      <trkpt lat="50.76693" lon="5.73078">
        <ele>71.2</ele>
      </trkpt>
      <trkpt lat="50.7672" lon="5.73044">
        <ele>71.9</ele>
      </trkpt>
      <trkpt lat="50.76739" lon="5.73025">
        <ele>72.2</ele>
      </trkpt>
      <trkpt lat="50.76782" lon="5.72981">
        <ele>73.6</ele>
      </trkpt>
      <trkpt lat="50.76815" lon="5.72939">
        <ele>73.7</ele>
      </trkpt>
      <trkpt lat="50.76852" lon="5.72892">
        <ele>75</ele>
      </trkpt>
      <trkpt lat="50.76914" lon="5.72809">
        <ele>73.5</ele>
      </trkpt>
      <trkpt lat="50.76947" lon="5.72757">
        <ele>73.9</ele>
      </trkpt>
      <trkpt lat="50.7697" lon="5.72726">
        <ele>72</ele>
      </trkpt>
      <trkpt lat="50.76991" lon="5.72701">
        <ele>71.9</ele>
      </trkpt>
      <trkpt lat="50.77003" lon="5.72688">
        <ele>73</ele>
      </trkpt>
      <trkpt lat="50.77028" lon="5.72661">
        <ele>72</ele>
      </trkpt>
      <trkpt lat="50.77044" lon="5.72644">
        <ele>72</ele>
      </trkpt>
      <trkpt lat="50.77063" lon="5.72622">
        <ele>71.9</ele>
      </trkpt>
      <trkpt lat="50.77078" lon="5.72607">
        <ele>71.6</ele>
      </trkpt>
      <trkpt lat="50.77101" lon="5.7259">
        <ele>71.7</ele>
      </trkpt>
      <trkpt lat="50.77126" lon="5.7258">
        <ele>69.6</ele>
      </trkpt>
      <trkpt lat="50.7714" lon="5.72575">
        <ele>69.7</ele>
      </trkpt>
      <trkpt lat="50.77161" lon="5.72574">
        <ele>70.2</ele>
      </trkpt>
      <trkpt lat="50.77176" lon="5.72578">
        <ele>69.9</ele>
      </trkpt>
      <trkpt lat="50.77197" lon="5.72586">
        <ele>70</ele>
      </trkpt>
      <trkpt lat="50.7722" lon="5.72604">
        <ele>50.400001525879</ele>
        <time>2019-03-30T09:15:20.000Z</time>
      </trkpt>
      <trkpt lat="50.7725" lon="5.72632">
        <ele>51</ele>
        <time>2019-03-30T09:15:25.000Z</time>
      </trkpt>
      <trkpt lat="50.77262" lon="5.72645">
        <ele>51.599998474121</ele>
        <time>2019-03-30T09:15:27.000Z</time>
      </trkpt>
      <trkpt lat="50.77269" lon="5.72651">
        <ele>51.799999237061</ele>
        <time>2019-03-30T09:15:28.000Z</time>
      </trkpt>
      <trkpt lat="50.77317" lon="5.72698">
        <ele>53</ele>
        <time>2019-03-30T09:15:36.000Z</time>
      </trkpt>
      <trkpt lat="50.77334" lon="5.72714">
        <ele>53.400001525879</ele>
        <time>2019-03-30T09:15:39.000Z</time>
      </trkpt>
      <trkpt lat="50.77367" lon="5.7274">
        <ele>54</ele>
        <time>2019-03-30T09:15:44.000Z</time>
      </trkpt>
      <trkpt lat="50.77381" lon="5.72749">
        <ele>54.200000762939</ele>
        <time>2019-03-30T09:15:46.000Z</time>
      </trkpt>
      <trkpt lat="50.77419" lon="5.72774">
        <ele>54.200000762939</ele>
        <time>2019-03-30T09:15:51.000Z</time>
      </trkpt>
      <trkpt lat="50.77435" lon="5.72784">
        <ele>54.200000762939</ele>
        <time>2019-03-30T09:15:52.000Z</time>
      </trkpt>
      <trkpt lat="50.77468" lon="5.72806">
        <ele>53</ele>
        <time>2019-03-30T09:15:57.000Z</time>
      </trkpt>
      <trkpt lat="50.77493" lon="5.72825">
        <ele>52.200000762939</ele>
        <time>2019-03-30T09:16:00.000Z</time>
      </trkpt>
      <trkpt lat="50.77518" lon="5.72844">
        <ele>51.799999237061</ele>
        <time>2019-03-30T09:16:03.000Z</time>
      </trkpt>
      <trkpt lat="50.77557" lon="5.72879">
        <ele>50.599998474121</ele>
        <time>2019-03-30T09:16:08.000Z</time>
      </trkpt>
      <trkpt lat="50.77594" lon="5.72916">
        <ele>50.200000762939</ele>
        <time>2019-03-30T09:16:13.000Z</time>
      </trkpt>
      <trkpt lat="50.77614" lon="5.72938">
        <ele>49.799999237061</ele>
        <time>2019-03-30T09:16:16.000Z</time>
      </trkpt>
      <trkpt lat="50.77671" lon="5.72994">
        <ele>49.599998474121</ele>
        <time>2019-03-30T09:16:24.000Z</time>
      </trkpt>
      <trkpt lat="50.77686" lon="5.73006">
        <ele>49.599998474121</ele>
        <time>2019-03-30T09:16:26.000Z</time>
      </trkpt>
      <trkpt lat="50.77747" lon="5.73045">
        <ele>49.799999237061</ele>
        <time>2019-03-30T09:16:34.000Z</time>
      </trkpt>
      <trkpt lat="50.77796" lon="5.73065">
        <ele>49.599998474121</ele>
        <time>2019-03-30T09:16:40.000Z</time>
      </trkpt>
      <trkpt lat="50.77868" lon="5.73082">
        <ele>67</ele>
      </trkpt>
      <trkpt lat="50.77884" lon="5.73087">
        <ele>68</ele>
      </trkpt>
      <trkpt lat="50.779" lon="5.73092">
        <ele>68.3</ele>
      </trkpt>
      <trkpt lat="50.77912" lon="5.73098">
        <ele>68</ele>
      </trkpt>
      <trkpt lat="50.77922" lon="5.73111">
        <ele>48.799999237061</ele>
        <time>2019-03-30T09:16:56.000Z</time>
      </trkpt>
      <trkpt lat="50.77933" lon="5.73129">
        <ele>48.799999237061</ele>
        <time>2019-03-30T09:16:58.000Z</time>
      </trkpt>
      <trkpt lat="50.77935" lon="5.73142">
        <ele>67.5</ele>
      </trkpt>
      <trkpt lat="50.7794" lon="5.73177">
        <ele>67.5</ele>
      </trkpt>
      <trkpt lat="50.77945" lon="5.732">
        <ele>67.4</ele>
      </trkpt>
      <trkpt lat="50.7795" lon="5.73216">
        <ele>67.4</ele>
      </trkpt>
      <trkpt lat="50.77958" lon="5.73231">
        <ele>67.3</ele>
      </trkpt>
      <trkpt lat="50.77974" lon="5.73257">
        <ele>46.400001525879</ele>
        <time>2019-03-30T09:17:09.000Z</time>
      </trkpt>
      <trkpt lat="50.77984" lon="5.73278">
        <ele>46</ele>
        <time>2019-03-30T09:17:11.000Z</time>
      </trkpt>
      <trkpt lat="50.77997" lon="5.7331">
        <ele>69</ele>
      </trkpt>
      <trkpt lat="50.7801" lon="5.73345">
        <ele>69</ele>
      </trkpt>
      <trkpt lat="50.78021" lon="5.73378">
        <ele>69.3</ele>
      </trkpt>
      <trkpt lat="50.78025" lon="5.73396">
        <ele>69.6</ele>
      </trkpt>
      <trkpt lat="50.78027" lon="5.73411">
        <ele>69.8</ele>
      </trkpt>
      <trkpt lat="50.78028" lon="5.73431">
        <ele>70.9</ele>
      </trkpt>
      <trkpt lat="50.78027" lon="5.73447">
        <ele>71</ele>
      </trkpt>
      <trkpt lat="50.78023" lon="5.73475">
        <ele>71</ele>
      </trkpt>
      <trkpt lat="50.78022" lon="5.73507">
        <ele>48</ele>
        <time>2019-03-30T09:17:34.000Z</time>
      </trkpt>
      <trkpt lat="50.78024" lon="5.73525">
        <ele>48.200000762939</ele>
        <time>2019-03-30T09:17:36.000Z</time>
      </trkpt>
      <trkpt lat="50.7803" lon="5.73552">
        <ele>48.400001525879</ele>
        <time>2019-03-30T09:17:39.000Z</time>
      </trkpt>
      <trkpt lat="50.78041" lon="5.73581">
        <ele>49.400001525879</ele>
        <time>2019-03-30T09:17:43.000Z</time>
      </trkpt>
      <trkpt lat="50.78057" lon="5.73602">
        <ele>50.400001525879</ele>
        <time>2019-03-30T09:17:47.000Z</time>
      </trkpt>
      <trkpt lat="50.78075" lon="5.7362">
        <ele>52.400001525879</ele>
        <time>2019-03-30T09:17:51.000Z</time>
      </trkpt>
      <trkpt lat="50.7808" lon="5.73624">
        <ele>53</ele>
        <time>2019-03-30T09:17:52.000Z</time>
      </trkpt>
      <trkpt lat="50.78093" lon="5.73636">
        <ele>54.200000762939</ele>
        <time>2019-03-30T09:17:55.000Z</time>
      </trkpt>
      <trkpt lat="50.7811" lon="5.73645">
        <ele>55.400001525879</ele>
        <time>2019-03-30T09:17:58.000Z</time>
      </trkpt>
      <trkpt lat="50.78127" lon="5.7365">
        <ele>56.599998474121</ele>
        <time>2019-03-30T09:18:01.000Z</time>
      </trkpt>
      <trkpt lat="50.7815" lon="5.73652">
        <ele>57.200000762939</ele>
        <time>2019-03-30T09:18:05.000Z</time>
      </trkpt>
      <trkpt lat="50.78167" lon="5.73653">
        <ele>57.799999237061</ele>
        <time>2019-03-30T09:18:08.000Z</time>
      </trkpt>
      <trkpt lat="50.78197" lon="5.73654">
        <ele>58.799999237061</ele>
        <time>2019-03-30T09:18:12.000Z</time>
      </trkpt>
      <trkpt lat="50.78203" lon="5.73655">
        <ele>59.200000762939</ele>
        <time>2019-03-30T09:18:14.000Z</time>
      </trkpt>
      <trkpt lat="50.7822" lon="5.73655">
        <ele>59.400001525879</ele>
        <time>2019-03-30T09:18:18.000Z</time>
      </trkpt>
      <trkpt lat="50.78227" lon="5.73655">
        <ele>59.599998474121</ele>
        <time>2019-03-30T09:18:20.000Z</time>
      </trkpt>
      <trkpt lat="50.78232" lon="5.73653">
        <ele>60</ele>
        <time>2019-03-30T09:18:21.000Z</time>
      </trkpt>
      <trkpt lat="50.78237" lon="5.73652">
        <ele>60</ele>
        <time>2019-03-30T09:18:22.000Z</time>
      </trkpt>
      <trkpt lat="50.78248" lon="5.73651">
        <ele>60.200000762939</ele>
        <time>2019-03-30T09:18:24.000Z</time>
      </trkpt>
      <trkpt lat="50.78279" lon="5.73649">
        <ele>60.200000762939</ele>
        <time>2019-03-30T09:18:29.000Z</time>
      </trkpt>
      <trkpt lat="50.78319" lon="5.73647">
        <ele>59.599998474121</ele>
        <time>2019-03-30T09:18:35.000Z</time>
      </trkpt>
      <trkpt lat="50.78347" lon="5.73637">
        <ele>59.400001525879</ele>
        <time>2019-03-30T09:18:39.000Z</time>
      </trkpt>
      <trkpt lat="50.7837" lon="5.73628">
        <ele>58.799999237061</ele>
        <time>2019-03-30T09:18:42.000Z</time>
      </trkpt>
      <trkpt lat="50.78394" lon="5.7362">
        <ele>57.400001525879</ele>
        <time>2019-03-30T09:18:45.000Z</time>
      </trkpt>
      <trkpt lat="50.7841" lon="5.73614">
        <ele>57</ele>
        <time>2019-03-30T09:18:47.000Z</time>
      </trkpt>
      <trkpt lat="50.78434" lon="5.73606">
        <ele>56.400001525879</ele>
        <time>2019-03-30T09:18:50.000Z</time>
      </trkpt>
      <trkpt lat="50.78459" lon="5.73599">
        <ele>56</ele>
        <time>2019-03-30T09:18:53.000Z</time>
      </trkpt>
      <trkpt lat="50.78476" lon="5.73597">
        <ele>55.599998474121</ele>
        <time>2019-03-30T09:18:55.000Z</time>
      </trkpt>
      <trkpt lat="50.78492" lon="5.73593">
        <ele>74.4</ele>
      </trkpt>
      <trkpt lat="50.78518" lon="5.73581">
        <ele>72.9</ele>
      </trkpt>
      <trkpt lat="50.78533" lon="5.73571">
        <ele>72.3</ele>
      </trkpt>
      <trkpt lat="50.78566" lon="5.73556">
        <ele>71</ele>
      </trkpt>
      <trkpt lat="50.78608" lon="5.73541">
        <ele>70.3</ele>
      </trkpt>
      <trkpt lat="50.78644" lon="5.73529">
        <ele>70.4</ele>
      </trkpt>
      <trkpt lat="50.78686" lon="5.73513">
        <ele>69.5</ele>
      </trkpt>
      <trkpt lat="50.78741" lon="5.73496">
        <ele>67.5</ele>
      </trkpt>
      <trkpt lat="50.7877" lon="5.73492">
        <ele>66.3</ele>
      </trkpt>
      <trkpt lat="50.78787" lon="5.73487">
        <ele>65.9</ele>
      </trkpt>
      <trkpt lat="50.78799" lon="5.7348">
        <ele>65.7</ele>
      </trkpt>
      <trkpt lat="50.78818" lon="5.73468">
        <ele>65.4</ele>
      </trkpt>
      <trkpt lat="50.78835" lon="5.73455">
        <ele>64.2</ele>
      </trkpt>
      <trkpt lat="50.7886" lon="5.73435">
        <ele>64</ele>
      </trkpt>
      <trkpt lat="50.78888" lon="5.73415">
        <ele>63.2</ele>
      </trkpt>
      <trkpt lat="50.78906" lon="5.73404">
        <ele>63.1</ele>
      </trkpt>
      <trkpt lat="50.78927" lon="5.73394">
        <ele>62</ele>
      </trkpt>
      <trkpt lat="50.78952" lon="5.73391">
        <ele>45.799999237061</ele>
        <time>2019-03-30T09:19:50.000Z</time>
      </trkpt>
      <trkpt lat="50.78979" lon="5.73387">
        <ele>45.400001525879</ele>
        <time>2019-03-30T09:19:53.000Z</time>
      </trkpt>
      <trkpt lat="50.79007" lon="5.73382">
        <ele>44.799999237061</ele>
        <time>2019-03-30T09:19:56.000Z</time>
      </trkpt>
      <trkpt lat="50.79016" lon="5.73377">
        <ele>44.599998474121</ele>
        <time>2019-03-30T09:19:57.000Z</time>
      </trkpt>
      <trkpt lat="50.79053" lon="5.73346">
        <ele>60.1</ele>
      </trkpt>
      <trkpt lat="50.79074" lon="5.73329">
        <ele>60</ele>
      </trkpt>
      <trkpt lat="50.79087" lon="5.7332">
        <ele>59.9</ele>
      </trkpt>
      <trkpt lat="50.79118" lon="5.73316">
        <ele>43.400001525879</ele>
        <time>2019-03-30T09:20:09.000Z</time>
      </trkpt>
      <trkpt lat="50.79127" lon="5.73315">
        <ele>43.400001525879</ele>
        <time>2019-03-30T09:20:10.000Z</time>
      </trkpt>
      <trkpt lat="50.79136" lon="5.73314">
        <ele>43.400001525879</ele>
        <time>2019-03-30T09:20:11.000Z</time>
      </trkpt>
      <trkpt lat="50.79179" lon="5.733">
        <ele>59.7</ele>
      </trkpt>
      <trkpt lat="50.7924" lon="5.73272">
        <ele>42.400001525879</ele>
        <time>2019-03-30T09:20:23.000Z</time>
      </trkpt>
      <trkpt lat="50.79265" lon="5.73259">
        <ele>42.200000762939</ele>
        <time>2019-03-30T09:20:26.000Z</time>
      </trkpt>
      <trkpt lat="50.79307" lon="5.73241">
        <ele>42</ele>
        <time>2019-03-30T09:20:31.000Z</time>
      </trkpt>
      <trkpt lat="50.79333" lon="5.73232">
        <ele>42.200000762939</ele>
        <time>2019-03-30T09:20:34.000Z</time>
      </trkpt>
      <trkpt lat="50.79375" lon="5.73227">
        <ele>42.200000762939</ele>
        <time>2019-03-30T09:20:39.000Z</time>
      </trkpt>
      <trkpt lat="50.79429" lon="5.73224">
        <ele>42.200000762939</ele>
        <time>2019-03-30T09:20:45.000Z</time>
      </trkpt>
      <trkpt lat="50.79446" lon="5.73222">
        <ele>42.200000762939</ele>
        <time>2019-03-30T09:20:47.000Z</time>
      </trkpt>
      <trkpt lat="50.79473" lon="5.7322">
        <ele>57</ele>
      </trkpt>
      <trkpt lat="50.79498" lon="5.73222">
        <ele>41.400001525879</ele>
        <time>2019-03-30T09:20:53.000Z</time>
      </trkpt>
      <trkpt lat="50.79507" lon="5.73223">
        <ele>41.400001525879</ele>
        <time>2019-03-30T09:20:54.000Z</time>
      </trkpt>
      <trkpt lat="50.79552" lon="5.7323">
        <ele>58</ele>
      </trkpt>
      <trkpt lat="50.79599" lon="5.73243">
        <ele>41.400001525879</ele>
        <time>2019-03-30T09:21:04.000Z</time>
      </trkpt>
      <trkpt lat="50.79642" lon="5.7327">
        <ele>41.599998474121</ele>
        <time>2019-03-30T09:21:11.000Z</time>
      </trkpt>
      <trkpt lat="50.79695" lon="5.73316">
        <ele>42.200000762939</ele>
        <time>2019-03-30T09:21:19.000Z</time>
      </trkpt>
      <trkpt lat="50.79722" lon="5.73336">
        <ele>42.400001525879</ele>
        <time>2019-03-30T09:21:23.000Z</time>
      </trkpt>
      <trkpt lat="50.79736" lon="5.7334">
        <ele>42.400001525879</ele>
        <time>2019-03-30T09:21:25.000Z</time>
      </trkpt>
      <trkpt lat="50.79743" lon="5.73339">
        <ele>64.2</ele>
      </trkpt>
      <trkpt lat="50.79789" lon="5.73351">
        <ele>64.4</ele>
      </trkpt>
      <trkpt lat="50.79832" lon="5.73362">
        <ele>64</ele>
      </trkpt>
      <trkpt lat="50.79856" lon="5.7337">
        <ele>64.1</ele>
      </trkpt>
      <trkpt lat="50.79875" lon="5.73375">
        <ele>64</ele>
      </trkpt>
      <trkpt lat="50.79878" lon="5.73362">
        <ele>64</ele>
      </trkpt>
      <trkpt lat="50.79941" lon="5.73384">
        <ele>62.8</ele>
      </trkpt>
      <trkpt lat="50.79967" lon="5.73392">
        <ele>62</ele>
      </trkpt>
      <trkpt lat="50.79987" lon="5.73403">
        <ele>45.200000762939</ele>
        <time>2019-03-30T09:22:00.000Z</time>
      </trkpt>
      <trkpt lat="50.80058" lon="5.73431">
        <ele>61.4</ele>
      </trkpt>
      <trkpt lat="50.80108" lon="5.73452">
        <ele>61.4</ele>
      </trkpt>
      <trkpt lat="50.80136" lon="5.73462">
        <ele>61.6</ele>
      </trkpt>
      <trkpt lat="50.80166" lon="5.73475">
        <ele>62</ele>
      </trkpt>
      <trkpt lat="50.80195" lon="5.73489">
        <ele>44.799999237061</ele>
        <time>2019-03-30T09:22:27.000Z</time>
      </trkpt>
      <trkpt lat="50.80203" lon="5.73493">
        <ele>44.799999237061</ele>
        <time>2019-03-30T09:22:28.000Z</time>
      </trkpt>
      <trkpt lat="50.8026" lon="5.73511">
        <ele>44.400001525879</ele>
        <time>2019-03-30T09:22:35.000Z</time>
      </trkpt>
      <trkpt lat="50.80268" lon="5.73511">
        <ele>64.3</ele>
      </trkpt>
      <trkpt lat="50.80291" lon="5.73524">
        <ele>44.599998474121</ele>
        <time>2019-03-30T09:22:39.000Z</time>
      </trkpt>
      <trkpt lat="50.80312" lon="5.73537">
        <ele>44.599998474121</ele>
        <time>2019-03-30T09:22:42.000Z</time>
      </trkpt>
      <trkpt lat="50.80355" lon="5.73551">
        <ele>67.4</ele>
      </trkpt>
      <trkpt lat="50.80384" lon="5.73553">
        <ele>67.8</ele>
      </trkpt>
      <trkpt lat="50.80425" lon="5.73558">
        <ele>69.1</ele>
      </trkpt>
      <trkpt lat="50.80455" lon="5.73561">
        <ele>69</ele>
      </trkpt>
      <trkpt lat="50.80493" lon="5.73564">
        <ele>69.3</ele>
      </trkpt>
      <trkpt lat="50.80535" lon="5.73569">
        <ele>69.9</ele>
      </trkpt>
      <trkpt lat="50.80559" lon="5.73571">
        <ele>70.2</ele>
      </trkpt>
      <trkpt lat="50.80576" lon="5.73571">
        <ele>70</ele>
      </trkpt>
      <trkpt lat="50.80592" lon="5.73574">
        <ele>70.9</ele>
      </trkpt>
      <trkpt lat="50.80628" lon="5.7358">
        <ele>71</ele>
      </trkpt>
      <trkpt lat="50.80664" lon="5.73575">
        <ele>71.6</ele>
      </trkpt>
      <trkpt lat="50.80692" lon="5.73571">
        <ele>71.9</ele>
      </trkpt>
      <trkpt lat="50.80728" lon="5.73566">
        <ele>72.2</ele>
      </trkpt>
      <trkpt lat="50.80743" lon="5.73562">
        <ele>72.3</ele>
      </trkpt>
      <trkpt lat="50.80758" lon="5.73555">
        <ele>72.3</ele>
      </trkpt>
      <trkpt lat="50.80776" lon="5.73555">
        <ele>72</ele>
      </trkpt>
      <trkpt lat="50.80829" lon="5.73562">
        <ele>72</ele>
      </trkpt>
      <trkpt lat="50.80861" lon="5.73565">
        <ele>72</ele>
      </trkpt>
      <trkpt lat="50.80877" lon="5.73568">
        <ele>72</ele>
      </trkpt>
      <trkpt lat="50.80891" lon="5.73576">
        <ele>72</ele>
      </trkpt>
      <trkpt lat="50.80938" lon="5.73606">
        <ele>72</ele>
      </trkpt>
      <trkpt lat="50.80984" lon="5.73639">
        <ele>71.7</ele>
      </trkpt>
      <trkpt lat="50.81008" lon="5.73657">
        <ele>71.5</ele>
      </trkpt>
      <trkpt lat="50.8104" lon="5.73683">
        <ele>72</ele>
      </trkpt>
      <trkpt lat="50.81065" lon="5.73706">
        <ele>72</ele>
      </trkpt>
      <trkpt lat="50.81073" lon="5.73703">
        <ele>72</ele>
      </trkpt>
      <trkpt lat="50.81088" lon="5.7373">
        <ele>71</ele>
      </trkpt>
      <trkpt lat="50.81109" lon="5.73739">
        <ele>71</ele>
      </trkpt>
      <trkpt lat="50.81116" lon="5.73701">
        <ele>71</ele>
      </trkpt>
      <trkpt lat="50.81128" lon="5.73659">
        <ele>70.1</ele>
      </trkpt>
      <trkpt lat="50.8114" lon="5.73624">
        <ele>69.9</ele>
      </trkpt>
      <trkpt lat="50.81154" lon="5.73599">
        <ele>69.6</ele>
      </trkpt>
      <trkpt lat="50.81171" lon="5.73567">
        <ele>68.5</ele>
      </trkpt>
      <trkpt lat="50.81198" lon="5.73526">
        <ele>68</ele>
      </trkpt>
      <trkpt lat="50.8123" lon="5.73475">
        <ele>67</ele>
      </trkpt>
      <trkpt lat="50.81253" lon="5.73441">
        <ele>66.3</ele>
      </trkpt>
      <trkpt lat="50.81281" lon="5.73395">
        <ele>65.8</ele>
      </trkpt>
      <trkpt lat="50.81291" lon="5.73383">
        <ele>65.8</ele>
      </trkpt>
      <trkpt lat="50.81301" lon="5.73392">
        <ele>50.200000762939</ele>
        <time>2019-03-30T09:33:50.000Z</time>
      </trkpt>
      <trkpt lat="50.81316" lon="5.73405">
        <ele>50</ele>
        <time>2019-03-30T09:33:53.000Z</time>
      </trkpt>
      <trkpt lat="50.81353" lon="5.73435">
        <ele>65.7</ele>
      </trkpt>
      <trkpt lat="50.81385" lon="5.73454">
        <ele>65</ele>
      </trkpt>
      <trkpt lat="50.81417" lon="5.73476">
        <ele>64.2</ele>
      </trkpt>
      <trkpt lat="50.81446" lon="5.73498">
        <ele>64.2</ele>
      </trkpt>
      <trkpt lat="50.81469" lon="5.73517">
        <ele>49</ele>
        <time>2019-03-30T09:34:17.000Z</time>
      </trkpt>
      <trkpt lat="50.81514" lon="5.73548">
        <ele>62.2</ele>
      </trkpt>
      <trkpt lat="50.8153" lon="5.73556">
        <ele>62</ele>
      </trkpt>
      <trkpt lat="50.81566" lon="5.73568">
        <ele>61.6</ele>
      </trkpt>
      <trkpt lat="50.81594" lon="5.73579">
        <ele>60.7</ele>
      </trkpt>
      <trkpt lat="50.81631" lon="5.7359">
        <ele>60.8</ele>
      </trkpt>
      <trkpt lat="50.81677" lon="5.73606">
        <ele>60.8</ele>
      </trkpt>
      <trkpt lat="50.81761" lon="5.73629">
        <ele>61.9</ele>
      </trkpt>
      <trkpt lat="50.81809" lon="5.73637">
        <ele>62.2</ele>
      </trkpt>
      <trkpt lat="50.8184" lon="5.73642">
        <ele>62.7</ele>
      </trkpt>
      <trkpt lat="50.8187" lon="5.73649">
        <ele>46</ele>
        <time>2019-03-30T09:35:05.000Z</time>
      </trkpt>
      <trkpt lat="50.81877" lon="5.73652">
        <ele>46.200000762939</ele>
        <time>2019-03-30T09:35:06.000Z</time>
      </trkpt>
      <trkpt lat="50.81893" lon="5.73656">
        <ele>46.599998474121</ele>
        <time>2019-03-30T09:35:08.000Z</time>
      </trkpt>
      <trkpt lat="50.81963" lon="5.73666">
        <ele>62.2</ele>
      </trkpt>
      <trkpt lat="50.81986" lon="5.73668">
        <ele>47.400001525879</ele>
        <time>2019-03-30T09:35:20.000Z</time>
      </trkpt>
      <trkpt lat="50.82002" lon="5.73666">
        <ele>47.400001525879</ele>
        <time>2019-03-30T09:35:22.000Z</time>
      </trkpt>
      <trkpt lat="50.8201" lon="5.73662">
        <ele>47.400001525879</ele>
        <time>2019-03-30T09:35:23.000Z</time>
      </trkpt>
      <trkpt lat="50.82057" lon="5.73627">
        <ele>61.5</ele>
      </trkpt>
      <trkpt lat="50.82094" lon="5.73588">
        <ele>61</ele>
      </trkpt>
      <trkpt lat="50.82126" lon="5.73553">
        <ele>60.1</ele>
      </trkpt>
      <trkpt lat="50.82159" lon="5.73512">
        <ele>59.4</ele>
      </trkpt>
      <trkpt lat="50.82179" lon="5.73484">
        <ele>59.3</ele>
      </trkpt>
      <trkpt lat="50.82206" lon="5.73442">
        <ele>59.5</ele>
      </trkpt>
      <trkpt lat="50.82218" lon="5.73416">
        <ele>59.3</ele>
      </trkpt>
      <trkpt lat="50.82228" lon="5.73388">
        <ele>59.2</ele>
      </trkpt>
      <trkpt lat="50.82246" lon="5.73299">
        <ele>58.6</ele>
      </trkpt>
      <trkpt lat="50.82265" lon="5.73246">
        <ele>59.4</ele>
      </trkpt>
      <trkpt lat="50.82299" lon="5.73169">
        <ele>59.7</ele>
      </trkpt>
      <trkpt lat="50.8233" lon="5.73114">
        <ele>61.2</ele>
      </trkpt>
      <trkpt lat="50.82342" lon="5.73099">
        <ele>62.8</ele>
      </trkpt>
      <trkpt lat="50.82381" lon="5.7305">
        <ele>63.7</ele>
      </trkpt>
      <trkpt lat="50.82392" lon="5.73039">
        <ele>63.8</ele>
      </trkpt>
      <trkpt lat="50.82407" lon="5.73037">
        <ele>45.799999237061</ele>
        <time>2019-03-30T09:36:34.000Z</time>
      </trkpt>
      <trkpt lat="50.82419" lon="5.73039">
        <ele>46</ele>
        <time>2019-03-30T09:36:36.000Z</time>
      </trkpt>
      <trkpt lat="50.82425" lon="5.7304">
        <ele>46</ele>
        <time>2019-03-30T09:36:37.000Z</time>
      </trkpt>
      <trkpt lat="50.82434" lon="5.73035">
        <ele>63.6</ele>
      </trkpt>
      <trkpt lat="50.82446" lon="5.73031">
        <ele>64</ele>
      </trkpt>
      <trkpt lat="50.82459" lon="5.73033">
        <ele>46.200000762939</ele>
        <time>2019-03-30T09:36:43.000Z</time>
      </trkpt>
      <trkpt lat="50.82474" lon="5.73031">
        <ele>46.400001525879</ele>
        <time>2019-03-30T09:36:46.000Z</time>
      </trkpt>
      <trkpt lat="50.82477" lon="5.73026">
        <ele>46.400001525879</ele>
        <time>2019-03-30T09:36:47.000Z</time>
      </trkpt>
      <trkpt lat="50.82483" lon="5.72987">
        <ele>63.2</ele>
      </trkpt>
      <trkpt lat="50.82487" lon="5.72971">
        <ele>63.2</ele>
      </trkpt>
      <trkpt lat="50.82493" lon="5.72952">
        <ele>63.2</ele>
      </trkpt>
      <trkpt lat="50.82499" lon="5.72942">
        <ele>63.1</ele>
      </trkpt>
      <trkpt lat="50.82512" lon="5.72943">
        <ele>62.7</ele>
      </trkpt>
      <trkpt lat="50.82523" lon="5.72942">
        <ele>62.6</ele>
      </trkpt>
      <trkpt lat="50.82546" lon="5.72945">
        <ele>62.5</ele>
      </trkpt>
      <trkpt lat="50.82553" lon="5.72953">
        <ele>46.799999237061</ele>
        <time>2019-03-30T09:37:07.000Z</time>
      </trkpt>
      <trkpt lat="50.82593" lon="5.72966">
        <ele>47</ele>
        <time>2019-03-30T09:37:14.000Z</time>
      </trkpt>
      <trkpt lat="50.82617" lon="5.72973">
        <ele>47.200000762939</ele>
        <time>2019-03-30T09:37:18.000Z</time>
      </trkpt>
      <trkpt lat="50.82639" lon="5.7298">
        <ele>47.400001525879</ele>
        <time>2019-03-30T09:37:22.000Z</time>
      </trkpt>
      <trkpt lat="50.8266" lon="5.72987">
        <ele>47.599998474121</ele>
        <time>2019-03-30T09:37:27.000Z</time>
      </trkpt>
      <trkpt lat="50.82664" lon="5.72989">
        <ele>47.799999237061</ele>
        <time>2019-03-30T09:37:28.000Z</time>
      </trkpt>
      <trkpt lat="50.827" lon="5.73005">
        <ele>48.200000762939</ele>
        <time>2019-03-30T09:37:39.000Z</time>
      </trkpt>
      <trkpt lat="50.82723" lon="5.73014">
        <ele>48.200000762939</ele>
        <time>2019-03-30T09:37:44.000Z</time>
      </trkpt>
      <trkpt lat="50.82766" lon="5.73031">
        <ele>47.799999237061</ele>
        <time>2019-03-30T09:37:52.000Z</time>
      </trkpt>
      <trkpt lat="50.82813" lon="5.73049">
        <ele>47.799999237061</ele>
        <time>2019-03-30T09:37:59.000Z</time>
      </trkpt>
      <trkpt lat="50.82865" lon="5.73072">
        <ele>47.400001525879</ele>
        <time>2019-03-30T09:38:06.000Z</time>
      </trkpt>
      <trkpt lat="50.82889" lon="5.73083">
        <ele>47.200000762939</ele>
        <time>2019-03-30T09:38:09.000Z</time>
      </trkpt>
      <trkpt lat="50.82943" lon="5.73114">
        <ele>47</ele>
        <time>2019-03-30T09:38:16.000Z</time>
      </trkpt>
      <trkpt lat="50.82959" lon="5.73124">
        <ele>47</ele>
        <time>2019-03-30T09:38:18.000Z</time>
      </trkpt>
      <trkpt lat="50.83014" lon="5.7316">
        <ele>46.799999237061</ele>
        <time>2019-03-30T09:38:25.000Z</time>
      </trkpt>
      <trkpt lat="50.83061" lon="5.73188">
        <ele>46.599998474121</ele>
        <time>2019-03-30T09:38:31.000Z</time>
      </trkpt>
      <trkpt lat="50.83108" lon="5.73217">
        <ele>46.400001525879</ele>
        <time>2019-03-30T09:38:37.000Z</time>
      </trkpt>
      <trkpt lat="50.83139" lon="5.73237">
        <ele>46.200000762939</ele>
        <time>2019-03-30T09:38:41.000Z</time>
      </trkpt>
      <trkpt lat="50.83194" lon="5.7327">
        <ele>46.200000762939</ele>
        <time>2019-03-30T09:38:48.000Z</time>
      </trkpt>
      <trkpt lat="50.83217" lon="5.73284">
        <ele>46</ele>
        <time>2019-03-30T09:38:51.000Z</time>
      </trkpt>
      <trkpt lat="50.83272" lon="5.7331">
        <ele>46.200000762939</ele>
        <time>2019-03-30T09:38:58.000Z</time>
      </trkpt>
      <trkpt lat="50.83295" lon="5.73318">
        <ele>46.200000762939</ele>
        <time>2019-03-30T09:39:01.000Z</time>
      </trkpt>
      <trkpt lat="50.83348" lon="5.73336">
        <ele>46.400001525879</ele>
        <time>2019-03-30T09:39:08.000Z</time>
      </trkpt>
      <trkpt lat="50.8337" lon="5.73347">
        <ele>46.400001525879</ele>
        <time>2019-03-30T09:39:11.000Z</time>
      </trkpt>
      <trkpt lat="50.83415" lon="5.7338">
        <ele>46.400001525879</ele>
        <time>2019-03-30T09:39:17.000Z</time>
      </trkpt>
      <trkpt lat="50.83479" lon="5.7344">
        <ele>46.200000762939</ele>
        <time>2019-03-30T09:39:26.000Z</time>
      </trkpt>
      <trkpt lat="50.835" lon="5.7346">
        <ele>46</ele>
        <time>2019-03-30T09:39:29.000Z</time>
      </trkpt>
      <trkpt lat="50.83548" lon="5.73506">
        <ele>45.599998474121</ele>
        <time>2019-03-30T09:39:36.000Z</time>
      </trkpt>
      <trkpt lat="50.83603" lon="5.73547">
        <ele>45.599998474121</ele>
        <time>2019-03-30T09:39:43.000Z</time>
      </trkpt>
      <trkpt lat="50.83645" lon="5.73563">
        <ele>45.200000762939</ele>
        <time>2019-03-30T09:39:48.000Z</time>
      </trkpt>
      <trkpt lat="50.83679" lon="5.73574">
        <ele>44.599998474121</ele>
        <time>2019-03-30T09:39:52.000Z</time>
      </trkpt>
      <trkpt lat="50.83712" lon="5.73587">
        <ele>44.200000762939</ele>
        <time>2019-03-30T09:39:56.000Z</time>
      </trkpt>
      <trkpt lat="50.83752" lon="5.73601">
        <ele>44</ele>
        <time>2019-03-30T09:40:01.000Z</time>
      </trkpt>
      <trkpt lat="50.83815" lon="5.73623">
        <ele>43.799999237061</ele>
        <time>2019-03-30T09:40:10.000Z</time>
      </trkpt>
      <trkpt lat="50.83821" lon="5.73626">
        <ele>43.799999237061</ele>
        <time>2019-03-30T09:40:11.000Z</time>
      </trkpt>
      <trkpt lat="50.83827" lon="5.7364">
        <ele>44</ele>
        <time>2019-03-30T09:40:13.000Z</time>
      </trkpt>
      <trkpt lat="50.83829" lon="5.73666">
        <ele>44.200000762939</ele>
        <time>2019-03-30T09:40:16.000Z</time>
      </trkpt>
      <trkpt lat="50.8384" lon="5.73674">
        <ele>44.400001525879</ele>
        <time>2019-03-30T09:40:18.000Z</time>
      </trkpt>
      <trkpt lat="50.83854" lon="5.73679">
        <ele>44.599998474121</ele>
        <time>2019-03-30T09:40:20.000Z</time>
      </trkpt>
      <trkpt lat="50.83874" lon="5.73686">
        <ele>44.799999237061</ele>
        <time>2019-03-30T09:40:23.000Z</time>
      </trkpt>
      <trkpt lat="50.83917" lon="5.73701">
        <ele>45</ele>
        <time>2019-03-30T09:40:29.000Z</time>
      </trkpt>
      <trkpt lat="50.83952" lon="5.73715">
        <ele>45.200000762939</ele>
        <time>2019-03-30T09:40:34.000Z</time>
      </trkpt>
      <trkpt lat="50.83959" lon="5.73718">
        <ele>45.400001525879</ele>
        <time>2019-03-30T09:40:35.000Z</time>
      </trkpt>
      <trkpt lat="50.84014" lon="5.73733">
        <ele>45.200000762939</ele>
        <time>2019-03-30T09:40:43.000Z</time>
      </trkpt>
      <trkpt lat="50.84062" lon="5.7374">
        <ele>45.200000762939</ele>
        <time>2019-03-30T09:40:50.000Z</time>
      </trkpt>
      <trkpt lat="50.84132" lon="5.73745">
        <ele>44.400001525879</ele>
        <time>2019-03-30T09:41:00.000Z</time>
      </trkpt>
      <trkpt lat="50.84139" lon="5.73745">
        <ele>44.200000762939</ele>
        <time>2019-03-30T09:41:01.000Z</time>
      </trkpt>
      <trkpt lat="50.84158" lon="5.73748">
        <ele>44</ele>
        <time>2019-03-30T09:41:05.000Z</time>
      </trkpt>
      <trkpt lat="50.84163" lon="5.73765">
        <ele>43.599998474121</ele>
        <time>2019-03-30T09:41:08.000Z</time>
      </trkpt>
      <trkpt lat="50.84166" lon="5.73776">
        <ele>43.599998474121</ele>
        <time>2019-03-30T09:41:10.000Z</time>
      </trkpt>
      <trkpt lat="50.8418" lon="5.73773">
        <ele>43.599998474121</ele>
        <time>2019-03-30T09:41:14.000Z</time>
      </trkpt>
      <trkpt lat="50.84191" lon="5.73775">
        <ele>43.599998474121</ele>
        <time>2019-03-30T09:41:16.000Z</time>
      </trkpt>
      <trkpt lat="50.84207" lon="5.73778">
        <ele>43.799999237061</ele>
        <time>2019-03-30T09:41:19.000Z</time>
      </trkpt>
      <trkpt lat="50.84254" lon="5.73785">
        <ele>45</ele>
        <time>2019-03-30T09:41:27.000Z</time>
      </trkpt>
      <trkpt lat="50.84273" lon="5.73787">
        <ele>45.400001525879</ele>
        <time>2019-03-30T09:41:30.000Z</time>
      </trkpt>
      <trkpt lat="50.84279" lon="5.73786">
        <ele>45.599998474121</ele>
        <time>2019-03-30T09:41:31.000Z</time>
      </trkpt>
      <trkpt lat="50.84293" lon="5.73784">
        <ele>45.599998474121</ele>
        <time>2019-03-30T09:41:33.000Z</time>
      </trkpt>
      <trkpt lat="50.84335" lon="5.73771">
        <ele>45.599998474121</ele>
        <time>2019-03-30T09:41:39.000Z</time>
      </trkpt>
      <trkpt lat="50.84342" lon="5.73766">
        <ele>45.400001525879</ele>
        <time>2019-03-30T09:41:40.000Z</time>
      </trkpt>
      <trkpt lat="50.84362" lon="5.73761">
        <ele>45</ele>
        <time>2019-03-30T09:41:43.000Z</time>
      </trkpt>
      <trkpt lat="50.84383" lon="5.73761">
        <ele>44.400001525879</ele>
        <time>2019-03-30T09:41:46.000Z</time>
      </trkpt>
      <trkpt lat="50.84403" lon="5.73762">
        <ele>44</ele>
        <time>2019-03-30T09:41:49.000Z</time>
      </trkpt>
      <trkpt lat="50.84434" lon="5.7377">
        <ele>43.799999237061</ele>
        <time>2019-03-30T09:41:53.000Z</time>
      </trkpt>
      <trkpt lat="50.84493" lon="5.73792">
        <ele>43.599998474121</ele>
        <time>2019-03-30T09:42:01.000Z</time>
      </trkpt>
      <trkpt lat="50.84536" lon="5.73804">
        <ele>43.400001525879</ele>
        <time>2019-03-30T09:42:07.000Z</time>
      </trkpt>
      <trkpt lat="50.84566" lon="5.73803">
        <ele>43.200000762939</ele>
        <time>2019-03-30T09:42:11.000Z</time>
      </trkpt>
      <trkpt lat="50.84579" lon="5.73803">
        <ele>43.400001525879</ele>
        <time>2019-03-30T09:42:13.000Z</time>
      </trkpt>
      <trkpt lat="50.84639" lon="5.73799">
        <ele>43</ele>
        <time>2019-03-30T09:42:22.000Z</time>
      </trkpt>
      <trkpt lat="50.84685" lon="5.73795">
        <ele>43</ele>
        <time>2019-03-30T09:42:28.000Z</time>
      </trkpt>
      <trkpt lat="50.84734" lon="5.73789">
        <ele>42.799999237061</ele>
        <time>2019-03-30T09:42:34.000Z</time>
      </trkpt>
      <trkpt lat="50.84779" lon="5.73773">
        <ele>42.200000762939</ele>
        <time>2019-03-30T09:42:40.000Z</time>
      </trkpt>
      <trkpt lat="50.84831" lon="5.73757">
        <ele>42</ele>
        <time>2019-03-30T09:42:47.000Z</time>
      </trkpt>
      <trkpt lat="50.84885" lon="5.73751">
        <ele>41.799999237061</ele>
        <time>2019-03-30T09:42:54.000Z</time>
      </trkpt>
      <trkpt lat="50.84894" lon="5.73751">
        <ele>41.799999237061</ele>
        <time>2019-03-30T09:42:55.000Z</time>
      </trkpt>
      <trkpt lat="50.84952" lon="5.73758">
        <ele>41.200000762939</ele>
        <time>2019-03-30T09:43:02.000Z</time>
      </trkpt>
      <trkpt lat="50.84961" lon="5.73759">
        <ele>40.599998474121</ele>
        <time>2019-03-30T09:43:03.000Z</time>
      </trkpt>
      <trkpt lat="50.84984" lon="5.73764">
        <ele>40</ele>
        <time>2019-03-30T09:43:06.000Z</time>
      </trkpt>
      <trkpt lat="50.85" lon="5.73768">
        <ele>40</ele>
        <time>2019-03-30T09:43:08.000Z</time>
      </trkpt>
      <trkpt lat="50.85053" lon="5.73779">
        <ele>40</ele>
        <time>2019-03-30T09:43:15.000Z</time>
      </trkpt>
      <trkpt lat="50.85069" lon="5.73781">
        <ele>40</ele>
        <time>2019-03-30T09:43:17.000Z</time>
      </trkpt>
      <trkpt lat="50.85123" lon="5.73791">
        <ele>40.400001525879</ele>
        <time>2019-03-30T09:43:24.000Z</time>
      </trkpt>
      <trkpt lat="50.85174" lon="5.73798">
        <ele>40.400001525879</ele>
        <time>2019-03-30T09:43:31.000Z</time>
      </trkpt>
      <trkpt lat="50.85219" lon="5.73806">
        <ele>40.400001525879</ele>
        <time>2019-03-30T09:43:37.000Z</time>
      </trkpt>
      <trkpt lat="50.85273" lon="5.73814">
        <ele>40.200000762939</ele>
        <time>2019-03-30T09:43:45.000Z</time>
      </trkpt>
      <trkpt lat="50.85288" lon="5.73817">
        <ele>40.200000762939</ele>
        <time>2019-03-30T09:43:48.000Z</time>
      </trkpt>
      <trkpt lat="50.85291" lon="5.73821">
        <ele>40.200000762939</ele>
        <time>2019-03-30T09:43:49.000Z</time>
      </trkpt>
      <trkpt lat="50.85299" lon="5.73841">
        <ele>40.200000762939</ele>
        <time>2019-03-30T09:43:53.000Z</time>
      </trkpt>
      <trkpt lat="50.85304" lon="5.73844">
        <ele>40.200000762939</ele>
        <time>2019-03-30T09:43:56.000Z</time>
      </trkpt>
      <trkpt lat="50.85305" lon="5.73844">
        <ele>40.200000762939</ele>
        <time>2019-03-30T09:43:57.000Z</time>
      </trkpt>
      <trkpt lat="50.85309" lon="5.73843">
        <ele>40.200000762939</ele>
        <time>2019-03-30T09:43:59.000Z</time>
      </trkpt>
      <trkpt lat="50.85312" lon="5.73839">
        <ele>40.200000762939</ele>
        <time>2019-03-30T09:44:01.000Z</time>
      </trkpt>
      <trkpt lat="50.85317" lon="5.73835">
        <ele>40.400001525879</ele>
        <time>2019-03-30T09:44:03.000Z</time>
      </trkpt>
      <trkpt lat="50.85324" lon="5.7383">
        <ele>40.400001525879</ele>
        <time>2019-03-30T09:44:05.000Z</time>
      </trkpt>
      <trkpt lat="50.85328" lon="5.73829">
        <ele>40.200000762939</ele>
        <time>2019-03-30T09:44:06.000Z</time>
      </trkpt>
      <trkpt lat="50.85344" lon="5.73829">
        <ele>40.599998474121</ele>
        <time>2019-03-30T09:44:09.000Z</time>
      </trkpt>
      <trkpt lat="50.85369" lon="5.73833">
        <ele>40.599998474121</ele>
        <time>2019-03-30T09:44:13.000Z</time>
      </trkpt>
      <trkpt lat="50.85376" lon="5.73834">
        <ele>40.599998474121</ele>
        <time>2019-03-30T09:44:14.000Z</time>
      </trkpt>
      <trkpt lat="50.85413" lon="5.73839">
        <ele>40.599998474121</ele>
        <time>2019-03-30T09:44:19.000Z</time>
      </trkpt>
      <trkpt lat="50.85427" lon="5.73842">
        <ele>40.599998474121</ele>
        <time>2019-03-30T09:44:21.000Z</time>
      </trkpt>
      <trkpt lat="50.85482" lon="5.7385">
        <ele>40.599998474121</ele>
        <time>2019-03-30T09:44:29.000Z</time>
      </trkpt>
      <trkpt lat="50.85496" lon="5.73853">
        <ele>40.599998474121</ele>
        <time>2019-03-30T09:44:31.000Z</time>
      </trkpt>
      <trkpt lat="50.85553" lon="5.73862">
        <ele>40.799999237061</ele>
        <time>2019-03-30T09:44:39.000Z</time>
      </trkpt>
      <trkpt lat="50.8556" lon="5.73863">
        <ele>40.799999237061</ele>
        <time>2019-03-30T09:44:40.000Z</time>
      </trkpt>
      <trkpt lat="50.85626" lon="5.73874">
        <ele>41</ele>
        <time>2019-03-30T09:44:49.000Z</time>
      </trkpt>
      <trkpt lat="50.85681" lon="5.73881">
        <ele>41</ele>
        <time>2019-03-30T09:44:56.000Z</time>
      </trkpt>
      <trkpt lat="50.8569" lon="5.73883">
        <ele>41</ele>
        <time>2019-03-30T09:44:57.000Z</time>
      </trkpt>
      <trkpt lat="50.85749" lon="5.73891">
        <ele>40.200000762939</ele>
        <time>2019-03-30T09:45:04.000Z</time>
      </trkpt>
      <trkpt lat="50.85765" lon="5.73892">
        <ele>39.799999237061</ele>
        <time>2019-03-30T09:45:06.000Z</time>
      </trkpt>
      <trkpt lat="50.85845" lon="5.73898">
        <ele>39.200000762939</ele>
        <time>2019-03-30T09:45:16.000Z</time>
      </trkpt>
      <trkpt lat="50.85852" lon="5.73898">
        <ele>39.200000762939</ele>
        <time>2019-03-30T09:45:17.000Z</time>
      </trkpt>
      <trkpt lat="50.85914" lon="5.73898">
        <ele>39.599998474121</ele>
        <time>2019-03-30T09:45:25.000Z</time>
      </trkpt>
      <trkpt lat="50.85929" lon="5.73897">
        <ele>39.799999237061</ele>
        <time>2019-03-30T09:45:27.000Z</time>
      </trkpt>
      <trkpt lat="50.86014" lon="5.73896">
        <ele>41.200000762939</ele>
        <time>2019-03-30T09:45:39.000Z</time>
      </trkpt>
      <trkpt lat="50.86021" lon="5.73896">
        <ele>41.400001525879</ele>
        <time>2019-03-30T09:45:40.000Z</time>
      </trkpt>
      <trkpt lat="50.86054" lon="5.739">
        <ele>41.799999237061</ele>
        <time>2019-03-30T09:45:45.000Z</time>
      </trkpt>
      <trkpt lat="50.86103" lon="5.73904">
        <ele>41.799999237061</ele>
        <time>2019-03-30T09:45:52.000Z</time>
      </trkpt>
      <trkpt lat="50.8614" lon="5.73895">
        <ele>41.200000762939</ele>
        <time>2019-03-30T09:45:57.000Z</time>
      </trkpt>
      <trkpt lat="50.86175" lon="5.73886">
        <ele>40.599998474121</ele>
        <time>2019-03-30T09:46:02.000Z</time>
      </trkpt>
      <trkpt lat="50.86181" lon="5.73885">
        <ele>40.200000762939</ele>
        <time>2019-03-30T09:46:03.000Z</time>
      </trkpt>
      <trkpt lat="50.8621" lon="5.7388">
        <ele>39.799999237061</ele>
        <time>2019-03-30T09:46:07.000Z</time>
      </trkpt>
      <trkpt lat="50.8627" lon="5.73872">
        <ele>39.400001525879</ele>
        <time>2019-03-30T09:46:15.000Z</time>
      </trkpt>
      <trkpt lat="50.86277" lon="5.73871">
        <ele>39.200000762939</ele>
        <time>2019-03-30T09:46:16.000Z</time>
      </trkpt>
      <trkpt lat="50.86342" lon="5.73872">
        <ele>39.200000762939</ele>
        <time>2019-03-30T09:46:25.000Z</time>
      </trkpt>
      <trkpt lat="50.86349" lon="5.73873">
        <ele>39.200000762939</ele>
        <time>2019-03-30T09:46:26.000Z</time>
      </trkpt>
      <trkpt lat="50.8641" lon="5.73884">
        <ele>39.200000762939</ele>
        <time>2019-03-30T09:46:34.000Z</time>
      </trkpt>
      <trkpt lat="50.86469" lon="5.73897">
        <ele>39.200000762939</ele>
        <time>2019-03-30T09:46:42.000Z</time>
      </trkpt>
      <trkpt lat="50.86483" lon="5.739">
        <ele>39.200000762939</ele>
        <time>2019-03-30T09:46:44.000Z</time>
      </trkpt>
      <trkpt lat="50.8653" lon="5.73912">
        <ele>39.200000762939</ele>
        <time>2019-03-30T09:46:51.000Z</time>
      </trkpt>
      <trkpt lat="50.86588" lon="5.73932">
        <ele>39</ele>
        <time>2019-03-30T09:46:59.000Z</time>
      </trkpt>
      <trkpt lat="50.86603" lon="5.73937">
        <ele>39</ele>
        <time>2019-03-30T09:47:01.000Z</time>
      </trkpt>
      <trkpt lat="50.86663" lon="5.73958">
        <ele>38.799999237061</ele>
        <time>2019-03-30T09:47:09.000Z</time>
      </trkpt>
      <trkpt lat="50.86679" lon="5.73964">
        <ele>38.799999237061</ele>
        <time>2019-03-30T09:47:11.000Z</time>
      </trkpt>
      <trkpt lat="50.86754" lon="5.7399">
        <ele>38.200000762939</ele>
        <time>2019-03-30T09:47:21.000Z</time>
      </trkpt>
      <trkpt lat="50.86793" lon="5.74">
        <ele>38.200000762939</ele>
        <time>2019-03-30T09:47:26.000Z</time>
      </trkpt>
      <trkpt lat="50.86809" lon="5.74">
        <ele>38.200000762939</ele>
        <time>2019-03-30T09:47:28.000Z</time>
      </trkpt>
      <trkpt lat="50.86859" lon="5.74006">
        <ele>38</ele>
        <time>2019-03-30T09:47:34.000Z</time>
      </trkpt>
      <trkpt lat="50.86913" lon="5.74012">
        <ele>38</ele>
        <time>2019-03-30T09:47:41.000Z</time>
      </trkpt>
      <trkpt lat="50.8692" lon="5.74013">
        <ele>38</ele>
        <time>2019-03-30T09:47:42.000Z</time>
      </trkpt>
      <trkpt lat="50.86981" lon="5.74021">
        <ele>38.200000762939</ele>
        <time>2019-03-30T09:47:50.000Z</time>
      </trkpt>
      <trkpt lat="50.87048" lon="5.74027">
        <ele>39</ele>
        <time>2019-03-30T09:47:59.000Z</time>
      </trkpt>
      <trkpt lat="50.87056" lon="5.74027">
        <ele>39</ele>
        <time>2019-03-30T09:48:00.000Z</time>
      </trkpt>
      <trkpt lat="50.87114" lon="5.74021">
        <ele>39.400001525879</ele>
        <time>2019-03-30T09:48:08.000Z</time>
      </trkpt>
      <trkpt lat="50.87129" lon="5.74019">
        <ele>39.599998474121</ele>
        <time>2019-03-30T09:48:10.000Z</time>
      </trkpt>
      <trkpt lat="50.8718" lon="5.73999">
        <ele>40.400001525879</ele>
        <time>2019-03-30T09:48:17.000Z</time>
      </trkpt>
      <trkpt lat="50.87244" lon="5.7397">
        <ele>41</ele>
        <time>2019-03-30T09:48:26.000Z</time>
      </trkpt>
      <trkpt lat="50.87251" lon="5.73967">
        <ele>41.200000762939</ele>
        <time>2019-03-30T09:48:27.000Z</time>
      </trkpt>
      <trkpt lat="50.87289" lon="5.73956">
        <ele>41.400001525879</ele>
        <time>2019-03-30T09:48:33.000Z</time>
      </trkpt>
      <trkpt lat="50.87294" lon="5.73954">
        <ele>41.599998474121</ele>
        <time>2019-03-30T09:48:34.000Z</time>
      </trkpt>
      <trkpt lat="50.87307" lon="5.73947">
        <ele>57.6</ele>
      </trkpt>
      <trkpt lat="50.87314" lon="5.73975">
        <ele>58.8</ele>
      </trkpt>
      <trkpt lat="50.87316" lon="5.74001">
        <ele>42.200000762939</ele>
        <time>2019-03-30T09:48:44.000Z</time>
      </trkpt>
      <trkpt lat="50.87316" lon="5.74027">
        <ele>62.6</ele>
      </trkpt>
      <trkpt lat="50.87314" lon="5.74047">
        <ele>63.3</ele>
      </trkpt>
      <trkpt lat="50.87319" lon="5.74067">
        <ele>43.400001525879</ele>
        <time>2019-03-30T09:48:53.000Z</time>
      </trkpt>
      <trkpt lat="50.87338" lon="5.74102">
        <ele>67.4</ele>
      </trkpt>
      <trkpt lat="50.87351" lon="5.74126">
        <ele>67.1</ele>
      </trkpt>
      <trkpt lat="50.87364" lon="5.74142">
        <ele>67</ele>
      </trkpt>
      <trkpt lat="50.87384" lon="5.74152">
        <ele>66.7</ele>
      </trkpt>
      <trkpt lat="50.87402" lon="5.74162">
        <ele>66.3</ele>
      </trkpt>
      <trkpt lat="50.87435" lon="5.74179">
        <ele>65.2</ele>
      </trkpt>
      <trkpt lat="50.8747" lon="5.74198">
        <ele>64.6</ele>
      </trkpt>
      <trkpt lat="50.87483" lon="5.74209">
        <ele>65</ele>
      </trkpt>
      <trkpt lat="50.87494" lon="5.74228">
        <ele>64.7</ele>
      </trkpt>
      <trkpt lat="50.87519" lon="5.74279">
        <ele>64.5</ele>
      </trkpt>
      <trkpt lat="50.87553" lon="5.74335">
        <ele>66</ele>
      </trkpt>
      <trkpt lat="50.8757" lon="5.74361">
        <ele>66.4</ele>
      </trkpt>
      <trkpt lat="50.87602" lon="5.74419">
        <ele>67.9</ele>
      </trkpt>
      <trkpt lat="50.87624" lon="5.74464">
        <ele>66.3</ele>
      </trkpt>
      <trkpt lat="50.87635" lon="5.74498">
        <ele>66</ele>
      </trkpt>
      <trkpt lat="50.87646" lon="5.74535">
        <ele>67.3</ele>
      </trkpt>
      <trkpt lat="50.87651" lon="5.74561">
        <ele>68</ele>
      </trkpt>
      <trkpt lat="50.87655" lon="5.74589">
        <ele>52.400001525879</ele>
        <time>2019-03-30T09:50:12.000Z</time>
      </trkpt>
      <trkpt lat="50.87656" lon="5.74598">
        <ele>52.400001525879</ele>
        <time>2019-03-30T09:50:13.000Z</time>
      </trkpt>
      <trkpt lat="50.87667" lon="5.74641">
        <ele>69.4</ele>
      </trkpt>
      <trkpt lat="50.87673" lon="5.74677">
        <ele>66</ele>
      </trkpt>
      <trkpt lat="50.87678" lon="5.747">
        <ele>63.3</ele>
      </trkpt>
      <trkpt lat="50.87684" lon="5.74724">
        <ele>62.4</ele>
      </trkpt>
      <trkpt lat="50.87686" lon="5.74743">
        <ele>62.5</ele>
      </trkpt>
      <trkpt lat="50.87685" lon="5.74761">
        <ele>60.4</ele>
      </trkpt>
      <trkpt lat="50.87682" lon="5.74777">
        <ele>59.6</ele>
      </trkpt>
      <trkpt lat="50.87679" lon="5.74795">
        <ele>58.8</ele>
      </trkpt>
      <trkpt lat="50.87678" lon="5.74813">
        <ele>58.6</ele>
      </trkpt>
      <trkpt lat="50.87675" lon="5.74838">
        <ele>58.2</ele>
      </trkpt>
      <trkpt lat="50.87664" lon="5.74874">
        <ele>62.4</ele>
      </trkpt>
      <trkpt lat="50.87642" lon="5.74919">
        <ele>60</ele>
      </trkpt>
      <trkpt lat="50.87628" lon="5.74942">
        <ele>62</ele>
      </trkpt>
      <trkpt lat="50.87618" lon="5.74966">
        <ele>62.8</ele>
      </trkpt>
      <trkpt lat="50.87606" lon="5.74998">
        <ele>64.5</ele>
      </trkpt>
      <trkpt lat="50.87599" lon="5.75024">
        <ele>63.1</ele>
      </trkpt>
      <trkpt lat="50.87593" lon="5.75061">
        <ele>63.7</ele>
      </trkpt>
      <trkpt lat="50.87591" lon="5.75124">
        <ele>61.4</ele>
      </trkpt>
      <trkpt lat="50.87589" lon="5.75165">
        <ele>64.5</ele>
      </trkpt>
      <trkpt lat="50.87585" lon="5.7522">
        <ele>59.2</ele>
      </trkpt>
      <trkpt lat="50.8758" lon="5.7528">
        <ele>66.6</ele>
      </trkpt>
      <trkpt lat="50.87572" lon="5.75366">
        <ele>66.7</ele>
      </trkpt>
      <trkpt lat="50.87559" lon="5.75452">
        <ele>69.4</ele>
      </trkpt>
      <trkpt lat="50.87548" lon="5.75527">
        <ele>70.1</ele>
      </trkpt>
      <trkpt lat="50.87538" lon="5.75603">
        <ele>68.9</ele>
      </trkpt>
      <trkpt lat="50.87522" lon="5.75708">
        <ele>65.1</ele>
      </trkpt>
      <trkpt lat="50.87511" lon="5.75786">
        <ele>62.3</ele>
      </trkpt>
      <trkpt lat="50.87505" lon="5.75821">
        <ele>62.6</ele>
      </trkpt>
      <trkpt lat="50.87492" lon="5.75915">
        <ele>65.7</ele>
      </trkpt>
      <trkpt lat="50.87481" lon="5.75998">
        <ele>67.5</ele>
      </trkpt>
      <trkpt lat="50.87469" lon="5.76074">
        <ele>67.9</ele>
      </trkpt>
      <trkpt lat="50.87458" lon="5.76147">
        <ele>68.4</ele>
      </trkpt>
      <trkpt lat="50.87449" lon="5.76213">
        <ele>67.4</ele>
      </trkpt>
      <trkpt lat="50.87445" lon="5.76243">
        <ele>67.9</ele>
      </trkpt>
      <trkpt lat="50.87444" lon="5.76264">
        <ele>64</ele>
      </trkpt>
      <trkpt lat="50.87446" lon="5.76284">
        <ele>62.8</ele>
      </trkpt>
      <trkpt lat="50.87439" lon="5.76302">
        <ele>62.3</ele>
      </trkpt>
      <trkpt lat="50.87423" lon="5.76355">
        <ele>59.6</ele>
      </trkpt>
      <trkpt lat="50.87406" lon="5.76422">
        <ele>63.1</ele>
      </trkpt>
      <trkpt lat="50.87392" lon="5.76481">
        <ele>66.3</ele>
      </trkpt>
      <trkpt lat="50.87373" lon="5.7656">
        <ele>66.6</ele>
      </trkpt>
      <trkpt lat="50.87356" lon="5.76629">
        <ele>65</ele>
      </trkpt>
      <trkpt lat="50.87332" lon="5.76717">
        <ele>72.6</ele>
      </trkpt>
      <trkpt lat="50.87323" lon="5.76755">
        <ele>68.7</ele>
      </trkpt>
      <trkpt lat="50.8731" lon="5.76805">
        <ele>71.5</ele>
      </trkpt>
      <trkpt lat="50.87301" lon="5.76839">
        <ele>69.8</ele>
      </trkpt>
      <trkpt lat="50.87292" lon="5.76857">
        <ele>71.5</ele>
      </trkpt>
      <trkpt lat="50.87267" lon="5.76926">
        <ele>72.5</ele>
      </trkpt>
      <trkpt lat="50.87259" lon="5.76962">
        <ele>69.1</ele>
      </trkpt>
      <trkpt lat="50.8725" lon="5.77">
        <ele>40.599998474121</ele>
        <time>2019-03-30T09:53:49.000Z</time>
      </trkpt>
      <trkpt lat="50.87243" lon="5.77053">
        <ele>40.799999237061</ele>
        <time>2019-03-30T09:53:54.000Z</time>
      </trkpt>
      <trkpt lat="50.87241" lon="5.77077">
        <ele>41</ele>
        <time>2019-03-30T09:53:56.000Z</time>
      </trkpt>
      <trkpt lat="50.87241" lon="5.77089">
        <ele>41.400001525879</ele>
        <time>2019-03-30T09:53:57.000Z</time>
      </trkpt>
      <trkpt lat="50.87242" lon="5.77162">
        <ele>41.799999237061</ele>
        <time>2019-03-30T09:54:03.000Z</time>
      </trkpt>
      <trkpt lat="50.87242" lon="5.77186">
        <ele>41.799999237061</ele>
        <time>2019-03-30T09:54:05.000Z</time>
      </trkpt>
      <trkpt lat="50.8724" lon="5.77247">
        <ele>71.5</ele>
      </trkpt>
      <trkpt lat="50.87234" lon="5.77275">
        <ele>72</ele>
      </trkpt>
      <trkpt lat="50.87229" lon="5.77295">
        <ele>41.599998474121</ele>
        <time>2019-03-30T09:54:15.000Z</time>
      </trkpt>
      <trkpt lat="50.87226" lon="5.77304">
        <ele>41.599998474121</ele>
        <time>2019-03-30T09:54:16.000Z</time>
      </trkpt>
      <trkpt lat="50.87214" lon="5.77331">
        <ele>41.599998474121</ele>
        <time>2019-03-30T09:54:19.000Z</time>
      </trkpt>
      <trkpt lat="50.87196" lon="5.77367">
        <ele>41.799999237061</ele>
        <time>2019-03-30T09:54:23.000Z</time>
      </trkpt>
      <trkpt lat="50.87188" lon="5.77385">
        <ele>42.200000762939</ele>
        <time>2019-03-30T09:54:25.000Z</time>
      </trkpt>
      <trkpt lat="50.87176" lon="5.77412">
        <ele>42.400001525879</ele>
        <time>2019-03-30T09:54:28.000Z</time>
      </trkpt>
      <trkpt lat="50.87168" lon="5.77431">
        <ele>42.400001525879</ele>
        <time>2019-03-30T09:54:30.000Z</time>
      </trkpt>
      <trkpt lat="50.87135" lon="5.77508">
        <ele>42.599998474121</ele>
        <time>2019-03-30T09:54:38.000Z</time>
      </trkpt>
      <trkpt lat="50.87127" lon="5.77527">
        <ele>42.599998474121</ele>
        <time>2019-03-30T09:54:40.000Z</time>
      </trkpt>
      <trkpt lat="50.8711" lon="5.77584">
        <ele>42.799999237061</ele>
        <time>2019-03-30T09:54:46.000Z</time>
      </trkpt>
      <trkpt lat="50.87099" lon="5.77623">
        <ele>42.799999237061</ele>
        <time>2019-03-30T09:54:50.000Z</time>
      </trkpt>
      <trkpt lat="50.87091" lon="5.77643">
        <ele>64.9</ele>
      </trkpt>
      <trkpt lat="50.87074" lon="5.77682">
        <ele>73</ele>
      </trkpt>
      <trkpt lat="50.87064" lon="5.77704">
        <ele>75.8</ele>
      </trkpt>
      <trkpt lat="50.87039" lon="5.77774">
        <ele>75.7</ele>
      </trkpt>
      <trkpt lat="50.87033" lon="5.77788">
        <ele>44</ele>
        <time>2019-03-30T09:55:06.000Z</time>
      </trkpt>
      <trkpt lat="50.87011" lon="5.77871">
        <ele>44</ele>
        <time>2019-03-30T09:55:13.000Z</time>
      </trkpt>
      <trkpt lat="50.86987" lon="5.77939">
        <ele>43.799999237061</ele>
        <time>2019-03-30T09:55:19.000Z</time>
      </trkpt>
      <trkpt lat="50.86958" lon="5.78019">
        <ele>71.9</ele>
      </trkpt>
      <trkpt lat="50.86944" lon="5.78065">
        <ele>72.9</ele>
      </trkpt>
      <trkpt lat="50.86925" lon="5.78099">
        <ele>72.3</ele>
      </trkpt>
      <trkpt lat="50.86913" lon="5.78125">
        <ele>44.599998474121</ele>
        <time>2019-03-30T09:55:37.000Z</time>
      </trkpt>
      <trkpt lat="50.86908" lon="5.78144">
        <ele>44.799999237061</ele>
        <time>2019-03-30T09:55:39.000Z</time>
      </trkpt>
      <trkpt lat="50.86907" lon="5.78165">
        <ele>45.200000762939</ele>
        <time>2019-03-30T09:55:41.000Z</time>
      </trkpt>
      <trkpt lat="50.86904" lon="5.78201">
        <ele>45.799999237061</ele>
        <time>2019-03-30T09:55:44.000Z</time>
      </trkpt>
      <trkpt lat="50.86902" lon="5.78237">
        <ele>46.200000762939</ele>
        <time>2019-03-30T09:55:47.000Z</time>
      </trkpt>
      <trkpt lat="50.869" lon="5.78262">
        <ele>46.200000762939</ele>
        <time>2019-03-30T09:55:49.000Z</time>
      </trkpt>
      <trkpt lat="50.86899" lon="5.78271">
        <ele>46.200000762939</ele>
        <time>2019-03-30T09:55:50.000Z</time>
      </trkpt>
      <trkpt lat="50.86895" lon="5.78282">
        <ele>46.400001525879</ele>
        <time>2019-03-30T09:55:52.000Z</time>
      </trkpt>
      <trkpt lat="50.86891" lon="5.78296">
        <ele>46.400001525879</ele>
        <time>2019-03-30T09:55:57.000Z</time>
      </trkpt>
      <trkpt lat="50.86887" lon="5.7832">
        <ele>46.599998474121</ele>
        <time>2019-03-30T09:56:03.000Z</time>
      </trkpt>
      <trkpt lat="50.86883" lon="5.78338">
        <ele>46.599998474121</ele>
        <time>2019-03-30T09:56:06.000Z</time>
      </trkpt>
      <trkpt lat="50.86879" lon="5.78349">
        <ele>46.599998474121</ele>
        <time>2019-03-30T09:56:09.000Z</time>
      </trkpt>
      <trkpt lat="50.86877" lon="5.78357">
        <ele>46.599998474121</ele>
        <time>2019-03-30T09:56:15.000Z</time>
      </trkpt>
      <trkpt lat="50.86877" lon="5.78364">
        <ele>46.599998474121</ele>
        <time>2019-03-30T09:56:17.000Z</time>
      </trkpt>
      <trkpt lat="50.86878" lon="5.78376">
        <ele>46.599998474121</ele>
        <time>2019-03-30T09:56:19.000Z</time>
      </trkpt>
      <trkpt lat="50.86878" lon="5.784">
        <ele>46.400001525879</ele>
        <time>2019-03-30T09:56:22.000Z</time>
      </trkpt>
      <trkpt lat="50.86877" lon="5.7841">
        <ele>46.400001525879</ele>
        <time>2019-03-30T09:56:23.000Z</time>
      </trkpt>
      <trkpt lat="50.86876" lon="5.78418">
        <ele>46.400001525879</ele>
        <time>2019-03-30T09:56:24.000Z</time>
      </trkpt>
      <trkpt lat="50.8687" lon="5.78447">
        <ele>46</ele>
        <time>2019-03-30T09:56:27.000Z</time>
      </trkpt>
      <trkpt lat="50.86864" lon="5.7849">
        <ele>70</ele>
      </trkpt>
      <trkpt lat="50.86858" lon="5.78519">
        <ele>45.400001525879</ele>
        <time>2019-03-30T09:56:34.000Z</time>
      </trkpt>
      <trkpt lat="50.8685" lon="5.78569">
        <ele>70</ele>
      </trkpt>
      <trkpt lat="50.8684" lon="5.78608">
        <ele>45.400001525879</ele>
        <time>2019-03-30T09:56:42.000Z</time>
      </trkpt>
      <trkpt lat="50.86829" lon="5.7865">
        <ele>78.7</ele>
      </trkpt>
      <trkpt lat="50.86825" lon="5.78665">
        <ele>74.6</ele>
      </trkpt>
      <trkpt lat="50.86825" lon="5.78694">
        <ele>76.2</ele>
      </trkpt>
      <trkpt lat="50.8683" lon="5.78728">
        <ele>72.3</ele>
      </trkpt>
      <trkpt lat="50.86854" lon="5.78779">
        <ele>59.7</ele>
      </trkpt>
      <trkpt lat="50.86892" lon="5.78849">
        <ele>45.400001525879</ele>
        <time>2019-03-30T09:57:08.000Z</time>
      </trkpt>
      <trkpt lat="50.86909" lon="5.78882">
        <ele>45.200000762939</ele>
        <time>2019-03-30T09:57:12.000Z</time>
      </trkpt>
      <trkpt lat="50.86921" lon="5.78906">
        <ele>44.799999237061</ele>
        <time>2019-03-30T09:57:15.000Z</time>
      </trkpt>
      <trkpt lat="50.86936" lon="5.78933">
        <ele>60</ele>
      </trkpt>
      <trkpt lat="50.86953" lon="5.78979">
        <ele>59.4</ele>
      </trkpt>
      <trkpt lat="50.86975" lon="5.79045">
        <ele>59.8</ele>
      </trkpt>
      <trkpt lat="50.86996" lon="5.79114">
        <ele>60.4</ele>
      </trkpt>
      <trkpt lat="50.87021" lon="5.79197">
        <ele>60.4</ele>
      </trkpt>
      <trkpt lat="50.87042" lon="5.7927">
        <ele>60.5</ele>
      </trkpt>
      <trkpt lat="50.87067" lon="5.79332">
        <ele>60.3</ele>
      </trkpt>
      <trkpt lat="50.87083" lon="5.79361">
        <ele>60.5</ele>
      </trkpt>
      <trkpt lat="50.87098" lon="5.79381">
        <ele>60.7</ele>
      </trkpt>
      <trkpt lat="50.87115" lon="5.79395">
        <ele>60.9</ele>
      </trkpt>
      <trkpt lat="50.87135" lon="5.79406">
        <ele>61.1</ele>
      </trkpt>
      <trkpt lat="50.87174" lon="5.79422">
        <ele>62.7</ele>
      </trkpt>
      <trkpt lat="50.87217" lon="5.79437">
        <ele>64.4</ele>
      </trkpt>
      <trkpt lat="50.87231" lon="5.79443">
        <ele>64.8</ele>
      </trkpt>
      <trkpt lat="50.87239" lon="5.79449">
        <ele>65</ele>
      </trkpt>
      <trkpt lat="50.87245" lon="5.79459">
        <ele>65.1</ele>
      </trkpt>
      <trkpt lat="50.87245" lon="5.79499">
        <ele>66.4</ele>
      </trkpt>
      <trkpt lat="50.87243" lon="5.7952">
        <ele>66.1</ele>
      </trkpt>
      <trkpt lat="50.87237" lon="5.79555">
        <ele>66.4</ele>
      </trkpt>
      <trkpt lat="50.87232" lon="5.79593">
        <ele>66.9</ele>
      </trkpt>
      <trkpt lat="50.8722" lon="5.79685">
        <ele>65.3</ele>
      </trkpt>
      <trkpt lat="50.87211" lon="5.79742">
        <ele>65.1</ele>
      </trkpt>
      <trkpt lat="50.87191" lon="5.7985">
        <ele>66.9</ele>
      </trkpt>
      <trkpt lat="50.87176" lon="5.79922">
        <ele>66.9</ele>
      </trkpt>
      <trkpt lat="50.8717" lon="5.79963">
        <ele>66.8</ele>
      </trkpt>
      <trkpt lat="50.87168" lon="5.79987">
        <ele>49.799999237061</ele>
        <time>2019-03-30T09:59:22.000Z</time>
      </trkpt>
      <trkpt lat="50.87172" lon="5.80043">
        <ele>67.3</ele>
      </trkpt>
      <trkpt lat="50.87178" lon="5.80126">
        <ele>67.7</ele>
      </trkpt>
      <trkpt lat="50.87181" lon="5.80149">
        <ele>67.6</ele>
      </trkpt>
      <trkpt lat="50.87181" lon="5.80194">
        <ele>67.6</ele>
      </trkpt>
      <trkpt lat="50.87182" lon="5.80236">
        <ele>67.2</ele>
      </trkpt>
      <trkpt lat="50.87182" lon="5.80323">
        <ele>51.799999237061</ele>
        <time>2019-03-30T09:59:54.000Z</time>
      </trkpt>
      <trkpt lat="50.87184" lon="5.8041">
        <ele>70.9</ele>
      </trkpt>
      <trkpt lat="50.87186" lon="5.80487">
        <ele>72.9</ele>
      </trkpt>
      <trkpt lat="50.8719" lon="5.80561">
        <ele>74.9</ele>
      </trkpt>
      <trkpt lat="50.87199" lon="5.80671">
        <ele>76.2</ele>
      </trkpt>
      <trkpt lat="50.87206" lon="5.80748">
        <ele>76.1</ele>
      </trkpt>
      <trkpt lat="50.87211" lon="5.80838">
        <ele>57</ele>
        <time>2019-03-30T10:00:41.000Z</time>
      </trkpt>
      <trkpt lat="50.87212" lon="5.80872">
        <ele>57</ele>
        <time>2019-03-30T10:00:44.000Z</time>
      </trkpt>
      <trkpt lat="50.87212" lon="5.80907">
        <ele>73</ele>
      </trkpt>
      <trkpt lat="50.87206" lon="5.8097">
        <ele>71</ele>
      </trkpt>
      <trkpt lat="50.87199" lon="5.81018">
        <ele>70.5</ele>
      </trkpt>
      <trkpt lat="50.87188" lon="5.81074">
        <ele>70.6</ele>
      </trkpt>
      <trkpt lat="50.87179" lon="5.81118">
        <ele>56.200000762939</ele>
        <time>2019-03-30T10:01:03.000Z</time>
      </trkpt>
      <trkpt lat="50.87175" lon="5.81142">
        <ele>56.200000762939</ele>
        <time>2019-03-30T10:01:05.000Z</time>
      </trkpt>
      <trkpt lat="50.87159" lon="5.81225">
        <ele>69.6</ele>
      </trkpt>
      <trkpt lat="50.87151" lon="5.8127">
        <ele>70.2</ele>
      </trkpt>
      <trkpt lat="50.87146" lon="5.81308">
        <ele>70.4</ele>
      </trkpt>
      <trkpt lat="50.87144" lon="5.81326">
        <ele>70.6</ele>
      </trkpt>
      <trkpt lat="50.87143" lon="5.8135">
        <ele>71</ele>
      </trkpt>
      <trkpt lat="50.87146" lon="5.81367">
        <ele>70.8</ele>
      </trkpt>
      <trkpt lat="50.8714" lon="5.81379">
        <ele>54.799999237061</ele>
        <time>2019-03-30T10:01:26.000Z</time>
      </trkpt>
      <trkpt lat="50.87141" lon="5.81392">
        <ele>71</ele>
      </trkpt>
      <trkpt lat="50.87146" lon="5.81401">
        <ele>70.7</ele>
      </trkpt>
      <trkpt lat="50.87138" lon="5.81422">
        <ele>70.5</ele>
      </trkpt>
      <trkpt lat="50.87137" lon="5.8144">
        <ele>70.4</ele>
      </trkpt>
      <trkpt lat="50.87135" lon="5.81468">
        <ele>70.3</ele>
      </trkpt>
      <trkpt lat="50.87135" lon="5.81512">
        <ele>70.5</ele>
      </trkpt>
      <trkpt lat="50.8714" lon="5.8156">
        <ele>71</ele>
      </trkpt>
      <trkpt lat="50.8713" lon="5.81565">
        <ele>70.8</ele>
      </trkpt>
      <trkpt lat="50.87114" lon="5.81574">
        <ele>55.200000762939</ele>
        <time>2019-03-30T10:01:47.000Z</time>
      </trkpt>
      <trkpt lat="50.87077" lon="5.81597">
        <ele>55.200000762939</ele>
        <time>2019-03-30T10:01:52.000Z</time>
      </trkpt>
      <trkpt lat="50.87024" lon="5.81634">
        <ele>54.400001525879</ele>
        <time>2019-03-30T10:01:59.000Z</time>
      </trkpt>
      <trkpt lat="50.8701" lon="5.81643">
        <ele>54</ele>
        <time>2019-03-30T10:02:01.000Z</time>
      </trkpt>
      <trkpt lat="50.86979" lon="5.81667">
        <ele>65</ele>
      </trkpt>
      <trkpt lat="50.86954" lon="5.81689">
        <ele>64.7</ele>
      </trkpt>
      <trkpt lat="50.8691" lon="5.81745">
        <ele>64.1</ele>
      </trkpt>
      <trkpt lat="50.86874" lon="5.81814">
        <ele>64.9</ele>
      </trkpt>
      <trkpt lat="50.86845" lon="5.81886">
        <ele>65.7</ele>
      </trkpt>
      <trkpt lat="50.86837" lon="5.81906">
        <ele>65.9</ele>
      </trkpt>
      <trkpt lat="50.86809" lon="5.81977">
        <ele>51</ele>
        <time>2019-03-30T10:02:38.000Z</time>
      </trkpt>
      <trkpt lat="50.86797" lon="5.8201">
        <ele>51</ele>
        <time>2019-03-30T10:02:41.000Z</time>
      </trkpt>
      <trkpt lat="50.86771" lon="5.82095">
        <ele>51</ele>
        <time>2019-03-30T10:02:49.000Z</time>
      </trkpt>
      <trkpt lat="50.86751" lon="5.82167">
        <ele>51.599998474121</ele>
        <time>2019-03-30T10:02:56.000Z</time>
      </trkpt>
      <trkpt lat="50.86738" lon="5.82218">
        <ele>51.799999237061</ele>
        <time>2019-03-30T10:03:01.000Z</time>
      </trkpt>
      <trkpt lat="50.86713" lon="5.82306">
        <ele>52.200000762939</ele>
        <time>2019-03-30T10:03:09.000Z</time>
      </trkpt>
      <trkpt lat="50.86691" lon="5.82387">
        <ele>52.200000762939</ele>
        <time>2019-03-30T10:03:16.000Z</time>
      </trkpt>
      <trkpt lat="50.86688" lon="5.82399">
        <ele>52.200000762939</ele>
        <time>2019-03-30T10:03:17.000Z</time>
      </trkpt>
      <trkpt lat="50.86672" lon="5.82469">
        <ele>52</ele>
        <time>2019-03-30T10:03:23.000Z</time>
      </trkpt>
      <trkpt lat="50.8667" lon="5.8249">
        <ele>52.200000762939</ele>
        <time>2019-03-30T10:03:25.000Z</time>
      </trkpt>
      <trkpt lat="50.86671" lon="5.82543">
        <ele>66.5</ele>
      </trkpt>
      <trkpt lat="50.86684" lon="5.82622">
        <ele>52.599998474121</ele>
        <time>2019-03-30T10:03:37.000Z</time>
      </trkpt>
      <trkpt lat="50.86689" lon="5.8265">
        <ele>67.7</ele>
      </trkpt>
      <trkpt lat="50.86685" lon="5.8268">
        <ele>52.599998474121</ele>
        <time>2019-03-30T10:03:43.000Z</time>
      </trkpt>
      <trkpt lat="50.86677" lon="5.82711">
        <ele>52.599998474121</ele>
        <time>2019-03-30T10:03:46.000Z</time>
      </trkpt>
      <trkpt lat="50.86651" lon="5.828">
        <ele>52.799999237061</ele>
        <time>2019-03-30T10:03:55.000Z</time>
      </trkpt>
      <trkpt lat="50.86628" lon="5.82873">
        <ele>52.799999237061</ele>
        <time>2019-03-30T10:04:03.000Z</time>
      </trkpt>
      <trkpt lat="50.86609" lon="5.82943">
        <ele>70.9</ele>
      </trkpt>
      <trkpt lat="50.86602" lon="5.82969">
        <ele>52.799999237061</ele>
        <time>2019-03-30T10:04:13.000Z</time>
      </trkpt>
      <trkpt lat="50.86592" lon="5.83008">
        <ele>70.3</ele>
      </trkpt>
      <trkpt lat="50.8657" lon="5.82992">
        <ele>69.9</ele>
      </trkpt>
      <trkpt lat="50.86554" lon="5.82984">
        <ele>69.8</ele>
      </trkpt>
      <trkpt lat="50.86548" lon="5.82986">
        <ele>69.7</ele>
      </trkpt>
      <trkpt lat="50.86542" lon="5.83">
        <ele>69.7</ele>
      </trkpt>
      <trkpt lat="50.86532" lon="5.83036">
        <ele>69.7</ele>
      </trkpt>
      <trkpt lat="50.86526" lon="5.8306">
        <ele>70</ele>
      </trkpt>
      <trkpt lat="50.865" lon="5.83051">
        <ele>70</ele>
      </trkpt>
      <trkpt lat="50.86477" lon="5.83037">
        <ele>71.1</ele>
      </trkpt>
      <trkpt lat="50.86446" lon="5.8302">
        <ele>71.7</ele>
      </trkpt>
      <trkpt lat="50.86409" lon="5.83">
        <ele>73.5</ele>
      </trkpt>
      <trkpt lat="50.86382" lon="5.82988">
        <ele>75.4</ele>
      </trkpt>
      <trkpt lat="50.86365" lon="5.82979">
        <ele>76.1</ele>
      </trkpt>
      <trkpt lat="50.86349" lon="5.82971">
        <ele>76.7</ele>
      </trkpt>
      <trkpt lat="50.86335" lon="5.8297">
        <ele>57</ele>
        <time>2019-03-30T10:05:08.000Z</time>
      </trkpt>
      <trkpt lat="50.8632" lon="5.82977">
        <ele>57.400001525879</ele>
        <time>2019-03-30T10:05:11.000Z</time>
      </trkpt>
      <trkpt lat="50.86305" lon="5.82984">
        <ele>58.200000762939</ele>
        <time>2019-03-30T10:05:14.000Z</time>
      </trkpt>
      <trkpt lat="50.86292" lon="5.82987">
        <ele>58.799999237061</ele>
        <time>2019-03-30T10:05:17.000Z</time>
      </trkpt>
      <trkpt lat="50.86275" lon="5.82982">
        <ele>81.7</ele>
      </trkpt>
      <trkpt lat="50.86257" lon="5.82961">
        <ele>82</ele>
      </trkpt>
      <trkpt lat="50.86247" lon="5.82942">
        <ele>83.9</ele>
      </trkpt>
      <trkpt lat="50.86237" lon="5.8292">
        <ele>83.7</ele>
      </trkpt>
      <trkpt lat="50.86227" lon="5.82895">
        <ele>86.6</ele>
      </trkpt>
      <trkpt lat="50.86217" lon="5.82861">
        <ele>88.2</ele>
      </trkpt>
      <trkpt lat="50.8621" lon="5.82824">
        <ele>92.8</ele>
      </trkpt>
      <trkpt lat="50.86205" lon="5.828">
        <ele>93.6</ele>
      </trkpt>
      <trkpt lat="50.86194" lon="5.82752">
        <ele>95.1</ele>
      </trkpt>
      <trkpt lat="50.86189" lon="5.82728">
        <ele>98.1</ele>
      </trkpt>
      <trkpt lat="50.86179" lon="5.82696">
        <ele>98.8</ele>
      </trkpt>
      <trkpt lat="50.86173" lon="5.82674">
        <ele>99</ele>
      </trkpt>
      <trkpt lat="50.86164" lon="5.82648">
        <ele>102.6</ele>
      </trkpt>
      <trkpt lat="50.86156" lon="5.82626">
        <ele>104.8</ele>
      </trkpt>
      <trkpt lat="50.86147" lon="5.82603">
        <ele>106.2</ele>
      </trkpt>
      <trkpt lat="50.86137" lon="5.82573">
        <ele>111.8</ele>
      </trkpt>
      <trkpt lat="50.8613" lon="5.82552">
        <ele>113.1</ele>
      </trkpt>
      <trkpt lat="50.86125" lon="5.82528">
        <ele>114.6</ele>
      </trkpt>
      <trkpt lat="50.86125" lon="5.82504">
        <ele>115.6</ele>
      </trkpt>
      <trkpt lat="50.86125" lon="5.82485">
        <ele>121.7</ele>
      </trkpt>
      <trkpt lat="50.86126" lon="5.82453">
        <ele>123</ele>
      </trkpt>
      <trkpt lat="50.86124" lon="5.82431">
        <ele>123.8</ele>
      </trkpt>
      <trkpt lat="50.86122" lon="5.82414">
        <ele>128.1</ele>
      </trkpt>
      <trkpt lat="50.86119" lon="5.82399">
        <ele>128.3</ele>
      </trkpt>
      <trkpt lat="50.86112" lon="5.82381">
        <ele>128.8</ele>
      </trkpt>
      <trkpt lat="50.86107" lon="5.82371">
        <ele>101.19999694824</ele>
        <time>2019-03-30T10:07:57.000Z</time>
      </trkpt>
      <trkpt lat="50.86098" lon="5.82359">
        <ele>102.59999847412</ele>
        <time>2019-03-30T10:08:01.000Z</time>
      </trkpt>
      <trkpt lat="50.86083" lon="5.82344">
        <ele>104</ele>
        <time>2019-03-30T10:08:06.000Z</time>
      </trkpt>
      <trkpt lat="50.86075" lon="5.82336">
        <ele>104.80000305176</ele>
        <time>2019-03-30T10:08:09.000Z</time>
      </trkpt>
      <trkpt lat="50.8605" lon="5.82318">
        <ele>107.19999694824</ele>
        <time>2019-03-30T10:08:18.000Z</time>
      </trkpt>
      <trkpt lat="50.86038" lon="5.8231">
        <ele>108.40000152588</ele>
        <time>2019-03-30T10:08:22.000Z</time>
      </trkpt>
      <trkpt lat="50.86031" lon="5.82305">
        <ele>108.80000305176</ele>
        <time>2019-03-30T10:08:24.000Z</time>
      </trkpt>
      <trkpt lat="50.86012" lon="5.82295">
        <ele>110.80000305176</ele>
        <time>2019-03-30T10:08:30.000Z</time>
      </trkpt>
      <trkpt lat="50.85981" lon="5.82277">
        <ele>133.8</ele>
      </trkpt>
      <trkpt lat="50.85964" lon="5.82268">
        <ele>134.2</ele>
      </trkpt>
      <trkpt lat="50.8592" lon="5.8224">
        <ele>136.6</ele>
      </trkpt>
      <trkpt lat="50.85888" lon="5.82221">
        <ele>136.7</ele>
      </trkpt>
      <trkpt lat="50.85858" lon="5.82204">
        <ele>136.6</ele>
      </trkpt>
      <trkpt lat="50.85838" lon="5.82192">
        <ele>136.7</ele>
      </trkpt>
      <trkpt lat="50.85809" lon="5.82179">
        <ele>136.5</ele>
      </trkpt>
      <trkpt lat="50.85793" lon="5.82171">
        <ele>136.2</ele>
      </trkpt>
      <trkpt lat="50.85778" lon="5.82164">
        <ele>134.1</ele>
      </trkpt>
      <trkpt lat="50.85759" lon="5.82153">
        <ele>133.9</ele>
      </trkpt>
      <trkpt lat="50.85743" lon="5.82146">
        <ele>134.7</ele>
      </trkpt>
      <trkpt lat="50.85727" lon="5.82139">
        <ele>135.1</ele>
      </trkpt>
      <trkpt lat="50.8571" lon="5.82129">
        <ele>135.5</ele>
      </trkpt>
      <trkpt lat="50.85687" lon="5.82103">
        <ele>136</ele>
      </trkpt>
      <trkpt lat="50.85677" lon="5.82088">
        <ele>136</ele>
      </trkpt>
      <trkpt lat="50.85668" lon="5.82066">
        <ele>136.1</ele>
      </trkpt>
      <trkpt lat="50.85662" lon="5.82049">
        <ele>139</ele>
      </trkpt>
      <trkpt lat="50.85657" lon="5.82025">
        <ele>138.8</ele>
      </trkpt>
      <trkpt lat="50.85652" lon="5.81992">
        <ele>138.8</ele>
      </trkpt>
      <trkpt lat="50.85651" lon="5.8197">
        <ele>140</ele>
      </trkpt>
      <trkpt lat="50.85653" lon="5.81945">
        <ele>140.1</ele>
      </trkpt>
      <trkpt lat="50.85656" lon="5.81908">
        <ele>140.7</ele>
      </trkpt>
      <trkpt lat="50.85662" lon="5.81863">
        <ele>141.2</ele>
      </trkpt>
      <trkpt lat="50.85672" lon="5.81803">
        <ele>140.6</ele>
      </trkpt>
      <trkpt lat="50.85677" lon="5.81764">
        <ele>141.2</ele>
      </trkpt>
      <trkpt lat="50.85683" lon="5.81703">
        <ele>140.9</ele>
      </trkpt>
      <trkpt lat="50.85689" lon="5.8164">
        <ele>140.5</ele>
      </trkpt>
      <trkpt lat="50.85691" lon="5.81582">
        <ele>140.2</ele>
      </trkpt>
      <trkpt lat="50.85693" lon="5.81531">
        <ele>140</ele>
      </trkpt>
      <trkpt lat="50.85694" lon="5.81455">
        <ele>138.7</ele>
      </trkpt>
      <trkpt lat="50.85694" lon="5.81414">
        <ele>137.3</ele>
      </trkpt>
      <trkpt lat="50.85695" lon="5.81386">
        <ele>122.59999847412</ele>
        <time>2019-03-30T10:14:38.000Z</time>
      </trkpt>
      <trkpt lat="50.85697" lon="5.81337">
        <ele>136.6</ele>
      </trkpt>
      <trkpt lat="50.85704" lon="5.81294">
        <ele>135.4</ele>
      </trkpt>
      <trkpt lat="50.85709" lon="5.81262">
        <ele>135.2</ele>
      </trkpt>
      <trkpt lat="50.85717" lon="5.81207">
        <ele>134.5</ele>
      </trkpt>
      <trkpt lat="50.85725" lon="5.81161">
        <ele>134.1</ele>
      </trkpt>
      <trkpt lat="50.85729" lon="5.81129">
        <ele>134.2</ele>
      </trkpt>
      <trkpt lat="50.85734" lon="5.81091">
        <ele>134.2</ele>
      </trkpt>
      <trkpt lat="50.85713" lon="5.81092">
        <ele>134.4</ele>
      </trkpt>
      <trkpt lat="50.85694" lon="5.81099">
        <ele>134.6</ele>
      </trkpt>
      <trkpt lat="50.85665" lon="5.81111">
        <ele>136.2</ele>
      </trkpt>
      <trkpt lat="50.85649" lon="5.81124">
        <ele>118.59999847412</ele>
        <time>2019-03-30T10:15:23.000Z</time>
      </trkpt>
      <trkpt lat="50.85642" lon="5.81136">
        <ele>119</ele>
        <time>2019-03-30T10:15:25.000Z</time>
      </trkpt>
      <trkpt lat="50.85628" lon="5.81171">
        <ele>138.1</ele>
      </trkpt>
      <trkpt lat="50.85619" lon="5.81202">
        <ele>138.5</ele>
      </trkpt>
      <trkpt lat="50.85606" lon="5.81235">
        <ele>139.3</ele>
      </trkpt>
      <trkpt lat="50.85599" lon="5.81249">
        <ele>139.8</ele>
      </trkpt>
      <trkpt lat="50.85589" lon="5.81264">
        <ele>140.6</ele>
      </trkpt>
      <trkpt lat="50.85571" lon="5.81275">
        <ele>123.40000152588</ele>
        <time>2019-03-30T10:15:50.000Z</time>
      </trkpt>
      <trkpt lat="50.85571" lon="5.81275">
        <ele>123.59999847412</ele>
        <time>2019-03-30T10:15:51.000Z</time>
      </trkpt>
      <trkpt lat="50.85556" lon="5.81275">
        <ele>141</ele>
      </trkpt>
      <trkpt lat="50.85542" lon="5.81272">
        <ele>124.19999694824</ele>
        <time>2019-03-30T10:16:36.000Z</time>
      </trkpt>
      <trkpt lat="50.85525" lon="5.81267">
        <ele>124.59999847412</ele>
        <time>2019-03-30T10:16:39.000Z</time>
      </trkpt>
      <trkpt lat="50.85498" lon="5.81254">
        <ele>125.40000152588</ele>
        <time>2019-03-30T10:16:44.000Z</time>
      </trkpt>
      <trkpt lat="50.85447" lon="5.81233">
        <ele>138.1</ele>
      </trkpt>
      <trkpt lat="50.8543" lon="5.81228">
        <ele>137.8</ele>
      </trkpt>
      <trkpt lat="50.85398" lon="5.81228">
        <ele>136.7</ele>
      </trkpt>
      <trkpt lat="50.85367" lon="5.81245">
        <ele>136.7</ele>
      </trkpt>
      <trkpt lat="50.85345" lon="5.81268">
        <ele>137.8</ele>
      </trkpt>
      <trkpt lat="50.85326" lon="5.81288">
        <ele>138.3</ele>
      </trkpt>
      <trkpt lat="50.85299" lon="5.81319">
        <ele>138.6</ele>
      </trkpt>
      <trkpt lat="50.85252" lon="5.8137">
        <ele>139.5</ele>
      </trkpt>
      <trkpt lat="50.85216" lon="5.81403">
        <ele>140.9</ele>
      </trkpt>
      <trkpt lat="50.85191" lon="5.81425">
        <ele>141.8</ele>
      </trkpt>
      <trkpt lat="50.85169" lon="5.81439">
        <ele>141.9</ele>
      </trkpt>
      <trkpt lat="50.85149" lon="5.81452">
        <ele>142.4</ele>
      </trkpt>
      <trkpt lat="50.85133" lon="5.81459">
        <ele>142.5</ele>
      </trkpt>
      <trkpt lat="50.85098" lon="5.81471">
        <ele>142.7</ele>
      </trkpt>
      <trkpt lat="50.85051" lon="5.81477">
        <ele>144</ele>
      </trkpt>
      <trkpt lat="50.85022" lon="5.81481">
        <ele>144.5</ele>
      </trkpt>
      <trkpt lat="50.84996" lon="5.81485">
        <ele>145.4</ele>
      </trkpt>
      <trkpt lat="50.84971" lon="5.81491">
        <ele>145.6</ele>
      </trkpt>
      <trkpt lat="50.84956" lon="5.81498">
        <ele>145.7</ele>
      </trkpt>
      <trkpt lat="50.84941" lon="5.81506">
        <ele>145</ele>
      </trkpt>
      <trkpt lat="50.84925" lon="5.8152">
        <ele>145.4</ele>
      </trkpt>
      <trkpt lat="50.84915" lon="5.81536">
        <ele>130.39999389648</ele>
        <time>2019-03-30T10:19:02.000Z</time>
      </trkpt>
      <trkpt lat="50.84903" lon="5.81556">
        <ele>146.1</ele>
      </trkpt>
      <trkpt lat="50.84885" lon="5.8159">
        <ele>146.6</ele>
      </trkpt>
      <trkpt lat="50.84863" lon="5.81633">
        <ele>147.3</ele>
      </trkpt>
      <trkpt lat="50.84833" lon="5.8169">
        <ele>150.4</ele>
      </trkpt>
      <trkpt lat="50.84814" lon="5.81724">
        <ele>151</ele>
      </trkpt>
      <trkpt lat="50.84799" lon="5.81755">
        <ele>151.8</ele>
      </trkpt>
      <trkpt lat="50.84792" lon="5.81766">
        <ele>152</ele>
      </trkpt>
      <trkpt lat="50.84784" lon="5.81759">
        <ele>137.19999694824</ele>
        <time>2019-03-30T10:19:47.000Z</time>
      </trkpt>
      <trkpt lat="50.84778" lon="5.81764">
        <ele>152.4</ele>
      </trkpt>
      <trkpt lat="50.84776" lon="5.81774">
        <ele>152.4</ele>
      </trkpt>
      <trkpt lat="50.84777" lon="5.81793">
        <ele>152.3</ele>
      </trkpt>
      <trkpt lat="50.84754" lon="5.8183">
        <ele>152.8</ele>
      </trkpt>
      <trkpt lat="50.84733" lon="5.8187">
        <ele>154</ele>
      </trkpt>
      <trkpt lat="50.84718" lon="5.81899">
        <ele>154.2</ele>
      </trkpt>
      <trkpt lat="50.84688" lon="5.8196">
        <ele>155.1</ele>
      </trkpt>
      <trkpt lat="50.84659" lon="5.82019">
        <ele>141.60000610352</ele>
        <time>2019-03-30T10:20:28.000Z</time>
      </trkpt>
      <trkpt lat="50.8463" lon="5.82082">
        <ele>156.4</ele>
      </trkpt>
      <trkpt lat="50.84593" lon="5.82183">
        <ele>156</ele>
      </trkpt>
      <trkpt lat="50.84564" lon="5.82254">
        <ele>140.19999694824</ele>
        <time>2019-03-30T10:20:56.000Z</time>
      </trkpt>
      <trkpt lat="50.84546" lon="5.82298">
        <ele>155.9</ele>
      </trkpt>
      <trkpt lat="50.84537" lon="5.82321">
        <ele>155.9</ele>
      </trkpt>
      <trkpt lat="50.84516" lon="5.82368">
        <ele>154.9</ele>
      </trkpt>
      <trkpt lat="50.84506" lon="5.82393">
        <ele>154.5</ele>
      </trkpt>
      <trkpt lat="50.84496" lon="5.82426">
        <ele>153.9</ele>
      </trkpt>
      <trkpt lat="50.84492" lon="5.82437">
        <ele>139.39999389648</ele>
        <time>2019-03-30T10:21:18.000Z</time>
      </trkpt>
      <trkpt lat="50.8449" lon="5.82447">
        <ele>139</ele>
        <time>2019-03-30T10:21:19.000Z</time>
      </trkpt>
      <trkpt lat="50.84489" lon="5.82473">
        <ele>153.2</ele>
      </trkpt>
      <trkpt lat="50.84491" lon="5.82485">
        <ele>152.9</ele>
      </trkpt>
      <trkpt lat="50.84497" lon="5.82504">
        <ele>152.1</ele>
      </trkpt>
      <trkpt lat="50.84503" lon="5.82525">
        <ele>151.7</ele>
      </trkpt>
      <trkpt lat="50.84509" lon="5.82561">
        <ele>151.3</ele>
      </trkpt>
      <trkpt lat="50.84507" lon="5.82588">
        <ele>150.6</ele>
      </trkpt>
      <trkpt lat="50.84502" lon="5.82609">
        <ele>150</ele>
      </trkpt>
      <trkpt lat="50.84495" lon="5.82619">
        <ele>151.8</ele>
      </trkpt>
      <trkpt lat="50.84483" lon="5.82638">
        <ele>134.80000305176</ele>
        <time>2019-03-30T10:21:35.000Z</time>
      </trkpt>
      <trkpt lat="50.84467" lon="5.82666">
        <ele>152</ele>
      </trkpt>
      <trkpt lat="50.84449" lon="5.82704">
        <ele>152.3</ele>
      </trkpt>
      <trkpt lat="50.84439" lon="5.82723">
        <ele>152.5</ele>
      </trkpt>
      <trkpt lat="50.8443" lon="5.82742">
        <ele>152.7</ele>
      </trkpt>
      <trkpt lat="50.84422" lon="5.82765">
        <ele>152.9</ele>
      </trkpt>
      <trkpt lat="50.8441" lon="5.82804">
        <ele>153.2</ele>
      </trkpt>
      <trkpt lat="50.84399" lon="5.82807">
        <ele>137.19999694824</ele>
        <time>2019-03-30T10:21:57.000Z</time>
      </trkpt>
      <trkpt lat="50.84373" lon="5.82811">
        <ele>153.3</ele>
      </trkpt>
      <trkpt lat="50.84341" lon="5.82814">
        <ele>137.60000610352</ele>
        <time>2019-03-30T10:22:07.000Z</time>
      </trkpt>
      <trkpt lat="50.84303" lon="5.82815">
        <ele>137.60000610352</ele>
        <time>2019-03-30T10:22:13.000Z</time>
      </trkpt>
      <trkpt lat="50.84263" lon="5.82803">
        <ele>137.60000610352</ele>
        <time>2019-03-30T10:22:19.000Z</time>
      </trkpt>
      <trkpt lat="50.84236" lon="5.82796">
        <ele>151.3</ele>
      </trkpt>
      <trkpt lat="50.8421" lon="5.82794">
        <ele>151</ele>
      </trkpt>
      <trkpt lat="50.8418" lon="5.82791">
        <ele>151</ele>
      </trkpt>
      <trkpt lat="50.84166" lon="5.82788">
        <ele>135.39999389648</ele>
        <time>2019-03-30T10:22:34.000Z</time>
      </trkpt>
      <trkpt lat="50.8416" lon="5.82787">
        <ele>135</ele>
        <time>2019-03-30T10:22:35.000Z</time>
      </trkpt>
      <trkpt lat="50.84154" lon="5.82794">
        <ele>149.1</ele>
      </trkpt>
      <trkpt lat="50.84148" lon="5.82807">
        <ele>149.1</ele>
      </trkpt>
      <trkpt lat="50.84136" lon="5.82831">
        <ele>149.1</ele>
      </trkpt>
      <trkpt lat="50.84121" lon="5.8286">
        <ele>148.7</ele>
      </trkpt>
      <trkpt lat="50.84099" lon="5.82892">
        <ele>148.2</ele>
      </trkpt>
      <trkpt lat="50.84065" lon="5.82934">
        <ele>133</ele>
        <time>2019-03-30T10:22:54.000Z</time>
      </trkpt>
      <trkpt lat="50.84045" lon="5.82955">
        <ele>132.80000305176</ele>
        <time>2019-03-30T10:22:57.000Z</time>
      </trkpt>
      <trkpt lat="50.83993" lon="5.83006">
        <ele>132.80000305176</ele>
        <time>2019-03-30T10:23:05.000Z</time>
      </trkpt>
      <trkpt lat="50.83987" lon="5.83013">
        <ele>132.80000305176</ele>
        <time>2019-03-30T10:23:06.000Z</time>
      </trkpt>
      <trkpt lat="50.83959" lon="5.83065">
        <ele>149.6</ele>
      </trkpt>
      <trkpt lat="50.83927" lon="5.83141">
        <ele>151.5</ele>
      </trkpt>
      <trkpt lat="50.83907" lon="5.83193">
        <ele>153.3</ele>
      </trkpt>
      <trkpt lat="50.839" lon="5.83222">
        <ele>153.1</ele>
      </trkpt>
      <trkpt lat="50.83886" lon="5.83286">
        <ele>152.4</ele>
      </trkpt>
      <trkpt lat="50.83878" lon="5.83312">
        <ele>152.3</ele>
      </trkpt>
      <trkpt lat="50.83866" lon="5.83339">
        <ele>152.2</ele>
      </trkpt>
      <trkpt lat="50.83858" lon="5.83351">
        <ele>136</ele>
        <time>2019-03-30T10:23:42.000Z</time>
      </trkpt>
      <trkpt lat="50.83835" lon="5.83375">
        <ele>136.19999694824</ele>
        <time>2019-03-30T10:23:46.000Z</time>
      </trkpt>
      <trkpt lat="50.83829" lon="5.8338">
        <ele>136.19999694824</ele>
        <time>2019-03-30T10:23:47.000Z</time>
      </trkpt>
      <trkpt lat="50.83818" lon="5.83392">
        <ele>136.39999389648</ele>
        <time>2019-03-30T10:23:49.000Z</time>
      </trkpt>
      <trkpt lat="50.83784" lon="5.83422">
        <ele>153.3</ele>
      </trkpt>
      <trkpt lat="50.83761" lon="5.83441">
        <ele>153.4</ele>
      </trkpt>
      <trkpt lat="50.83734" lon="5.83462">
        <ele>154.1</ele>
      </trkpt>
      <trkpt lat="50.83718" lon="5.83473">
        <ele>154.3</ele>
      </trkpt>
      <trkpt lat="50.83685" lon="5.835">
        <ele>139.39999389648</ele>
        <time>2019-03-30T10:24:12.000Z</time>
      </trkpt>
      <trkpt lat="50.8368" lon="5.83509">
        <ele>156</ele>
      </trkpt>
      <trkpt lat="50.83657" lon="5.83544">
        <ele>157.7</ele>
      </trkpt>
      <trkpt lat="50.83646" lon="5.83564">
        <ele>158</ele>
      </trkpt>
      <trkpt lat="50.83618" lon="5.83592">
        <ele>158.9</ele>
      </trkpt>
      <trkpt lat="50.83592" lon="5.83605">
        <ele>143</ele>
        <time>2019-03-30T10:24:31.000Z</time>
      </trkpt>
      <trkpt lat="50.83569" lon="5.83607">
        <ele>159.4</ele>
      </trkpt>
      <trkpt lat="50.83538" lon="5.8361">
        <ele>159.5</ele>
      </trkpt>
      <trkpt lat="50.83484" lon="5.83617">
        <ele>145.80000305176</ele>
        <time>2019-03-30T10:24:49.000Z</time>
      </trkpt>
      <trkpt lat="50.8347" lon="5.83618">
        <ele>146</ele>
        <time>2019-03-30T10:24:51.000Z</time>
      </trkpt>
      <trkpt lat="50.83411" lon="5.83623">
        <ele>146.19999694824</ele>
        <time>2019-03-30T10:25:00.000Z</time>
      </trkpt>
      <trkpt lat="50.83376" lon="5.83626">
        <ele>146</ele>
        <time>2019-03-30T10:25:05.000Z</time>
      </trkpt>
      <trkpt lat="50.83329" lon="5.8363">
        <ele>145.60000610352</ele>
        <time>2019-03-30T10:25:12.000Z</time>
      </trkpt>
      <trkpt lat="50.83289" lon="5.83633">
        <ele>158.5</ele>
      </trkpt>
      <trkpt lat="50.83262" lon="5.83645">
        <ele>158.6</ele>
      </trkpt>
      <trkpt lat="50.83245" lon="5.83657">
        <ele>158.5</ele>
      </trkpt>
      <trkpt lat="50.83205" lon="5.83683">
        <ele>157.8</ele>
      </trkpt>
      <trkpt lat="50.83148" lon="5.83717">
        <ele>156.8</ele>
      </trkpt>
      <trkpt lat="50.83128" lon="5.83733">
        <ele>156.8</ele>
      </trkpt>
      <trkpt lat="50.83109" lon="5.83756">
        <ele>157</ele>
      </trkpt>
      <trkpt lat="50.83076" lon="5.83807">
        <ele>157.4</ele>
      </trkpt>
      <trkpt lat="50.83062" lon="5.83833">
        <ele>157.4</ele>
      </trkpt>
      <trkpt lat="50.83032" lon="5.83893">
        <ele>157</ele>
      </trkpt>
      <trkpt lat="50.8302" lon="5.83932">
        <ele>156.4</ele>
      </trkpt>
      <trkpt lat="50.8301" lon="5.84002">
        <ele>156.6</ele>
      </trkpt>
      <trkpt lat="50.82994" lon="5.84083">
        <ele>158.2</ele>
      </trkpt>
      <trkpt lat="50.82983" lon="5.84138">
        <ele>159.1</ele>
      </trkpt>
      <trkpt lat="50.82971" lon="5.84189">
        <ele>158.3</ele>
      </trkpt>
      <trkpt lat="50.82959" lon="5.84226">
        <ele>158</ele>
      </trkpt>
      <trkpt lat="50.82941" lon="5.84283">
        <ele>157.4</ele>
      </trkpt>
      <trkpt lat="50.82933" lon="5.8432">
        <ele>157.9</ele>
      </trkpt>
      <trkpt lat="50.8292" lon="5.8436">
        <ele>157.9</ele>
      </trkpt>
      <trkpt lat="50.82903" lon="5.84407">
        <ele>158.6</ele>
      </trkpt>
      <trkpt lat="50.82872" lon="5.84476">
        <ele>141.39999389648</ele>
        <time>2019-03-30T10:26:49.000Z</time>
      </trkpt>
      <trkpt lat="50.82844" lon="5.84545">
        <ele>160.3</ele>
      </trkpt>
      <trkpt lat="50.82815" lon="5.84617">
        <ele>161.4</ele>
      </trkpt>
      <trkpt lat="50.82797" lon="5.84649">
        <ele>142.80000305176</ele>
        <time>2019-03-30T10:27:06.000Z</time>
      </trkpt>
      <trkpt lat="50.8277" lon="5.84715">
        <ele>162.5</ele>
      </trkpt>
      <trkpt lat="50.82762" lon="5.84747">
        <ele>162.8</ele>
      </trkpt>
      <trkpt lat="50.82749" lon="5.84791">
        <ele>163.2</ele>
      </trkpt>
      <trkpt lat="50.8274" lon="5.84835">
        <ele>163</ele>
      </trkpt>
      <trkpt lat="50.82733" lon="5.84851">
        <ele>163.1</ele>
      </trkpt>
      <trkpt lat="50.82726" lon="5.84861">
        <ele>144.39999389648</ele>
        <time>2019-03-30T10:27:26.000Z</time>
      </trkpt>
      <trkpt lat="50.82717" lon="5.84864">
        <ele>163.2</ele>
      </trkpt>
      <trkpt lat="50.82698" lon="5.84868">
        <ele>163.4</ele>
      </trkpt>
      <trkpt lat="50.82679" lon="5.84871">
        <ele>163.5</ele>
      </trkpt>
      <trkpt lat="50.82665" lon="5.84873">
        <ele>164</ele>
      </trkpt>
      <trkpt lat="50.82651" lon="5.8488">
        <ele>164</ele>
      </trkpt>
      <trkpt lat="50.82627" lon="5.84895">
        <ele>146.60000610352</ele>
        <time>2019-03-30T10:27:41.000Z</time>
      </trkpt>
      <trkpt lat="50.826" lon="5.84913">
        <ele>147.80000305176</ele>
        <time>2019-03-30T10:27:46.000Z</time>
      </trkpt>
      <trkpt lat="50.82584" lon="5.84924">
        <ele>148.80000305176</ele>
        <time>2019-03-30T10:27:49.000Z</time>
      </trkpt>
      <trkpt lat="50.82558" lon="5.84941">
        <ele>150</ele>
        <time>2019-03-30T10:27:54.000Z</time>
      </trkpt>
      <trkpt lat="50.82537" lon="5.84954">
        <ele>151.19999694824</ele>
        <time>2019-03-30T10:27:58.000Z</time>
      </trkpt>
      <trkpt lat="50.82506" lon="5.84976">
        <ele>152.19999694824</ele>
        <time>2019-03-30T10:28:04.000Z</time>
      </trkpt>
      <trkpt lat="50.8249" lon="5.84986">
        <ele>152.80000305176</ele>
        <time>2019-03-30T10:28:07.000Z</time>
      </trkpt>
      <trkpt lat="50.82479" lon="5.84993">
        <ele>153.39999389648</ele>
        <time>2019-03-30T10:28:09.000Z</time>
      </trkpt>
      <trkpt lat="50.82428" lon="5.85029">
        <ele>154.19999694824</ele>
        <time>2019-03-30T10:28:18.000Z</time>
      </trkpt>
      <trkpt lat="50.82378" lon="5.85068">
        <ele>154.19999694824</ele>
        <time>2019-03-30T10:28:26.000Z</time>
      </trkpt>
      <trkpt lat="50.82372" lon="5.85073">
        <ele>154.19999694824</ele>
        <time>2019-03-30T10:28:27.000Z</time>
      </trkpt>
      <trkpt lat="50.82316" lon="5.85116">
        <ele>152.80000305176</ele>
        <time>2019-03-30T10:28:35.000Z</time>
      </trkpt>
      <trkpt lat="50.82294" lon="5.85132">
        <ele>152.39999389648</ele>
        <time>2019-03-30T10:28:38.000Z</time>
      </trkpt>
      <trkpt lat="50.82286" lon="5.85138">
        <ele>152.19999694824</ele>
        <time>2019-03-30T10:28:39.000Z</time>
      </trkpt>
      <trkpt lat="50.82255" lon="5.85161">
        <ele>151.19999694824</ele>
        <time>2019-03-30T10:28:43.000Z</time>
      </trkpt>
      <trkpt lat="50.82231" lon="5.85178">
        <ele>149.80000305176</ele>
        <time>2019-03-30T10:28:46.000Z</time>
      </trkpt>
      <trkpt lat="50.82207" lon="5.85195">
        <ele>148.60000610352</ele>
        <time>2019-03-30T10:28:49.000Z</time>
      </trkpt>
      <trkpt lat="50.82199" lon="5.852">
        <ele>148.39999389648</ele>
        <time>2019-03-30T10:28:50.000Z</time>
      </trkpt>
      <trkpt lat="50.82175" lon="5.85218">
        <ele>147.19999694824</ele>
        <time>2019-03-30T10:28:53.000Z</time>
      </trkpt>
      <trkpt lat="50.82141" lon="5.85249">
        <ele>145.80000305176</ele>
        <time>2019-03-30T10:28:58.000Z</time>
      </trkpt>
      <trkpt lat="50.82095" lon="5.85293">
        <ele>145</ele>
        <time>2019-03-30T10:29:05.000Z</time>
      </trkpt>
      <trkpt lat="50.82089" lon="5.853">
        <ele>145</ele>
        <time>2019-03-30T10:29:06.000Z</time>
      </trkpt>
      <trkpt lat="50.82053" lon="5.85346">
        <ele>146.60000610352</ele>
        <time>2019-03-30T10:29:13.000Z</time>
      </trkpt>
      <trkpt lat="50.82048" lon="5.85353">
        <ele>147</ele>
        <time>2019-03-30T10:29:14.000Z</time>
      </trkpt>
      <trkpt lat="50.82039" lon="5.85366">
        <ele>148</ele>
        <time>2019-03-30T10:29:16.000Z</time>
      </trkpt>
      <trkpt lat="50.82024" lon="5.85386">
        <ele>149.39999389648</ele>
        <time>2019-03-30T10:29:19.000Z</time>
      </trkpt>
      <trkpt lat="50.82006" lon="5.85405">
        <ele>150.39999389648</ele>
        <time>2019-03-30T10:29:22.000Z</time>
      </trkpt>
      <trkpt lat="50.81981" lon="5.8543">
        <ele>151.60000610352</ele>
        <time>2019-03-30T10:29:26.000Z</time>
      </trkpt>
      <trkpt lat="50.81957" lon="5.85455">
        <ele>153</ele>
        <time>2019-03-30T10:29:30.000Z</time>
      </trkpt>
      <trkpt lat="50.81945" lon="5.85469">
        <ele>154</ele>
        <time>2019-03-30T10:29:32.000Z</time>
      </trkpt>
      <trkpt lat="50.81927" lon="5.85489">
        <ele>155</ele>
        <time>2019-03-30T10:29:35.000Z</time>
      </trkpt>
      <trkpt lat="50.81914" lon="5.85503">
        <ele>155.19999694824</ele>
        <time>2019-03-30T10:29:37.000Z</time>
      </trkpt>
      <trkpt lat="50.81876" lon="5.85553">
        <ele>170.7</ele>
      </trkpt>
      <trkpt lat="50.81861" lon="5.85586">
        <ele>171.3</ele>
      </trkpt>
      <trkpt lat="50.81856" lon="5.8561">
        <ele>171.5</ele>
      </trkpt>
      <trkpt lat="50.8185" lon="5.85649">
        <ele>172.3</ele>
      </trkpt>
      <trkpt lat="50.81841" lon="5.85718">
        <ele>173.5</ele>
      </trkpt>
      <trkpt lat="50.81834" lon="5.8576">
        <ele>174.9</ele>
      </trkpt>
      <trkpt lat="50.81827" lon="5.85804">
        <ele>177</ele>
      </trkpt>
      <trkpt lat="50.81822" lon="5.85824">
        <ele>157.19999694824</ele>
        <time>2019-03-30T10:30:13.000Z</time>
      </trkpt>
      <trkpt lat="50.8182" lon="5.85831">
        <ele>157.19999694824</ele>
        <time>2019-03-30T10:30:14.000Z</time>
      </trkpt>
      <trkpt lat="50.81816" lon="5.85843">
        <ele>157.39999389648</ele>
        <time>2019-03-30T10:30:16.000Z</time>
      </trkpt>
      <trkpt lat="50.81815" lon="5.85864">
        <ele>158.19999694824</ele>
        <time>2019-03-30T10:30:20.000Z</time>
      </trkpt>
      <trkpt lat="50.81816" lon="5.85872">
        <ele>158.39999389648</ele>
        <time>2019-03-30T10:30:22.000Z</time>
      </trkpt>
      <trkpt lat="50.81818" lon="5.85892">
        <ele>159.19999694824</ele>
        <time>2019-03-30T10:30:27.000Z</time>
      </trkpt>
      <trkpt lat="50.8182" lon="5.85901">
        <ele>159.19999694824</ele>
        <time>2019-03-30T10:30:29.000Z</time>
      </trkpt>
      <trkpt lat="50.81825" lon="5.85921">
        <ele>159.19999694824</ele>
        <time>2019-03-30T10:30:33.000Z</time>
      </trkpt>
      <trkpt lat="50.81828" lon="5.85934">
        <ele>159.19999694824</ele>
        <time>2019-03-30T10:30:35.000Z</time>
      </trkpt>
      <trkpt lat="50.81832" lon="5.85946">
        <ele>159</ele>
        <time>2019-03-30T10:30:37.000Z</time>
      </trkpt>
      <trkpt lat="50.81835" lon="5.85965">
        <ele>158.60000610352</ele>
        <time>2019-03-30T10:30:40.000Z</time>
      </trkpt>
      <trkpt lat="50.81836" lon="5.85971">
        <ele>158.60000610352</ele>
        <time>2019-03-30T10:30:41.000Z</time>
      </trkpt>
      <trkpt lat="50.81835" lon="5.85997">
        <ele>157.80000305176</ele>
        <time>2019-03-30T10:30:47.000Z</time>
      </trkpt>
      <trkpt lat="50.81833" lon="5.86011">
        <ele>157.39999389648</ele>
        <time>2019-03-30T10:30:51.000Z</time>
      </trkpt>
      <trkpt lat="50.81832" lon="5.86025">
        <ele>156.60000610352</ele>
        <time>2019-03-30T10:30:54.000Z</time>
      </trkpt>
      <trkpt lat="50.81831" lon="5.86034">
        <ele>156.39999389648</ele>
        <time>2019-03-30T10:30:56.000Z</time>
      </trkpt>
      <trkpt lat="50.8183" lon="5.86038">
        <ele>156.19999694824</ele>
        <time>2019-03-30T10:30:57.000Z</time>
      </trkpt>
      <trkpt lat="50.81828" lon="5.86057">
        <ele>155.80000305176</ele>
        <time>2019-03-30T10:31:01.000Z</time>
      </trkpt>
      <trkpt lat="50.81826" lon="5.86069">
        <ele>155.60000610352</ele>
        <time>2019-03-30T10:31:03.000Z</time>
      </trkpt>
      <trkpt lat="50.81825" lon="5.86082">
        <ele>155.19999694824</ele>
        <time>2019-03-30T10:31:06.000Z</time>
      </trkpt>
      <trkpt lat="50.81824" lon="5.86093">
        <ele>154.80000305176</ele>
        <time>2019-03-30T10:31:09.000Z</time>
      </trkpt>
      <trkpt lat="50.81825" lon="5.86112">
        <ele>154.19999694824</ele>
        <time>2019-03-30T10:31:15.000Z</time>
      </trkpt>
      <trkpt lat="50.81826" lon="5.86116">
        <ele>154</ele>
        <time>2019-03-30T10:31:17.000Z</time>
      </trkpt>
      <trkpt lat="50.81826" lon="5.86118">
        <ele>154</ele>
        <time>2019-03-30T10:31:18.000Z</time>
      </trkpt>
      <trkpt lat="50.81827" lon="5.86106">
        <ele>153.60000610352</ele>
        <time>2019-03-30T10:31:51.000Z</time>
      </trkpt>
      <trkpt lat="50.81827" lon="5.86103">
        <ele>153.60000610352</ele>
        <time>2019-03-30T10:31:52.000Z</time>
      </trkpt>
      <trkpt lat="50.81828" lon="5.86099">
        <ele>153.60000610352</ele>
        <time>2019-03-30T10:31:53.000Z</time>
      </trkpt>
      <trkpt lat="50.81837" lon="5.86074">
        <ele>153.80000305176</ele>
        <time>2019-03-30T10:31:58.000Z</time>
      </trkpt>
      <trkpt lat="50.81849" lon="5.86033">
        <ele>154.39999389648</ele>
        <time>2019-03-30T10:32:05.000Z</time>
      </trkpt>
      <trkpt lat="50.81852" lon="5.86004">
        <ele>155.19999694824</ele>
        <time>2019-03-30T10:32:09.000Z</time>
      </trkpt>
      <trkpt lat="50.81847" lon="5.85968">
        <ele>156</ele>
        <time>2019-03-30T10:32:13.000Z</time>
      </trkpt>
      <trkpt lat="50.81845" lon="5.8596">
        <ele>156.19999694824</ele>
        <time>2019-03-30T10:32:14.000Z</time>
      </trkpt>
      <trkpt lat="50.81839" lon="5.85934">
        <ele>156.60000610352</ele>
        <time>2019-03-30T10:32:17.000Z</time>
      </trkpt>
      <trkpt lat="50.81834" lon="5.85911">
        <ele>157.39999389648</ele>
        <time>2019-03-30T10:32:20.000Z</time>
      </trkpt>
      <trkpt lat="50.81823" lon="5.8586">
        <ele>158.39999389648</ele>
        <time>2019-03-30T10:32:27.000Z</time>
      </trkpt>
      <trkpt lat="50.81821" lon="5.85854">
        <ele>158.60000610352</ele>
        <time>2019-03-30T10:32:28.000Z</time>
      </trkpt>
      <trkpt lat="50.81814" lon="5.85831">
        <ele>159</ele>
        <time>2019-03-30T10:32:33.000Z</time>
      </trkpt>
      <trkpt lat="50.81796" lon="5.85823">
        <ele>177.3</ele>
      </trkpt>
      <trkpt lat="50.81753" lon="5.8581">
        <ele>177.7</ele>
      </trkpt>
      <trkpt lat="50.81737" lon="5.85808">
        <ele>178.7</ele>
      </trkpt>
      <trkpt lat="50.81719" lon="5.85798">
        <ele>178.9</ele>
      </trkpt>
      <trkpt lat="50.81679" lon="5.85775">
        <ele>162.39999389648</ele>
        <time>2019-03-30T10:33:03.000Z</time>
      </trkpt>
      <trkpt lat="50.81642" lon="5.85756">
        <ele>162.80000305176</ele>
        <time>2019-03-30T10:33:09.000Z</time>
      </trkpt>
      <trkpt lat="50.81624" lon="5.85745">
        <ele>163</ele>
        <time>2019-03-30T10:33:12.000Z</time>
      </trkpt>
      <trkpt lat="50.8157" lon="5.85715">
        <ele>163.39999389648</ele>
        <time>2019-03-30T10:33:21.000Z</time>
      </trkpt>
      <trkpt lat="50.81553" lon="5.85707">
        <ele>163.60000610352</ele>
        <time>2019-03-30T10:33:24.000Z</time>
      </trkpt>
      <trkpt lat="50.81526" lon="5.85693">
        <ele>179</ele>
      </trkpt>
      <trkpt lat="50.815" lon="5.85683">
        <ele>163.80000305176</ele>
        <time>2019-03-30T10:33:33.000Z</time>
      </trkpt>
      <trkpt lat="50.81488" lon="5.85678">
        <ele>163.80000305176</ele>
        <time>2019-03-30T10:33:35.000Z</time>
      </trkpt>
      <trkpt lat="50.8145" lon="5.85666">
        <ele>163.80000305176</ele>
        <time>2019-03-30T10:33:41.000Z</time>
      </trkpt>
      <trkpt lat="50.81424" lon="5.85657">
        <ele>163.39999389648</ele>
        <time>2019-03-30T10:33:45.000Z</time>
      </trkpt>
      <trkpt lat="50.8141" lon="5.85659">
        <ele>178.1</ele>
      </trkpt>
      <trkpt lat="50.81393" lon="5.85665">
        <ele>177.3</ele>
      </trkpt>
      <trkpt lat="50.81381" lon="5.85668">
        <ele>176.7</ele>
      </trkpt>
      <trkpt lat="50.81369" lon="5.85666">
        <ele>162.19999694824</ele>
        <time>2019-03-30T10:33:59.000Z</time>
      </trkpt>
      <trkpt lat="50.81369" lon="5.85666">
        <ele>162.60000610352</ele>
        <time>2019-03-30T10:34:04.000Z</time>
      </trkpt>
      <trkpt lat="50.81364" lon="5.85672">
        <ele>162.60000610352</ele>
        <time>2019-03-30T10:34:31.000Z</time>
      </trkpt>
      <trkpt lat="50.81362" lon="5.85679">
        <ele>176</ele>
      </trkpt>
      <trkpt lat="50.81352" lon="5.85722">
        <ele>162.39999389648</ele>
        <time>2019-03-30T10:34:37.000Z</time>
      </trkpt>
      <trkpt lat="50.81341" lon="5.85799">
        <ele>162</ele>
        <time>2019-03-30T10:34:44.000Z</time>
      </trkpt>
      <trkpt lat="50.81331" lon="5.85879">
        <ele>161.80000305176</ele>
        <time>2019-03-30T10:34:51.000Z</time>
      </trkpt>
      <trkpt lat="50.81321" lon="5.85951">
        <ele>161.80000305176</ele>
        <time>2019-03-30T10:34:57.000Z</time>
      </trkpt>
      <trkpt lat="50.81316" lon="5.85989">
        <ele>161.80000305176</ele>
        <time>2019-03-30T10:35:00.000Z</time>
      </trkpt>
      <trkpt lat="50.81304" lon="5.86073">
        <ele>161.60000610352</ele>
        <time>2019-03-30T10:35:07.000Z</time>
      </trkpt>
      <trkpt lat="50.813" lon="5.86098">
        <ele>161.60000610352</ele>
        <time>2019-03-30T10:35:09.000Z</time>
      </trkpt>
      <trkpt lat="50.81288" lon="5.86184">
        <ele>161.39999389648</ele>
        <time>2019-03-30T10:35:16.000Z</time>
      </trkpt>
      <trkpt lat="50.81283" lon="5.86221">
        <ele>161</ele>
        <time>2019-03-30T10:35:19.000Z</time>
      </trkpt>
      <trkpt lat="50.81278" lon="5.86253">
        <ele>175.1</ele>
      </trkpt>
      <trkpt lat="50.81269" lon="5.86318">
        <ele>174.6</ele>
      </trkpt>
      <trkpt lat="50.81261" lon="5.86382">
        <ele>173.2</ele>
      </trkpt>
      <trkpt lat="50.81253" lon="5.86427">
        <ele>172.4</ele>
      </trkpt>
      <trkpt lat="50.81242" lon="5.86479">
        <ele>169.8</ele>
      </trkpt>
      <trkpt lat="50.81228" lon="5.8654">
        <ele>167.3</ele>
      </trkpt>
      <trkpt lat="50.81219" lon="5.86565">
        <ele>166.9</ele>
      </trkpt>
      <trkpt lat="50.81207" lon="5.86608">
        <ele>164.4</ele>
      </trkpt>
      <trkpt lat="50.81192" lon="5.86648">
        <ele>162.7</ele>
      </trkpt>
      <trkpt lat="50.81176" lon="5.86686">
        <ele>151</ele>
        <time>2019-03-30T10:35:51.000Z</time>
      </trkpt>
      <trkpt lat="50.8117" lon="5.86702">
        <ele>150.60000610352</ele>
        <time>2019-03-30T10:35:52.000Z</time>
      </trkpt>
      <trkpt lat="50.81158" lon="5.86734">
        <ele>149.60000610352</ele>
        <time>2019-03-30T10:35:54.000Z</time>
      </trkpt>
      <trkpt lat="50.81139" lon="5.8678">
        <ele>148.19999694824</ele>
        <time>2019-03-30T10:35:57.000Z</time>
      </trkpt>
      <trkpt lat="50.81127" lon="5.8681">
        <ele>147</ele>
        <time>2019-03-30T10:35:59.000Z</time>
      </trkpt>
      <trkpt lat="50.81114" lon="5.8684">
        <ele>146</ele>
        <time>2019-03-30T10:36:01.000Z</time>
      </trkpt>
      <trkpt lat="50.81102" lon="5.86871">
        <ele>145</ele>
        <time>2019-03-30T10:36:03.000Z</time>
      </trkpt>
      <trkpt lat="50.81095" lon="5.86886">
        <ele>144.60000610352</ele>
        <time>2019-03-30T10:36:04.000Z</time>
      </trkpt>
      <trkpt lat="50.81078" lon="5.86935">
        <ele>148.9</ele>
      </trkpt>
      <trkpt lat="50.81068" lon="5.86968">
        <ele>148</ele>
      </trkpt>
      <trkpt lat="50.8106" lon="5.87002">
        <ele>148.3</ele>
      </trkpt>
      <trkpt lat="50.81049" lon="5.87062">
        <ele>147.6</ele>
      </trkpt>
      <trkpt lat="50.81041" lon="5.87107">
        <ele>147.9</ele>
      </trkpt>
      <trkpt lat="50.81038" lon="5.87138">
        <ele>147.9</ele>
      </trkpt>
      <trkpt lat="50.81033" lon="5.87189">
        <ele>147.3</ele>
      </trkpt>
      <trkpt lat="50.81031" lon="5.87235">
        <ele>146.6</ele>
      </trkpt>
      <trkpt lat="50.81028" lon="5.87286">
        <ele>145.1</ele>
      </trkpt>
      <trkpt lat="50.81028" lon="5.87333">
        <ele>144.2</ele>
      </trkpt>
      <trkpt lat="50.81028" lon="5.87369">
        <ele>143.6</ele>
      </trkpt>
      <trkpt lat="50.8103" lon="5.87419">
        <ele>140.8</ele>
      </trkpt>
      <trkpt lat="50.81034" lon="5.87473">
        <ele>139.9</ele>
      </trkpt>
      <trkpt lat="50.81038" lon="5.87526">
        <ele>135.3</ele>
      </trkpt>
      <trkpt lat="50.81046" lon="5.87565">
        <ele>134.5</ele>
      </trkpt>
      <trkpt lat="50.81054" lon="5.87599">
        <ele>131.5</ele>
      </trkpt>
      <trkpt lat="50.81041" lon="5.87606">
        <ele>130.6</ele>
      </trkpt>
      <trkpt lat="50.81028" lon="5.87605">
        <ele>122.19999694824</ele>
        <time>2019-03-30T10:36:53.000Z</time>
      </trkpt>
      <trkpt lat="50.81011" lon="5.8758">
        <ele>130.5</ele>
      </trkpt>
      <trkpt lat="50.81" lon="5.87557">
        <ele>132.3</ele>
      </trkpt>
      <trkpt lat="50.80992" lon="5.8754">
        <ele>128</ele>
      </trkpt>
      <trkpt lat="50.80983" lon="5.87526">
        <ele>128.1</ele>
      </trkpt>
      <trkpt lat="50.80967" lon="5.8751">
        <ele>118.80000305176</ele>
        <time>2019-03-30T10:37:03.000Z</time>
      </trkpt>
      <trkpt lat="50.8095" lon="5.8749">
        <ele>117.80000305176</ele>
        <time>2019-03-30T10:37:05.000Z</time>
      </trkpt>
      <trkpt lat="50.80939" lon="5.87481">
        <ele>127.6</ele>
      </trkpt>
      <trkpt lat="50.80912" lon="5.87456">
        <ele>123.7</ele>
      </trkpt>
      <trkpt lat="50.80891" lon="5.87438">
        <ele>123.9</ele>
      </trkpt>
      <trkpt lat="50.8086" lon="5.8741">
        <ele>126.5</ele>
      </trkpt>
      <trkpt lat="50.80823" lon="5.87377">
        <ele>127.6</ele>
      </trkpt>
      <trkpt lat="50.80793" lon="5.87349">
        <ele>128</ele>
      </trkpt>
      <trkpt lat="50.80768" lon="5.87332">
        <ele>130.1</ele>
      </trkpt>
      <trkpt lat="50.80737" lon="5.87311">
        <ele>126.2</ele>
      </trkpt>
      <trkpt lat="50.80711" lon="5.87285">
        <ele>125</ele>
      </trkpt>
      <trkpt lat="50.80687" lon="5.87245">
        <ele>111.40000152588</ele>
        <time>2019-03-30T10:37:36.000Z</time>
      </trkpt>
      <trkpt lat="50.80679" lon="5.87235">
        <ele>122.8</ele>
      </trkpt>
      <trkpt lat="50.80685" lon="5.87215">
        <ele>123.8</ele>
      </trkpt>
      <trkpt lat="50.80688" lon="5.87197">
        <ele>123.7</ele>
      </trkpt>
      <trkpt lat="50.8069" lon="5.87156">
        <ele>121.8</ele>
      </trkpt>
      <trkpt lat="50.80691" lon="5.87121">
        <ele>121.3</ele>
      </trkpt>
      <trkpt lat="50.80692" lon="5.87089">
        <ele>119.9</ele>
      </trkpt>
      <trkpt lat="50.80692" lon="5.87049">
        <ele>118.1</ele>
      </trkpt>
      <trkpt lat="50.80694" lon="5.8701">
        <ele>117.5</ele>
      </trkpt>
      <trkpt lat="50.80704" lon="5.86955">
        <ele>117.7</ele>
      </trkpt>
      <trkpt lat="50.8072" lon="5.86904">
        <ele>118.2</ele>
      </trkpt>
      <trkpt lat="50.80746" lon="5.86821">
        <ele>102</ele>
        <time>2019-03-30T10:38:14.000Z</time>
      </trkpt>
      <trkpt lat="50.80753" lon="5.86802">
        <ele>102</ele>
        <time>2019-03-30T10:38:16.000Z</time>
      </trkpt>
      <trkpt lat="50.80771" lon="5.86749">
        <ele>120.5</ele>
      </trkpt>
      <trkpt lat="50.80783" lon="5.86715">
        <ele>121.8</ele>
      </trkpt>
      <trkpt lat="50.80795" lon="5.8668">
        <ele>103.59999847412</ele>
        <time>2019-03-30T10:38:30.000Z</time>
      </trkpt>
      <trkpt lat="50.80806" lon="5.86641">
        <ele>125.7</ele>
      </trkpt>
      <trkpt lat="50.80814" lon="5.86606">
        <ele>127.7</ele>
      </trkpt>
      <trkpt lat="50.80815" lon="5.86573">
        <ele>130.9</ele>
      </trkpt>
      <trkpt lat="50.80816" lon="5.86535">
        <ele>130.9</ele>
      </trkpt>
      <trkpt lat="50.80816" lon="5.865">
        <ele>133.3</ele>
      </trkpt>
      <trkpt lat="50.80818" lon="5.86437">
        <ele>133.1</ele>
      </trkpt>
      <trkpt lat="50.80818" lon="5.86377">
        <ele>134</ele>
      </trkpt>
      <trkpt lat="50.80808" lon="5.86314">
        <ele>112.80000305176</ele>
        <time>2019-03-30T10:39:15.000Z</time>
      </trkpt>
      <trkpt lat="50.80797" lon="5.86232">
        <ele>138.2</ele>
      </trkpt>
      <trkpt lat="50.80793" lon="5.86194">
        <ele>138.2</ele>
      </trkpt>
      <trkpt lat="50.80787" lon="5.86133">
        <ele>139.3</ele>
      </trkpt>
      <trkpt lat="50.80778" lon="5.8608">
        <ele>138.7</ele>
      </trkpt>
      <trkpt lat="50.80772" lon="5.86055">
        <ele>138.9</ele>
      </trkpt>
      <trkpt lat="50.80753" lon="5.85975">
        <ele>137.7</ele>
      </trkpt>
      <trkpt lat="50.80739" lon="5.85924">
        <ele>133</ele>
      </trkpt>
      <trkpt lat="50.8072" lon="5.85849">
        <ele>134.1</ele>
      </trkpt>
      <trkpt lat="50.80706" lon="5.85811">
        <ele>116.40000152588</ele>
        <time>2019-03-30T10:40:07.000Z</time>
      </trkpt>
      <trkpt lat="50.80678" lon="5.85741">
        <ele>117.80000305176</ele>
        <time>2019-03-30T10:40:15.000Z</time>
      </trkpt>
      <trkpt lat="50.80661" lon="5.857">
        <ele>118.59999847412</ele>
        <time>2019-03-30T10:40:20.000Z</time>
      </trkpt>
      <trkpt lat="50.80653" lon="5.85679">
        <ele>119.19999694824</ele>
        <time>2019-03-30T10:40:23.000Z</time>
      </trkpt>
      <trkpt lat="50.80647" lon="5.8566">
        <ele>119.80000305176</ele>
        <time>2019-03-30T10:40:27.000Z</time>
      </trkpt>
      <trkpt lat="50.8064" lon="5.85647">
        <ele>120</ele>
        <time>2019-03-30T10:40:29.000Z</time>
      </trkpt>
      <trkpt lat="50.80611" lon="5.85572">
        <ele>142.6</ele>
      </trkpt>
      <trkpt lat="50.80581" lon="5.85494">
        <ele>144</ele>
      </trkpt>
      <trkpt lat="50.80566" lon="5.85461">
        <ele>146.6</ele>
      </trkpt>
      <trkpt lat="50.80556" lon="5.85434">
        <ele>147</ele>
      </trkpt>
      <trkpt lat="50.80541" lon="5.85397">
        <ele>147.8</ele>
      </trkpt>
      <trkpt lat="50.80527" lon="5.85362">
        <ele>147.8</ele>
      </trkpt>
      <trkpt lat="50.80522" lon="5.85346">
        <ele>147.5</ele>
      </trkpt>
      <trkpt lat="50.80514" lon="5.85313">
        <ele>149</ele>
      </trkpt>
      <trkpt lat="50.80495" lon="5.85271">
        <ele>128.60000610352</ele>
        <time>2019-03-30T10:41:15.000Z</time>
      </trkpt>
      <trkpt lat="50.8048" lon="5.85236">
        <ele>129.60000610352</ele>
        <time>2019-03-30T10:41:20.000Z</time>
      </trkpt>
      <trkpt lat="50.80473" lon="5.85221">
        <ele>130</ele>
        <time>2019-03-30T10:41:22.000Z</time>
      </trkpt>
      <trkpt lat="50.80457" lon="5.85188">
        <ele>130.60000610352</ele>
        <time>2019-03-30T10:41:27.000Z</time>
      </trkpt>
      <trkpt lat="50.80439" lon="5.85156">
        <ele>131.19999694824</ele>
        <time>2019-03-30T10:41:32.000Z</time>
      </trkpt>
      <trkpt lat="50.80422" lon="5.85125">
        <ele>131.80000305176</ele>
        <time>2019-03-30T10:41:37.000Z</time>
      </trkpt>
      <trkpt lat="50.80408" lon="5.85094">
        <ele>132.60000610352</ele>
        <time>2019-03-30T10:41:42.000Z</time>
      </trkpt>
      <trkpt lat="50.80406" lon="5.85088">
        <ele>132.80000305176</ele>
        <time>2019-03-30T10:41:43.000Z</time>
      </trkpt>
      <trkpt lat="50.80391" lon="5.85057">
        <ele>134</ele>
        <time>2019-03-30T10:41:48.000Z</time>
      </trkpt>
      <trkpt lat="50.8038" lon="5.85031">
        <ele>134.80000305176</ele>
        <time>2019-03-30T10:41:52.000Z</time>
      </trkpt>
      <trkpt lat="50.80379" lon="5.85025">
        <ele>135</ele>
        <time>2019-03-30T10:41:53.000Z</time>
      </trkpt>
      <trkpt lat="50.80361" lon="5.84984">
        <ele>159</ele>
      </trkpt>
      <trkpt lat="50.80343" lon="5.84943">
        <ele>137.19999694824</ele>
        <time>2019-03-30T10:42:06.000Z</time>
      </trkpt>
      <trkpt lat="50.80336" lon="5.84919">
        <ele>137.60000610352</ele>
        <time>2019-03-30T10:42:09.000Z</time>
      </trkpt>
      <trkpt lat="50.80321" lon="5.84858">
        <ele>138</ele>
        <time>2019-03-30T10:42:16.000Z</time>
      </trkpt>
      <trkpt lat="50.80303" lon="5.84765">
        <ele>139.39999389648</ele>
        <time>2019-03-30T10:42:27.000Z</time>
      </trkpt>
      <trkpt lat="50.80302" lon="5.84757">
        <ele>139.39999389648</ele>
        <time>2019-03-30T10:42:28.000Z</time>
      </trkpt>
      <trkpt lat="50.80298" lon="5.84698">
        <ele>140.39999389648</ele>
        <time>2019-03-30T10:42:35.000Z</time>
      </trkpt>
      <trkpt lat="50.80298" lon="5.8469">
        <ele>140.60000610352</ele>
        <time>2019-03-30T10:42:36.000Z</time>
      </trkpt>
      <trkpt lat="50.80302" lon="5.84625">
        <ele>141.39999389648</ele>
        <time>2019-03-30T10:42:44.000Z</time>
      </trkpt>
      <trkpt lat="50.80302" lon="5.84616">
        <ele>141.60000610352</ele>
        <time>2019-03-30T10:42:45.000Z</time>
      </trkpt>
      <trkpt lat="50.80305" lon="5.84554">
        <ele>142.80000305176</ele>
        <time>2019-03-30T10:42:53.000Z</time>
      </trkpt>
      <trkpt lat="50.80301" lon="5.84495">
        <ele>163.4</ele>
      </trkpt>
      <trkpt lat="50.80295" lon="5.84456">
        <ele>163.8</ele>
      </trkpt>
      <trkpt lat="50.80284" lon="5.84409">
        <ele>146.19999694824</ele>
        <time>2019-03-30T10:43:10.000Z</time>
      </trkpt>
      <trkpt lat="50.80266" lon="5.84331">
        <ele>147.39999389648</ele>
        <time>2019-03-30T10:43:18.000Z</time>
      </trkpt>
      <trkpt lat="50.80255" lon="5.84279">
        <ele>166.3</ele>
      </trkpt>
      <trkpt lat="50.80229" lon="5.84219">
        <ele>166.5</ele>
      </trkpt>
      <trkpt lat="50.8022" lon="5.84203">
        <ele>148.39999389648</ele>
        <time>2019-03-30T10:43:33.000Z</time>
      </trkpt>
      <trkpt lat="50.80202" lon="5.84152">
        <ele>149.19999694824</ele>
        <time>2019-03-30T10:43:39.000Z</time>
      </trkpt>
      <trkpt lat="50.80199" lon="5.84143">
        <ele>149.39999389648</ele>
        <time>2019-03-30T10:43:40.000Z</time>
      </trkpt>
      <trkpt lat="50.8019" lon="5.84117">
        <ele>150.39999389648</ele>
        <time>2019-03-30T10:43:43.000Z</time>
      </trkpt>
      <trkpt lat="50.80167" lon="5.84051">
        <ele>151</ele>
        <time>2019-03-30T10:43:51.000Z</time>
      </trkpt>
      <trkpt lat="50.80154" lon="5.8402">
        <ele>151.39999389648</ele>
        <time>2019-03-30T10:43:55.000Z</time>
      </trkpt>
      <trkpt lat="50.80129" lon="5.83965">
        <ele>152.19999694824</ele>
        <time>2019-03-30T10:44:02.000Z</time>
      </trkpt>
      <trkpt lat="50.80126" lon="5.83957">
        <ele>152.60000610352</ele>
        <time>2019-03-30T10:44:03.000Z</time>
      </trkpt>
      <trkpt lat="50.80108" lon="5.83917">
        <ele>153.80000305176</ele>
        <time>2019-03-30T10:44:08.000Z</time>
      </trkpt>
      <trkpt lat="50.80096" lon="5.83894">
        <ele>154.19999694824</ele>
        <time>2019-03-30T10:44:11.000Z</time>
      </trkpt>
      <trkpt lat="50.80057" lon="5.83824">
        <ele>173.7</ele>
      </trkpt>
      <trkpt lat="50.8005" lon="5.83812">
        <ele>173.8</ele>
      </trkpt>
      <trkpt lat="50.80016" lon="5.83769">
        <ele>155.80000305176</ele>
        <time>2019-03-30T10:44:29.000Z</time>
      </trkpt>
      <trkpt lat="50.80001" lon="5.83755">
        <ele>174</ele>
      </trkpt>
      <trkpt lat="50.79983" lon="5.83746">
        <ele>174.6</ele>
      </trkpt>
      <trkpt lat="50.79946" lon="5.83741">
        <ele>175.1</ele>
      </trkpt>
      <trkpt lat="50.7993" lon="5.83739">
        <ele>175.1</ele>
      </trkpt>
      <trkpt lat="50.79889" lon="5.83738">
        <ele>175.7</ele>
      </trkpt>
      <trkpt lat="50.79877" lon="5.83733">
        <ele>158.19999694824</ele>
        <time>2019-03-30T10:44:52.000Z</time>
      </trkpt>
      <trkpt lat="50.7982" lon="5.83733">
        <ele>158.19999694824</ele>
        <time>2019-03-30T10:45:01.000Z</time>
      </trkpt>
      <trkpt lat="50.79814" lon="5.83733">
        <ele>158.19999694824</ele>
        <time>2019-03-30T10:45:02.000Z</time>
      </trkpt>
      <trkpt lat="50.79787" lon="5.83728">
        <ele>158.39999389648</ele>
        <time>2019-03-30T10:45:06.000Z</time>
      </trkpt>
      <trkpt lat="50.79775" lon="5.8372">
        <ele>158.39999389648</ele>
        <time>2019-03-30T10:45:08.000Z</time>
      </trkpt>
      <trkpt lat="50.79756" lon="5.83703">
        <ele>158.39999389648</ele>
        <time>2019-03-30T10:45:11.000Z</time>
      </trkpt>
      <trkpt lat="50.79739" lon="5.83686">
        <ele>158.80000305176</ele>
        <time>2019-03-30T10:45:14.000Z</time>
      </trkpt>
      <trkpt lat="50.79712" lon="5.83652">
        <ele>159.19999694824</ele>
        <time>2019-03-30T10:45:19.000Z</time>
      </trkpt>
      <trkpt lat="50.79692" lon="5.83626">
        <ele>159.60000610352</ele>
        <time>2019-03-30T10:45:23.000Z</time>
      </trkpt>
      <trkpt lat="50.79675" lon="5.83599">
        <ele>160</ele>
        <time>2019-03-30T10:45:27.000Z</time>
      </trkpt>
      <trkpt lat="50.79668" lon="5.83584">
        <ele>160.19999694824</ele>
        <time>2019-03-30T10:45:29.000Z</time>
      </trkpt>
      <trkpt lat="50.79654" lon="5.83539">
        <ele>161.19999694824</ele>
        <time>2019-03-30T10:45:34.000Z</time>
      </trkpt>
      <trkpt lat="50.79651" lon="5.83529">
        <ele>161.60000610352</ele>
        <time>2019-03-30T10:45:35.000Z</time>
      </trkpt>
      <trkpt lat="50.79627" lon="5.83443">
        <ele>162</ele>
        <time>2019-03-30T10:45:44.000Z</time>
      </trkpt>
      <trkpt lat="50.7961" lon="5.83414">
        <ele>162.39999389648</ele>
        <time>2019-03-30T10:45:48.000Z</time>
      </trkpt>
      <trkpt lat="50.79601" lon="5.83402">
        <ele>162.39999389648</ele>
        <time>2019-03-30T10:45:50.000Z</time>
      </trkpt>
      <trkpt lat="50.79567" lon="5.83375">
        <ele>163.39999389648</ele>
        <time>2019-03-30T10:45:56.000Z</time>
      </trkpt>
      <trkpt lat="50.79561" lon="5.83371">
        <ele>163.60000610352</ele>
        <time>2019-03-30T10:45:57.000Z</time>
      </trkpt>
      <trkpt lat="50.79536" lon="5.83343">
        <ele>163.80000305176</ele>
        <time>2019-03-30T10:46:02.000Z</time>
      </trkpt>
      <trkpt lat="50.79532" lon="5.83336">
        <ele>164</ele>
        <time>2019-03-30T10:46:03.000Z</time>
      </trkpt>
      <trkpt lat="50.79524" lon="5.83313">
        <ele>164.19999694824</ele>
        <time>2019-03-30T10:46:06.000Z</time>
      </trkpt>
      <trkpt lat="50.79522" lon="5.83299">
        <ele>164.19999694824</ele>
        <time>2019-03-30T10:46:08.000Z</time>
      </trkpt>
      <trkpt lat="50.79519" lon="5.8328">
        <ele>164.39999389648</ele>
        <time>2019-03-30T10:46:11.000Z</time>
      </trkpt>
      <trkpt lat="50.79518" lon="5.83275">
        <ele>164.60000610352</ele>
        <time>2019-03-30T10:46:12.000Z</time>
      </trkpt>
      <trkpt lat="50.79521" lon="5.83263">
        <ele>165.60000610352</ele>
        <time>2019-03-30T10:46:16.000Z</time>
      </trkpt>
      <trkpt lat="50.79521" lon="5.83259">
        <ele>165.80000305176</ele>
        <time>2019-03-30T10:46:17.000Z</time>
      </trkpt>
      <trkpt lat="50.79519" lon="5.83239">
        <ele>167</ele>
        <time>2019-03-30T10:46:21.000Z</time>
      </trkpt>
      <trkpt lat="50.79516" lon="5.83225">
        <ele>167.19999694824</ele>
        <time>2019-03-30T10:46:23.000Z</time>
      </trkpt>
      <trkpt lat="50.79511" lon="5.83211">
        <ele>167.19999694824</ele>
        <time>2019-03-30T10:46:25.000Z</time>
      </trkpt>
      <trkpt lat="50.79498" lon="5.83181">
        <ele>167.39999389648</ele>
        <time>2019-03-30T10:46:29.000Z</time>
      </trkpt>
      <trkpt lat="50.79476" lon="5.83125">
        <ele>167.80000305176</ele>
        <time>2019-03-30T10:46:36.000Z</time>
      </trkpt>
      <trkpt lat="50.79474" lon="5.83107">
        <ele>168</ele>
        <time>2019-03-30T10:46:38.000Z</time>
      </trkpt>
      <trkpt lat="50.79471" lon="5.83059">
        <ele>168.60000610352</ele>
        <time>2019-03-30T10:46:43.000Z</time>
      </trkpt>
      <trkpt lat="50.79473" lon="5.83029">
        <ele>169</ele>
        <time>2019-03-30T10:46:46.000Z</time>
      </trkpt>
      <trkpt lat="50.79478" lon="5.82999">
        <ele>169.39999389648</ele>
        <time>2019-03-30T10:46:49.000Z</time>
      </trkpt>
      <trkpt lat="50.79498" lon="5.82931">
        <ele>169.60000610352</ele>
        <time>2019-03-30T10:46:56.000Z</time>
      </trkpt>
      <trkpt lat="50.79509" lon="5.82893">
        <ele>170.19999694824</ele>
        <time>2019-03-30T10:47:00.000Z</time>
      </trkpt>
      <trkpt lat="50.79522" lon="5.82843">
        <ele>170.39999389648</ele>
        <time>2019-03-30T10:47:05.000Z</time>
      </trkpt>
      <trkpt lat="50.79542" lon="5.82763">
        <ele>171.39999389648</ele>
        <time>2019-03-30T10:47:13.000Z</time>
      </trkpt>
      <trkpt lat="50.79552" lon="5.82722">
        <ele>171.80000305176</ele>
        <time>2019-03-30T10:47:17.000Z</time>
      </trkpt>
      <trkpt lat="50.79561" lon="5.8268">
        <ele>172.39999389648</ele>
        <time>2019-03-30T10:47:21.000Z</time>
      </trkpt>
      <trkpt lat="50.7957" lon="5.82626">
        <ele>172.60000610352</ele>
        <time>2019-03-30T10:47:26.000Z</time>
      </trkpt>
      <trkpt lat="50.79577" lon="5.82536">
        <ele>172.39999389648</ele>
        <time>2019-03-30T10:47:34.000Z</time>
      </trkpt>
      <trkpt lat="50.79578" lon="5.82525">
        <ele>172.19999694824</ele>
        <time>2019-03-30T10:47:35.000Z</time>
      </trkpt>
      <trkpt lat="50.79577" lon="5.82434">
        <ele>171.39999389648</ele>
        <time>2019-03-30T10:47:43.000Z</time>
      </trkpt>
      <trkpt lat="50.79576" lon="5.82423">
        <ele>171.39999389648</ele>
        <time>2019-03-30T10:47:44.000Z</time>
      </trkpt>
      <trkpt lat="50.79569" lon="5.82328">
        <ele>171.60000610352</ele>
        <time>2019-03-30T10:47:53.000Z</time>
      </trkpt>
      <trkpt lat="50.79569" lon="5.82318">
        <ele>171.80000305176</ele>
        <time>2019-03-30T10:47:54.000Z</time>
      </trkpt>
      <trkpt lat="50.79563" lon="5.82229">
        <ele>172.19999694824</ele>
        <time>2019-03-30T10:48:02.000Z</time>
      </trkpt>
      <trkpt lat="50.79559" lon="5.82183">
        <ele>172.19999694824</ele>
        <time>2019-03-30T10:48:06.000Z</time>
      </trkpt>
      <trkpt lat="50.79547" lon="5.82094">
        <ele>172</ele>
        <time>2019-03-30T10:48:14.000Z</time>
      </trkpt>
      <trkpt lat="50.79545" lon="5.82084">
        <ele>172</ele>
        <time>2019-03-30T10:48:15.000Z</time>
      </trkpt>
      <trkpt lat="50.79531" lon="5.81994">
        <ele>172.80000305176</ele>
        <time>2019-03-30T10:48:24.000Z</time>
      </trkpt>
      <trkpt lat="50.79524" lon="5.81955">
        <ele>173.19999694824</ele>
        <time>2019-03-30T10:48:28.000Z</time>
      </trkpt>
      <trkpt lat="50.79509" lon="5.81886">
        <ele>173.60000610352</ele>
        <time>2019-03-30T10:48:35.000Z</time>
      </trkpt>
      <trkpt lat="50.79499" lon="5.81835">
        <ele>174</ele>
        <time>2019-03-30T10:48:40.000Z</time>
      </trkpt>
      <trkpt lat="50.79481" lon="5.81752">
        <ele>174</ele>
        <time>2019-03-30T10:48:48.000Z</time>
      </trkpt>
      <trkpt lat="50.79472" lon="5.81723">
        <ele>174</ele>
        <time>2019-03-30T10:48:51.000Z</time>
      </trkpt>
      <trkpt lat="50.79448" lon="5.81679">
        <ele>173.80000305176</ele>
        <time>2019-03-30T10:48:56.000Z</time>
      </trkpt>
      <trkpt lat="50.79404" lon="5.81622">
        <ele>173.19999694824</ele>
        <time>2019-03-30T10:49:04.000Z</time>
      </trkpt>
      <trkpt lat="50.79398" lon="5.81615">
        <ele>173.39999389648</ele>
        <time>2019-03-30T10:49:05.000Z</time>
      </trkpt>
      <trkpt lat="50.79355" lon="5.8156">
        <ele>172.80000305176</ele>
        <time>2019-03-30T10:49:13.000Z</time>
      </trkpt>
      <trkpt lat="50.79337" lon="5.81541">
        <ele>173</ele>
        <time>2019-03-30T10:49:16.000Z</time>
      </trkpt>
      <trkpt lat="50.79291" lon="5.81508">
        <ele>173.80000305176</ele>
        <time>2019-03-30T10:49:23.000Z</time>
      </trkpt>
      <trkpt lat="50.79235" lon="5.81481">
        <ele>174.19999694824</ele>
        <time>2019-03-30T10:49:31.000Z</time>
      </trkpt>
      <trkpt lat="50.79228" lon="5.81476">
        <ele>174.19999694824</ele>
        <time>2019-03-30T10:49:32.000Z</time>
      </trkpt>
      <trkpt lat="50.79172" lon="5.81441">
        <ele>173.80000305176</ele>
        <time>2019-03-30T10:49:40.000Z</time>
      </trkpt>
      <trkpt lat="50.79144" lon="5.8142">
        <ele>173.19999694824</ele>
        <time>2019-03-30T10:49:44.000Z</time>
      </trkpt>
      <trkpt lat="50.79123" lon="5.81402">
        <ele>172.60000610352</ele>
        <time>2019-03-30T10:49:47.000Z</time>
      </trkpt>
      <trkpt lat="50.79106" lon="5.81379">
        <ele>171.60000610352</ele>
        <time>2019-03-30T10:49:50.000Z</time>
      </trkpt>
      <trkpt lat="50.791" lon="5.81371">
        <ele>171.39999389648</ele>
        <time>2019-03-30T10:49:51.000Z</time>
      </trkpt>
      <trkpt lat="50.79078" lon="5.81322">
        <ele>170.80000305176</ele>
        <time>2019-03-30T10:49:56.000Z</time>
      </trkpt>
      <trkpt lat="50.79063" lon="5.81277">
        <ele>170.39999389648</ele>
        <time>2019-03-30T10:50:00.000Z</time>
      </trkpt>
      <trkpt lat="50.79047" lon="5.81233">
        <ele>169.80000305176</ele>
        <time>2019-03-30T10:50:04.000Z</time>
      </trkpt>
      <trkpt lat="50.79039" lon="5.81212">
        <ele>169.19999694824</ele>
        <time>2019-03-30T10:50:06.000Z</time>
      </trkpt>
      <trkpt lat="50.79023" lon="5.81172">
        <ele>168.60000610352</ele>
        <time>2019-03-30T10:50:10.000Z</time>
      </trkpt>
      <trkpt lat="50.79017" lon="5.81127">
        <ele>168.39999389648</ele>
        <time>2019-03-30T10:50:14.000Z</time>
      </trkpt>
      <trkpt lat="50.79011" lon="5.81082">
        <ele>168.19999694824</ele>
        <time>2019-03-30T10:50:19.000Z</time>
      </trkpt>
      <trkpt lat="50.78996" lon="5.81022">
        <ele>168.19999694824</ele>
        <time>2019-03-30T10:50:25.000Z</time>
      </trkpt>
      <trkpt lat="50.78969" lon="5.8097">
        <ele>168.39999389648</ele>
        <time>2019-03-30T10:50:31.000Z</time>
      </trkpt>
      <trkpt lat="50.78933" lon="5.80916">
        <ele>168.80000305176</ele>
        <time>2019-03-30T10:50:38.000Z</time>
      </trkpt>
      <trkpt lat="50.78895" lon="5.80848">
        <ele>168.80000305176</ele>
        <time>2019-03-30T10:50:46.000Z</time>
      </trkpt>
      <trkpt lat="50.78891" lon="5.80839">
        <ele>168.80000305176</ele>
        <time>2019-03-30T10:50:47.000Z</time>
      </trkpt>
      <trkpt lat="50.78882" lon="5.80809">
        <ele>168.80000305176</ele>
        <time>2019-03-30T10:50:50.000Z</time>
      </trkpt>
      <trkpt lat="50.78868" lon="5.80747">
        <ele>169</ele>
        <time>2019-03-30T10:50:56.000Z</time>
      </trkpt>
      <trkpt lat="50.78845" lon="5.80689">
        <ele>169.39999389648</ele>
        <time>2019-03-30T10:51:02.000Z</time>
      </trkpt>
      <trkpt lat="50.78817" lon="5.80631">
        <ele>170.39999389648</ele>
        <time>2019-03-30T10:51:09.000Z</time>
      </trkpt>
      <trkpt lat="50.78789" lon="5.80554">
        <ele>170.60000610352</ele>
        <time>2019-03-30T10:51:17.000Z</time>
      </trkpt>
      <trkpt lat="50.78782" lon="5.80533">
        <ele>170.60000610352</ele>
        <time>2019-03-30T10:51:19.000Z</time>
      </trkpt>
      <trkpt lat="50.78751" lon="5.8045">
        <ele>170.60000610352</ele>
        <time>2019-03-30T10:51:27.000Z</time>
      </trkpt>
      <trkpt lat="50.78736" lon="5.80407">
        <ele>170.39999389648</ele>
        <time>2019-03-30T10:51:31.000Z</time>
      </trkpt>
      <trkpt lat="50.78706" lon="5.80334">
        <ele>170</ele>
        <time>2019-03-30T10:51:38.000Z</time>
      </trkpt>
      <trkpt lat="50.78702" lon="5.80324">
        <ele>170</ele>
        <time>2019-03-30T10:51:39.000Z</time>
      </trkpt>
      <trkpt lat="50.78677" lon="5.80279">
        <ele>169.19999694824</ele>
        <time>2019-03-30T10:51:44.000Z</time>
      </trkpt>
      <trkpt lat="50.78656" lon="5.80242">
        <ele>169</ele>
        <time>2019-03-30T10:51:48.000Z</time>
      </trkpt>
      <trkpt lat="50.78618" lon="5.80173">
        <ele>168.39999389648</ele>
        <time>2019-03-30T10:51:55.000Z</time>
      </trkpt>
      <trkpt lat="50.78596" lon="5.80133">
        <ele>168.19999694824</ele>
        <time>2019-03-30T10:51:59.000Z</time>
      </trkpt>
      <trkpt lat="50.78575" lon="5.80095">
        <ele>167</ele>
        <time>2019-03-30T10:52:03.000Z</time>
      </trkpt>
      <trkpt lat="50.78564" lon="5.80076">
        <ele>166</ele>
        <time>2019-03-30T10:52:05.000Z</time>
      </trkpt>
      <trkpt lat="50.78559" lon="5.80067">
        <ele>165.60000610352</ele>
        <time>2019-03-30T10:52:06.000Z</time>
      </trkpt>
      <trkpt lat="50.78537" lon="5.80026">
        <ele>165</ele>
        <time>2019-03-30T10:52:10.000Z</time>
      </trkpt>
      <trkpt lat="50.78498" lon="5.79956">
        <ele>164.39999389648</ele>
        <time>2019-03-30T10:52:17.000Z</time>
      </trkpt>
      <trkpt lat="50.78493" lon="5.79947">
        <ele>164.39999389648</ele>
        <time>2019-03-30T10:52:18.000Z</time>
      </trkpt>
      <trkpt lat="50.78482" lon="5.79928">
        <ele>164</ele>
        <time>2019-03-30T10:52:20.000Z</time>
      </trkpt>
      <trkpt lat="50.78443" lon="5.79859">
        <ele>163.19999694824</ele>
        <time>2019-03-30T10:52:27.000Z</time>
      </trkpt>
      <trkpt lat="50.78433" lon="5.79838">
        <ele>162.80000305176</ele>
        <time>2019-03-30T10:52:29.000Z</time>
      </trkpt>
      <trkpt lat="50.78403" lon="5.79779">
        <ele>162</ele>
        <time>2019-03-30T10:52:35.000Z</time>
      </trkpt>
      <trkpt lat="50.78361" lon="5.7973">
        <ele>161.80000305176</ele>
        <time>2019-03-30T10:52:42.000Z</time>
      </trkpt>
      <trkpt lat="50.78317" lon="5.79678">
        <ele>161.60000610352</ele>
        <time>2019-03-30T10:52:49.000Z</time>
      </trkpt>
      <trkpt lat="50.78311" lon="5.79669">
        <ele>161.60000610352</ele>
        <time>2019-03-30T10:52:50.000Z</time>
      </trkpt>
      <trkpt lat="50.78271" lon="5.79605">
        <ele>160.80000305176</ele>
        <time>2019-03-30T10:52:57.000Z</time>
      </trkpt>
      <trkpt lat="50.7826" lon="5.79587">
        <ele>160.60000610352</ele>
        <time>2019-03-30T10:52:59.000Z</time>
      </trkpt>
      <trkpt lat="50.78238" lon="5.79548">
        <ele>160</ele>
        <time>2019-03-30T10:53:03.000Z</time>
      </trkpt>
      <trkpt lat="50.78227" lon="5.79529">
        <ele>159.60000610352</ele>
        <time>2019-03-30T10:53:05.000Z</time>
      </trkpt>
      <trkpt lat="50.78205" lon="5.7949">
        <ele>158.60000610352</ele>
        <time>2019-03-30T10:53:09.000Z</time>
      </trkpt>
      <trkpt lat="50.78173" lon="5.79437">
        <ele>157.39999389648</ele>
        <time>2019-03-30T10:53:15.000Z</time>
      </trkpt>
      <trkpt lat="50.78168" lon="5.79428">
        <ele>157</ele>
        <time>2019-03-30T10:53:16.000Z</time>
      </trkpt>
      <trkpt lat="50.78152" lon="5.79398">
        <ele>156.39999389648</ele>
        <time>2019-03-30T10:53:19.000Z</time>
      </trkpt>
      <trkpt lat="50.7813" lon="5.79359">
        <ele>156</ele>
        <time>2019-03-30T10:53:23.000Z</time>
      </trkpt>
      <trkpt lat="50.78107" lon="5.79321">
        <ele>155.39999389648</ele>
        <time>2019-03-30T10:53:27.000Z</time>
      </trkpt>
      <trkpt lat="50.78087" lon="5.79286">
        <ele>154.39999389648</ele>
        <time>2019-03-30T10:53:31.000Z</time>
      </trkpt>
      <trkpt lat="50.78074" lon="5.79259">
        <ele>153.80000305176</ele>
        <time>2019-03-30T10:53:34.000Z</time>
      </trkpt>
      <trkpt lat="50.78072" lon="5.79249">
        <ele>153.60000610352</ele>
        <time>2019-03-30T10:53:35.000Z</time>
      </trkpt>
      <trkpt lat="50.7807" lon="5.7923">
        <ele>153.19999694824</ele>
        <time>2019-03-30T10:53:37.000Z</time>
      </trkpt>
      <trkpt lat="50.78069" lon="5.79212">
        <ele>153.19999694824</ele>
        <time>2019-03-30T10:53:39.000Z</time>
      </trkpt>
      <trkpt lat="50.7807" lon="5.79204">
        <ele>153</ele>
        <time>2019-03-30T10:53:40.000Z</time>
      </trkpt>
      <trkpt lat="50.78081" lon="5.7919">
        <ele>152.80000305176</ele>
        <time>2019-03-30T10:53:43.000Z</time>
      </trkpt>
      <trkpt lat="50.78092" lon="5.79184">
        <ele>152.80000305176</ele>
        <time>2019-03-30T10:53:45.000Z</time>
      </trkpt>
      <trkpt lat="50.78098" lon="5.79182">
        <ele>152.80000305176</ele>
        <time>2019-03-30T10:53:46.000Z</time>
      </trkpt>
      <trkpt lat="50.78111" lon="5.79177">
        <ele>152.80000305176</ele>
        <time>2019-03-30T10:53:48.000Z</time>
      </trkpt>
      <trkpt lat="50.78162" lon="5.79155">
        <ele>152.80000305176</ele>
        <time>2019-03-30T10:53:56.000Z</time>
      </trkpt>
      <trkpt lat="50.7821" lon="5.79128">
        <ele>153.19999694824</ele>
        <time>2019-03-30T10:54:03.000Z</time>
      </trkpt>
      <trkpt lat="50.7824" lon="5.79091">
        <ele>168.6</ele>
      </trkpt>
      <trkpt lat="50.78253" lon="5.79088">
        <ele>167.1</ele>
      </trkpt>
      <trkpt lat="50.78271" lon="5.79085">
        <ele>167.1</ele>
      </trkpt>
      <trkpt lat="50.78282" lon="5.7909">
        <ele>167</ele>
      </trkpt>
      <trkpt lat="50.78291" lon="5.79091">
        <ele>166.8</ele>
      </trkpt>
      <trkpt lat="50.78294" lon="5.79066">
        <ele>148.80000305176</ele>
        <time>2019-03-30T10:54:18.000Z</time>
      </trkpt>
      <trkpt lat="50.78294" lon="5.79056">
        <ele>164.8</ele>
      </trkpt>
      <trkpt lat="50.78292" lon="5.79036">
        <ele>164.7</ele>
      </trkpt>
      <trkpt lat="50.78288" lon="5.79014">
        <ele>164.6</ele>
      </trkpt>
      <trkpt lat="50.78272" lon="5.78929">
        <ele>147.60000610352</ele>
        <time>2019-03-30T10:54:30.000Z</time>
      </trkpt>
      <trkpt lat="50.7827" lon="5.78918">
        <ele>147.60000610352</ele>
        <time>2019-03-30T10:54:31.000Z</time>
      </trkpt>
      <trkpt lat="50.78259" lon="5.7884">
        <ele>166.6</ele>
      </trkpt>
      <trkpt lat="50.78256" lon="5.78782">
        <ele>167</ele>
      </trkpt>
      <trkpt lat="50.78257" lon="5.78758">
        <ele>168.4</ele>
      </trkpt>
      <trkpt lat="50.78255" lon="5.78709">
        <ele>150.39999389648</ele>
        <time>2019-03-30T10:54:52.000Z</time>
      </trkpt>
      <trkpt lat="50.78256" lon="5.78684">
        <ele>168.6</ele>
      </trkpt>
      <trkpt lat="50.78256" lon="5.78597">
        <ele>167.5</ele>
      </trkpt>
      <trkpt lat="50.7825" lon="5.78491">
        <ele>167.8</ele>
      </trkpt>
      <trkpt lat="50.78246" lon="5.78436">
        <ele>166.7</ele>
      </trkpt>
      <trkpt lat="50.78244" lon="5.7839">
        <ele>165.8</ele>
      </trkpt>
      <trkpt lat="50.78248" lon="5.78331">
        <ele>164.7</ele>
      </trkpt>
      <trkpt lat="50.78253" lon="5.78289">
        <ele>159.6</ele>
      </trkpt>
      <trkpt lat="50.7826" lon="5.78252">
        <ele>158.8</ele>
      </trkpt>
      <trkpt lat="50.7827" lon="5.78198">
        <ele>153.5</ele>
      </trkpt>
      <trkpt lat="50.78278" lon="5.78161">
        <ele>141.19999694824</ele>
        <time>2019-03-30T10:55:34.000Z</time>
      </trkpt>
      <trkpt lat="50.78287" lon="5.78127">
        <ele>140</ele>
        <time>2019-03-30T10:55:36.000Z</time>
      </trkpt>
      <trkpt lat="50.78296" lon="5.78093">
        <ele>138.80000305176</ele>
        <time>2019-03-30T10:55:38.000Z</time>
      </trkpt>
      <trkpt lat="50.78305" lon="5.78057">
        <ele>143.1</ele>
      </trkpt>
      <trkpt lat="50.78314" lon="5.78033">
        <ele>142</ele>
      </trkpt>
      <trkpt lat="50.78322" lon="5.78014">
        <ele>136.19999694824</ele>
        <time>2019-03-30T10:55:42.000Z</time>
      </trkpt>
      <trkpt lat="50.78337" lon="5.77976">
        <ele>134.60000610352</ele>
        <time>2019-03-30T10:55:44.000Z</time>
      </trkpt>
      <trkpt lat="50.78345" lon="5.77957">
        <ele>133.60000610352</ele>
        <time>2019-03-30T10:55:45.000Z</time>
      </trkpt>
      <trkpt lat="50.78353" lon="5.77938">
        <ele>132.60000610352</ele>
        <time>2019-03-30T10:55:46.000Z</time>
      </trkpt>
      <trkpt lat="50.7836" lon="5.77919">
        <ele>131.19999694824</ele>
        <time>2019-03-30T10:55:47.000Z</time>
      </trkpt>
      <trkpt lat="50.78367" lon="5.779">
        <ele>130</ele>
        <time>2019-03-30T10:55:48.000Z</time>
      </trkpt>
      <trkpt lat="50.78374" lon="5.77881">
        <ele>128.80000305176</ele>
        <time>2019-03-30T10:55:49.000Z</time>
      </trkpt>
      <trkpt lat="50.7838" lon="5.77862">
        <ele>127.59999847412</ele>
        <time>2019-03-30T10:55:50.000Z</time>
      </trkpt>
      <trkpt lat="50.78386" lon="5.77843">
        <ele>126.19999694824</ele>
        <time>2019-03-30T10:55:51.000Z</time>
      </trkpt>
      <trkpt lat="50.78392" lon="5.77824">
        <ele>125</ele>
        <time>2019-03-30T10:55:52.000Z</time>
      </trkpt>
      <trkpt lat="50.78403" lon="5.77787">
        <ele>123</ele>
        <time>2019-03-30T10:55:54.000Z</time>
      </trkpt>
      <trkpt lat="50.78412" lon="5.7775">
        <ele>121.59999847412</ele>
        <time>2019-03-30T10:55:56.000Z</time>
      </trkpt>
      <trkpt lat="50.78422" lon="5.77715">
        <ele>120</ele>
        <time>2019-03-30T10:55:58.000Z</time>
      </trkpt>
      <trkpt lat="50.78436" lon="5.7766">
        <ele>132.6</ele>
      </trkpt>
      <trkpt lat="50.78445" lon="5.77631">
        <ele>132.4</ele>
      </trkpt>
      <trkpt lat="50.78465" lon="5.77559">
        <ele>132.2</ele>
      </trkpt>
      <trkpt lat="50.78476" lon="5.77529">
        <ele>131.9</ele>
      </trkpt>
      <trkpt lat="50.78489" lon="5.77513">
        <ele>131.6</ele>
      </trkpt>
      <trkpt lat="50.78509" lon="5.77511">
        <ele>118.19999694824</ele>
        <time>2019-03-30T10:56:17.000Z</time>
      </trkpt>
      <trkpt lat="50.78517" lon="5.77512">
        <ele>118.19999694824</ele>
        <time>2019-03-30T10:56:18.000Z</time>
      </trkpt>
      <trkpt lat="50.78547" lon="5.77514">
        <ele>131.2</ele>
      </trkpt>
      <trkpt lat="50.78565" lon="5.77513">
        <ele>131.2</ele>
      </trkpt>
      <trkpt lat="50.78575" lon="5.77513">
        <ele>117.40000152588</ele>
        <time>2019-03-30T10:56:25.000Z</time>
      </trkpt>
      <trkpt lat="50.78587" lon="5.77504">
        <ele>131</ele>
      </trkpt>
      <trkpt lat="50.786" lon="5.77493">
        <ele>117.19999694824</ele>
        <time>2019-03-30T10:56:28.000Z</time>
      </trkpt>
      <trkpt lat="50.78614" lon="5.77474">
        <ele>128.9</ele>
      </trkpt>
      <trkpt lat="50.78622" lon="5.77466">
        <ele>116.59999847412</ele>
        <time>2019-03-30T10:56:31.000Z</time>
      </trkpt>
      <trkpt lat="50.78626" lon="5.77453">
        <ele>116.40000152588</ele>
        <time>2019-03-30T10:56:32.000Z</time>
      </trkpt>
      <trkpt lat="50.7863" lon="5.77438">
        <ele>128</ele>
      </trkpt>
      <trkpt lat="50.78627" lon="5.7742">
        <ele>128.1</ele>
      </trkpt>
      <trkpt lat="50.78623" lon="5.77391">
        <ele>114.59999847412</ele>
        <time>2019-03-30T10:56:36.000Z</time>
      </trkpt>
      <trkpt lat="50.7862" lon="5.77375">
        <ele>114.19999694824</ele>
        <time>2019-03-30T10:56:37.000Z</time>
      </trkpt>
      <trkpt lat="50.78618" lon="5.77358">
        <ele>114</ele>
        <time>2019-03-30T10:56:38.000Z</time>
      </trkpt>
      <trkpt lat="50.78605" lon="5.77274">
        <ele>113.40000152588</ele>
        <time>2019-03-30T10:56:43.000Z</time>
      </trkpt>
      <trkpt lat="50.78603" lon="5.77257">
        <ele>113.19999694824</ele>
        <time>2019-03-30T10:56:44.000Z</time>
      </trkpt>
      <trkpt lat="50.78598" lon="5.77225">
        <ele>112.80000305176</ele>
        <time>2019-03-30T10:56:46.000Z</time>
      </trkpt>
      <trkpt lat="50.78591" lon="5.77179">
        <ele>112</ele>
        <time>2019-03-30T10:56:49.000Z</time>
      </trkpt>
      <trkpt lat="50.78582" lon="5.7712">
        <ele>111.19999694824</ele>
        <time>2019-03-30T10:56:53.000Z</time>
      </trkpt>
      <trkpt lat="50.78579" lon="5.77106">
        <ele>110.80000305176</ele>
        <time>2019-03-30T10:56:54.000Z</time>
      </trkpt>
      <trkpt lat="50.78568" lon="5.77028">
        <ele>125.1</ele>
      </trkpt>
      <trkpt lat="50.78564" lon="5.77004">
        <ele>125</ele>
      </trkpt>
      <trkpt lat="50.78558" lon="5.76956">
        <ele>126.2</ele>
      </trkpt>
      <trkpt lat="50.78554" lon="5.76913">
        <ele>126.5</ele>
      </trkpt>
      <trkpt lat="50.78546" lon="5.76834">
        <ele>126.3</ele>
      </trkpt>
      <trkpt lat="50.7854" lon="5.76792">
        <ele>125</ele>
      </trkpt>
      <trkpt lat="50.78531" lon="5.76761">
        <ele>110.40000152588</ele>
        <time>2019-03-30T10:57:22.000Z</time>
      </trkpt>
      <trkpt lat="50.78522" lon="5.76727">
        <ele>110.59999847412</ele>
        <time>2019-03-30T10:57:25.000Z</time>
      </trkpt>
      <trkpt lat="50.78511" lon="5.76684">
        <ele>110.59999847412</ele>
        <time>2019-03-30T10:57:29.000Z</time>
      </trkpt>
      <trkpt lat="50.78502" lon="5.76646">
        <ele>124</ele>
      </trkpt>
      <trkpt lat="50.78498" lon="5.76612">
        <ele>126.8</ele>
      </trkpt>
      <trkpt lat="50.78494" lon="5.76552">
        <ele>128.1</ele>
      </trkpt>
      <trkpt lat="50.78489" lon="5.76461">
        <ele>110.80000305176</ele>
        <time>2019-03-30T10:57:48.000Z</time>
      </trkpt>
      <trkpt lat="50.78487" lon="5.76437">
        <ele>110.80000305176</ele>
        <time>2019-03-30T10:57:50.000Z</time>
      </trkpt>
      <trkpt lat="50.78484" lon="5.764">
        <ele>112</ele>
        <time>2019-03-30T10:57:53.000Z</time>
      </trkpt>
      <trkpt lat="50.78476" lon="5.7634">
        <ele>112.80000305176</ele>
        <time>2019-03-30T10:57:58.000Z</time>
      </trkpt>
      <trkpt lat="50.78466" lon="5.76292">
        <ele>113.19999694824</ele>
        <time>2019-03-30T10:58:02.000Z</time>
      </trkpt>
      <trkpt lat="50.78455" lon="5.76237">
        <ele>113.59999847412</ele>
        <time>2019-03-30T10:58:07.000Z</time>
      </trkpt>
      <trkpt lat="50.78441" lon="5.76172">
        <ele>114.19999694824</ele>
        <time>2019-03-30T10:58:13.000Z</time>
      </trkpt>
      <trkpt lat="50.78429" lon="5.76117">
        <ele>114.59999847412</ele>
        <time>2019-03-30T10:58:18.000Z</time>
      </trkpt>
      <trkpt lat="50.78408" lon="5.76031">
        <ele>127.9</ele>
      </trkpt>
      <trkpt lat="50.78396" lon="5.75963">
        <ele>126.7</ele>
      </trkpt>
      <trkpt lat="50.78391" lon="5.75924">
        <ele>126.3</ele>
      </trkpt>
      <trkpt lat="50.78391" lon="5.75894">
        <ele>125</ele>
      </trkpt>
      <trkpt lat="50.78388" lon="5.75877">
        <ele>112.19999694824</ele>
        <time>2019-03-30T10:58:40.000Z</time>
      </trkpt>
      <trkpt lat="50.78384" lon="5.75865">
        <ele>112</ele>
        <time>2019-03-30T10:58:42.000Z</time>
      </trkpt>
      <trkpt lat="50.78376" lon="5.75852">
        <ele>111.40000152588</ele>
        <time>2019-03-30T10:58:44.000Z</time>
      </trkpt>
      <trkpt lat="50.78371" lon="5.75846">
        <ele>111.40000152588</ele>
        <time>2019-03-30T10:58:45.000Z</time>
      </trkpt>
      <trkpt lat="50.78366" lon="5.75841">
        <ele>111.19999694824</ele>
        <time>2019-03-30T10:58:46.000Z</time>
      </trkpt>
      <trkpt lat="50.78336" lon="5.75819">
        <ele>111</ele>
        <time>2019-03-30T10:58:51.000Z</time>
      </trkpt>
      <trkpt lat="50.78323" lon="5.7581">
        <ele>110.80000305176</ele>
        <time>2019-03-30T10:58:53.000Z</time>
      </trkpt>
      <trkpt lat="50.7827" lon="5.75771">
        <ele>111</ele>
        <time>2019-03-30T10:59:01.000Z</time>
      </trkpt>
      <trkpt lat="50.78257" lon="5.75762">
        <ele>111</ele>
        <time>2019-03-30T10:59:03.000Z</time>
      </trkpt>
      <trkpt lat="50.78205" lon="5.75722">
        <ele>111</ele>
        <time>2019-03-30T10:59:11.000Z</time>
      </trkpt>
      <trkpt lat="50.78178" lon="5.75701">
        <ele>111.19999694824</ele>
        <time>2019-03-30T10:59:15.000Z</time>
      </trkpt>
      <trkpt lat="50.78126" lon="5.75661">
        <ele>111.80000305176</ele>
        <time>2019-03-30T10:59:23.000Z</time>
      </trkpt>
      <trkpt lat="50.78095" lon="5.75637">
        <ele>112</ele>
        <time>2019-03-30T10:59:28.000Z</time>
      </trkpt>
      <trkpt lat="50.78081" lon="5.75629">
        <ele>112.19999694824</ele>
        <time>2019-03-30T10:59:30.000Z</time>
      </trkpt>
      <trkpt lat="50.78041" lon="5.75609">
        <ele>112.59999847412</ele>
        <time>2019-03-30T10:59:36.000Z</time>
      </trkpt>
      <trkpt lat="50.77999" lon="5.75595">
        <ele>113.19999694824</ele>
        <time>2019-03-30T10:59:42.000Z</time>
      </trkpt>
      <trkpt lat="50.77965" lon="5.75584">
        <ele>113.59999847412</ele>
        <time>2019-03-30T10:59:47.000Z</time>
      </trkpt>
      <trkpt lat="50.77938" lon="5.75573">
        <ele>114.19999694824</ele>
        <time>2019-03-30T10:59:51.000Z</time>
      </trkpt>
      <trkpt lat="50.77915" lon="5.75564">
        <ele>128</ele>
      </trkpt>
      <trkpt lat="50.77898" lon="5.75551">
        <ele>128.4</ele>
      </trkpt>
      <trkpt lat="50.77857" lon="5.75516">
        <ele>115.40000152588</ele>
        <time>2019-03-30T11:00:04.000Z</time>
      </trkpt>
      <trkpt lat="50.77809" lon="5.7547">
        <ele>115.80000305176</ele>
        <time>2019-03-30T11:00:12.000Z</time>
      </trkpt>
      <trkpt lat="50.77796" lon="5.75459">
        <ele>115.80000305176</ele>
        <time>2019-03-30T11:00:14.000Z</time>
      </trkpt>
      <trkpt lat="50.77746" lon="5.75412">
        <ele>115.80000305176</ele>
        <time>2019-03-30T11:00:22.000Z</time>
      </trkpt>
      <trkpt lat="50.77727" lon="5.75396">
        <ele>115.80000305176</ele>
        <time>2019-03-30T11:00:25.000Z</time>
      </trkpt>
      <trkpt lat="50.77674" lon="5.7535">
        <ele>115.59999847412</ele>
        <time>2019-03-30T11:00:33.000Z</time>
      </trkpt>
      <trkpt lat="50.7766" lon="5.75341">
        <ele>115.59999847412</ele>
        <time>2019-03-30T11:00:35.000Z</time>
      </trkpt>
      <trkpt lat="50.77623" lon="5.75315">
        <ele>115</ele>
        <time>2019-03-30T11:00:40.000Z</time>
      </trkpt>
      <trkpt lat="50.77602" lon="5.75297">
        <ele>114.59999847412</ele>
        <time>2019-03-30T11:00:43.000Z</time>
      </trkpt>
      <trkpt lat="50.77595" lon="5.7529">
        <ele>114.19999694824</ele>
        <time>2019-03-30T11:00:44.000Z</time>
      </trkpt>
      <trkpt lat="50.77569" lon="5.75262">
        <ele>113</ele>
        <time>2019-03-30T11:00:48.000Z</time>
      </trkpt>
      <trkpt lat="50.77549" lon="5.75239">
        <ele>112.59999847412</ele>
        <time>2019-03-30T11:00:51.000Z</time>
      </trkpt>
      <trkpt lat="50.77522" lon="5.75195">
        <ele>112</ele>
        <time>2019-03-30T11:00:56.000Z</time>
      </trkpt>
      <trkpt lat="50.77517" lon="5.75186">
        <ele>112</ele>
        <time>2019-03-30T11:00:57.000Z</time>
      </trkpt>
      <trkpt lat="50.77483" lon="5.75119">
        <ele>112.19999694824</ele>
        <time>2019-03-30T11:01:05.000Z</time>
      </trkpt>
      <trkpt lat="50.7748" lon="5.7511">
        <ele>112.19999694824</ele>
        <time>2019-03-30T11:01:06.000Z</time>
      </trkpt>
      <trkpt lat="50.77446" lon="5.75035">
        <ele>113</ele>
        <time>2019-03-30T11:01:15.000Z</time>
      </trkpt>
      <trkpt lat="50.77439" lon="5.75019">
        <ele>113.19999694824</ele>
        <time>2019-03-30T11:01:17.000Z</time>
      </trkpt>
      <trkpt lat="50.77435" lon="5.75011">
        <ele>113.19999694824</ele>
        <time>2019-03-30T11:01:18.000Z</time>
      </trkpt>
      <trkpt lat="50.77408" lon="5.74974">
        <ele>113.59999847412</ele>
        <time>2019-03-30T11:01:24.000Z</time>
      </trkpt>
      <trkpt lat="50.77387" lon="5.74952">
        <ele>114.19999694824</ele>
        <time>2019-03-30T11:01:28.000Z</time>
      </trkpt>
      <trkpt lat="50.77368" lon="5.74926">
        <ele>115.19999694824</ele>
        <time>2019-03-30T11:01:32.000Z</time>
      </trkpt>
      <trkpt lat="50.77364" lon="5.74919">
        <ele>115.40000152588</ele>
        <time>2019-03-30T11:01:33.000Z</time>
      </trkpt>
      <trkpt lat="50.77342" lon="5.74871">
        <ele>116.80000305176</ele>
        <time>2019-03-30T11:01:39.000Z</time>
      </trkpt>
      <trkpt lat="50.77331" lon="5.74826">
        <ele>118</ele>
        <time>2019-03-30T11:01:44.000Z</time>
      </trkpt>
      <trkpt lat="50.77329" lon="5.74817">
        <ele>118.19999694824</ele>
        <time>2019-03-30T11:01:45.000Z</time>
      </trkpt>
      <trkpt lat="50.77327" lon="5.7477">
        <ele>118.59999847412</ele>
        <time>2019-03-30T11:01:50.000Z</time>
      </trkpt>
      <trkpt lat="50.77328" lon="5.74711">
        <ele>118.80000305176</ele>
        <time>2019-03-30T11:01:56.000Z</time>
      </trkpt>
      <trkpt lat="50.77328" lon="5.7463">
        <ele>118.40000152588</ele>
        <time>2019-03-30T11:02:03.000Z</time>
      </trkpt>
      <trkpt lat="50.77325" lon="5.74556">
        <ele>117</ele>
        <time>2019-03-30T11:02:09.000Z</time>
      </trkpt>
      <trkpt lat="50.77322" lon="5.74519">
        <ele>116.40000152588</ele>
        <time>2019-03-30T11:02:12.000Z</time>
      </trkpt>
      <trkpt lat="50.77314" lon="5.74471">
        <ele>115.80000305176</ele>
        <time>2019-03-30T11:02:16.000Z</time>
      </trkpt>
      <trkpt lat="50.77308" lon="5.74447">
        <ele>115.59999847412</ele>
        <time>2019-03-30T11:02:18.000Z</time>
      </trkpt>
      <trkpt lat="50.77294" lon="5.74412">
        <ele>114.80000305176</ele>
        <time>2019-03-30T11:02:21.000Z</time>
      </trkpt>
      <trkpt lat="50.77284" lon="5.74389">
        <ele>114.59999847412</ele>
        <time>2019-03-30T11:02:23.000Z</time>
      </trkpt>
      <trkpt lat="50.77271" lon="5.74352">
        <ele>114</ele>
        <time>2019-03-30T11:02:26.000Z</time>
      </trkpt>
      <trkpt lat="50.77267" lon="5.7434">
        <ele>114</ele>
        <time>2019-03-30T11:02:27.000Z</time>
      </trkpt>
      <trkpt lat="50.77255" lon="5.74301">
        <ele>112.80000305176</ele>
        <time>2019-03-30T11:02:30.000Z</time>
      </trkpt>
      <trkpt lat="50.77251" lon="5.74287">
        <ele>112.59999847412</ele>
        <time>2019-03-30T11:02:31.000Z</time>
      </trkpt>
      <trkpt lat="50.77238" lon="5.74237">
        <ele>111.59999847412</ele>
        <time>2019-03-30T11:02:35.000Z</time>
      </trkpt>
      <trkpt lat="50.77228" lon="5.74198">
        <ele>110.59999847412</ele>
        <time>2019-03-30T11:02:38.000Z</time>
      </trkpt>
      <trkpt lat="50.77214" lon="5.74141">
        <ele>124.1</ele>
      </trkpt>
      <trkpt lat="50.77208" lon="5.74124">
        <ele>124</ele>
      </trkpt>
      <trkpt lat="50.77191" lon="5.74085">
        <ele>123.9</ele>
      </trkpt>
      <trkpt lat="50.77182" lon="5.74062">
        <ele>123</ele>
      </trkpt>
      <trkpt lat="50.77158" lon="5.74004">
        <ele>122.1</ele>
      </trkpt>
      <trkpt lat="50.77135" lon="5.73959">
        <ele>108</ele>
        <time>2019-03-30T11:03:01.000Z</time>
      </trkpt>
      <trkpt lat="50.77117" lon="5.73923">
        <ele>108.40000152588</ele>
        <time>2019-03-30T11:03:05.000Z</time>
      </trkpt>
      <trkpt lat="50.7708" lon="5.73845">
        <ele>108.19999694824</ele>
        <time>2019-03-30T11:03:13.000Z</time>
      </trkpt>
      <trkpt lat="50.77057" lon="5.73792">
        <ele>107</ele>
        <time>2019-03-30T11:03:18.000Z</time>
      </trkpt>
      <trkpt lat="50.77045" lon="5.73758">
        <ele>106.40000152588</ele>
        <time>2019-03-30T11:03:21.000Z</time>
      </trkpt>
      <trkpt lat="50.77034" lon="5.7372">
        <ele>117.1</ele>
      </trkpt>
      <trkpt lat="50.7702" lon="5.73675">
        <ele>105</ele>
        <time>2019-03-30T11:03:28.000Z</time>
      </trkpt>
      <trkpt lat="50.77015" lon="5.73662">
        <ele>104.59999847412</ele>
        <time>2019-03-30T11:03:29.000Z</time>
      </trkpt>
      <trkpt lat="50.76998" lon="5.73628">
        <ele>103.59999847412</ele>
        <time>2019-03-30T11:03:32.000Z</time>
      </trkpt>
      <trkpt lat="50.76984" lon="5.73605">
        <ele>102</ele>
        <time>2019-03-30T11:03:34.000Z</time>
      </trkpt>
      <trkpt lat="50.76971" lon="5.73582">
        <ele>100.80000305176</ele>
        <time>2019-03-30T11:03:36.000Z</time>
      </trkpt>
      <trkpt lat="50.76958" lon="5.7356">
        <ele>99.599998474121</ele>
        <time>2019-03-30T11:03:38.000Z</time>
      </trkpt>
      <trkpt lat="50.76958" lon="5.73537">
        <ele>106.4</ele>
      </trkpt>
      <trkpt lat="50.76962" lon="5.73521">
        <ele>106.2</ele>
      </trkpt>
      <trkpt lat="50.76971" lon="5.73491">
        <ele>104</ele>
      </trkpt>
      <trkpt lat="50.76978" lon="5.73468">
        <ele>103.6</ele>
      </trkpt>
      <trkpt lat="50.76976" lon="5.73452">
        <ele>103.2</ele>
      </trkpt>
      <trkpt lat="50.76967" lon="5.73433">
        <ele>93.400001525879</ele>
        <time>2019-03-30T11:03:48.000Z</time>
      </trkpt>
      <trkpt lat="50.76952" lon="5.73429">
        <ele>101.9</ele>
      </trkpt>
      <trkpt lat="50.76938" lon="5.73444">
        <ele>101.6</ele>
      </trkpt>
      <trkpt lat="50.7693" lon="5.73454">
        <ele>101.8</ele>
      </trkpt>
      <trkpt lat="50.7691" lon="5.73489">
        <ele>100.1</ele>
      </trkpt>
      <trkpt lat="50.76896" lon="5.73512">
        <ele>101.4</ele>
      </trkpt>
      <trkpt lat="50.7689" lon="5.73517">
        <ele>101.2</ele>
      </trkpt>
      <trkpt lat="50.76882" lon="5.73521">
        <ele>101</ele>
      </trkpt>
      <trkpt lat="50.7687" lon="5.73514">
        <ele>100.3</ele>
      </trkpt>
      <trkpt lat="50.76853" lon="5.73501">
        <ele>98.8</ele>
      </trkpt>
      <trkpt lat="50.76836" lon="5.73489">
        <ele>96.4</ele>
      </trkpt>
      <trkpt lat="50.76819" lon="5.73477">
        <ele>93.1</ele>
      </trkpt>
      <trkpt lat="50.768" lon="5.73463">
        <ele>91.9</ele>
      </trkpt>
      <trkpt lat="50.76782" lon="5.73449">
        <ele>90.9</ele>
      </trkpt>
      <trkpt lat="50.76761" lon="5.73432">
        <ele>88.9</ele>
      </trkpt>
      <trkpt lat="50.76737" lon="5.73407">
        <ele>84.1</ele>
      </trkpt>
      <trkpt lat="50.76695" lon="5.73366">
        <ele>81.4</ele>
      </trkpt>
      <trkpt lat="50.76662" lon="5.73336">
        <ele>77.9</ele>
      </trkpt>
      <trkpt lat="50.76624" lon="5.73302">
        <ele>74.7</ele>
      </trkpt>
      <trkpt lat="50.76608" lon="5.73284">
        <ele>65</ele>
        <time>2019-03-30T11:04:28.000Z</time>
      </trkpt>
      <trkpt lat="50.76595" lon="5.73272">
        <ele>62.400001525879</ele>
        <time>2019-03-30T11:04:30.000Z</time>
      </trkpt>
      <trkpt lat="50.76585" lon="5.73263">
        <ele>61.400001525879</ele>
        <time>2019-03-30T11:04:32.000Z</time>
      </trkpt>
      <trkpt lat="50.7659" lon="5.73246">
        <ele>71.3</ele>
      </trkpt>
      <trkpt lat="50.766" lon="5.73224">
        <ele>71.6</ele>
      </trkpt>
      <trkpt lat="50.76607" lon="5.73207">
        <ele>71.6</ele>
      </trkpt>
      <trkpt lat="50.76615" lon="5.73178">
        <ele>71.3</ele>
      </trkpt>
      <trkpt lat="50.76616" lon="5.73161">
        <ele>57.599998474121</ele>
        <time>2019-03-30T11:04:43.000Z</time>
      </trkpt>
      <trkpt lat="50.76617" lon="5.73148">
        <ele>57</ele>
        <time>2019-03-30T11:04:44.000Z</time>
      </trkpt>
      <trkpt lat="50.76619" lon="5.73121">
        <ele>56.400001525879</ele>
        <time>2019-03-30T11:04:46.000Z</time>
      </trkpt>
      <trkpt lat="50.76623" lon="5.73053">
        <ele>55.400001525879</ele>
        <time>2019-03-30T11:04:51.000Z</time>
      </trkpt>
      <trkpt lat="50.76624" lon="5.73039">
        <ele>55.200000762939</ele>
        <time>2019-03-30T11:04:52.000Z</time>
      </trkpt>
      <trkpt lat="50.76633" lon="5.72952">
        <ele>54.400001525879</ele>
        <time>2019-03-30T11:04:59.000Z</time>
      </trkpt>
      <trkpt lat="50.7664" lon="5.72878">
        <ele>53.200000762939</ele>
        <time>2019-03-30T11:05:05.000Z</time>
      </trkpt>
      <trkpt lat="50.76643" lon="5.72852">
        <ele>53</ele>
        <time>2019-03-30T11:05:07.000Z</time>
      </trkpt>
      <trkpt lat="50.76651" lon="5.72767">
        <ele>52</ele>
        <time>2019-03-30T11:05:14.000Z</time>
      </trkpt>
      <trkpt lat="50.76653" lon="5.72754">
        <ele>51.799999237061</ele>
        <time>2019-03-30T11:05:15.000Z</time>
      </trkpt>
      <trkpt lat="50.76667" lon="5.72693">
        <ele>51.599998474121</ele>
        <time>2019-03-30T11:05:20.000Z</time>
      </trkpt>
      <trkpt lat="50.76684" lon="5.7262">
        <ele>51</ele>
        <time>2019-03-30T11:05:26.000Z</time>
      </trkpt>
      <trkpt lat="50.76693" lon="5.72585">
        <ele>50.599998474121</ele>
        <time>2019-03-30T11:05:29.000Z</time>
      </trkpt>
      <trkpt lat="50.76714" lon="5.72496">
        <ele>50</ele>
        <time>2019-03-30T11:05:37.000Z</time>
      </trkpt>
      <trkpt lat="50.76731" lon="5.72412">
        <ele>49.400001525879</ele>
        <time>2019-03-30T11:05:44.000Z</time>
      </trkpt>
      <trkpt lat="50.76736" lon="5.72387">
        <ele>49.599998474121</ele>
        <time>2019-03-30T11:05:46.000Z</time>
      </trkpt>
      <trkpt lat="50.76745" lon="5.72339">
        <ele>49.200000762939</ele>
        <time>2019-03-30T11:05:50.000Z</time>
      </trkpt>
      <trkpt lat="50.76753" lon="5.72293">
        <ele>48.799999237061</ele>
        <time>2019-03-30T11:05:54.000Z</time>
      </trkpt>
      <trkpt lat="50.76766" lon="5.72225">
        <ele>48.599998474121</ele>
        <time>2019-03-30T11:06:01.000Z</time>
      </trkpt>
      <trkpt lat="50.76774" lon="5.72183">
        <ele>49</ele>
        <time>2019-03-30T11:06:07.000Z</time>
      </trkpt>
      <trkpt lat="50.76777" lon="5.7217">
        <ele>49.200000762939</ele>
        <time>2019-03-30T11:06:11.000Z</time>
      </trkpt>
      <trkpt lat="50.76778" lon="5.72158">
        <ele>49.599998474121</ele>
        <time>2019-03-30T11:06:15.000Z</time>
      </trkpt>
      <trkpt lat="50.76777" lon="5.72155">
        <ele>49.599998474121</ele>
        <time>2019-03-30T11:06:16.000Z</time>
      </trkpt>
      <trkpt lat="50.76761" lon="5.72146">
        <ele>49.799999237061</ele>
        <time>2019-03-30T11:06:20.000Z</time>
      </trkpt>
      <trkpt lat="50.76727" lon="5.72132">
        <ele>49.799999237061</ele>
        <time>2019-03-30T11:06:26.000Z</time>
      </trkpt>
      <trkpt lat="50.76685" lon="5.72121">
        <ele>49.799999237061</ele>
        <time>2019-03-30T11:06:32.000Z</time>
      </trkpt>
      <trkpt lat="50.76629" lon="5.72109">
        <ele>49.599998474121</ele>
        <time>2019-03-30T11:06:40.000Z</time>
      </trkpt>
      <trkpt lat="50.76622" lon="5.72108">
        <ele>49.400001525879</ele>
        <time>2019-03-30T11:06:41.000Z</time>
      </trkpt>
      <trkpt lat="50.76567" lon="5.72105">
        <ele>49.400001525879</ele>
        <time>2019-03-30T11:06:49.000Z</time>
      </trkpt>
      <trkpt lat="50.76509" lon="5.72106">
        <ele>49.200000762939</ele>
        <time>2019-03-30T11:06:57.000Z</time>
      </trkpt>
      <trkpt lat="50.76502" lon="5.72106">
        <ele>49.200000762939</ele>
        <time>2019-03-30T11:06:58.000Z</time>
      </trkpt>
      <trkpt lat="50.76466" lon="5.72107">
        <ele>49.200000762939</ele>
        <time>2019-03-30T11:07:03.000Z</time>
      </trkpt>
      <trkpt lat="50.76453" lon="5.72112">
        <ele>49.200000762939</ele>
        <time>2019-03-30T11:07:05.000Z</time>
      </trkpt>
      <trkpt lat="50.76432" lon="5.7212">
        <ele>49.200000762939</ele>
        <time>2019-03-30T11:07:08.000Z</time>
      </trkpt>
      <trkpt lat="50.76417" lon="5.72125">
        <ele>49.200000762939</ele>
        <time>2019-03-30T11:07:10.000Z</time>
      </trkpt>
      <trkpt lat="50.76378" lon="5.72136">
        <ele>49.200000762939</ele>
        <time>2019-03-30T11:07:16.000Z</time>
      </trkpt>
      <trkpt lat="50.76367" lon="5.72141">
        <ele>64.6</ele>
      </trkpt>
      <trkpt lat="50.76362" lon="5.72126">
        <ele>49.200000762939</ele>
        <time>2019-03-30T11:07:20.000Z</time>
      </trkpt>
      <trkpt lat="50.76356" lon="5.7209">
        <ele>49.200000762939</ele>
        <time>2019-03-30T11:07:24.000Z</time>
      </trkpt>
      <trkpt lat="50.76347" lon="5.72024">
        <ele>62.7</ele>
      </trkpt>
      <trkpt lat="50.76344" lon="5.7199">
        <ele>62</ele>
      </trkpt>
      <trkpt lat="50.76338" lon="5.71967">
        <ele>61.7</ele>
      </trkpt>
      <trkpt lat="50.76325" lon="5.71945">
        <ele>48.799999237061</ele>
        <time>2019-03-30T11:07:38.000Z</time>
      </trkpt>
      <trkpt lat="50.76306" lon="5.71925">
        <ele>48.799999237061</ele>
        <time>2019-03-30T11:07:41.000Z</time>
      </trkpt>
      <trkpt lat="50.76299" lon="5.71919">
        <ele>48.799999237061</ele>
        <time>2019-03-30T11:07:42.000Z</time>
      </trkpt>
      <trkpt lat="50.7625" lon="5.71867">
        <ele>60.1</ele>
      </trkpt>
      <trkpt lat="50.76236" lon="5.71855">
        <ele>48</ele>
        <time>2019-03-30T11:07:51.000Z</time>
      </trkpt>
      <trkpt lat="50.76174" lon="5.7179">
        <ele>58.6</ele>
      </trkpt>
      <trkpt lat="50.76126" lon="5.71742">
        <ele>45.799999237061</ele>
        <time>2019-03-30T11:08:07.000Z</time>
      </trkpt>
      <trkpt lat="50.76105" lon="5.71711">
        <ele>58.7</ele>
      </trkpt>
      <trkpt lat="50.76058" lon="5.71646">
        <ele>59.6</ele>
      </trkpt>
      <trkpt lat="50.76036" lon="5.71613">
        <ele>60</ele>
      </trkpt>
      <trkpt lat="50.76015" lon="5.71587">
        <ele>45.599998474121</ele>
        <time>2019-03-30T11:08:25.000Z</time>
      </trkpt>
      <trkpt lat="50.76008" lon="5.7158">
        <ele>45.599998474121</ele>
        <time>2019-03-30T11:08:26.000Z</time>
      </trkpt>
      <trkpt lat="50.7597" lon="5.7156">
        <ele>60</ele>
      </trkpt>
      <trkpt lat="50.75948" lon="5.71547">
        <ele>60</ele>
      </trkpt>
      <trkpt lat="50.75924" lon="5.71526">
        <ele>46</ele>
        <time>2019-03-30T11:08:37.000Z</time>
      </trkpt>
      <trkpt lat="50.75877" lon="5.71482">
        <ele>45.799999237061</ele>
        <time>2019-03-30T11:08:44.000Z</time>
      </trkpt>
      <trkpt lat="50.75856" lon="5.71463">
        <ele>45.799999237061</ele>
        <time>2019-03-30T11:08:47.000Z</time>
      </trkpt>
      <trkpt lat="50.7581" lon="5.71436">
        <ele>60.3</ele>
      </trkpt>
      <trkpt lat="50.75756" lon="5.71394">
        <ele>45.599998474121</ele>
        <time>2019-03-30T11:09:00.000Z</time>
      </trkpt>
      <trkpt lat="50.75716" lon="5.71363">
        <ele>45.200000762939</ele>
        <time>2019-03-30T11:09:06.000Z</time>
      </trkpt>
      <trkpt lat="50.75701" lon="5.71351">
        <ele>45.200000762939</ele>
        <time>2019-03-30T11:09:09.000Z</time>
      </trkpt>
      <trkpt lat="50.75699" lon="5.71346">
        <ele>45</ele>
        <time>2019-03-30T11:09:10.000Z</time>
      </trkpt>
      <trkpt lat="50.757" lon="5.71323">
        <ele>45</ele>
        <time>2019-03-30T11:09:13.000Z</time>
      </trkpt>
      <trkpt lat="50.75707" lon="5.71253">
        <ele>59.8</ele>
      </trkpt>
      <trkpt lat="50.75715" lon="5.7117">
        <ele>44.400001525879</ele>
        <time>2019-03-30T11:09:26.000Z</time>
      </trkpt>
      <trkpt lat="50.75716" lon="5.71159">
        <ele>44.400001525879</ele>
        <time>2019-03-30T11:09:27.000Z</time>
      </trkpt>
      <trkpt lat="50.75728" lon="5.71079">
        <ele>44.400001525879</ele>
        <time>2019-03-30T11:09:34.000Z</time>
      </trkpt>
      <trkpt lat="50.75735" lon="5.7102">
        <ele>44.200000762939</ele>
        <time>2019-03-30T11:09:39.000Z</time>
      </trkpt>
      <trkpt lat="50.75733" lon="5.71009">
        <ele>44.200000762939</ele>
        <time>2019-03-30T11:09:40.000Z</time>
      </trkpt>
      <trkpt lat="50.75716" lon="5.70983">
        <ele>44.200000762939</ele>
        <time>2019-03-30T11:09:43.000Z</time>
      </trkpt>
      <trkpt lat="50.75701" lon="5.7097">
        <ele>44</ele>
        <time>2019-03-30T11:09:45.000Z</time>
      </trkpt>
      <trkpt lat="50.75694" lon="5.70964">
        <ele>44</ele>
        <time>2019-03-30T11:09:46.000Z</time>
      </trkpt>
      <trkpt lat="50.75686" lon="5.70958">
        <ele>44</ele>
        <time>2019-03-30T11:09:47.000Z</time>
      </trkpt>
      <trkpt lat="50.75678" lon="5.70952">
        <ele>43.799999237061</ele>
        <time>2019-03-30T11:09:48.000Z</time>
      </trkpt>
      <trkpt lat="50.75639" lon="5.70934">
        <ele>43.599998474121</ele>
        <time>2019-03-30T11:09:53.000Z</time>
      </trkpt>
      <trkpt lat="50.75592" lon="5.70911">
        <ele>60.6</ele>
      </trkpt>
      <trkpt lat="50.75555" lon="5.70881">
        <ele>43</ele>
        <time>2019-03-30T11:10:05.000Z</time>
      </trkpt>
      <trkpt lat="50.75558" lon="5.70868">
        <ele>58.5</ele>
      </trkpt>
      <trkpt lat="50.75559" lon="5.70859">
        <ele>58.5</ele>
      </trkpt>
      <trkpt lat="50.75562" lon="5.70847">
        <ele>58.5</ele>
      </trkpt>
      <trkpt lat="50.75565" lon="5.70823">
        <ele>57.8</ele>
      </trkpt>
      <trkpt lat="50.7556" lon="5.70813">
        <ele>57.5</ele>
      </trkpt>
      <trkpt lat="50.75548" lon="5.70808">
        <ele>57.2</ele>
      </trkpt>
      <trkpt lat="50.75541" lon="5.70807">
        <ele>57</ele>
      </trkpt>
      <trkpt lat="50.75537" lon="5.70772">
        <ele>56.8</ele>
      </trkpt>
      <trkpt lat="50.75534" lon="5.70728">
        <ele>56</ele>
      </trkpt>
      <trkpt lat="50.75536" lon="5.70674">
        <ele>55.9</ele>
      </trkpt>
      <trkpt lat="50.7554" lon="5.70621">
        <ele>56</ele>
      </trkpt>
      <trkpt lat="50.75545" lon="5.70581">
        <ele>56</ele>
      </trkpt>
      <trkpt lat="50.75553" lon="5.70548">
        <ele>55.8</ele>
      </trkpt>
      <trkpt lat="50.75563" lon="5.70531">
        <ele>55.8</ele>
      </trkpt>
      <trkpt lat="50.75575" lon="5.70515">
        <ele>41.599998474121</ele>
        <time>2019-03-30T11:17:36.000Z</time>
      </trkpt>
      <trkpt lat="50.75587" lon="5.70499">
        <ele>41.599998474121</ele>
        <time>2019-03-30T11:17:39.000Z</time>
      </trkpt>
      <trkpt lat="50.75591" lon="5.70493">
        <ele>41.599998474121</ele>
        <time>2019-03-30T11:17:40.000Z</time>
      </trkpt>
      <trkpt lat="50.75601" lon="5.70462">
        <ele>41.599998474121</ele>
        <time>2019-03-30T11:17:44.000Z</time>
      </trkpt>
      <trkpt lat="50.75603" lon="5.70444">
        <ele>41.400001525879</ele>
        <time>2019-03-30T11:17:46.000Z</time>
      </trkpt>
      <trkpt lat="50.75605" lon="5.70407">
        <ele>41.400001525879</ele>
        <time>2019-03-30T11:17:50.000Z</time>
      </trkpt>
      <trkpt lat="50.75603" lon="5.70379">
        <ele>41.200000762939</ele>
        <time>2019-03-30T11:17:53.000Z</time>
      </trkpt>
      <trkpt lat="50.756" lon="5.70361">
        <ele>41.200000762939</ele>
        <time>2019-03-30T11:17:55.000Z</time>
      </trkpt>
      <trkpt lat="50.75587" lon="5.7031">
        <ele>54.1</ele>
      </trkpt>
      <trkpt lat="50.75577" lon="5.7026">
        <ele>55.1</ele>
      </trkpt>
      <trkpt lat="50.75572" lon="5.70216">
        <ele>56</ele>
      </trkpt>
      <trkpt lat="50.75569" lon="5.70179">
        <ele>56.6</ele>
      </trkpt>
      <trkpt lat="50.75574" lon="5.70122">
        <ele>57</ele>
      </trkpt>
      <trkpt lat="50.75575" lon="5.70088">
        <ele>57</ele>
      </trkpt>
      <trkpt lat="50.75572" lon="5.70048">
        <ele>56.3</ele>
      </trkpt>
      <trkpt lat="50.7556" lon="5.70005">
        <ele>55.8</ele>
      </trkpt>
      <trkpt lat="50.75539" lon="5.69964">
        <ele>42</ele>
        <time>2019-03-30T11:18:38.000Z</time>
      </trkpt>
      <trkpt lat="50.75496" lon="5.69899">
        <ele>41.799999237061</ele>
        <time>2019-03-30T11:18:47.000Z</time>
      </trkpt>
      <trkpt lat="50.75491" lon="5.69892">
        <ele>41.799999237061</ele>
        <time>2019-03-30T11:18:48.000Z</time>
      </trkpt>
      <trkpt lat="50.75466" lon="5.69855">
        <ele>55.9</ele>
      </trkpt>
      <trkpt lat="50.75439" lon="5.69815">
        <ele>56.3</ele>
      </trkpt>
      <trkpt lat="50.75412" lon="5.69778">
        <ele>57.2</ele>
      </trkpt>
      <trkpt lat="50.75397" lon="5.69745">
        <ele>57.5</ele>
      </trkpt>
      <trkpt lat="50.75392" lon="5.69729">
        <ele>57</ele>
      </trkpt>
      <trkpt lat="50.75379" lon="5.69737">
        <ele>57.2</ele>
      </trkpt>
      <trkpt lat="50.75362" lon="5.69743">
        <ele>57</ele>
      </trkpt>
      <trkpt lat="50.75349" lon="5.69743">
        <ele>56.7</ele>
      </trkpt>
      <trkpt lat="50.75334" lon="5.69742">
        <ele>56</ele>
      </trkpt>
      <trkpt lat="50.75319" lon="5.69737">
        <ele>56.4</ele>
      </trkpt>
      <trkpt lat="50.753" lon="5.69732">
        <ele>57</ele>
      </trkpt>
      <trkpt lat="50.75284" lon="5.69723">
        <ele>56.6</ele>
      </trkpt>
      <trkpt lat="50.75254" lon="5.69696">
        <ele>56.8</ele>
      </trkpt>
      <trkpt lat="50.75246" lon="5.69685">
        <ele>56.3</ele>
      </trkpt>
      <trkpt lat="50.75216" lon="5.69654">
        <ele>44.799999237061</ele>
        <time>2019-03-30T11:19:42.000Z</time>
      </trkpt>
      <trkpt lat="50.75197" lon="5.69635">
        <ele>44.400001525879</ele>
        <time>2019-03-30T11:19:45.000Z</time>
      </trkpt>
      <trkpt lat="50.75178" lon="5.69614">
        <ele>43.599998474121</ele>
        <time>2019-03-30T11:19:48.000Z</time>
      </trkpt>
      <trkpt lat="50.75166" lon="5.69599">
        <ele>43.400001525879</ele>
        <time>2019-03-30T11:19:50.000Z</time>
      </trkpt>
      <trkpt lat="50.75161" lon="5.69591">
        <ele>43.200000762939</ele>
        <time>2019-03-30T11:19:51.000Z</time>
      </trkpt>
      <trkpt lat="50.75137" lon="5.69546">
        <ele>42.599998474121</ele>
        <time>2019-03-30T11:19:56.000Z</time>
      </trkpt>
      <trkpt lat="50.75123" lon="5.69519">
        <ele>41.799999237061</ele>
        <time>2019-03-30T11:19:59.000Z</time>
      </trkpt>
      <trkpt lat="50.75106" lon="5.69496">
        <ele>41.400001525879</ele>
        <time>2019-03-30T11:20:02.000Z</time>
      </trkpt>
      <trkpt lat="50.75094" lon="5.69483">
        <ele>41.400001525879</ele>
        <time>2019-03-30T11:20:04.000Z</time>
      </trkpt>
      <trkpt lat="50.75088" lon="5.69479">
        <ele>41.200000762939</ele>
        <time>2019-03-30T11:20:05.000Z</time>
      </trkpt>
      <trkpt lat="50.75061" lon="5.69466">
        <ele>41</ele>
        <time>2019-03-30T11:20:09.000Z</time>
      </trkpt>
      <trkpt lat="50.75031" lon="5.69463">
        <ele>53.9</ele>
      </trkpt>
      <trkpt lat="50.75022" lon="5.69468">
        <ele>53.9</ele>
      </trkpt>
      <trkpt lat="50.74991" lon="5.69493">
        <ele>53.8</ele>
      </trkpt>
      <trkpt lat="50.7498" lon="5.69492">
        <ele>54.3</ele>
      </trkpt>
      <trkpt lat="50.74969" lon="5.69478">
        <ele>54.9</ele>
      </trkpt>
      <trkpt lat="50.74968" lon="5.69459">
        <ele>55</ele>
      </trkpt>
      <trkpt lat="50.74956" lon="5.69444">
        <ele>55.4</ele>
      </trkpt>
      <trkpt lat="50.74944" lon="5.69447">
        <ele>56</ele>
      </trkpt>
      <trkpt lat="50.74939" lon="5.69455">
        <ele>55.6</ele>
      </trkpt>
      <trkpt lat="50.74934" lon="5.69481">
        <ele>55.5</ele>
      </trkpt>
      <trkpt lat="50.74927" lon="5.69492">
        <ele>55.7</ele>
      </trkpt>
      <trkpt lat="50.74918" lon="5.69503">
        <ele>42.200000762939</ele>
        <time>2019-03-30T11:20:40.000Z</time>
      </trkpt>
      <trkpt lat="50.74904" lon="5.69513">
        <ele>56</ele>
      </trkpt>
      <trkpt lat="50.74893" lon="5.69515">
        <ele>42</ele>
        <time>2019-03-30T11:20:44.000Z</time>
      </trkpt>
      <trkpt lat="50.74878" lon="5.69517">
        <ele>56</ele>
      </trkpt>
      <trkpt lat="50.74866" lon="5.69511">
        <ele>42</ele>
        <time>2019-03-30T11:20:48.000Z</time>
      </trkpt>
      <trkpt lat="50.74835" lon="5.69483">
        <ele>55.9</ele>
      </trkpt>
      <trkpt lat="50.74798" lon="5.69446">
        <ele>42.400001525879</ele>
        <time>2019-03-30T11:21:00.000Z</time>
      </trkpt>
      <trkpt lat="50.74782" lon="5.69427">
        <ele>42.599998474121</ele>
        <time>2019-03-30T11:21:03.000Z</time>
      </trkpt>
      <trkpt lat="50.74754" lon="5.69399">
        <ele>43</ele>
        <time>2019-03-30T11:21:08.000Z</time>
      </trkpt>
      <trkpt lat="50.74716" lon="5.69366">
        <ele>43.400001525879</ele>
        <time>2019-03-30T11:21:15.000Z</time>
      </trkpt>
      <trkpt lat="50.74705" lon="5.69361">
        <ele>43.799999237061</ele>
        <time>2019-03-30T11:21:17.000Z</time>
      </trkpt>
      <trkpt lat="50.7468" lon="5.69358">
        <ele>56</ele>
      </trkpt>
      <trkpt lat="50.74655" lon="5.69365">
        <ele>57</ele>
      </trkpt>
      <trkpt lat="50.74644" lon="5.69369">
        <ele>57</ele>
      </trkpt>
      <trkpt lat="50.74633" lon="5.69377">
        <ele>57</ele>
      </trkpt>
      <trkpt lat="50.74612" lon="5.69399">
        <ele>57</ele>
      </trkpt>
      <trkpt lat="50.74595" lon="5.69426">
        <ele>57.3</ele>
      </trkpt>
      <trkpt lat="50.74585" lon="5.69455">
        <ele>57.8</ele>
      </trkpt>
      <trkpt lat="50.74574" lon="5.69494">
        <ele>60.4</ele>
      </trkpt>
      <trkpt lat="50.74555" lon="5.6957">
        <ele>63.5</ele>
      </trkpt>
      <trkpt lat="50.74541" lon="5.69623">
        <ele>63.1</ele>
      </trkpt>
      <trkpt lat="50.74529" lon="5.69667">
        <ele>62</ele>
      </trkpt>
      <trkpt lat="50.74516" lon="5.69715">
        <ele>61.7</ele>
      </trkpt>
      <trkpt lat="50.74504" lon="5.69754">
        <ele>62.6</ele>
      </trkpt>
      <trkpt lat="50.74492" lon="5.69797">
        <ele>66.8</ele>
      </trkpt>
      <trkpt lat="50.74472" lon="5.69867">
        <ele>68.3</ele>
      </trkpt>
      <trkpt lat="50.74464" lon="5.69895">
        <ele>68.8</ele>
      </trkpt>
      <trkpt lat="50.74452" lon="5.69932">
        <ele>49</ele>
        <time>2019-03-30T11:22:22.000Z</time>
      </trkpt>
      <trkpt lat="50.74444" lon="5.69965">
        <ele>69.8</ele>
      </trkpt>
      <trkpt lat="50.74436" lon="5.69997">
        <ele>70.4</ele>
      </trkpt>
      <trkpt lat="50.74429" lon="5.70029">
        <ele>70.2</ele>
      </trkpt>
      <trkpt lat="50.74418" lon="5.70084">
        <ele>54</ele>
        <time>2019-03-30T11:22:39.000Z</time>
      </trkpt>
      <trkpt lat="50.74413" lon="5.70111">
        <ele>72.8</ele>
      </trkpt>
      <trkpt lat="50.74394" lon="5.7009">
        <ele>54.599998474121</ele>
        <time>2019-03-30T11:22:46.000Z</time>
      </trkpt>
      <trkpt lat="50.74366" lon="5.70062">
        <ele>55.200000762939</ele>
        <time>2019-03-30T11:22:52.000Z</time>
      </trkpt>
      <trkpt lat="50.74324" lon="5.70024">
        <ele>74.1</ele>
      </trkpt>
      <trkpt lat="50.74288" lon="5.69988">
        <ele>73.4</ele>
      </trkpt>
      <trkpt lat="50.74256" lon="5.69961">
        <ele>57.200000762939</ele>
        <time>2019-03-30T11:23:11.000Z</time>
      </trkpt>
      <trkpt lat="50.74244" lon="5.69949">
        <ele>74.5</ele>
      </trkpt>
      <trkpt lat="50.74193" lon="5.69903">
        <ele>72.9</ele>
      </trkpt>
      <trkpt lat="50.7416" lon="5.69873">
        <ele>75.6</ele>
      </trkpt>
      <trkpt lat="50.74173" lon="5.69839">
        <ele>72.7</ele>
      </trkpt>
      <trkpt lat="50.74187" lon="5.69803">
        <ele>69.6</ele>
      </trkpt>
      <trkpt lat="50.742" lon="5.6973">
        <ele>64.3</ele>
      </trkpt>
      <trkpt lat="50.74206" lon="5.69697">
        <ele>62.6</ele>
      </trkpt>
      <trkpt lat="50.74214" lon="5.6965">
        <ele>58.6</ele>
      </trkpt>
      <trkpt lat="50.7422" lon="5.6961">
        <ele>51.200000762939</ele>
        <time>2019-03-30T11:23:49.000Z</time>
      </trkpt>
      <trkpt lat="50.74226" lon="5.69578">
        <ele>49.599998474121</ele>
        <time>2019-03-30T11:23:51.000Z</time>
      </trkpt>
      <trkpt lat="50.74231" lon="5.6955">
        <ele>48</ele>
        <time>2019-03-30T11:23:53.000Z</time>
      </trkpt>
      <trkpt lat="50.74236" lon="5.69525">
        <ele>57.3</ele>
      </trkpt>
      <trkpt lat="50.74242" lon="5.69487">
        <ele>56.8</ele>
      </trkpt>
      <trkpt lat="50.74225" lon="5.69477">
        <ele>56.6</ele>
      </trkpt>
      <trkpt lat="50.74193" lon="5.69463">
        <ele>56.6</ele>
      </trkpt>
      <trkpt lat="50.74139" lon="5.69439">
        <ele>42.200000762939</ele>
        <time>2019-03-30T11:24:16.000Z</time>
      </trkpt>
      <trkpt lat="50.74132" lon="5.69436">
        <ele>42.200000762939</ele>
        <time>2019-03-30T11:24:17.000Z</time>
      </trkpt>
      <trkpt lat="50.74075" lon="5.69409">
        <ele>56.8</ele>
      </trkpt>
      <trkpt lat="50.74024" lon="5.69385">
        <ele>56.6</ele>
      </trkpt>
      <trkpt lat="50.73972" lon="5.69363">
        <ele>57.3</ele>
      </trkpt>
      <trkpt lat="50.73956" lon="5.69356">
        <ele>58</ele>
      </trkpt>
      <trkpt lat="50.73942" lon="5.69342">
        <ele>57</ele>
      </trkpt>
      <trkpt lat="50.73929" lon="5.69333">
        <ele>41.799999237061</ele>
        <time>2019-03-30T11:24:47.000Z</time>
      </trkpt>
      <trkpt lat="50.73885" lon="5.6931">
        <ele>57.4</ele>
      </trkpt>
      <trkpt lat="50.73834" lon="5.69285">
        <ele>57.7</ele>
      </trkpt>
      <trkpt lat="50.73797" lon="5.6928">
        <ele>43.799999237061</ele>
        <time>2019-03-30T11:25:09.000Z</time>
      </trkpt>
      <trkpt lat="50.73758" lon="5.69281">
        <ele>59.6</ele>
      </trkpt>
      <trkpt lat="50.73752" lon="5.69238">
        <ele>57</ele>
      </trkpt>
      <trkpt lat="50.73749" lon="5.69202">
        <ele>54.9</ele>
      </trkpt>
      <trkpt lat="50.73743" lon="5.69137">
        <ele>53</ele>
      </trkpt>
      <trkpt lat="50.73736" lon="5.69072">
        <ele>53.3</ele>
      </trkpt>
      <trkpt lat="50.73725" lon="5.6896">
        <ele>49.799999237061</ele>
        <time>2019-03-30T11:25:57.000Z</time>
      </trkpt>
      <trkpt lat="50.73716" lon="5.68874">
        <ele>55.6</ele>
      </trkpt>
      <trkpt lat="50.73714" lon="5.68832">
        <ele>48.599998474121</ele>
        <time>2019-03-30T11:26:09.000Z</time>
      </trkpt>
      <trkpt lat="50.73713" lon="5.68809">
        <ele>48</ele>
        <time>2019-03-30T11:26:11.000Z</time>
      </trkpt>
      <trkpt lat="50.73713" lon="5.68794">
        <ele>56.5</ele>
      </trkpt>
      <trkpt lat="50.73717" lon="5.68749">
        <ele>46.799999237061</ele>
        <time>2019-03-30T11:26:16.000Z</time>
      </trkpt>
      <trkpt lat="50.73721" lon="5.68723">
        <ele>46.200000762939</ele>
        <time>2019-03-30T11:26:18.000Z</time>
      </trkpt>
      <trkpt lat="50.73723" lon="5.68711">
        <ele>45.400001525879</ele>
        <time>2019-03-30T11:26:19.000Z</time>
      </trkpt>
      <trkpt lat="50.7373" lon="5.68673">
        <ele>44.400001525879</ele>
        <time>2019-03-30T11:26:22.000Z</time>
      </trkpt>
      <trkpt lat="50.7374" lon="5.68629">
        <ele>43.400001525879</ele>
        <time>2019-03-30T11:26:26.000Z</time>
      </trkpt>
      <trkpt lat="50.73742" lon="5.68619">
        <ele>43.200000762939</ele>
        <time>2019-03-30T11:26:27.000Z</time>
      </trkpt>
      <trkpt lat="50.73748" lon="5.68595">
        <ele>42.200000762939</ele>
        <time>2019-03-30T11:26:30.000Z</time>
      </trkpt>
      <trkpt lat="50.73749" lon="5.68585">
        <ele>41.799999237061</ele>
        <time>2019-03-30T11:26:31.000Z</time>
      </trkpt>
      <trkpt lat="50.73753" lon="5.68564">
        <ele>41</ele>
        <time>2019-03-30T11:26:33.000Z</time>
      </trkpt>
      <trkpt lat="50.7376" lon="5.68518">
        <ele>40.799999237061</ele>
        <time>2019-03-30T11:26:37.000Z</time>
      </trkpt>
      <trkpt lat="50.7377" lon="5.68438">
        <ele>55.3</ele>
      </trkpt>
      <trkpt lat="50.73774" lon="5.68405">
        <ele>55</ele>
      </trkpt>
      <trkpt lat="50.73775" lon="5.68377">
        <ele>40.400001525879</ele>
        <time>2019-03-30T11:26:49.000Z</time>
      </trkpt>
      <trkpt lat="50.73773" lon="5.68364">
        <ele>55</ele>
      </trkpt>
      <trkpt lat="50.73765" lon="5.68342">
        <ele>55.4</ele>
      </trkpt>
      <trkpt lat="50.73757" lon="5.68324">
        <ele>40.599998474121</ele>
        <time>2019-03-30T11:26:55.000Z</time>
      </trkpt>
      <trkpt lat="50.73727" lon="5.68282">
        <ele>56.2</ele>
      </trkpt>
      <trkpt lat="50.73697" lon="5.68239">
        <ele>57</ele>
      </trkpt>
      <trkpt lat="50.73663" lon="5.68191">
        <ele>58.3</ele>
      </trkpt>
      <trkpt lat="50.73645" lon="5.68165">
        <ele>58.2</ele>
      </trkpt>
      <trkpt lat="50.73617" lon="5.68126">
        <ele>58.4</ele>
      </trkpt>
      <trkpt lat="50.73588" lon="5.68077">
        <ele>58.5</ele>
      </trkpt>
      <trkpt lat="50.73575" lon="5.68048">
        <ele>58</ele>
      </trkpt>
      <trkpt lat="50.73562" lon="5.68012">
        <ele>57.6</ele>
      </trkpt>
      <trkpt lat="50.73554" lon="5.67984">
        <ele>57</ele>
      </trkpt>
      <trkpt lat="50.73546" lon="5.67948">
        <ele>57.6</ele>
      </trkpt>
      <trkpt lat="50.73539" lon="5.67909">
        <ele>57.8</ele>
      </trkpt>
      <trkpt lat="50.73539" lon="5.67895">
        <ele>57.8</ele>
      </trkpt>
      <trkpt lat="50.73537" lon="5.6787">
        <ele>57.7</ele>
      </trkpt>
      <trkpt lat="50.73547" lon="5.67863">
        <ele>47.599998474121</ele>
        <time>2019-03-30T11:27:56.000Z</time>
      </trkpt>
      <trkpt lat="50.73549" lon="5.67856">
        <ele>48</ele>
        <time>2019-03-30T11:27:57.000Z</time>
      </trkpt>
      <trkpt lat="50.7355" lon="5.6784">
        <ele>49.200000762939</ele>
        <time>2019-03-30T11:27:59.000Z</time>
      </trkpt>
      <trkpt lat="50.73545" lon="5.67823">
        <ele>57</ele>
      </trkpt>
      <trkpt lat="50.7354" lon="5.6782">
        <ele>57</ele>
      </trkpt>
      <trkpt lat="50.73539" lon="5.67808">
        <ele>56.9</ele>
      </trkpt>
      <trkpt lat="50.73541" lon="5.67778">
        <ele>56.6</ele>
      </trkpt>
      <trkpt lat="50.73542" lon="5.67739">
        <ele>56</ele>
      </trkpt>
      <trkpt lat="50.73544" lon="5.6769">
        <ele>56</ele>
      </trkpt>
      <trkpt lat="50.73548" lon="5.67593">
        <ele>57</ele>
      </trkpt>
      <trkpt lat="50.7355" lon="5.67528">
        <ele>58.3</ele>
      </trkpt>
      <trkpt lat="50.73553" lon="5.67466">
        <ele>58.9</ele>
      </trkpt>
      <trkpt lat="50.73555" lon="5.67416">
        <ele>59.3</ele>
      </trkpt>
      <trkpt lat="50.73557" lon="5.67366">
        <ele>59.6</ele>
      </trkpt>
      <trkpt lat="50.73559" lon="5.67314">
        <ele>59.8</ele>
      </trkpt>
      <trkpt lat="50.73562" lon="5.67273">
        <ele>59.6</ele>
      </trkpt>
      <trkpt lat="50.73564" lon="5.67233">
        <ele>59.2</ele>
      </trkpt>
      <trkpt lat="50.73569" lon="5.67199">
        <ele>45.200000762939</ele>
        <time>2019-03-30T11:29:01.000Z</time>
      </trkpt>
      <trkpt lat="50.73578" lon="5.6716">
        <ele>59.1</ele>
      </trkpt>
      <trkpt lat="50.73584" lon="5.67136">
        <ele>44.599998474121</ele>
        <time>2019-03-30T11:29:07.000Z</time>
      </trkpt>
      <trkpt lat="50.73593" lon="5.67123">
        <ele>59.5</ele>
      </trkpt>
      <trkpt lat="50.73593" lon="5.6711">
        <ele>59.6</ele>
      </trkpt>
      <trkpt lat="50.73591" lon="5.67101">
        <ele>60</ele>
      </trkpt>
      <trkpt lat="50.73586" lon="5.67094">
        <ele>44.599998474121</ele>
        <time>2019-03-30T11:29:12.000Z</time>
      </trkpt>
      <trkpt lat="50.73574" lon="5.67094">
        <ele>59.7</ele>
      </trkpt>
      <trkpt lat="50.73564" lon="5.67098">
        <ele>59.5</ele>
      </trkpt>
      <trkpt lat="50.73547" lon="5.67099">
        <ele>59.4</ele>
      </trkpt>
      <trkpt lat="50.73516" lon="5.67098">
        <ele>59.2</ele>
      </trkpt>
      <trkpt lat="50.73503" lon="5.67098">
        <ele>59.1</ele>
      </trkpt>
      <trkpt lat="50.73494" lon="5.67094">
        <ele>58.8</ele>
      </trkpt>
      <trkpt lat="50.7349" lon="5.67074">
        <ele>58.8</ele>
      </trkpt>
      <trkpt lat="50.73488" lon="5.67064">
        <ele>58.7</ele>
      </trkpt>
      <trkpt lat="50.73477" lon="5.67051">
        <ele>58.5</ele>
      </trkpt>
      <trkpt lat="50.7347" lon="5.67044">
        <ele>58.5</ele>
      </trkpt>
      <trkpt lat="50.73459" lon="5.67034">
        <ele>44.599998474121</ele>
        <time>2019-03-30T11:29:36.000Z</time>
      </trkpt>
      <trkpt lat="50.73446" lon="5.67014">
        <ele>45</ele>
        <time>2019-03-30T11:29:39.000Z</time>
      </trkpt>
      <trkpt lat="50.73443" lon="5.67005">
        <ele>45.200000762939</ele>
        <time>2019-03-30T11:29:40.000Z</time>
      </trkpt>
      <trkpt lat="50.73429" lon="5.6696">
        <ele>45.799999237061</ele>
        <time>2019-03-30T11:29:45.000Z</time>
      </trkpt>
      <trkpt lat="50.73414" lon="5.66901">
        <ele>46.400001525879</ele>
        <time>2019-03-30T11:29:51.000Z</time>
      </trkpt>
      <trkpt lat="50.7341" lon="5.66885">
        <ele>58.7</ele>
      </trkpt>
      <trkpt lat="50.73388" lon="5.66813">
        <ele>59.6</ele>
      </trkpt>
      <trkpt lat="50.73366" lon="5.6682">
        <ele>59.7</ele>
      </trkpt>
      <trkpt lat="50.73349" lon="5.66827">
        <ele>59.9</ele>
      </trkpt>
      <trkpt lat="50.73336" lon="5.66789">
        <ele>59.8</ele>
      </trkpt>
      <trkpt lat="50.73316" lon="5.66729">
        <ele>60.9</ele>
      </trkpt>
      <trkpt lat="50.73312" lon="5.66706">
        <ele>61.2</ele>
      </trkpt>
      <trkpt lat="50.73313" lon="5.66682">
        <ele>46</ele>
        <time>2019-03-30T11:30:25.000Z</time>
      </trkpt>
      <trkpt lat="50.73315" lon="5.66666">
        <ele>62.6</ele>
      </trkpt>
      <trkpt lat="50.73312" lon="5.66653">
        <ele>62.8</ele>
      </trkpt>
      <trkpt lat="50.73294" lon="5.66578">
        <ele>65.2</ele>
      </trkpt>
      <trkpt lat="50.73274" lon="5.66516">
        <ele>65.5</ele>
      </trkpt>
      <trkpt lat="50.73259" lon="5.66464">
        <ele>66.4</ele>
      </trkpt>
      <trkpt lat="50.73243" lon="5.66413">
        <ele>65.7</ele>
      </trkpt>
      <trkpt lat="50.73216" lon="5.66339">
        <ele>64.9</ele>
      </trkpt>
      <trkpt lat="50.73188" lon="5.66263">
        <ele>65.4</ele>
      </trkpt>
      <trkpt lat="50.73162" lon="5.66192">
        <ele>48.799999237061</ele>
        <time>2019-03-30T11:31:18.000Z</time>
      </trkpt>
      <trkpt lat="50.73151" lon="5.66166">
        <ele>49.200000762939</ele>
        <time>2019-03-30T11:31:21.000Z</time>
      </trkpt>
      <trkpt lat="50.73128" lon="5.66118">
        <ele>66.1</ele>
      </trkpt>
      <trkpt lat="50.73102" lon="5.66071">
        <ele>67.3</ele>
      </trkpt>
      <trkpt lat="50.73082" lon="5.66041">
        <ele>66.7</ele>
      </trkpt>
      <trkpt lat="50.73059" lon="5.66004">
        <ele>67</ele>
      </trkpt>
      <trkpt lat="50.73033" lon="5.65941">
        <ele>67.7</ele>
      </trkpt>
      <trkpt lat="50.73006" lon="5.65873">
        <ele>69.8</ele>
      </trkpt>
      <trkpt lat="50.72982" lon="5.65812">
        <ele>53.400001525879</ele>
        <time>2019-03-30T11:32:04.000Z</time>
      </trkpt>
      <trkpt lat="50.72976" lon="5.65793">
        <ele>53.400001525879</ele>
        <time>2019-03-30T11:32:06.000Z</time>
      </trkpt>
      <trkpt lat="50.72959" lon="5.65733">
        <ele>53.799999237061</ele>
        <time>2019-03-30T11:32:12.000Z</time>
      </trkpt>
      <trkpt lat="50.72937" lon="5.65644">
        <ele>54.200000762939</ele>
        <time>2019-03-30T11:32:21.000Z</time>
      </trkpt>
      <trkpt lat="50.72914" lon="5.65556">
        <ele>54.400001525879</ele>
        <time>2019-03-30T11:32:30.000Z</time>
      </trkpt>
      <trkpt lat="50.72906" lon="5.65531">
        <ele>71.6</ele>
      </trkpt>
      <trkpt lat="50.72891" lon="5.65494">
        <ele>54.599998474121</ele>
        <time>2019-03-30T11:32:37.000Z</time>
      </trkpt>
      <trkpt lat="50.72857" lon="5.65414">
        <ele>74.2</ele>
      </trkpt>
      <trkpt lat="50.72846" lon="5.65375">
        <ele>74.9</ele>
      </trkpt>
      <trkpt lat="50.72839" lon="5.65338">
        <ele>72.6</ele>
      </trkpt>
      <trkpt lat="50.72823" lon="5.65265">
        <ele>56</ele>
        <time>2019-03-30T11:33:01.000Z</time>
      </trkpt>
      <trkpt lat="50.72813" lon="5.65212">
        <ele>74.2</ele>
      </trkpt>
      <trkpt lat="50.72805" lon="5.65179">
        <ele>74.7</ele>
      </trkpt>
      <trkpt lat="50.72795" lon="5.65123">
        <ele>74.8</ele>
      </trkpt>
      <trkpt lat="50.72783" lon="5.65065">
        <ele>74.7</ele>
      </trkpt>
      <trkpt lat="50.72772" lon="5.64994">
        <ele>75.9</ele>
      </trkpt>
      <trkpt lat="50.72773" lon="5.64932">
        <ele>77.2</ele>
      </trkpt>
      <trkpt lat="50.72778" lon="5.64867">
        <ele>78.1</ele>
      </trkpt>
      <trkpt lat="50.72783" lon="5.64806">
        <ele>78.2</ele>
      </trkpt>
      <trkpt lat="50.7279" lon="5.64729">
        <ele>78.6</ele>
      </trkpt>
      <trkpt lat="50.72797" lon="5.64639">
        <ele>80</ele>
      </trkpt>
      <trkpt lat="50.72804" lon="5.64573">
        <ele>80.8</ele>
      </trkpt>
      <trkpt lat="50.72817" lon="5.6449">
        <ele>81.4</ele>
      </trkpt>
      <trkpt lat="50.72833" lon="5.644">
        <ele>82.9</ele>
      </trkpt>
      <trkpt lat="50.7285" lon="5.643">
        <ele>81.8</ele>
      </trkpt>
      <trkpt lat="50.72864" lon="5.64223">
        <ele>81.7</ele>
      </trkpt>
      <trkpt lat="50.72878" lon="5.64132">
        <ele>82.2</ele>
      </trkpt>
      <trkpt lat="50.72891" lon="5.64052">
        <ele>81.9</ele>
      </trkpt>
      <trkpt lat="50.72903" lon="5.63975">
        <ele>82.4</ele>
      </trkpt>
      <trkpt lat="50.729" lon="5.63944">
        <ele>82.6</ele>
      </trkpt>
      <trkpt lat="50.72891" lon="5.63901">
        <ele>83.1</ele>
      </trkpt>
      <trkpt lat="50.72872" lon="5.63846">
        <ele>83.4</ele>
      </trkpt>
      <trkpt lat="50.72884" lon="5.63833">
        <ele>84.9</ele>
      </trkpt>
      <trkpt lat="50.72892" lon="5.63823">
        <ele>85.1</ele>
      </trkpt>
      <trkpt lat="50.72899" lon="5.63811">
        <ele>85.2</ele>
      </trkpt>
      <trkpt lat="50.72908" lon="5.63776">
        <ele>86.1</ele>
      </trkpt>
      <trkpt lat="50.72915" lon="5.6374">
        <ele>88.2</ele>
      </trkpt>
      <trkpt lat="50.72926" lon="5.63697">
        <ele>89.7</ele>
      </trkpt>
      <trkpt lat="50.72937" lon="5.63662">
        <ele>92.7</ele>
      </trkpt>
      <trkpt lat="50.72943" lon="5.63634">
        <ele>93</ele>
      </trkpt>
      <trkpt lat="50.7295" lon="5.6359">
        <ele>94.1</ele>
      </trkpt>
      <trkpt lat="50.72953" lon="5.6356">
        <ele>96.3</ele>
      </trkpt>
      <trkpt lat="50.72954" lon="5.6353">
        <ele>96.6</ele>
      </trkpt>
      <trkpt lat="50.72961" lon="5.63487">
        <ele>81.400001525879</ele>
        <time>2019-03-30T11:36:39.000Z</time>
      </trkpt>
      <trkpt lat="50.72964" lon="5.6346">
        <ele>98.4</ele>
      </trkpt>
      <trkpt lat="50.72968" lon="5.63428">
        <ele>82.199996948242</ele>
        <time>2019-03-30T11:36:47.000Z</time>
      </trkpt>
      <trkpt lat="50.7297" lon="5.63405">
        <ele>82.800003051758</ele>
        <time>2019-03-30T11:36:50.000Z</time>
      </trkpt>
      <trkpt lat="50.7297" lon="5.63382">
        <ele>83.400001525879</ele>
        <time>2019-03-30T11:36:53.000Z</time>
      </trkpt>
      <trkpt lat="50.72967" lon="5.63353">
        <ele>83.800003051758</ele>
        <time>2019-03-30T11:36:57.000Z</time>
      </trkpt>
      <trkpt lat="50.72964" lon="5.63337">
        <ele>84</ele>
        <time>2019-03-30T11:36:59.000Z</time>
      </trkpt>
      <trkpt lat="50.72952" lon="5.63283">
        <ele>84.199996948242</ele>
        <time>2019-03-30T11:37:06.000Z</time>
      </trkpt>
      <trkpt lat="50.72949" lon="5.63269">
        <ele>84.400001525879</ele>
        <time>2019-03-30T11:37:08.000Z</time>
      </trkpt>
      <trkpt lat="50.72945" lon="5.63248">
        <ele>84.400001525879</ele>
        <time>2019-03-30T11:37:11.000Z</time>
      </trkpt>
      <trkpt lat="50.7294" lon="5.63228">
        <ele>102</ele>
      </trkpt>
      <trkpt lat="50.72963" lon="5.63217">
        <ele>100.7</ele>
      </trkpt>
      <trkpt lat="50.72986" lon="5.63205">
        <ele>99.7</ele>
      </trkpt>
      <trkpt lat="50.73029" lon="5.63182">
        <ele>94.9</ele>
      </trkpt>
      <trkpt lat="50.73053" lon="5.63167">
        <ele>81.599998474121</ele>
        <time>2019-03-30T11:37:30.000Z</time>
      </trkpt>
      <trkpt lat="50.73071" lon="5.63153">
        <ele>94.2</ele>
      </trkpt>
      <trkpt lat="50.73057" lon="5.63123">
        <ele>94.9</ele>
      </trkpt>
      <trkpt lat="50.73047" lon="5.63102">
        <ele>78.199996948242</ele>
        <time>2019-03-30T11:37:38.000Z</time>
      </trkpt>
      <trkpt lat="50.73034" lon="5.63075">
        <ele>95.9</ele>
      </trkpt>
      <trkpt lat="50.73005" lon="5.63028">
        <ele>96.3</ele>
      </trkpt>
      <trkpt lat="50.72995" lon="5.63013">
        <ele>79.199996948242</ele>
        <time>2019-03-30T11:37:52.000Z</time>
      </trkpt>
      <trkpt lat="50.7297" lon="5.62971">
        <ele>102.4</ele>
      </trkpt>
      <trkpt lat="50.72957" lon="5.62952">
        <ele>82.400001525879</ele>
        <time>2019-03-30T11:38:03.000Z</time>
      </trkpt>
      <trkpt lat="50.72945" lon="5.62929">
        <ele>104.4</ele>
      </trkpt>
      <trkpt lat="50.72934" lon="5.62905">
        <ele>105.8</ele>
      </trkpt>
      <trkpt lat="50.72921" lon="5.62882">
        <ele>87.199996948242</ele>
        <time>2019-03-30T11:38:18.000Z</time>
      </trkpt>
      <trkpt lat="50.72913" lon="5.62867">
        <ele>88.400001525879</ele>
        <time>2019-03-30T11:38:22.000Z</time>
      </trkpt>
      <trkpt lat="50.72907" lon="5.62855">
        <ele>110.5</ele>
      </trkpt>
      <trkpt lat="50.72896" lon="5.62841">
        <ele>90.800003051758</ele>
        <time>2019-03-30T11:38:31.000Z</time>
      </trkpt>
      <trkpt lat="50.72894" lon="5.62838">
        <ele>91.199996948242</ele>
        <time>2019-03-30T11:38:32.000Z</time>
      </trkpt>
      <trkpt lat="50.72888" lon="5.62831">
        <ele>92</ele>
        <time>2019-03-30T11:38:35.000Z</time>
      </trkpt>
      <trkpt lat="50.72878" lon="5.62826">
        <ele>112.7</ele>
      </trkpt>
      <trkpt lat="50.72861" lon="5.6282">
        <ele>114.2</ele>
      </trkpt>
      <trkpt lat="50.72848" lon="5.62816">
        <ele>115.1</ele>
      </trkpt>
      <trkpt lat="50.72834" lon="5.62809">
        <ele>115.4</ele>
      </trkpt>
      <trkpt lat="50.72821" lon="5.62794">
        <ele>119.5</ele>
      </trkpt>
      <trkpt lat="50.72809" lon="5.62779">
        <ele>119.8</ele>
      </trkpt>
      <trkpt lat="50.72792" lon="5.62767">
        <ele>120.1</ele>
      </trkpt>
      <trkpt lat="50.72769" lon="5.62748">
        <ele>121.2</ele>
      </trkpt>
      <trkpt lat="50.72769" lon="5.6273">
        <ele>121</ele>
      </trkpt>
      <trkpt lat="50.72768" lon="5.62704">
        <ele>120.9</ele>
      </trkpt>
      <trkpt lat="50.72766" lon="5.62674">
        <ele>121.2</ele>
      </trkpt>
      <trkpt lat="50.72765" lon="5.62643">
        <ele>121.3</ele>
      </trkpt>
      <trkpt lat="50.72763" lon="5.62606">
        <ele>121.9</ele>
      </trkpt>
      <trkpt lat="50.72761" lon="5.62578">
        <ele>122.8</ele>
      </trkpt>
      <trkpt lat="50.72759" lon="5.62554">
        <ele>107</ele>
        <time>2019-03-30T11:39:52.000Z</time>
      </trkpt>
      <trkpt lat="50.72754" lon="5.62528">
        <ele>122.2</ele>
      </trkpt>
      <trkpt lat="50.72749" lon="5.62509">
        <ele>123.9</ele>
      </trkpt>
      <trkpt lat="50.7274" lon="5.6247">
        <ele>123.9</ele>
      </trkpt>
      <trkpt lat="50.72716" lon="5.62467">
        <ele>124</ele>
      </trkpt>
      <trkpt lat="50.72701" lon="5.62461">
        <ele>124</ele>
      </trkpt>
      <trkpt lat="50.72694" lon="5.62457">
        <ele>124.1</ele>
      </trkpt>
      <trkpt lat="50.72673" lon="5.62444">
        <ele>124.3</ele>
      </trkpt>
      <trkpt lat="50.72655" lon="5.62433">
        <ele>124.1</ele>
      </trkpt>
      <trkpt lat="50.72644" lon="5.62423">
        <ele>123.9</ele>
      </trkpt>
      <trkpt lat="50.72631" lon="5.62404">
        <ele>124.1</ele>
      </trkpt>
      <trkpt lat="50.72622" lon="5.62386">
        <ele>124</ele>
      </trkpt>
      <trkpt lat="50.72603" lon="5.62348">
        <ele>123.6</ele>
      </trkpt>
      <trkpt lat="50.72577" lon="5.62295">
        <ele>111</ele>
        <time>2019-03-30T11:40:56.000Z</time>
      </trkpt>
      <trkpt lat="50.72551" lon="5.62245">
        <ele>111</ele>
        <time>2019-03-30T11:41:05.000Z</time>
      </trkpt>
      <trkpt lat="50.7253" lon="5.62204">
        <ele>110.40000152588</ele>
        <time>2019-03-30T11:41:11.000Z</time>
      </trkpt>
      <trkpt lat="50.72508" lon="5.62162">
        <ele>109.80000305176</ele>
        <time>2019-03-30T11:41:16.000Z</time>
      </trkpt>
      <trkpt lat="50.72498" lon="5.62144">
        <ele>109.40000152588</ele>
        <time>2019-03-30T11:41:18.000Z</time>
      </trkpt>
      <trkpt lat="50.72488" lon="5.62124">
        <ele>108.40000152588</ele>
        <time>2019-03-30T11:41:20.000Z</time>
      </trkpt>
      <trkpt lat="50.72472" lon="5.62096">
        <ele>107.40000152588</ele>
        <time>2019-03-30T11:41:23.000Z</time>
      </trkpt>
      <trkpt lat="50.72466" lon="5.62086">
        <ele>118.3</ele>
      </trkpt>
      <trkpt lat="50.72451" lon="5.62071">
        <ele>117.9</ele>
      </trkpt>
      <trkpt lat="50.72435" lon="5.62067">
        <ele>105</ele>
        <time>2019-03-30T11:41:28.000Z</time>
      </trkpt>
      <trkpt lat="50.72424" lon="5.62065">
        <ele>116.9</ele>
      </trkpt>
      <trkpt lat="50.72412" lon="5.62048">
        <ele>115.2</ele>
      </trkpt>
      <trkpt lat="50.72401" lon="5.62031">
        <ele>102.19999694824</ele>
        <time>2019-03-30T11:41:33.000Z</time>
      </trkpt>
      <trkpt lat="50.72386" lon="5.6201">
        <ele>101.80000305176</ele>
        <time>2019-03-30T11:41:36.000Z</time>
      </trkpt>
      <trkpt lat="50.72362" lon="5.6197">
        <ele>101.59999847412</ele>
        <time>2019-03-30T11:41:42.000Z</time>
      </trkpt>
      <trkpt lat="50.72327" lon="5.61897">
        <ele>119.1</ele>
      </trkpt>
      <trkpt lat="50.72307" lon="5.61861">
        <ele>119.2</ele>
      </trkpt>
      <trkpt lat="50.72275" lon="5.61822">
        <ele>120</ele>
      </trkpt>
      <trkpt lat="50.72256" lon="5.61803">
        <ele>120.1</ele>
      </trkpt>
      <trkpt lat="50.72239" lon="5.61784">
        <ele>120.9</ele>
      </trkpt>
      <trkpt lat="50.72226" lon="5.61766">
        <ele>121</ele>
      </trkpt>
      <trkpt lat="50.72204" lon="5.61737">
        <ele>122</ele>
      </trkpt>
      <trkpt lat="50.72175" lon="5.61696">
        <ele>108</ele>
        <time>2019-03-30T11:42:28.000Z</time>
      </trkpt>
      <trkpt lat="50.72145" lon="5.61653">
        <ele>109.19999694824</ele>
        <time>2019-03-30T11:42:35.000Z</time>
      </trkpt>
      <trkpt lat="50.72111" lon="5.61606">
        <ele>109.80000305176</ele>
        <time>2019-03-30T11:42:43.000Z</time>
      </trkpt>
      <trkpt lat="50.72077" lon="5.61557">
        <ele>124.6</ele>
      </trkpt>
      <trkpt lat="50.7206" lon="5.61532">
        <ele>124.6</ele>
      </trkpt>
      <trkpt lat="50.72021" lon="5.61476">
        <ele>111.19999694824</ele>
        <time>2019-03-30T11:43:04.000Z</time>
      </trkpt>
      <trkpt lat="50.72008" lon="5.61456">
        <ele>125</ele>
      </trkpt>
      <trkpt lat="50.71994" lon="5.61438">
        <ele>123</ele>
      </trkpt>
      <trkpt lat="50.7197" lon="5.61411">
        <ele>123.4</ele>
      </trkpt>
      <trkpt lat="50.71941" lon="5.61384">
        <ele>123.1</ele>
      </trkpt>
      <trkpt lat="50.71931" lon="5.61362">
        <ele>123.5</ele>
      </trkpt>
      <trkpt lat="50.71916" lon="5.61329">
        <ele>124</ele>
      </trkpt>
      <trkpt lat="50.71901" lon="5.613">
        <ele>122.9</ele>
      </trkpt>
      <trkpt lat="50.71881" lon="5.61262">
        <ele>123</ele>
      </trkpt>
      <trkpt lat="50.71861" lon="5.61233">
        <ele>110.19999694824</ele>
        <time>2019-03-30T11:43:39.000Z</time>
      </trkpt>
      <trkpt lat="50.71824" lon="5.61188">
        <ele>109.80000305176</ele>
        <time>2019-03-30T11:43:46.000Z</time>
      </trkpt>
      <trkpt lat="50.71777" lon="5.61131">
        <ele>109.40000152588</ele>
        <time>2019-03-30T11:43:55.000Z</time>
      </trkpt>
      <trkpt lat="50.71766" lon="5.61118">
        <ele>109.19999694824</ele>
        <time>2019-03-30T11:43:57.000Z</time>
      </trkpt>
      <trkpt lat="50.71742" lon="5.61083">
        <ele>109.40000152588</ele>
        <time>2019-03-30T11:44:02.000Z</time>
      </trkpt>
      <trkpt lat="50.71729" lon="5.61064">
        <ele>121</ele>
      </trkpt>
      <trkpt lat="50.71717" lon="5.61035">
        <ele>109.59999847412</ele>
        <time>2019-03-30T11:44:08.000Z</time>
      </trkpt>
      <trkpt lat="50.71699" lon="5.60984">
        <ele>109.40000152588</ele>
        <time>2019-03-30T11:44:14.000Z</time>
      </trkpt>
      <trkpt lat="50.7168" lon="5.60952">
        <ele>109.19999694824</ele>
        <time>2019-03-30T11:44:18.000Z</time>
      </trkpt>
      <trkpt lat="50.71674" lon="5.60945">
        <ele>109.19999694824</ele>
        <time>2019-03-30T11:44:19.000Z</time>
      </trkpt>
      <trkpt lat="50.71639" lon="5.60918">
        <ele>119.2</ele>
      </trkpt>
      <trkpt lat="50.71625" lon="5.60908">
        <ele>108</ele>
        <time>2019-03-30T11:44:26.000Z</time>
      </trkpt>
      <trkpt lat="50.71612" lon="5.60898">
        <ele>120.5</ele>
      </trkpt>
      <trkpt lat="50.71603" lon="5.60895">
        <ele>120</ele>
      </trkpt>
      <trkpt lat="50.71594" lon="5.60896">
        <ele>120</ele>
      </trkpt>
      <trkpt lat="50.71588" lon="5.6088">
        <ele>120.5</ele>
      </trkpt>
      <trkpt lat="50.71579" lon="5.60838">
        <ele>104.80000305176</ele>
        <time>2019-03-30T11:44:36.000Z</time>
      </trkpt>
      <trkpt lat="50.71571" lon="5.60804">
        <ele>121.9</ele>
      </trkpt>
      <trkpt lat="50.71556" lon="5.60736">
        <ele>104.80000305176</ele>
        <time>2019-03-30T11:44:47.000Z</time>
      </trkpt>
      <trkpt lat="50.7155" lon="5.60719">
        <ele>105</ele>
        <time>2019-03-30T11:44:49.000Z</time>
      </trkpt>
      <trkpt lat="50.71538" lon="5.60698">
        <ele>105.80000305176</ele>
        <time>2019-03-30T11:44:52.000Z</time>
      </trkpt>
      <trkpt lat="50.71526" lon="5.60677">
        <ele>106.80000305176</ele>
        <time>2019-03-30T11:44:55.000Z</time>
      </trkpt>
      <trkpt lat="50.71509" lon="5.60651">
        <ele>107.40000152588</ele>
        <time>2019-03-30T11:44:59.000Z</time>
      </trkpt>
      <trkpt lat="50.71498" lon="5.60631">
        <ele>107.80000305176</ele>
        <time>2019-03-30T11:45:02.000Z</time>
      </trkpt>
      <trkpt lat="50.71489" lon="5.60609">
        <ele>108.19999694824</ele>
        <time>2019-03-30T11:45:05.000Z</time>
      </trkpt>
      <trkpt lat="50.71474" lon="5.60567">
        <ele>109</ele>
        <time>2019-03-30T11:45:11.000Z</time>
      </trkpt>
      <trkpt lat="50.7147" lon="5.60553">
        <ele>109.40000152588</ele>
        <time>2019-03-30T11:45:13.000Z</time>
      </trkpt>
      <trkpt lat="50.71451" lon="5.60493">
        <ele>109.80000305176</ele>
        <time>2019-03-30T11:45:22.000Z</time>
      </trkpt>
      <trkpt lat="50.71437" lon="5.60449">
        <ele>110.80000305176</ele>
        <time>2019-03-30T11:45:29.000Z</time>
      </trkpt>
      <trkpt lat="50.71432" lon="5.60435">
        <ele>125.3</ele>
      </trkpt>
      <trkpt lat="50.71441" lon="5.60416">
        <ele>111.40000152588</ele>
        <time>2019-03-30T11:45:34.000Z</time>
      </trkpt>
      <trkpt lat="50.71458" lon="5.60371">
        <ele>126.8</ele>
      </trkpt>
      <trkpt lat="50.71478" lon="5.60323">
        <ele>128.1</ele>
      </trkpt>
      <trkpt lat="50.71501" lon="5.60269">
        <ele>129.9</ele>
      </trkpt>
      <trkpt lat="50.71528" lon="5.60211">
        <ele>132.2</ele>
      </trkpt>
      <trkpt lat="50.71567" lon="5.60134">
        <ele>135.2</ele>
      </trkpt>
      <trkpt lat="50.71593" lon="5.60082">
        <ele>138</ele>
      </trkpt>
      <trkpt lat="50.71633" lon="5.60002">
        <ele>140.7</ele>
      </trkpt>
      <trkpt lat="50.71668" lon="5.59932">
        <ele>144.8</ele>
      </trkpt>
      <trkpt lat="50.71687" lon="5.59893">
        <ele>146</ele>
      </trkpt>
      <trkpt lat="50.71715" lon="5.59835">
        <ele>147.1</ele>
      </trkpt>
      <trkpt lat="50.7174" lon="5.59785">
        <ele>148.9</ele>
      </trkpt>
      <trkpt lat="50.71757" lon="5.59754">
        <ele>149.4</ele>
      </trkpt>
      <trkpt lat="50.71792" lon="5.59684">
        <ele>151.5</ele>
      </trkpt>
      <trkpt lat="50.71811" lon="5.59649">
        <ele>153.6</ele>
      </trkpt>
      <trkpt lat="50.7184" lon="5.59592">
        <ele>155.8</ele>
      </trkpt>
      <trkpt lat="50.71854" lon="5.59566">
        <ele>157</ele>
      </trkpt>
      <trkpt lat="50.71865" lon="5.59542">
        <ele>157.4</ele>
      </trkpt>
      <trkpt lat="50.71878" lon="5.59516">
        <ele>157.8</ele>
      </trkpt>
      <trkpt lat="50.71889" lon="5.59488">
        <ele>159.6</ele>
      </trkpt>
      <trkpt lat="50.71895" lon="5.59465">
        <ele>160</ele>
      </trkpt>
      <trkpt lat="50.71901" lon="5.5944">
        <ele>160.6</ele>
      </trkpt>
      <trkpt lat="50.71906" lon="5.59417">
        <ele>161.3</ele>
      </trkpt>
      <trkpt lat="50.71909" lon="5.59396">
        <ele>161.7</ele>
      </trkpt>
      <trkpt lat="50.71916" lon="5.59348">
        <ele>161.3</ele>
      </trkpt>
      <trkpt lat="50.71924" lon="5.59291">
        <ele>160.8</ele>
      </trkpt>
      <trkpt lat="50.71932" lon="5.59215">
        <ele>160</ele>
      </trkpt>
      <trkpt lat="50.7194" lon="5.59153">
        <ele>159</ele>
      </trkpt>
      <trkpt lat="50.71949" lon="5.59084">
        <ele>158.5</ele>
      </trkpt>
      <trkpt lat="50.71958" lon="5.59021">
        <ele>156.8</ele>
      </trkpt>
      <trkpt lat="50.71966" lon="5.5896">
        <ele>155.6</ele>
      </trkpt>
      <trkpt lat="50.71973" lon="5.58907">
        <ele>155.8</ele>
      </trkpt>
      <trkpt lat="50.71984" lon="5.58837">
        <ele>156.6</ele>
      </trkpt>
      <trkpt lat="50.71993" lon="5.58773">
        <ele>158.2</ele>
      </trkpt>
      <trkpt lat="50.72004" lon="5.58696">
        <ele>158.4</ele>
      </trkpt>
      <trkpt lat="50.7201" lon="5.58634">
        <ele>158.5</ele>
      </trkpt>
      <trkpt lat="50.72013" lon="5.58561">
        <ele>158.5</ele>
      </trkpt>
      <trkpt lat="50.72013" lon="5.58524">
        <ele>158.8</ele>
      </trkpt>
      <trkpt lat="50.7201" lon="5.58465">
        <ele>159.9</ele>
      </trkpt>
      <trkpt lat="50.72006" lon="5.58397">
        <ele>161.3</ele>
      </trkpt>
      <trkpt lat="50.72003" lon="5.58358">
        <ele>147</ele>
        <time>2019-03-30T11:50:55.000Z</time>
      </trkpt>
      <trkpt lat="50.71999" lon="5.58289">
        <ele>147.19999694824</ele>
        <time>2019-03-30T11:51:02.000Z</time>
      </trkpt>
      <trkpt lat="50.71991" lon="5.5823">
        <ele>160.8</ele>
      </trkpt>
      <trkpt lat="50.71984" lon="5.58191">
        <ele>161</ele>
      </trkpt>
      <trkpt lat="50.71981" lon="5.58153">
        <ele>146.80000305176</ele>
        <time>2019-03-30T11:51:16.000Z</time>
      </trkpt>
      <trkpt lat="50.71973" lon="5.58085">
        <ele>158.6</ele>
      </trkpt>
      <trkpt lat="50.71962" lon="5.57983">
        <ele>145.60000610352</ele>
        <time>2019-03-30T11:51:33.000Z</time>
      </trkpt>
      <trkpt lat="50.71956" lon="5.57933">
        <ele>157</ele>
      </trkpt>
      <trkpt lat="50.71948" lon="5.57867">
        <ele>156.5</ele>
      </trkpt>
      <trkpt lat="50.71946" lon="5.57838">
        <ele>156.3</ele>
      </trkpt>
      <trkpt lat="50.71948" lon="5.57798">
        <ele>143.39999389648</ele>
        <time>2019-03-30T11:51:52.000Z</time>
      </trkpt>
      <trkpt lat="50.71953" lon="5.57743">
        <ele>142.39999389648</ele>
        <time>2019-03-30T11:51:57.000Z</time>
      </trkpt>
      <trkpt lat="50.71956" lon="5.57707">
        <ele>141.80000305176</ele>
        <time>2019-03-30T11:52:00.000Z</time>
      </trkpt>
      <trkpt lat="50.71959" lon="5.57659">
        <ele>140.39999389648</ele>
        <time>2019-03-30T11:52:04.000Z</time>
      </trkpt>
      <trkpt lat="50.71964" lon="5.5761">
        <ele>139.39999389648</ele>
        <time>2019-03-30T11:52:08.000Z</time>
      </trkpt>
      <trkpt lat="50.71969" lon="5.57562">
        <ele>138.39999389648</ele>
        <time>2019-03-30T11:52:12.000Z</time>
      </trkpt>
      <trkpt lat="50.71974" lon="5.57512">
        <ele>137.19999694824</ele>
        <time>2019-03-30T11:52:16.000Z</time>
      </trkpt>
      <trkpt lat="50.71979" lon="5.57476">
        <ele>136.39999389648</ele>
        <time>2019-03-30T11:52:19.000Z</time>
      </trkpt>
      <trkpt lat="50.71983" lon="5.57443">
        <ele>150</ele>
      </trkpt>
      <trkpt lat="50.71989" lon="5.57419">
        <ele>135.39999389648</ele>
        <time>2019-03-30T11:52:24.000Z</time>
      </trkpt>
      <trkpt lat="50.71996" lon="5.57378">
        <ele>148.1</ele>
      </trkpt>
      <trkpt lat="50.71995" lon="5.57362">
        <ele>147.8</ele>
      </trkpt>
      <trkpt lat="50.71992" lon="5.57341">
        <ele>147</ele>
      </trkpt>
      <trkpt lat="50.71988" lon="5.57311">
        <ele>146.8</ele>
      </trkpt>
      <trkpt lat="50.71988" lon="5.57284">
        <ele>146.6</ele>
      </trkpt>
      <trkpt lat="50.71992" lon="5.57232">
        <ele>146.9</ele>
      </trkpt>
      <trkpt lat="50.71997" lon="5.57197">
        <ele>148</ele>
      </trkpt>
      <trkpt lat="50.72004" lon="5.57167">
        <ele>147.9</ele>
      </trkpt>
      <trkpt lat="50.72009" lon="5.57126">
        <ele>147.8</ele>
      </trkpt>
      <trkpt lat="50.72009" lon="5.57101">
        <ele>148.2</ele>
      </trkpt>
      <trkpt lat="50.72004" lon="5.57041">
        <ele>148.2</ele>
      </trkpt>
      <trkpt lat="50.72" lon="5.56991">
        <ele>149.1</ele>
      </trkpt>
      <trkpt lat="50.72" lon="5.56956">
        <ele>148.4</ele>
      </trkpt>
      <trkpt lat="50.71984" lon="5.56956">
        <ele>149.2</ele>
      </trkpt>
      <trkpt lat="50.71965" lon="5.56957">
        <ele>149.2</ele>
      </trkpt>
      <trkpt lat="50.71897" lon="5.56962">
        <ele>150.2</ele>
      </trkpt>
      <trkpt lat="50.7186" lon="5.56964">
        <ele>150.6</ele>
      </trkpt>
      <trkpt lat="50.71831" lon="5.56954">
        <ele>151.7</ele>
      </trkpt>
      <trkpt lat="50.71803" lon="5.56937">
        <ele>151.7</ele>
      </trkpt>
      <trkpt lat="50.71782" lon="5.56922">
        <ele>151.6</ele>
      </trkpt>
      <trkpt lat="50.71757" lon="5.56893">
        <ele>137.19999694824</ele>
        <time>2019-03-30T11:53:53.000Z</time>
      </trkpt>
      <trkpt lat="50.7174" lon="5.56875">
        <ele>137.60000610352</ele>
        <time>2019-03-30T11:53:57.000Z</time>
      </trkpt>
      <trkpt lat="50.71717" lon="5.56851">
        <ele>138.19999694824</ele>
        <time>2019-03-30T11:54:02.000Z</time>
      </trkpt>
      <trkpt lat="50.7169" lon="5.56819">
        <ele>139</ele>
        <time>2019-03-30T11:54:08.000Z</time>
      </trkpt>
      <trkpt lat="50.71667" lon="5.56787">
        <ele>151.2</ele>
      </trkpt>
      <trkpt lat="50.71646" lon="5.56762">
        <ele>151.4</ele>
      </trkpt>
      <trkpt lat="50.71599" lon="5.56734">
        <ele>150.5</ele>
      </trkpt>
      <trkpt lat="50.71538" lon="5.56699">
        <ele>138.39999389648</ele>
        <time>2019-03-30T11:54:33.000Z</time>
      </trkpt>
      <trkpt lat="50.71484" lon="5.56672">
        <ele>138.39999389648</ele>
        <time>2019-03-30T11:54:41.000Z</time>
      </trkpt>
      <trkpt lat="50.71457" lon="5.56657">
        <ele>138.39999389648</ele>
        <time>2019-03-30T11:54:45.000Z</time>
      </trkpt>
      <trkpt lat="50.71393" lon="5.56625">
        <ele>138.39999389648</ele>
        <time>2019-03-30T11:54:54.000Z</time>
      </trkpt>
      <trkpt lat="50.71344" lon="5.56605">
        <ele>151.8</ele>
      </trkpt>
      <trkpt lat="50.71283" lon="5.56585">
        <ele>139.19999694824</ele>
        <time>2019-03-30T11:55:10.000Z</time>
      </trkpt>
      <trkpt lat="50.71257" lon="5.56578">
        <ele>140.39999389648</ele>
        <time>2019-03-30T11:55:14.000Z</time>
      </trkpt>
      <trkpt lat="50.71211" lon="5.56565">
        <ele>141.39999389648</ele>
        <time>2019-03-30T11:55:21.000Z</time>
      </trkpt>
      <trkpt lat="50.71183" lon="5.5656">
        <ele>153</ele>
      </trkpt>
      <trkpt lat="50.71156" lon="5.5656">
        <ele>153.2</ele>
      </trkpt>
      <trkpt lat="50.71129" lon="5.56563">
        <ele>153</ele>
      </trkpt>
      <trkpt lat="50.71107" lon="5.5657">
        <ele>153.2</ele>
      </trkpt>
      <trkpt lat="50.7106" lon="5.56586">
        <ele>140.60000610352</ele>
        <time>2019-03-30T11:55:43.000Z</time>
      </trkpt>
      <trkpt lat="50.71002" lon="5.56609">
        <ele>140.19999694824</ele>
        <time>2019-03-30T11:55:51.000Z</time>
      </trkpt>
      <trkpt lat="50.70934" lon="5.56636">
        <ele>140</ele>
        <time>2019-03-30T11:56:01.000Z</time>
      </trkpt>
      <trkpt lat="50.70866" lon="5.56662">
        <ele>141.19999694824</ele>
        <time>2019-03-30T11:56:12.000Z</time>
      </trkpt>
      <trkpt lat="50.70799" lon="5.56687">
        <ele>142.39999389648</ele>
        <time>2019-03-30T11:56:23.000Z</time>
      </trkpt>
      <trkpt lat="50.70748" lon="5.56705">
        <ele>142.80000305176</ele>
        <time>2019-03-30T11:56:31.000Z</time>
      </trkpt>
      <trkpt lat="50.70692" lon="5.56729">
        <ele>160.3</ele>
      </trkpt>
      <trkpt lat="50.70636" lon="5.56753">
        <ele>161.7</ele>
      </trkpt>
      <trkpt lat="50.70583" lon="5.56772">
        <ele>162.6</ele>
      </trkpt>
      <trkpt lat="50.70541" lon="5.56787">
        <ele>163</ele>
      </trkpt>
      <trkpt lat="50.70468" lon="5.56815">
        <ele>164.5</ele>
      </trkpt>
      <trkpt lat="50.704" lon="5.5684">
        <ele>151.19999694824</ele>
        <time>2019-03-30T11:57:27.000Z</time>
      </trkpt>
      <trkpt lat="50.70361" lon="5.56855">
        <ele>165.6</ele>
      </trkpt>
      <trkpt lat="50.70337" lon="5.56861">
        <ele>151.60000610352</ele>
        <time>2019-03-30T11:57:37.000Z</time>
      </trkpt>
      <trkpt lat="50.70299" lon="5.56861">
        <ele>151.80000305176</ele>
        <time>2019-03-30T11:57:43.000Z</time>
      </trkpt>
      <trkpt lat="50.70254" lon="5.56844">
        <ele>164.3</ele>
      </trkpt>
      <trkpt lat="50.70204" lon="5.56821">
        <ele>152.19999694824</ele>
        <time>2019-03-30T11:57:58.000Z</time>
      </trkpt>
      <trkpt lat="50.70154" lon="5.56799">
        <ele>152.60000610352</ele>
        <time>2019-03-30T11:58:06.000Z</time>
      </trkpt>
      <trkpt lat="50.70109" lon="5.56783">
        <ele>153.19999694824</ele>
        <time>2019-03-30T11:58:13.000Z</time>
      </trkpt>
      <trkpt lat="50.70077" lon="5.56775">
        <ele>153.39999389648</ele>
        <time>2019-03-30T11:58:18.000Z</time>
      </trkpt>
      <trkpt lat="50.70045" lon="5.56768">
        <ele>165</ele>
      </trkpt>
      <trkpt lat="50.70012" lon="5.56763">
        <ele>153.60000610352</ele>
        <time>2019-03-30T11:58:28.000Z</time>
      </trkpt>
      <trkpt lat="50.69958" lon="5.56759">
        <ele>153.39999389648</ele>
        <time>2019-03-30T11:58:36.000Z</time>
      </trkpt>
      <trkpt lat="50.69909" lon="5.56759">
        <ele>153</ele>
        <time>2019-03-30T11:58:43.000Z</time>
      </trkpt>
      <trkpt lat="50.69887" lon="5.56759">
        <ele>152.80000305176</ele>
        <time>2019-03-30T11:58:46.000Z</time>
      </trkpt>
      <trkpt lat="50.69845" lon="5.56759">
        <ele>152.39999389648</ele>
        <time>2019-03-30T11:58:51.000Z</time>
      </trkpt>
      <trkpt lat="50.69836" lon="5.56758">
        <ele>152</ele>
        <time>2019-03-30T11:58:52.000Z</time>
      </trkpt>
      <trkpt lat="50.69797" lon="5.5676">
        <ele>165.5</ele>
      </trkpt>
      <trkpt lat="50.69774" lon="5.56762">
        <ele>165.4</ele>
      </trkpt>
      <trkpt lat="50.69757" lon="5.5676">
        <ele>165.2</ele>
      </trkpt>
      <trkpt lat="50.69736" lon="5.56754">
        <ele>164.7</ele>
      </trkpt>
      <trkpt lat="50.69728" lon="5.56748">
        <ele>164</ele>
      </trkpt>
      <trkpt lat="50.69718" lon="5.56734">
        <ele>149.39999389648</ele>
        <time>2019-03-30T11:59:09.000Z</time>
      </trkpt>
      <trkpt lat="50.69709" lon="5.56728">
        <ele>164</ele>
      </trkpt>
      <trkpt lat="50.69697" lon="5.56735">
        <ele>163.4</ele>
      </trkpt>
      <trkpt lat="50.69658" lon="5.56706">
        <ele>162.5</ele>
      </trkpt>
      <trkpt lat="50.69611" lon="5.56667">
        <ele>162.7</ele>
      </trkpt>
      <trkpt lat="50.69577" lon="5.56636">
        <ele>162.6</ele>
      </trkpt>
      <trkpt lat="50.69545" lon="5.56607">
        <ele>162.4</ele>
      </trkpt>
      <trkpt lat="50.69501" lon="5.56566">
        <ele>161.6</ele>
      </trkpt>
      <trkpt lat="50.69475" lon="5.56544">
        <ele>163</ele>
      </trkpt>
      <trkpt lat="50.69454" lon="5.56522">
        <ele>162.8</ele>
      </trkpt>
      <trkpt lat="50.69435" lon="5.56501">
        <ele>149.60000610352</ele>
        <time>2019-03-30T11:59:55.000Z</time>
      </trkpt>
      <trkpt lat="50.69415" lon="5.56474">
        <ele>149.80000305176</ele>
        <time>2019-03-30T11:59:59.000Z</time>
      </trkpt>
      <trkpt lat="50.69398" lon="5.56443">
        <ele>164.7</ele>
      </trkpt>
      <trkpt lat="50.69379" lon="5.56409">
        <ele>165.1</ele>
      </trkpt>
      <trkpt lat="50.69371" lon="5.56393">
        <ele>165.2</ele>
      </trkpt>
      <trkpt lat="50.69399" lon="5.56362">
        <ele>151</ele>
        <time>2019-03-30T12:00:20.000Z</time>
      </trkpt>
      <trkpt lat="50.69425" lon="5.56331">
        <ele>151.39999389648</ele>
        <time>2019-03-30T12:00:26.000Z</time>
      </trkpt>
      <trkpt lat="50.69442" lon="5.56309">
        <ele>164.6</ele>
      </trkpt>
      <trkpt lat="50.6947" lon="5.56275">
        <ele>164.6</ele>
      </trkpt>
      <trkpt lat="50.69508" lon="5.56223">
        <ele>163.3</ele>
      </trkpt>
      <trkpt lat="50.69536" lon="5.56176">
        <ele>162.3</ele>
      </trkpt>
      <trkpt lat="50.69564" lon="5.56127">
        <ele>160.2</ele>
      </trkpt>
      <trkpt lat="50.69594" lon="5.56076">
        <ele>157.9</ele>
      </trkpt>
      <trkpt lat="50.69614" lon="5.56044">
        <ele>157.7</ele>
      </trkpt>
      <trkpt lat="50.69637" lon="5.56002">
        <ele>157.7</ele>
      </trkpt>
      <trkpt lat="50.69659" lon="5.55968">
        <ele>157.5</ele>
      </trkpt>
      <trkpt lat="50.69689" lon="5.55915">
        <ele>158.6</ele>
      </trkpt>
      <trkpt lat="50.69717" lon="5.55873">
        <ele>159.1</ele>
      </trkpt>
      <trkpt lat="50.69746" lon="5.55835">
        <ele>159.8</ele>
      </trkpt>
      <trkpt lat="50.6977" lon="5.55803">
        <ele>160.3</ele>
      </trkpt>
      <trkpt lat="50.69818" lon="5.55752">
        <ele>160.7</ele>
      </trkpt>
      <trkpt lat="50.6984" lon="5.55726">
        <ele>160.9</ele>
      </trkpt>
      <trkpt lat="50.6988" lon="5.5568">
        <ele>160.9</ele>
      </trkpt>
      <trkpt lat="50.69908" lon="5.55644">
        <ele>160.4</ele>
      </trkpt>
      <trkpt lat="50.6995" lon="5.55583">
        <ele>158.8</ele>
      </trkpt>
      <trkpt lat="50.69974" lon="5.55549">
        <ele>158.3</ele>
      </trkpt>
      <trkpt lat="50.70011" lon="5.55498">
        <ele>156.7</ele>
      </trkpt>
      <trkpt lat="50.70037" lon="5.55463">
        <ele>156.3</ele>
      </trkpt>
      <trkpt lat="50.70069" lon="5.55419">
        <ele>156</ele>
      </trkpt>
      <trkpt lat="50.70106" lon="5.55369">
        <ele>155.5</ele>
      </trkpt>
      <trkpt lat="50.70125" lon="5.55335">
        <ele>155.7</ele>
      </trkpt>
      <trkpt lat="50.70169" lon="5.55262">
        <ele>157.2</ele>
      </trkpt>
      <trkpt lat="50.70212" lon="5.5519">
        <ele>156.9</ele>
      </trkpt>
      <trkpt lat="50.70235" lon="5.55152">
        <ele>156</ele>
      </trkpt>
      <trkpt lat="50.70253" lon="5.55122">
        <ele>155</ele>
      </trkpt>
      <trkpt lat="50.70271" lon="5.55097">
        <ele>154.4</ele>
      </trkpt>
      <trkpt lat="50.70325" lon="5.55022">
        <ele>152.2</ele>
      </trkpt>
      <trkpt lat="50.70348" lon="5.54991">
        <ele>151.2</ele>
      </trkpt>
      <trkpt lat="50.70381" lon="5.54944">
        <ele>151.2</ele>
      </trkpt>
      <trkpt lat="50.70447" lon="5.54855">
        <ele>151.6</ele>
      </trkpt>
      <trkpt lat="50.70495" lon="5.54789">
        <ele>150.8</ele>
      </trkpt>
      <trkpt lat="50.70523" lon="5.54748">
        <ele>150.6</ele>
      </trkpt>
      <trkpt lat="50.70548" lon="5.54712">
        <ele>150.3</ele>
      </trkpt>
      <trkpt lat="50.70579" lon="5.54665">
        <ele>149.8</ele>
      </trkpt>
      <trkpt lat="50.70599" lon="5.54636">
        <ele>148.5</ele>
      </trkpt>
      <trkpt lat="50.70621" lon="5.546">
        <ele>147.8</ele>
      </trkpt>
      <trkpt lat="50.70633" lon="5.5458">
        <ele>145.9</ele>
      </trkpt>
      <trkpt lat="50.7065" lon="5.54551">
        <ele>145.5</ele>
      </trkpt>
      <trkpt lat="50.70674" lon="5.54518">
        <ele>144.2</ele>
      </trkpt>
      <trkpt lat="50.70696" lon="5.54483">
        <ele>143.7</ele>
      </trkpt>
      <trkpt lat="50.70726" lon="5.54434">
        <ele>144.3</ele>
      </trkpt>
      <trkpt lat="50.70759" lon="5.54394">
        <ele>148</ele>
      </trkpt>
      <trkpt lat="50.70781" lon="5.54356">
        <ele>130.39999389648</ele>
        <time>2019-03-30T12:04:35.000Z</time>
      </trkpt>
      <trkpt lat="50.70806" lon="5.54307">
        <ele>150.4</ele>
      </trkpt>
      <trkpt lat="50.70831" lon="5.54268">
        <ele>151</ele>
      </trkpt>
      <trkpt lat="50.70859" lon="5.54227">
        <ele>152.1</ele>
      </trkpt>
      <trkpt lat="50.70885" lon="5.54189">
        <ele>151.8</ele>
      </trkpt>
      <trkpt lat="50.70921" lon="5.54141">
        <ele>150.4</ele>
      </trkpt>
      <trkpt lat="50.70964" lon="5.54083">
        <ele>150.2</ele>
      </trkpt>
      <trkpt lat="50.71014" lon="5.54013">
        <ele>150</ele>
      </trkpt>
      <trkpt lat="50.71053" lon="5.53957">
        <ele>151.5</ele>
      </trkpt>
      <trkpt lat="50.71082" lon="5.53916">
        <ele>152.1</ele>
      </trkpt>
      <trkpt lat="50.71112" lon="5.53871">
        <ele>153.2</ele>
      </trkpt>
      <trkpt lat="50.71124" lon="5.53851">
        <ele>138.80000305176</ele>
        <time>2019-03-30T12:05:47.000Z</time>
      </trkpt>
      <trkpt lat="50.71122" lon="5.53835">
        <ele>153.4</ele>
      </trkpt>
      <trkpt lat="50.71116" lon="5.53802">
        <ele>153.2</ele>
      </trkpt>
      <trkpt lat="50.71105" lon="5.53759">
        <ele>153.3</ele>
      </trkpt>
      <trkpt lat="50.71078" lon="5.53663">
        <ele>151.8</ele>
      </trkpt>
      <trkpt lat="50.71063" lon="5.53607">
        <ele>151.2</ele>
      </trkpt>
      <trkpt lat="50.7105" lon="5.53559">
        <ele>150.3</ele>
      </trkpt>
      <trkpt lat="50.71022" lon="5.53464">
        <ele>135.60000610352</ele>
        <time>2019-03-30T12:06:24.000Z</time>
      </trkpt>
      <trkpt lat="50.71013" lon="5.53441">
        <ele>135.39999389648</ele>
        <time>2019-03-30T12:06:26.000Z</time>
      </trkpt>
      <trkpt lat="50.70989" lon="5.53377">
        <ele>135.19999694824</ele>
        <time>2019-03-30T12:06:32.000Z</time>
      </trkpt>
      <trkpt lat="50.70968" lon="5.5331">
        <ele>134.60000610352</ele>
        <time>2019-03-30T12:06:38.000Z</time>
      </trkpt>
      <trkpt lat="50.70951" lon="5.5324">
        <ele>134.19999694824</ele>
        <time>2019-03-30T12:06:44.000Z</time>
      </trkpt>
      <trkpt lat="50.70942" lon="5.53171">
        <ele>146.2</ele>
      </trkpt>
      <trkpt lat="50.7094" lon="5.53153">
        <ele>146.1</ele>
      </trkpt>
      <trkpt lat="50.70933" lon="5.53091">
        <ele>146.4</ele>
      </trkpt>
      <trkpt lat="50.70919" lon="5.53016">
        <ele>133.60000610352</ele>
        <time>2019-03-30T12:07:03.000Z</time>
      </trkpt>
      <trkpt lat="50.70915" lon="5.52993">
        <ele>133.80000305176</ele>
        <time>2019-03-30T12:07:05.000Z</time>
      </trkpt>
      <trkpt lat="50.70897" lon="5.529">
        <ele>134.19999694824</ele>
        <time>2019-03-30T12:07:13.000Z</time>
      </trkpt>
      <trkpt lat="50.70889" lon="5.52847">
        <ele>150.2</ele>
      </trkpt>
      <trkpt lat="50.70887" lon="5.52813">
        <ele>150.8</ele>
      </trkpt>
      <trkpt lat="50.70887" lon="5.5275">
        <ele>151.7</ele>
      </trkpt>
      <trkpt lat="50.70886" lon="5.52717">
        <ele>151.9</ele>
      </trkpt>
      <trkpt lat="50.70883" lon="5.5268">
        <ele>152.1</ele>
      </trkpt>
      <trkpt lat="50.7088" lon="5.5262">
        <ele>152.2</ele>
      </trkpt>
      <trkpt lat="50.70878" lon="5.52579">
        <ele>152.2</ele>
      </trkpt>
      <trkpt lat="50.70878" lon="5.52529">
        <ele>152.3</ele>
      </trkpt>
      <trkpt lat="50.70877" lon="5.52509">
        <ele>138.80000305176</ele>
        <time>2019-03-30T12:09:01.000Z</time>
      </trkpt>
      <trkpt lat="50.70877" lon="5.5248">
        <ele>152.1</ele>
      </trkpt>
      <trkpt lat="50.70858" lon="5.52493">
        <ele>152.3</ele>
      </trkpt>
      <trkpt lat="50.70809" lon="5.52522">
        <ele>152.8</ele>
      </trkpt>
      <trkpt lat="50.70761" lon="5.52553">
        <ele>152.8</ele>
      </trkpt>
      <trkpt lat="50.70707" lon="5.52587">
        <ele>152.3</ele>
      </trkpt>
      <trkpt lat="50.70638" lon="5.52631">
        <ele>151.4</ele>
      </trkpt>
      <trkpt lat="50.70576" lon="5.52672">
        <ele>151.2</ele>
      </trkpt>
      <trkpt lat="50.70511" lon="5.52713">
        <ele>151.8</ele>
      </trkpt>
      <trkpt lat="50.70448" lon="5.52752">
        <ele>152.5</ele>
      </trkpt>
      <trkpt lat="50.70396" lon="5.52786">
        <ele>152.8</ele>
      </trkpt>
      <trkpt lat="50.70316" lon="5.52836">
        <ele>153</ele>
      </trkpt>
      <trkpt lat="50.70245" lon="5.52883">
        <ele>153.4</ele>
      </trkpt>
      <trkpt lat="50.70176" lon="5.52928">
        <ele>152.1</ele>
      </trkpt>
      <trkpt lat="50.70154" lon="5.52941">
        <ele>151.8</ele>
      </trkpt>
      <trkpt lat="50.70101" lon="5.52976">
        <ele>151.8</ele>
      </trkpt>
      <trkpt lat="50.70066" lon="5.52998">
        <ele>151.3</ele>
      </trkpt>
      <trkpt lat="50.70009" lon="5.53035">
        <ele>151.1</ele>
      </trkpt>
      <trkpt lat="50.69962" lon="5.53065">
        <ele>152.2</ele>
      </trkpt>
      <trkpt lat="50.6991" lon="5.53098">
        <ele>140.60000610352</ele>
        <time>2019-03-30T12:11:50.000Z</time>
      </trkpt>
      <trkpt lat="50.69884" lon="5.53116">
        <ele>155.2</ele>
      </trkpt>
      <trkpt lat="50.69846" lon="5.5314">
        <ele>155.3</ele>
      </trkpt>
      <trkpt lat="50.69797" lon="5.53172">
        <ele>156.2</ele>
      </trkpt>
      <trkpt lat="50.6976" lon="5.53197">
        <ele>156.7</ele>
      </trkpt>
      <trkpt lat="50.69692" lon="5.53241">
        <ele>155.9</ele>
      </trkpt>
      <trkpt lat="50.69628" lon="5.53281">
        <ele>155.5</ele>
      </trkpt>
      <trkpt lat="50.69591" lon="5.53306">
        <ele>155.8</ele>
      </trkpt>
      <trkpt lat="50.69545" lon="5.53336">
        <ele>153.7</ele>
      </trkpt>
      <trkpt lat="50.69498" lon="5.53366">
        <ele>151.7</ele>
      </trkpt>
      <trkpt lat="50.69452" lon="5.53396">
        <ele>151</ele>
      </trkpt>
      <trkpt lat="50.69413" lon="5.53421">
        <ele>150.4</ele>
      </trkpt>
      <trkpt lat="50.69355" lon="5.53459">
        <ele>152</ele>
      </trkpt>
      <trkpt lat="50.69324" lon="5.53479">
        <ele>154.1</ele>
      </trkpt>
      <trkpt lat="50.69312" lon="5.53436">
        <ele>153.6</ele>
      </trkpt>
      <trkpt lat="50.69293" lon="5.53377">
        <ele>142.60000610352</ele>
        <time>2019-03-30T12:13:25.000Z</time>
      </trkpt>
      <trkpt lat="50.69289" lon="5.53357">
        <ele>152.4</ele>
      </trkpt>
      <trkpt lat="50.69286" lon="5.53332">
        <ele>151.6</ele>
      </trkpt>
      <trkpt lat="50.69285" lon="5.53309">
        <ele>151.6</ele>
      </trkpt>
      <trkpt lat="50.69288" lon="5.53284">
        <ele>142.19999694824</ele>
        <time>2019-03-30T12:13:33.000Z</time>
      </trkpt>
      <trkpt lat="50.69298" lon="5.53249">
        <ele>151.9</ele>
      </trkpt>
      <trkpt lat="50.69306" lon="5.53225">
        <ele>152</ele>
      </trkpt>
      <trkpt lat="50.69334" lon="5.53142">
        <ele>153.5</ele>
      </trkpt>
      <trkpt lat="50.69345" lon="5.53108">
        <ele>153.6</ele>
      </trkpt>
      <trkpt lat="50.69372" lon="5.53027">
        <ele>154.8</ele>
      </trkpt>
      <trkpt lat="50.69383" lon="5.52995">
        <ele>156.3</ele>
      </trkpt>
      <trkpt lat="50.69396" lon="5.5295">
        <ele>157</ele>
      </trkpt>
      <trkpt lat="50.69399" lon="5.52931">
        <ele>157.5</ele>
      </trkpt>
      <trkpt lat="50.69401" lon="5.52915">
        <ele>158.6</ele>
      </trkpt>
      <trkpt lat="50.69399" lon="5.52889">
        <ele>158.7</ele>
      </trkpt>
      <trkpt lat="50.69394" lon="5.52862">
        <ele>159</ele>
      </trkpt>
      <trkpt lat="50.69382" lon="5.52814">
        <ele>160.4</ele>
      </trkpt>
      <trkpt lat="50.69368" lon="5.52761">
        <ele>160.7</ele>
      </trkpt>
      <trkpt lat="50.69362" lon="5.52731">
        <ele>162</ele>
      </trkpt>
      <trkpt lat="50.69354" lon="5.52701">
        <ele>162.2</ele>
      </trkpt>
      <trkpt lat="50.69339" lon="5.52646">
        <ele>162.3</ele>
      </trkpt>
      <trkpt lat="50.69338" lon="5.52624">
        <ele>162.6</ele>
      </trkpt>
      <trkpt lat="50.69339" lon="5.52598">
        <ele>162.1</ele>
      </trkpt>
      <trkpt lat="50.69341" lon="5.52563">
        <ele>163</ele>
      </trkpt>
      <trkpt lat="50.69329" lon="5.52547">
        <ele>161.4</ele>
      </trkpt>
      <trkpt lat="50.69312" lon="5.52528">
        <ele>161.7</ele>
      </trkpt>
      <trkpt lat="50.69267" lon="5.52488">
        <ele>148.19999694824</ele>
        <time>2019-03-30T12:15:01.000Z</time>
      </trkpt>
      <trkpt lat="50.69219" lon="5.52453">
        <ele>161.4</ele>
      </trkpt>
      <trkpt lat="50.69163" lon="5.52409">
        <ele>160.9</ele>
      </trkpt>
      <trkpt lat="50.6912" lon="5.52381">
        <ele>148</ele>
        <time>2019-03-30T12:15:23.000Z</time>
      </trkpt>
      <trkpt lat="50.69074" lon="5.52363">
        <ele>147.60000610352</ele>
        <time>2019-03-30T12:15:29.000Z</time>
      </trkpt>
      <trkpt lat="50.69058" lon="5.5236">
        <ele>146.80000305176</ele>
        <time>2019-03-30T12:15:31.000Z</time>
      </trkpt>
      <trkpt lat="50.69034" lon="5.52359">
        <ele>145.60000610352</ele>
        <time>2019-03-30T12:15:34.000Z</time>
      </trkpt>
      <trkpt lat="50.69009" lon="5.52363">
        <ele>145</ele>
        <time>2019-03-30T12:15:37.000Z</time>
      </trkpt>
      <trkpt lat="50.6896" lon="5.52379">
        <ele>156.9</ele>
      </trkpt>
      <trkpt lat="50.68938" lon="5.52387">
        <ele>157.3</ele>
      </trkpt>
      <trkpt lat="50.68901" lon="5.52417">
        <ele>158.9</ele>
      </trkpt>
      <trkpt lat="50.68881" lon="5.52436">
        <ele>160</ele>
      </trkpt>
      <trkpt lat="50.68862" lon="5.5245">
        <ele>160.1</ele>
      </trkpt>
      <trkpt lat="50.68852" lon="5.52462">
        <ele>160.2</ele>
      </trkpt>
      <trkpt lat="50.68843" lon="5.52457">
        <ele>160.3</ele>
      </trkpt>
      <trkpt lat="50.68822" lon="5.52429">
        <ele>161</ele>
      </trkpt>
      <trkpt lat="50.688" lon="5.524">
        <ele>160.9</ele>
      </trkpt>
      <trkpt lat="50.68788" lon="5.52379">
        <ele>160.7</ele>
      </trkpt>
      <trkpt lat="50.68775" lon="5.52363">
        <ele>160.7</ele>
      </trkpt>
      <trkpt lat="50.68754" lon="5.52333">
        <ele>160.9</ele>
      </trkpt>
      <trkpt lat="50.68741" lon="5.52309">
        <ele>161.4</ele>
      </trkpt>
      <trkpt lat="50.68727" lon="5.52282">
        <ele>161.7</ele>
      </trkpt>
      <trkpt lat="50.68713" lon="5.52293">
        <ele>161.5</ele>
      </trkpt>
      <trkpt lat="50.68698" lon="5.52304">
        <ele>161</ele>
      </trkpt>
      <trkpt lat="50.68681" lon="5.52305">
        <ele>148.19999694824</ele>
        <time>2019-03-30T12:16:36.000Z</time>
      </trkpt>
      <trkpt lat="50.68664" lon="5.52308">
        <ele>160.3</ele>
      </trkpt>
      <trkpt lat="50.68643" lon="5.52305">
        <ele>160.3</ele>
      </trkpt>
      <trkpt lat="50.68634" lon="5.523">
        <ele>160.2</ele>
      </trkpt>
      <trkpt lat="50.68616" lon="5.52292">
        <ele>160.2</ele>
      </trkpt>
      <trkpt lat="50.68585" lon="5.52267">
        <ele>160.1</ele>
      </trkpt>
      <trkpt lat="50.68569" lon="5.52259">
        <ele>159.3</ele>
      </trkpt>
      <trkpt lat="50.68546" lon="5.52248">
        <ele>158.9</ele>
      </trkpt>
      <trkpt lat="50.68525" lon="5.52247">
        <ele>158.3</ele>
      </trkpt>
      <trkpt lat="50.68464" lon="5.52248">
        <ele>157.9</ele>
      </trkpt>
      <trkpt lat="50.68418" lon="5.52247">
        <ele>158.8</ele>
      </trkpt>
      <trkpt lat="50.68397" lon="5.52247">
        <ele>159.3</ele>
      </trkpt>
      <trkpt lat="50.68362" lon="5.52248">
        <ele>159.9</ele>
      </trkpt>
      <trkpt lat="50.68328" lon="5.52247">
        <ele>161.1</ele>
      </trkpt>
      <trkpt lat="50.68308" lon="5.52247">
        <ele>161.5</ele>
      </trkpt>
      <trkpt lat="50.6826" lon="5.52245">
        <ele>162.5</ele>
      </trkpt>
      <trkpt lat="50.68226" lon="5.52241">
        <ele>163.5</ele>
      </trkpt>
      <trkpt lat="50.68202" lon="5.5224">
        <ele>163.7</ele>
      </trkpt>
      <trkpt lat="50.68158" lon="5.52236">
        <ele>150.80000305176</ele>
        <time>2019-03-30T12:17:47.000Z</time>
      </trkpt>
      <trkpt lat="50.68144" lon="5.52234">
        <ele>151</ele>
        <time>2019-03-30T12:17:49.000Z</time>
      </trkpt>
      <trkpt lat="50.68115" lon="5.52231">
        <ele>164.9</ele>
      </trkpt>
      <trkpt lat="50.68104" lon="5.52224">
        <ele>165</ele>
      </trkpt>
      <trkpt lat="50.68078" lon="5.52203">
        <ele>165.4</ele>
      </trkpt>
      <trkpt lat="50.6807" lon="5.52196">
        <ele>165.4</ele>
      </trkpt>
      <trkpt lat="50.6805" lon="5.52187">
        <ele>165.4</ele>
      </trkpt>
      <trkpt lat="50.68038" lon="5.52187">
        <ele>165.3</ele>
      </trkpt>
      <trkpt lat="50.67995" lon="5.52183">
        <ele>165.5</ele>
      </trkpt>
      <trkpt lat="50.67966" lon="5.52171">
        <ele>165.9</ele>
      </trkpt>
      <trkpt lat="50.67926" lon="5.52157">
        <ele>166.7</ele>
      </trkpt>
      <trkpt lat="50.67889" lon="5.52142">
        <ele>167</ele>
      </trkpt>
      <trkpt lat="50.67862" lon="5.52128">
        <ele>167</ele>
      </trkpt>
      <trkpt lat="50.67834" lon="5.52107">
        <ele>166.6</ele>
      </trkpt>
      <trkpt lat="50.67813" lon="5.52104">
        <ele>167</ele>
      </trkpt>
      <trkpt lat="50.67792" lon="5.52103">
        <ele>167.2</ele>
      </trkpt>
      <trkpt lat="50.67775" lon="5.52103">
        <ele>167.4</ele>
      </trkpt>
      <trkpt lat="50.67743" lon="5.52106">
        <ele>168</ele>
      </trkpt>
      <trkpt lat="50.67691" lon="5.52107">
        <ele>167.8</ele>
      </trkpt>
      <trkpt lat="50.67674" lon="5.52103">
        <ele>168</ele>
      </trkpt>
      <trkpt lat="50.67657" lon="5.52091">
        <ele>167.8</ele>
      </trkpt>
      <trkpt lat="50.67647" lon="5.52084">
        <ele>168.1</ele>
      </trkpt>
      <trkpt lat="50.67636" lon="5.52068">
        <ele>167.3</ele>
      </trkpt>
      <trkpt lat="50.67625" lon="5.52053">
        <ele>167.3</ele>
      </trkpt>
      <trkpt lat="50.67615" lon="5.5204">
        <ele>156.60000610352</ele>
        <time>2019-03-30T12:19:07.000Z</time>
      </trkpt>
      <trkpt lat="50.67602" lon="5.52041">
        <ele>167.6</ele>
      </trkpt>
      <trkpt lat="50.67593" lon="5.52037">
        <ele>167.6</ele>
      </trkpt>
      <trkpt lat="50.67582" lon="5.52025">
        <ele>168.3</ele>
      </trkpt>
      <trkpt lat="50.67572" lon="5.52015">
        <ele>168.3</ele>
      </trkpt>
      <trkpt lat="50.67551" lon="5.51997">
        <ele>167.7</ele>
      </trkpt>
      <trkpt lat="50.67514" lon="5.51971">
        <ele>167.6</ele>
      </trkpt>
      <trkpt lat="50.67462" lon="5.51942">
        <ele>168.1</ele>
      </trkpt>
      <trkpt lat="50.6741" lon="5.51916">
        <ele>155.39999389648</ele>
        <time>2019-03-30T12:19:43.000Z</time>
      </trkpt>
      <trkpt lat="50.67383" lon="5.51907">
        <ele>169</ele>
      </trkpt>
      <trkpt lat="50.67356" lon="5.51901">
        <ele>156</ele>
        <time>2019-03-30T12:19:51.000Z</time>
      </trkpt>
      <trkpt lat="50.67292" lon="5.51887">
        <ele>156.60000610352</ele>
        <time>2019-03-30T12:20:01.000Z</time>
      </trkpt>
      <trkpt lat="50.67274" lon="5.51883">
        <ele>168.9</ele>
      </trkpt>
      <trkpt lat="50.67272" lon="5.51868">
        <ele>168.7</ele>
      </trkpt>
      <trkpt lat="50.67265" lon="5.51825">
        <ele>167.2</ele>
      </trkpt>
      <trkpt lat="50.67255" lon="5.51766">
        <ele>166.6</ele>
      </trkpt>
      <trkpt lat="50.67243" lon="5.51725">
        <ele>166.3</ele>
      </trkpt>
      <trkpt lat="50.67232" lon="5.51701">
        <ele>166.4</ele>
      </trkpt>
      <trkpt lat="50.67204" lon="5.5163">
        <ele>166.8</ele>
      </trkpt>
      <trkpt lat="50.67191" lon="5.51598">
        <ele>167.1</ele>
      </trkpt>
      <trkpt lat="50.67167" lon="5.51548">
        <ele>167.2</ele>
      </trkpt>
      <trkpt lat="50.67154" lon="5.51518">
        <ele>168.5</ele>
      </trkpt>
      <trkpt lat="50.67151" lon="5.51507">
        <ele>168</ele>
      </trkpt>
      <trkpt lat="50.6715" lon="5.51491">
        <ele>168.5</ele>
      </trkpt>
      <trkpt lat="50.67151" lon="5.51461">
        <ele>169.2</ele>
      </trkpt>
      <trkpt lat="50.67153" lon="5.51407">
        <ele>169.8</ele>
      </trkpt>
      <trkpt lat="50.67154" lon="5.51382">
        <ele>170</ele>
      </trkpt>
      <trkpt lat="50.67152" lon="5.51361">
        <ele>170.3</ele>
      </trkpt>
      <trkpt lat="50.67149" lon="5.51339">
        <ele>170.2</ele>
      </trkpt>
      <trkpt lat="50.67145" lon="5.51297">
        <ele>170.7</ele>
      </trkpt>
      <trkpt lat="50.6714" lon="5.51243">
        <ele>170.9</ele>
      </trkpt>
      <trkpt lat="50.6714" lon="5.51203">
        <ele>170.8</ele>
      </trkpt>
      <trkpt lat="50.67139" lon="5.51182">
        <ele>170.8</ele>
      </trkpt>
      <trkpt lat="50.67126" lon="5.51175">
        <ele>170.7</ele>
      </trkpt>
      <trkpt lat="50.67103" lon="5.51145">
        <ele>170.3</ele>
      </trkpt>
      <trkpt lat="50.6708" lon="5.51111">
        <ele>171.5</ele>
      </trkpt>
      <trkpt lat="50.67054" lon="5.51075">
        <ele>171.8</ele>
      </trkpt>
      <trkpt lat="50.67035" lon="5.51048">
        <ele>172.5</ele>
      </trkpt>
      <trkpt lat="50.66999" lon="5.51003">
        <ele>174.9</ele>
      </trkpt>
      <trkpt lat="50.66981" lon="5.5098">
        <ele>173.8</ele>
      </trkpt>
      <trkpt lat="50.66961" lon="5.50953">
        <ele>173.3</ele>
      </trkpt>
      <trkpt lat="50.66935" lon="5.50912">
        <ele>171.8</ele>
      </trkpt>
      <trkpt lat="50.66911" lon="5.50874">
        <ele>170.5</ele>
      </trkpt>
      <trkpt lat="50.66893" lon="5.5084">
        <ele>170</ele>
      </trkpt>
      <trkpt lat="50.66874" lon="5.50812">
        <ele>168.6</ele>
      </trkpt>
      <trkpt lat="50.66839" lon="5.50774">
        <ele>167.9</ele>
      </trkpt>
      <trkpt lat="50.66808" lon="5.50747">
        <ele>166.9</ele>
      </trkpt>
      <trkpt lat="50.66792" lon="5.50728">
        <ele>166.9</ele>
      </trkpt>
      <trkpt lat="50.66776" lon="5.50709">
        <ele>166.8</ele>
      </trkpt>
      <trkpt lat="50.66735" lon="5.50663">
        <ele>166.7</ele>
      </trkpt>
      <trkpt lat="50.66697" lon="5.50617">
        <ele>167.7</ele>
      </trkpt>
      <trkpt lat="50.66662" lon="5.50582">
        <ele>169.3</ele>
      </trkpt>
      <trkpt lat="50.66639" lon="5.5055">
        <ele>170.7</ele>
      </trkpt>
      <trkpt lat="50.6663" lon="5.50534">
        <ele>171</ele>
      </trkpt>
      <trkpt lat="50.66627" lon="5.50522">
        <ele>171.1</ele>
      </trkpt>
      <trkpt lat="50.66589" lon="5.5046">
        <ele>173</ele>
      </trkpt>
      <trkpt lat="50.66576" lon="5.50439">
        <ele>173.5</ele>
      </trkpt>
      <trkpt lat="50.66562" lon="5.50414">
        <ele>174</ele>
      </trkpt>
      <trkpt lat="50.66544" lon="5.50387">
        <ele>174</ele>
      </trkpt>
      <trkpt lat="50.66516" lon="5.50336">
        <ele>174.5</ele>
      </trkpt>
      <trkpt lat="50.66481" lon="5.50253">
        <ele>175.3</ele>
      </trkpt>
      <trkpt lat="50.66457" lon="5.50199">
        <ele>175.5</ele>
      </trkpt>
      <trkpt lat="50.66452" lon="5.50193">
        <ele>163.39999389648</ele>
        <time>2019-03-30T12:25:16.000Z</time>
      </trkpt>
      <trkpt lat="50.66453" lon="5.50188">
        <ele>163.39999389648</ele>
        <time>2019-03-30T12:25:17.000Z</time>
      </trkpt>
      <trkpt lat="50.66452" lon="5.50177">
        <ele>163.60000610352</ele>
        <time>2019-03-30T12:25:19.000Z</time>
      </trkpt>
      <trkpt lat="50.66447" lon="5.50169">
        <ele>176</ele>
      </trkpt>
      <trkpt lat="50.6644" lon="5.50171">
        <ele>163.80000305176</ele>
        <time>2019-03-30T12:25:22.000Z</time>
      </trkpt>
      <trkpt lat="50.66429" lon="5.50162">
        <ele>176.5</ele>
      </trkpt>
      <trkpt lat="50.66416" lon="5.50154">
        <ele>163.80000305176</ele>
        <time>2019-03-30T12:25:27.000Z</time>
      </trkpt>
      <trkpt lat="50.66407" lon="5.50146">
        <ele>163.80000305176</ele>
        <time>2019-03-30T12:25:29.000Z</time>
      </trkpt>
      <trkpt lat="50.66397" lon="5.50138">
        <ele>163.80000305176</ele>
        <time>2019-03-30T12:25:31.000Z</time>
      </trkpt>
      <trkpt lat="50.66365" lon="5.50113">
        <ele>177</ele>
      </trkpt>
      <trkpt lat="50.66344" lon="5.50096">
        <ele>177</ele>
      </trkpt>
      <trkpt lat="50.66325" lon="5.5008">
        <ele>164.80000305176</ele>
        <time>2019-03-30T12:25:44.000Z</time>
      </trkpt>
      <trkpt lat="50.6632" lon="5.50075">
        <ele>165</ele>
        <time>2019-03-30T12:25:45.000Z</time>
      </trkpt>
      <trkpt lat="50.66301" lon="5.50054">
        <ele>177.2</ele>
      </trkpt>
      <trkpt lat="50.66277" lon="5.50023">
        <ele>177.2</ele>
      </trkpt>
      <trkpt lat="50.66263" lon="5.50004">
        <ele>177.1</ele>
      </trkpt>
      <trkpt lat="50.66235" lon="5.4996">
        <ele>178.8</ele>
      </trkpt>
      <trkpt lat="50.66214" lon="5.49924">
        <ele>179.3</ele>
      </trkpt>
      <trkpt lat="50.66183" lon="5.49852">
        <ele>181</ele>
      </trkpt>
      <trkpt lat="50.66161" lon="5.49804">
        <ele>181.2</ele>
      </trkpt>
      <trkpt lat="50.66145" lon="5.49775">
        <ele>168.19999694824</ele>
        <time>2019-03-30T12:26:25.000Z</time>
      </trkpt>
      <trkpt lat="50.66136" lon="5.4975">
        <ele>168.80000305176</ele>
        <time>2019-03-30T12:26:28.000Z</time>
      </trkpt>
      <trkpt lat="50.66134" lon="5.49738">
        <ele>179.2</ele>
      </trkpt>
      <trkpt lat="50.66126" lon="5.49732">
        <ele>179.1</ele>
      </trkpt>
      <trkpt lat="50.6612" lon="5.49732">
        <ele>179.1</ele>
      </trkpt>
      <trkpt lat="50.66113" lon="5.49736">
        <ele>179.1</ele>
      </trkpt>
      <trkpt lat="50.66082" lon="5.49736">
        <ele>169.80000305176</ele>
        <time>2019-03-30T12:26:37.000Z</time>
      </trkpt>
      <trkpt lat="50.6607" lon="5.49738">
        <ele>170.39999389648</ele>
        <time>2019-03-30T12:26:39.000Z</time>
      </trkpt>
      <trkpt lat="50.6605" lon="5.49745">
        <ele>180</ele>
      </trkpt>
      <trkpt lat="50.66031" lon="5.49757">
        <ele>182.1</ele>
      </trkpt>
      <trkpt lat="50.66018" lon="5.49755">
        <ele>171.39999389648</ele>
        <time>2019-03-30T12:26:47.000Z</time>
      </trkpt>
      <trkpt lat="50.66006" lon="5.4975">
        <ele>182</ele>
      </trkpt>
      <trkpt lat="50.65992" lon="5.49737">
        <ele>181.9</ele>
      </trkpt>
      <trkpt lat="50.65973" lon="5.49707">
        <ele>170.80000305176</ele>
        <time>2019-03-30T12:26:55.000Z</time>
      </trkpt>
      <trkpt lat="50.65967" lon="5.49686">
        <ele>180</ele>
      </trkpt>
      <trkpt lat="50.65963" lon="5.49662">
        <ele>179</ele>
      </trkpt>
      <trkpt lat="50.65961" lon="5.49625">
        <ele>178.7</ele>
      </trkpt>
      <trkpt lat="50.6596" lon="5.49595">
        <ele>178.5</ele>
      </trkpt>
      <trkpt lat="50.65958" lon="5.49561">
        <ele>177.6</ele>
      </trkpt>
      <trkpt lat="50.65958" lon="5.49523">
        <ele>167.39999389648</ele>
        <time>2019-03-30T12:27:11.000Z</time>
      </trkpt>
      <trkpt lat="50.65957" lon="5.4951">
        <ele>167.19999694824</ele>
        <time>2019-03-30T12:27:12.000Z</time>
      </trkpt>
      <trkpt lat="50.65956" lon="5.49442">
        <ele>176.1</ele>
      </trkpt>
      <trkpt lat="50.65954" lon="5.49416">
        <ele>175.6</ele>
      </trkpt>
      <trkpt lat="50.65952" lon="5.49401">
        <ele>175.7</ele>
      </trkpt>
      <trkpt lat="50.65945" lon="5.49377">
        <ele>175.7</ele>
      </trkpt>
      <trkpt lat="50.65939" lon="5.49366">
        <ele>163.80000305176</ele>
        <time>2019-03-30T12:27:23.000Z</time>
      </trkpt>
      <trkpt lat="50.65926" lon="5.49351">
        <ele>163.19999694824</ele>
        <time>2019-03-30T12:27:25.000Z</time>
      </trkpt>
      <trkpt lat="50.65911" lon="5.49344">
        <ele>176.7</ele>
      </trkpt>
      <trkpt lat="50.65894" lon="5.49338">
        <ele>176.5</ele>
      </trkpt>
      <trkpt lat="50.65882" lon="5.49336">
        <ele>176.3</ele>
      </trkpt>
      <trkpt lat="50.65849" lon="5.49326">
        <ele>175</ele>
      </trkpt>
      <trkpt lat="50.65807" lon="5.49311">
        <ele>174.2</ele>
      </trkpt>
      <trkpt lat="50.65763" lon="5.49297">
        <ele>174.2</ele>
      </trkpt>
      <trkpt lat="50.65736" lon="5.49289">
        <ele>175</ele>
      </trkpt>
      <trkpt lat="50.65715" lon="5.49281">
        <ele>175</ele>
      </trkpt>
      <trkpt lat="50.65695" lon="5.49272">
        <ele>175.2</ele>
      </trkpt>
      <trkpt lat="50.65678" lon="5.4926">
        <ele>175.1</ele>
      </trkpt>
      <trkpt lat="50.65656" lon="5.49242">
        <ele>175</ele>
      </trkpt>
      <trkpt lat="50.65634" lon="5.4922">
        <ele>164.39999389648</ele>
        <time>2019-03-30T12:28:08.000Z</time>
      </trkpt>
      <trkpt lat="50.65589" lon="5.49172">
        <ele>174.1</ele>
      </trkpt>
      <trkpt lat="50.6556" lon="5.4914">
        <ele>175.4</ele>
      </trkpt>
      <trkpt lat="50.65551" lon="5.49124">
        <ele>175.6</ele>
      </trkpt>
      <trkpt lat="50.65523" lon="5.49096">
        <ele>165.19999694824</ele>
        <time>2019-03-30T12:28:28.000Z</time>
      </trkpt>
      <trkpt lat="50.65513" lon="5.49084">
        <ele>177</ele>
      </trkpt>
      <trkpt lat="50.655" lon="5.49076">
        <ele>177</ele>
      </trkpt>
      <trkpt lat="50.65479" lon="5.49047">
        <ele>165.60000610352</ele>
        <time>2019-03-30T12:28:36.000Z</time>
      </trkpt>
      <trkpt lat="50.65454" lon="5.49016">
        <ele>178</ele>
      </trkpt>
      <trkpt lat="50.65442" lon="5.48998">
        <ele>178.2</ele>
      </trkpt>
      <trkpt lat="50.65414" lon="5.48953">
        <ele>179.7</ele>
      </trkpt>
      <trkpt lat="50.65393" lon="5.48922">
        <ele>180</ele>
      </trkpt>
      <trkpt lat="50.6537" lon="5.48886">
        <ele>180.8</ele>
      </trkpt>
      <trkpt lat="50.65349" lon="5.48855">
        <ele>181</ele>
      </trkpt>
      <trkpt lat="50.6533" lon="5.48824">
        <ele>181</ele>
      </trkpt>
      <trkpt lat="50.65291" lon="5.48764">
        <ele>181</ele>
      </trkpt>
      <trkpt lat="50.65267" lon="5.48727">
        <ele>180.7</ele>
      </trkpt>
      <trkpt lat="50.65225" lon="5.48661">
        <ele>181.1</ele>
      </trkpt>
      <trkpt lat="50.65209" lon="5.48635">
        <ele>181.2</ele>
      </trkpt>
      <trkpt lat="50.6517" lon="5.48575">
        <ele>181.8</ele>
      </trkpt>
      <trkpt lat="50.65154" lon="5.48551">
        <ele>182.5</ele>
      </trkpt>
      <trkpt lat="50.65117" lon="5.48496">
        <ele>183.5</ele>
      </trkpt>
      <trkpt lat="50.65095" lon="5.48461">
        <ele>183.5</ele>
      </trkpt>
      <trkpt lat="50.65058" lon="5.48409">
        <ele>184.1</ele>
      </trkpt>
      <trkpt lat="50.65033" lon="5.48372">
        <ele>184.8</ele>
      </trkpt>
      <trkpt lat="50.65019" lon="5.48354">
        <ele>185.2</ele>
      </trkpt>
      <trkpt lat="50.64997" lon="5.48335">
        <ele>186</ele>
      </trkpt>
      <trkpt lat="50.6497" lon="5.48312">
        <ele>186.6</ele>
      </trkpt>
      <trkpt lat="50.6495" lon="5.48293">
        <ele>186.8</ele>
      </trkpt>
      <trkpt lat="50.64921" lon="5.48268">
        <ele>187.4</ele>
      </trkpt>
      <trkpt lat="50.64886" lon="5.48235">
        <ele>187.7</ele>
      </trkpt>
      <trkpt lat="50.64864" lon="5.48211">
        <ele>187.7</ele>
      </trkpt>
      <trkpt lat="50.64848" lon="5.48193">
        <ele>187.8</ele>
      </trkpt>
      <trkpt lat="50.6483" lon="5.48171">
        <ele>188</ele>
      </trkpt>
      <trkpt lat="50.64811" lon="5.48149">
        <ele>188.9</ele>
      </trkpt>
      <trkpt lat="50.64783" lon="5.48115">
        <ele>189.4</ele>
      </trkpt>
      <trkpt lat="50.64752" lon="5.4808">
        <ele>189.8</ele>
      </trkpt>
      <trkpt lat="50.64726" lon="5.48049">
        <ele>188.9</ele>
      </trkpt>
      <trkpt lat="50.64694" lon="5.48016">
        <ele>188.3</ele>
      </trkpt>
      <trkpt lat="50.64673" lon="5.47992">
        <ele>186.9</ele>
      </trkpt>
      <trkpt lat="50.64647" lon="5.47962">
        <ele>185.5</ele>
      </trkpt>
      <trkpt lat="50.6461" lon="5.47921">
        <ele>184.8</ele>
      </trkpt>
      <trkpt lat="50.646" lon="5.4791">
        <ele>184.1</ele>
      </trkpt>
      <trkpt lat="50.64589" lon="5.47898">
        <ele>184.1</ele>
      </trkpt>
      <trkpt lat="50.64583" lon="5.47889">
        <ele>183.6</ele>
      </trkpt>
      <trkpt lat="50.64575" lon="5.47874">
        <ele>183.5</ele>
      </trkpt>
      <trkpt lat="50.64562" lon="5.47851">
        <ele>183.3</ele>
      </trkpt>
      <trkpt lat="50.64558" lon="5.47826">
        <ele>182.3</ele>
      </trkpt>
      <trkpt lat="50.64549" lon="5.47778">
        <ele>181.6</ele>
      </trkpt>
      <trkpt lat="50.64544" lon="5.4775">
        <ele>181.3</ele>
      </trkpt>
      <trkpt lat="50.64534" lon="5.47698">
        <ele>178.7</ele>
      </trkpt>
      <trkpt lat="50.64529" lon="5.47666">
        <ele>176.7</ele>
      </trkpt>
      <trkpt lat="50.64522" lon="5.47623">
        <ele>176.5</ele>
      </trkpt>
      <trkpt lat="50.64515" lon="5.47582">
        <ele>175.2</ele>
      </trkpt>
      <trkpt lat="50.64512" lon="5.47549">
        <ele>175.1</ele>
      </trkpt>
      <trkpt lat="50.64513" lon="5.47517">
        <ele>174.7</ele>
      </trkpt>
      <trkpt lat="50.64516" lon="5.47491">
        <ele>164.39999389648</ele>
        <time>2019-03-30T12:32:34.000Z</time>
      </trkpt>
      <trkpt lat="50.64517" lon="5.47461">
        <ele>163.60000610352</ele>
        <time>2019-03-30T12:32:36.000Z</time>
      </trkpt>
      <trkpt lat="50.64516" lon="5.47445">
        <ele>163</ele>
        <time>2019-03-30T12:32:37.000Z</time>
      </trkpt>
      <trkpt lat="50.64514" lon="5.47429">
        <ele>162.80000305176</ele>
        <time>2019-03-30T12:32:38.000Z</time>
      </trkpt>
      <trkpt lat="50.64507" lon="5.47398">
        <ele>171.3</ele>
      </trkpt>
      <trkpt lat="50.645" lon="5.47367">
        <ele>168.6</ele>
      </trkpt>
      <trkpt lat="50.64494" lon="5.47349">
        <ele>160.60000610352</ele>
        <time>2019-03-30T12:32:43.000Z</time>
      </trkpt>
      <trkpt lat="50.64481" lon="5.47316">
        <ele>168.9</ele>
      </trkpt>
      <trkpt lat="50.64467" lon="5.47288">
        <ele>169.2</ele>
      </trkpt>
      <trkpt lat="50.64459" lon="5.47276">
        <ele>158</ele>
        <time>2019-03-30T12:32:48.000Z</time>
      </trkpt>
      <trkpt lat="50.64451" lon="5.47266">
        <ele>169.5</ele>
      </trkpt>
      <trkpt lat="50.64435" lon="5.47253">
        <ele>170</ele>
      </trkpt>
      <trkpt lat="50.6442" lon="5.47245">
        <ele>171.8</ele>
      </trkpt>
      <trkpt lat="50.64402" lon="5.4724">
        <ele>172</ele>
      </trkpt>
      <trkpt lat="50.64384" lon="5.47242">
        <ele>172</ele>
      </trkpt>
      <trkpt lat="50.64356" lon="5.47247">
        <ele>170.8</ele>
      </trkpt>
      <trkpt lat="50.64327" lon="5.47255">
        <ele>166</ele>
      </trkpt>
      <trkpt lat="50.64298" lon="5.47259">
        <ele>162.1</ele>
      </trkpt>
      <trkpt lat="50.64261" lon="5.47256">
        <ele>160.3</ele>
      </trkpt>
      <trkpt lat="50.64233" lon="5.47249">
        <ele>160</ele>
      </trkpt>
      <trkpt lat="50.64211" lon="5.4724">
        <ele>159.5</ele>
      </trkpt>
      <trkpt lat="50.64182" lon="5.47222">
        <ele>158.6</ele>
      </trkpt>
      <trkpt lat="50.64151" lon="5.47202">
        <ele>155.8</ele>
      </trkpt>
      <trkpt lat="50.64131" lon="5.47185">
        <ele>155.9</ele>
      </trkpt>
      <trkpt lat="50.64106" lon="5.47158">
        <ele>158.6</ele>
      </trkpt>
      <trkpt lat="50.6407" lon="5.4712">
        <ele>158.3</ele>
      </trkpt>
      <trkpt lat="50.64049" lon="5.47099">
        <ele>158.4</ele>
      </trkpt>
      <trkpt lat="50.64033" lon="5.47086">
        <ele>158.2</ele>
      </trkpt>
      <trkpt lat="50.64029" lon="5.47111">
        <ele>147.80000305176</ele>
        <time>2019-03-30T12:33:42.000Z</time>
      </trkpt>
      <trkpt lat="50.64027" lon="5.4712">
        <ele>147.80000305176</ele>
        <time>2019-03-30T12:33:43.000Z</time>
      </trkpt>
      <trkpt lat="50.64022" lon="5.47153">
        <ele>147.80000305176</ele>
        <time>2019-03-30T12:33:46.000Z</time>
      </trkpt>
      <trkpt lat="50.64013" lon="5.47204">
        <ele>147.80000305176</ele>
        <time>2019-03-30T12:33:50.000Z</time>
      </trkpt>
      <trkpt lat="50.6401" lon="5.47217">
        <ele>147.60000610352</ele>
        <time>2019-03-30T12:33:51.000Z</time>
      </trkpt>
      <trkpt lat="50.64005" lon="5.47235">
        <ele>150</ele>
      </trkpt>
      <trkpt lat="50.63998" lon="5.47254">
        <ele>147.5</ele>
      </trkpt>
      <trkpt lat="50.63983" lon="5.47295">
        <ele>145</ele>
      </trkpt>
      <trkpt lat="50.6397" lon="5.47325">
        <ele>144.8</ele>
      </trkpt>
      <trkpt lat="50.63956" lon="5.47347">
        <ele>145.3</ele>
      </trkpt>
      <trkpt lat="50.63943" lon="5.4736">
        <ele>145.3</ele>
      </trkpt>
      <trkpt lat="50.63933" lon="5.47372">
        <ele>141.19999694824</ele>
        <time>2019-03-30T12:34:04.000Z</time>
      </trkpt>
      <trkpt lat="50.63915" lon="5.47387">
        <ele>140.19999694824</ele>
        <time>2019-03-30T12:34:06.000Z</time>
      </trkpt>
      <trkpt lat="50.63896" lon="5.47402">
        <ele>138.80000305176</ele>
        <time>2019-03-30T12:34:08.000Z</time>
      </trkpt>
      <trkpt lat="50.63886" lon="5.47409">
        <ele>138.19999694824</ele>
        <time>2019-03-30T12:34:09.000Z</time>
      </trkpt>
      <trkpt lat="50.63876" lon="5.47415">
        <ele>137.60000610352</ele>
        <time>2019-03-30T12:34:10.000Z</time>
      </trkpt>
      <trkpt lat="50.63855" lon="5.47428">
        <ele>136.60000610352</ele>
        <time>2019-03-30T12:34:12.000Z</time>
      </trkpt>
      <trkpt lat="50.63845" lon="5.47434">
        <ele>135.60000610352</ele>
        <time>2019-03-30T12:34:13.000Z</time>
      </trkpt>
      <trkpt lat="50.63823" lon="5.47448">
        <ele>134.60000610352</ele>
        <time>2019-03-30T12:34:15.000Z</time>
      </trkpt>
      <trkpt lat="50.6379" lon="5.47466">
        <ele>133.19999694824</ele>
        <time>2019-03-30T12:34:18.000Z</time>
      </trkpt>
      <trkpt lat="50.63772" lon="5.47474">
        <ele>139.9</ele>
      </trkpt>
      <trkpt lat="50.6376" lon="5.47479">
        <ele>139.6</ele>
      </trkpt>
      <trkpt lat="50.63736" lon="5.47486">
        <ele>135.5</ele>
      </trkpt>
      <trkpt lat="50.63721" lon="5.47492">
        <ele>134.3</ele>
      </trkpt>
      <trkpt lat="50.63708" lon="5.47496">
        <ele>133.4</ele>
      </trkpt>
      <trkpt lat="50.63678" lon="5.47507">
        <ele>134</ele>
      </trkpt>
      <trkpt lat="50.63654" lon="5.47513">
        <ele>130.7</ele>
      </trkpt>
      <trkpt lat="50.63628" lon="5.47517">
        <ele>129.8</ele>
      </trkpt>
      <trkpt lat="50.63608" lon="5.47524">
        <ele>128.9</ele>
      </trkpt>
      <trkpt lat="50.63567" lon="5.47535">
        <ele>119.59999847412</ele>
        <time>2019-03-30T12:34:37.000Z</time>
      </trkpt>
      <trkpt lat="50.63555" lon="5.47539">
        <ele>119</ele>
        <time>2019-03-30T12:34:38.000Z</time>
      </trkpt>
      <trkpt lat="50.63529" lon="5.47545">
        <ele>117.59999847412</ele>
        <time>2019-03-30T12:34:40.000Z</time>
      </trkpt>
      <trkpt lat="50.63508" lon="5.47549">
        <ele>122.9</ele>
      </trkpt>
      <trkpt lat="50.63478" lon="5.47556">
        <ele>119.7</ele>
      </trkpt>
      <trkpt lat="50.63445" lon="5.47564">
        <ele>118.4</ele>
      </trkpt>
      <trkpt lat="50.63426" lon="5.47567">
        <ele>117.8</ele>
      </trkpt>
      <trkpt lat="50.63412" lon="5.47573">
        <ele>115.7</ele>
      </trkpt>
      <trkpt lat="50.63392" lon="5.47582">
        <ele>114.6</ele>
      </trkpt>
      <trkpt lat="50.63374" lon="5.47592">
        <ele>116.9</ele>
      </trkpt>
      <trkpt lat="50.63344" lon="5.47606">
        <ele>115.6</ele>
      </trkpt>
      <trkpt lat="50.63316" lon="5.47622">
        <ele>111.7</ele>
      </trkpt>
      <trkpt lat="50.63294" lon="5.47636">
        <ele>111.3</ele>
      </trkpt>
      <trkpt lat="50.63283" lon="5.4765">
        <ele>110.9</ele>
      </trkpt>
      <trkpt lat="50.63274" lon="5.47659">
        <ele>110.3</ele>
      </trkpt>
      <trkpt lat="50.63253" lon="5.47687">
        <ele>102.19999694824</ele>
        <time>2019-03-30T12:35:05.000Z</time>
      </trkpt>
      <trkpt lat="50.63248" lon="5.47708">
        <ele>108</ele>
      </trkpt>
      <trkpt lat="50.63243" lon="5.47749">
        <ele>108.6</ele>
      </trkpt>
      <trkpt lat="50.63237" lon="5.47789">
        <ele>107.3</ele>
      </trkpt>
      <trkpt lat="50.6323" lon="5.47838">
        <ele>106.6</ele>
      </trkpt>
      <trkpt lat="50.63225" lon="5.47872">
        <ele>105.9</ele>
      </trkpt>
      <trkpt lat="50.63223" lon="5.47887">
        <ele>105.8</ele>
      </trkpt>
      <trkpt lat="50.63218" lon="5.47918">
        <ele>96</ele>
        <time>2019-03-30T12:35:18.000Z</time>
      </trkpt>
      <trkpt lat="50.63212" lon="5.47975">
        <ele>104.5</ele>
      </trkpt>
      <trkpt lat="50.63204" lon="5.48025">
        <ele>103.6</ele>
      </trkpt>
      <trkpt lat="50.63193" lon="5.48086">
        <ele>103.4</ele>
      </trkpt>
      <trkpt lat="50.63182" lon="5.48135">
        <ele>103.7</ele>
      </trkpt>
      <trkpt lat="50.63172" lon="5.48167">
        <ele>101.8</ele>
      </trkpt>
      <trkpt lat="50.63157" lon="5.48213">
        <ele>100.4</ele>
      </trkpt>
      <trkpt lat="50.63144" lon="5.48248">
        <ele>100.4</ele>
      </trkpt>
      <trkpt lat="50.63121" lon="5.48283">
        <ele>100.3</ele>
      </trkpt>
      <trkpt lat="50.63092" lon="5.48324">
        <ele>98.5</ele>
      </trkpt>
      <trkpt lat="50.63074" lon="5.48345">
        <ele>97.6</ele>
      </trkpt>
      <trkpt lat="50.63057" lon="5.48363">
        <ele>98.1</ele>
      </trkpt>
      <trkpt lat="50.63039" lon="5.48377">
        <ele>98.3</ele>
      </trkpt>
      <trkpt lat="50.63026" lon="5.48384">
        <ele>98.2</ele>
      </trkpt>
      <trkpt lat="50.63001" lon="5.48392">
        <ele>98.2</ele>
      </trkpt>
      <trkpt lat="50.62974" lon="5.48399">
        <ele>97</ele>
      </trkpt>
      <trkpt lat="50.62953" lon="5.48407">
        <ele>96.5</ele>
      </trkpt>
      <trkpt lat="50.62923" lon="5.48415">
        <ele>95.4</ele>
      </trkpt>
      <trkpt lat="50.629" lon="5.4843">
        <ele>95.3</ele>
      </trkpt>
      <trkpt lat="50.62889" lon="5.48444">
        <ele>95.4</ele>
      </trkpt>
      <trkpt lat="50.6288" lon="5.48455">
        <ele>95</ele>
      </trkpt>
      <trkpt lat="50.62871" lon="5.48473">
        <ele>95.3</ele>
      </trkpt>
      <trkpt lat="50.62859" lon="5.48496">
        <ele>94.6</ele>
      </trkpt>
      <trkpt lat="50.62839" lon="5.48533">
        <ele>96</ele>
      </trkpt>
      <trkpt lat="50.62814" lon="5.48571">
        <ele>92.2</ele>
      </trkpt>
      <trkpt lat="50.62801" lon="5.48585">
        <ele>91.6</ele>
      </trkpt>
      <trkpt lat="50.62791" lon="5.48595">
        <ele>91.5</ele>
      </trkpt>
      <trkpt lat="50.62783" lon="5.48602">
        <ele>91.4</ele>
      </trkpt>
      <trkpt lat="50.62774" lon="5.48607">
        <ele>91.3</ele>
      </trkpt>
      <trkpt lat="50.62763" lon="5.48615">
        <ele>91.1</ele>
      </trkpt>
      <trkpt lat="50.62742" lon="5.48626">
        <ele>90.5</ele>
      </trkpt>
      <trkpt lat="50.62726" lon="5.48636">
        <ele>90.4</ele>
      </trkpt>
      <trkpt lat="50.62711" lon="5.48645">
        <ele>90.3</ele>
      </trkpt>
      <trkpt lat="50.62691" lon="5.48656">
        <ele>90.1</ele>
      </trkpt>
      <trkpt lat="50.62665" lon="5.48667">
        <ele>89</ele>
      </trkpt>
      <trkpt lat="50.62642" lon="5.4868">
        <ele>88.7</ele>
      </trkpt>
      <trkpt lat="50.62601" lon="5.48706">
        <ele>88.3</ele>
      </trkpt>
      <trkpt lat="50.62567" lon="5.48738">
        <ele>88.2</ele>
      </trkpt>
      <trkpt lat="50.62554" lon="5.48753">
        <ele>87.7</ele>
      </trkpt>
      <trkpt lat="50.62542" lon="5.48776">
        <ele>88.2</ele>
      </trkpt>
      <trkpt lat="50.62531" lon="5.48805">
        <ele>88.4</ele>
      </trkpt>
      <trkpt lat="50.62517" lon="5.48851">
        <ele>89</ele>
      </trkpt>
      <trkpt lat="50.62494" lon="5.48925">
        <ele>88.8</ele>
      </trkpt>
      <trkpt lat="50.62485" lon="5.48949">
        <ele>89.5</ele>
      </trkpt>
      <trkpt lat="50.6247" lon="5.48973">
        <ele>89.5</ele>
      </trkpt>
      <trkpt lat="50.62439" lon="5.49044">
        <ele>74.599998474121</ele>
        <time>2019-03-30T12:37:21.000Z</time>
      </trkpt>
      <trkpt lat="50.62411" lon="5.49113">
        <ele>87.8</ele>
      </trkpt>
      <trkpt lat="50.62403" lon="5.49137">
        <ele>87.3</ele>
      </trkpt>
      <trkpt lat="50.62394" lon="5.49179">
        <ele>84.8</ele>
      </trkpt>
      <trkpt lat="50.62389" lon="5.49216">
        <ele>85</ele>
      </trkpt>
      <trkpt lat="50.62383" lon="5.49244">
        <ele>84.6</ele>
      </trkpt>
      <trkpt lat="50.6237" lon="5.49299">
        <ele>83.5</ele>
      </trkpt>
      <trkpt lat="50.6236" lon="5.49337">
        <ele>84</ele>
      </trkpt>
      <trkpt lat="50.62349" lon="5.4936">
        <ele>83.5</ele>
      </trkpt>
      <trkpt lat="50.62334" lon="5.49392">
        <ele>83</ele>
      </trkpt>
      <trkpt lat="50.6232" lon="5.49413">
        <ele>83.2</ele>
      </trkpt>
      <trkpt lat="50.62287" lon="5.49453">
        <ele>70.400001525879</ele>
        <time>2019-03-30T12:37:55.000Z</time>
      </trkpt>
      <trkpt lat="50.62263" lon="5.49479">
        <ele>82.4</ele>
      </trkpt>
      <trkpt lat="50.62241" lon="5.49507">
        <ele>70</ele>
        <time>2019-03-30T12:38:05.000Z</time>
      </trkpt>
      <trkpt lat="50.62223" lon="5.49528">
        <ele>69.599998474121</ele>
        <time>2019-03-30T12:38:10.000Z</time>
      </trkpt>
      <trkpt lat="50.62192" lon="5.49554">
        <ele>79.8</ele>
      </trkpt>
      <trkpt lat="50.62173" lon="5.49571">
        <ele>79.4</ele>
      </trkpt>
      <trkpt lat="50.62159" lon="5.49567">
        <ele>79.1</ele>
      </trkpt>
      <trkpt lat="50.62146" lon="5.4958">
        <ele>79.1</ele>
      </trkpt>
      <trkpt lat="50.62132" lon="5.49586">
        <ele>79.9</ele>
      </trkpt>
      <trkpt lat="50.6211" lon="5.49592">
        <ele>80</ele>
      </trkpt>
      <trkpt lat="50.62088" lon="5.49596">
        <ele>79.7</ele>
      </trkpt>
      <trkpt lat="50.62073" lon="5.49596">
        <ele>66.199996948242</ele>
        <time>2019-03-30T12:38:48.000Z</time>
      </trkpt>
      <trkpt lat="50.62033" lon="5.496">
        <ele>78.7</ele>
      </trkpt>
      <trkpt lat="50.62024" lon="5.49599">
        <ele>78.6</ele>
      </trkpt>
      <trkpt lat="50.61983" lon="5.49612">
        <ele>76.6</ele>
      </trkpt>
      <trkpt lat="50.61939" lon="5.49659">
        <ele>74.5</ele>
      </trkpt>
      <trkpt lat="50.61916" lon="5.49683">
        <ele>72</ele>
      </trkpt>
      <trkpt lat="50.61894" lon="5.49704">
        <ele>71.6</ele>
      </trkpt>
      <trkpt lat="50.61861" lon="5.49735">
        <ele>71.2</ele>
      </trkpt>
      <trkpt lat="50.6185" lon="5.49748">
        <ele>60.799999237061</ele>
        <time>2019-03-30T12:39:19.000Z</time>
      </trkpt>
      <trkpt lat="50.61832" lon="5.49767">
        <ele>60.400001525879</ele>
        <time>2019-03-30T12:39:22.000Z</time>
      </trkpt>
      <trkpt lat="50.61813" lon="5.49785">
        <ele>69.2</ele>
      </trkpt>
      <trkpt lat="50.61795" lon="5.49797">
        <ele>69</ele>
      </trkpt>
      <trkpt lat="50.61735" lon="5.49833">
        <ele>67.5</ele>
      </trkpt>
      <trkpt lat="50.61716" lon="5.49842">
        <ele>57.799999237061</ele>
        <time>2019-03-30T12:39:40.000Z</time>
      </trkpt>
      <trkpt lat="50.61713" lon="5.49843">
        <ele>57.799999237061</ele>
        <time>2019-03-30T12:39:41.000Z</time>
      </trkpt>
      <trkpt lat="50.61706" lon="5.49846">
        <ele>57.200000762939</ele>
        <time>2019-03-30T12:39:45.000Z</time>
      </trkpt>
      <trkpt lat="50.61704" lon="5.49848">
        <ele>57</ele>
        <time>2019-03-30T12:39:48.000Z</time>
      </trkpt>
      <trkpt lat="50.61698" lon="5.49853">
        <ele>57</ele>
        <time>2019-03-30T12:40:11.000Z</time>
      </trkpt>
      <trkpt lat="50.61696" lon="5.49853">
        <ele>57</ele>
        <time>2019-03-30T12:40:12.000Z</time>
      </trkpt>
      <trkpt lat="50.61681" lon="5.49864">
        <ele>66.1</ele>
      </trkpt>
      <trkpt lat="50.61676" lon="5.49872">
        <ele>66.1</ele>
      </trkpt>
      <trkpt lat="50.61671" lon="5.49879">
        <ele>66.2</ele>
      </trkpt>
      <trkpt lat="50.61659" lon="5.49895">
        <ele>65.4</ele>
      </trkpt>
      <trkpt lat="50.61627" lon="5.49933">
        <ele>65.5</ele>
      </trkpt>
      <trkpt lat="50.61611" lon="5.49954">
        <ele>65</ele>
      </trkpt>
      <trkpt lat="50.61589" lon="5.49979">
        <ele>64.9</ele>
      </trkpt>
      <trkpt lat="50.61568" lon="5.49996">
        <ele>55.200000762939</ele>
        <time>2019-03-30T12:40:38.000Z</time>
      </trkpt>
      <trkpt lat="50.61561" lon="5.50002">
        <ele>55.200000762939</ele>
        <time>2019-03-30T12:40:39.000Z</time>
      </trkpt>
      <trkpt lat="50.61542" lon="5.5002">
        <ele>63.4</ele>
      </trkpt>
      <trkpt lat="50.61528" lon="5.50032">
        <ele>63.4</ele>
      </trkpt>
      <trkpt lat="50.61484" lon="5.50071">
        <ele>63.3</ele>
      </trkpt>
      <trkpt lat="50.61466" lon="5.50094">
        <ele>63.3</ele>
      </trkpt>
      <trkpt lat="50.6139" lon="5.49962">
        <ele>62</ele>
      </trkpt>
      <trkpt lat="50.613" lon="5.49809">
        <ele>61</ele>
      </trkpt>
      <trkpt lat="50.61235" lon="5.49699">
        <ele>65.7</ele>
      </trkpt>
      <trkpt lat="50.61187" lon="5.49624">
        <ele>68</ele>
      </trkpt>
      <trkpt lat="50.6111" lon="5.49506">
        <ele>65</ele>
      </trkpt>
      <trkpt lat="50.60989" lon="5.49325">
        <ele>65.3</ele>
      </trkpt>
      <trkpt lat="50.60916" lon="5.49214">
        <ele>65.5</ele>
      </trkpt>
      <trkpt lat="50.60878" lon="5.49158">
        <ele>65</ele>
      </trkpt>
      <trkpt lat="50.60846" lon="5.49107">
        <ele>65</ele>
      </trkpt>
      <trkpt lat="50.60818" lon="5.49058">
        <ele>66</ele>
      </trkpt>
      <trkpt lat="50.60751" lon="5.48934">
        <ele>64</ele>
      </trkpt>
      <trkpt lat="50.60687" lon="5.48803">
        <ele>64</ele>
      </trkpt>
      <trkpt lat="50.60623" lon="5.48669">
        <ele>64</ele>
      </trkpt>
      <trkpt lat="50.60571" lon="5.4855">
        <ele>65</ele>
      </trkpt>
      <trkpt lat="50.60532" lon="5.4846">
        <ele>66</ele>
      </trkpt>
      <trkpt lat="50.60509" lon="5.48417">
        <ele>66.9</ele>
      </trkpt>
      <trkpt lat="50.60504" lon="5.48401">
        <ele>67</ele>
      </trkpt>
      <trkpt lat="50.60505" lon="5.48384">
        <ele>67.4</ele>
      </trkpt>
      <trkpt lat="50.60501" lon="5.48367">
        <ele>67.6</ele>
      </trkpt>
      <trkpt lat="50.60492" lon="5.48364">
        <ele>67</ele>
      </trkpt>
      <trkpt lat="50.60484" lon="5.48376">
        <ele>66.8</ele>
      </trkpt>
      <trkpt lat="50.60484" lon="5.48393">
        <ele>66.7</ele>
      </trkpt>
      <trkpt lat="50.6045" lon="5.48434">
        <ele>66</ele>
      </trkpt>
      <trkpt lat="50.6042" lon="5.48471">
        <ele>65</ele>
      </trkpt>
      <trkpt lat="50.60402" lon="5.48436">
        <ele>64.7</ele>
      </trkpt>
      <trkpt lat="50.60437" lon="5.48416">
        <ele>65.9</ele>
      </trkpt>
    </trkseg>
  </trk>
</gpx>